<?xml version="1.0" encoding="UTF-8" standalone="no" ?>
<gpx xmlns="http://www.topografix.com/GPX/1/1" xmlns:xsi="http://www.w3.org/2001/XMLSchema-instance" xsi:schemaLocation="http://www.topografix.com/GPX/1/1 http://www.topografix.com/GPX/1/1/gpx.xsd" version="1.1" creator="VisuGPX - https://www.visugpx.com">
  <metadata>
    <name>sORTIE VTT CLUB - 27 Nov 2011</name>
    <desc><![CDATA[sORTIE VTT CLUB - 27 Nov 2011]]></desc>
  </metadata>
  <wpt lat="44.00591" lon="4.31726">
    <ele>183.9</ele>
    <name><![CDATA[Statistiques]]></name>
    <desc><![CDATA[Distance totale: 30,92 km (19,2 mi)
Durée totale: 3:28:41
Durée (déplacement): 2:35:23
Vitesse moyenne: 8,89 km/h (5,5 mi/h)
Vitesse moyenne (déplacement): 11,94 km/h (7,4 mi/h)
Vitesse max: 43,01 km/h (26,7 mi/h)
Altitude min: 162 m (531 pied)
Altitude max: 325 m (1066 pied)
Dénivelé cumulé: 608 m (1996 pied)
Pente max: 7 %
Pente min: -16 %
]]></desc>
  </wpt>
  <trk>
    <name><![CDATA[2011-11-27 09:13]]></name>
    <desc><![CDATA[]]></desc>
    <trkseg>
      <trkpt lat="44.0059" lon="4.31725">
        <ele>197</ele>
        <time>2011-11-27T08:13:13Z</time>
      </trkpt>
      <trkpt lat="44.00587" lon="4.31721">
        <ele>196.3</ele>
        <time>2011-11-27T08:14:14Z</time>
      </trkpt>
      <trkpt lat="44.00583" lon="4.31725">
        <ele>197.1</ele>
        <time>2011-11-27T08:14:55Z</time>
      </trkpt>
      <trkpt lat="44.00578" lon="4.31723">
        <ele>197.4</ele>
        <time>2011-11-27T08:14:59Z</time>
      </trkpt>
      <trkpt lat="44.00574" lon="4.31719">
        <ele>197.5</ele>
        <time>2011-11-27T08:15:04Z</time>
      </trkpt>
      <trkpt lat="44.00574" lon="4.31712">
        <ele>198.6</ele>
        <time>2011-11-27T08:15:08Z</time>
      </trkpt>
      <trkpt lat="44.00573" lon="4.31704">
        <ele>199.2</ele>
        <time>2011-11-27T08:15:11Z</time>
      </trkpt>
      <trkpt lat="44.0057" lon="4.31696">
        <ele>199.8</ele>
        <time>2011-11-27T08:15:14Z</time>
      </trkpt>
      <trkpt lat="44.00568" lon="4.31688">
        <ele>200.4</ele>
        <time>2011-11-27T08:15:17Z</time>
      </trkpt>
      <trkpt lat="44.00567" lon="4.31678">
        <ele>200.9</ele>
        <time>2011-11-27T08:15:20Z</time>
      </trkpt>
      <trkpt lat="44.00566" lon="4.31671">
        <ele>201.1</ele>
        <time>2011-11-27T08:15:22Z</time>
      </trkpt>
      <trkpt lat="44.00564" lon="4.31664">
        <ele>201</ele>
        <time>2011-11-27T08:15:24Z</time>
      </trkpt>
      <trkpt lat="44.00562" lon="4.31656">
        <ele>200.8</ele>
        <time>2011-11-27T08:15:27Z</time>
      </trkpt>
      <trkpt lat="44.00559" lon="4.31649">
        <ele>200.6</ele>
        <time>2011-11-27T08:15:30Z</time>
      </trkpt>
      <trkpt lat="44.00557" lon="4.31641">
        <ele>200.6</ele>
        <time>2011-11-27T08:15:33Z</time>
      </trkpt>
      <trkpt lat="44.00558" lon="4.31632">
        <ele>200.7</ele>
        <time>2011-11-27T08:15:36Z</time>
      </trkpt>
      <trkpt lat="44.0056" lon="4.31624">
        <ele>200.9</ele>
        <time>2011-11-27T08:15:39Z</time>
      </trkpt>
      <trkpt lat="44.00563" lon="4.31618">
        <ele>201.2</ele>
        <time>2011-11-27T08:15:42Z</time>
      </trkpt>
      <trkpt lat="44.00566" lon="4.3161">
        <ele>201.6</ele>
        <time>2011-11-27T08:15:45Z</time>
      </trkpt>
      <trkpt lat="44.00568" lon="4.31603">
        <ele>201.7</ele>
        <time>2011-11-27T08:15:48Z</time>
      </trkpt>
      <trkpt lat="44.00572" lon="4.31595">
        <ele>202</ele>
        <time>2011-11-27T08:15:51Z</time>
      </trkpt>
      <trkpt lat="44.00574" lon="4.3159">
        <ele>202.2</ele>
        <time>2011-11-27T08:15:53Z</time>
      </trkpt>
      <trkpt lat="44.00578" lon="4.31584">
        <ele>202.3</ele>
        <time>2011-11-27T08:15:55Z</time>
      </trkpt>
      <trkpt lat="44.00581" lon="4.31579">
        <ele>202.3</ele>
        <time>2011-11-27T08:15:57Z</time>
      </trkpt>
      <trkpt lat="44.00584" lon="4.31574">
        <ele>202.4</ele>
        <time>2011-11-27T08:15:59Z</time>
      </trkpt>
      <trkpt lat="44.00587" lon="4.31568">
        <ele>202.5</ele>
        <time>2011-11-27T08:16:01Z</time>
      </trkpt>
      <trkpt lat="44.00591" lon="4.31563">
        <ele>202.6</ele>
        <time>2011-11-27T08:16:03Z</time>
      </trkpt>
      <trkpt lat="44.00594" lon="4.31558">
        <ele>202.7</ele>
        <time>2011-11-27T08:16:05Z</time>
      </trkpt>
      <trkpt lat="44.00596" lon="4.31552">
        <ele>202.9</ele>
        <time>2011-11-27T08:16:07Z</time>
      </trkpt>
      <trkpt lat="44.00598" lon="4.31546">
        <ele>203.1</ele>
        <time>2011-11-27T08:16:09Z</time>
      </trkpt>
      <trkpt lat="44.00599" lon="4.31539">
        <ele>203.3</ele>
        <time>2011-11-27T08:16:11Z</time>
      </trkpt>
      <trkpt lat="44.00601" lon="4.31532">
        <ele>203.4</ele>
        <time>2011-11-27T08:16:13Z</time>
      </trkpt>
      <trkpt lat="44.00602" lon="4.31526">
        <ele>203.3</ele>
        <time>2011-11-27T08:16:15Z</time>
      </trkpt>
      <trkpt lat="44.00604" lon="4.31519">
        <ele>203.4</ele>
        <time>2011-11-27T08:16:17Z</time>
      </trkpt>
      <trkpt lat="44.00606" lon="4.31513">
        <ele>203.5</ele>
        <time>2011-11-27T08:16:19Z</time>
      </trkpt>
      <trkpt lat="44.00608" lon="4.31507">
        <ele>203.7</ele>
        <time>2011-11-27T08:16:21Z</time>
      </trkpt>
      <trkpt lat="44.0061" lon="4.31501">
        <ele>203.8</ele>
        <time>2011-11-27T08:16:23Z</time>
      </trkpt>
      <trkpt lat="44.00612" lon="4.31495">
        <ele>203.8</ele>
        <time>2011-11-27T08:16:25Z</time>
      </trkpt>
      <trkpt lat="44.00615" lon="4.3149">
        <ele>203.7</ele>
        <time>2011-11-27T08:16:27Z</time>
      </trkpt>
      <trkpt lat="44.00617" lon="4.31483">
        <ele>203.8</ele>
        <time>2011-11-27T08:16:29Z</time>
      </trkpt>
      <trkpt lat="44.00618" lon="4.31475">
        <ele>204.1</ele>
        <time>2011-11-27T08:16:31Z</time>
      </trkpt>
      <trkpt lat="44.00618" lon="4.31467">
        <ele>204.1</ele>
        <time>2011-11-27T08:16:33Z</time>
      </trkpt>
      <trkpt lat="44.00618" lon="4.31459">
        <ele>204.1</ele>
        <time>2011-11-27T08:16:35Z</time>
      </trkpt>
      <trkpt lat="44.00618" lon="4.31452">
        <ele>204.1</ele>
        <time>2011-11-27T08:16:37Z</time>
      </trkpt>
      <trkpt lat="44.00618" lon="4.31444">
        <ele>204.5</ele>
        <time>2011-11-27T08:16:39Z</time>
      </trkpt>
      <trkpt lat="44.00617" lon="4.31437">
        <ele>204.7</ele>
        <time>2011-11-27T08:16:41Z</time>
      </trkpt>
      <trkpt lat="44.00617" lon="4.3143">
        <ele>204.8</ele>
        <time>2011-11-27T08:16:43Z</time>
      </trkpt>
      <trkpt lat="44.00617" lon="4.31424">
        <ele>205.3</ele>
        <time>2011-11-27T08:16:45Z</time>
      </trkpt>
      <trkpt lat="44.00617" lon="4.31416">
        <ele>205.5</ele>
        <time>2011-11-27T08:16:47Z</time>
      </trkpt>
      <trkpt lat="44.00617" lon="4.31408">
        <ele>205.8</ele>
        <time>2011-11-27T08:16:49Z</time>
      </trkpt>
      <trkpt lat="44.00619" lon="4.314">
        <ele>205.9</ele>
        <time>2011-11-27T08:16:51Z</time>
      </trkpt>
      <trkpt lat="44.00622" lon="4.31395">
        <ele>206</ele>
        <time>2011-11-27T08:16:53Z</time>
      </trkpt>
      <trkpt lat="44.00627" lon="4.31392">
        <ele>206.4</ele>
        <time>2011-11-27T08:16:56Z</time>
      </trkpt>
      <trkpt lat="44.00633" lon="4.31389">
        <ele>207.2</ele>
        <time>2011-11-27T08:16:59Z</time>
      </trkpt>
      <trkpt lat="44.00637" lon="4.31386">
        <ele>207.6</ele>
        <time>2011-11-27T08:17:01Z</time>
      </trkpt>
      <trkpt lat="44.00642" lon="4.31382">
        <ele>207.9</ele>
        <time>2011-11-27T08:17:03Z</time>
      </trkpt>
      <trkpt lat="44.00647" lon="4.31378">
        <ele>208.5</ele>
        <time>2011-11-27T08:17:05Z</time>
      </trkpt>
      <trkpt lat="44.0065" lon="4.31372">
        <ele>208.9</ele>
        <time>2011-11-27T08:17:07Z</time>
      </trkpt>
      <trkpt lat="44.00652" lon="4.31366">
        <ele>209.1</ele>
        <time>2011-11-27T08:17:09Z</time>
      </trkpt>
      <trkpt lat="44.00654" lon="4.31361">
        <ele>209.5</ele>
        <time>2011-11-27T08:17:11Z</time>
      </trkpt>
      <trkpt lat="44.00658" lon="4.31356">
        <ele>209.9</ele>
        <time>2011-11-27T08:17:13Z</time>
      </trkpt>
      <trkpt lat="44.00661" lon="4.31352">
        <ele>210.1</ele>
        <time>2011-11-27T08:17:15Z</time>
      </trkpt>
      <trkpt lat="44.00666" lon="4.31348">
        <ele>210.4</ele>
        <time>2011-11-27T08:17:17Z</time>
      </trkpt>
      <trkpt lat="44.0067" lon="4.31346">
        <ele>210.9</ele>
        <time>2011-11-27T08:17:19Z</time>
      </trkpt>
      <trkpt lat="44.00677" lon="4.31346">
        <ele>211.4</ele>
        <time>2011-11-27T08:17:22Z</time>
      </trkpt>
      <trkpt lat="44.00682" lon="4.31348">
        <ele>211.8</ele>
        <time>2011-11-27T08:17:25Z</time>
      </trkpt>
      <trkpt lat="44.00688" lon="4.3135">
        <ele>212.1</ele>
        <time>2011-11-27T08:17:28Z</time>
      </trkpt>
      <trkpt lat="44.00693" lon="4.31353">
        <ele>212.4</ele>
        <time>2011-11-27T08:17:31Z</time>
      </trkpt>
      <trkpt lat="44.00699" lon="4.31358">
        <ele>212.5</ele>
        <time>2011-11-27T08:17:34Z</time>
      </trkpt>
      <trkpt lat="44.00703" lon="4.31361">
        <ele>212.9</ele>
        <time>2011-11-27T08:17:36Z</time>
      </trkpt>
      <trkpt lat="44.00709" lon="4.31365">
        <ele>213.3</ele>
        <time>2011-11-27T08:17:39Z</time>
      </trkpt>
      <trkpt lat="44.00713" lon="4.31368">
        <ele>213.5</ele>
        <time>2011-11-27T08:17:41Z</time>
      </trkpt>
      <trkpt lat="44.00718" lon="4.3137">
        <ele>213.7</ele>
        <time>2011-11-27T08:17:43Z</time>
      </trkpt>
      <trkpt lat="44.00722" lon="4.31372">
        <ele>213.8</ele>
        <time>2011-11-27T08:17:45Z</time>
      </trkpt>
      <trkpt lat="44.00727" lon="4.31374">
        <ele>213.8</ele>
        <time>2011-11-27T08:17:47Z</time>
      </trkpt>
      <trkpt lat="44.00732" lon="4.31376">
        <ele>214.5</ele>
        <time>2011-11-27T08:17:49Z</time>
      </trkpt>
      <trkpt lat="44.00737" lon="4.31376">
        <ele>215</ele>
        <time>2011-11-27T08:17:51Z</time>
      </trkpt>
      <trkpt lat="44.00742" lon="4.31377">
        <ele>215.3</ele>
        <time>2011-11-27T08:17:53Z</time>
      </trkpt>
      <trkpt lat="44.00748" lon="4.31376">
        <ele>216.1</ele>
        <time>2011-11-27T08:17:56Z</time>
      </trkpt>
      <trkpt lat="44.00753" lon="4.31376">
        <ele>216.5</ele>
        <time>2011-11-27T08:17:58Z</time>
      </trkpt>
      <trkpt lat="44.00758" lon="4.31377">
        <ele>216.6</ele>
        <time>2011-11-27T08:18:00Z</time>
      </trkpt>
      <trkpt lat="44.00762" lon="4.31377">
        <ele>216.7</ele>
        <time>2011-11-27T08:18:02Z</time>
      </trkpt>
      <trkpt lat="44.00767" lon="4.31376">
        <ele>217.1</ele>
        <time>2011-11-27T08:18:04Z</time>
      </trkpt>
      <trkpt lat="44.00772" lon="4.31376">
        <ele>217.4</ele>
        <time>2011-11-27T08:18:06Z</time>
      </trkpt>
      <trkpt lat="44.00778" lon="4.31377">
        <ele>217.8</ele>
        <time>2011-11-27T08:18:08Z</time>
      </trkpt>
      <trkpt lat="44.00783" lon="4.31378">
        <ele>218</ele>
        <time>2011-11-27T08:18:10Z</time>
      </trkpt>
      <trkpt lat="44.00788" lon="4.31382">
        <ele>218.5</ele>
        <time>2011-11-27T08:18:12Z</time>
      </trkpt>
      <trkpt lat="44.00792" lon="4.31385">
        <ele>218.9</ele>
        <time>2011-11-27T08:18:14Z</time>
      </trkpt>
      <trkpt lat="44.00796" lon="4.31388">
        <ele>219.3</ele>
        <time>2011-11-27T08:18:16Z</time>
      </trkpt>
      <trkpt lat="44.008" lon="4.31392">
        <ele>219.3</ele>
        <time>2011-11-27T08:18:18Z</time>
      </trkpt>
      <trkpt lat="44.00806" lon="4.31396">
        <ele>219.8</ele>
        <time>2011-11-27T08:18:21Z</time>
      </trkpt>
      <trkpt lat="44.00811" lon="4.31401">
        <ele>220.2</ele>
        <time>2011-11-27T08:18:24Z</time>
      </trkpt>
      <trkpt lat="44.00816" lon="4.31404">
        <ele>220.5</ele>
        <time>2011-11-27T08:18:26Z</time>
      </trkpt>
      <trkpt lat="44.00821" lon="4.31408">
        <ele>220.7</ele>
        <time>2011-11-27T08:18:28Z</time>
      </trkpt>
      <trkpt lat="44.00826" lon="4.31412">
        <ele>220.6</ele>
        <time>2011-11-27T08:18:30Z</time>
      </trkpt>
      <trkpt lat="44.00832" lon="4.31415">
        <ele>220.6</ele>
        <time>2011-11-27T08:18:32Z</time>
      </trkpt>
      <trkpt lat="44.00838" lon="4.31419">
        <ele>220.3</ele>
        <time>2011-11-27T08:18:34Z</time>
      </trkpt>
      <trkpt lat="44.00844" lon="4.31425">
        <ele>220.2</ele>
        <time>2011-11-27T08:18:36Z</time>
      </trkpt>
      <trkpt lat="44.0085" lon="4.31433">
        <ele>219.9</ele>
        <time>2011-11-27T08:18:38Z</time>
      </trkpt>
      <trkpt lat="44.00852" lon="4.31442">
        <ele>220</ele>
        <time>2011-11-27T08:18:40Z</time>
      </trkpt>
      <trkpt lat="44.00854" lon="4.31452">
        <ele>220</ele>
        <time>2011-11-27T08:18:42Z</time>
      </trkpt>
      <trkpt lat="44.00856" lon="4.31462">
        <ele>219.5</ele>
        <time>2011-11-27T08:18:44Z</time>
      </trkpt>
      <trkpt lat="44.00856" lon="4.31471">
        <ele>219.4</ele>
        <time>2011-11-27T08:18:46Z</time>
      </trkpt>
      <trkpt lat="44.00855" lon="4.3148">
        <ele>219.1</ele>
        <time>2011-11-27T08:18:48Z</time>
      </trkpt>
      <trkpt lat="44.00854" lon="4.31488">
        <ele>218.8</ele>
        <time>2011-11-27T08:18:50Z</time>
      </trkpt>
      <trkpt lat="44.00852" lon="4.31494">
        <ele>218.9</ele>
        <time>2011-11-27T08:18:52Z</time>
      </trkpt>
      <trkpt lat="44.00851" lon="4.31501">
        <ele>218.7</ele>
        <time>2011-11-27T08:18:54Z</time>
      </trkpt>
      <trkpt lat="44.0085" lon="4.31507">
        <ele>218.5</ele>
        <time>2011-11-27T08:18:56Z</time>
      </trkpt>
      <trkpt lat="44.00848" lon="4.31515">
        <ele>218.5</ele>
        <time>2011-11-27T08:18:59Z</time>
      </trkpt>
      <trkpt lat="44.00848" lon="4.31522">
        <ele>219</ele>
        <time>2011-11-27T08:19:02Z</time>
      </trkpt>
      <trkpt lat="44.00848" lon="4.3153">
        <ele>219.1</ele>
        <time>2011-11-27T08:19:05Z</time>
      </trkpt>
      <trkpt lat="44.00848" lon="4.31537">
        <ele>218.8</ele>
        <time>2011-11-27T08:19:08Z</time>
      </trkpt>
      <trkpt lat="44.00848" lon="4.31545">
        <ele>219.4</ele>
        <time>2011-11-27T08:19:12Z</time>
      </trkpt>
      <trkpt lat="44.00848" lon="4.31552">
        <ele>219.5</ele>
        <time>2011-11-27T08:19:17Z</time>
      </trkpt>
      <trkpt lat="44.00848" lon="4.31558">
        <ele>219.3</ele>
        <time>2011-11-27T08:19:24Z</time>
      </trkpt>
      <trkpt lat="44.00847" lon="4.31565">
        <ele>219.8</ele>
        <time>2011-11-27T08:19:28Z</time>
      </trkpt>
      <trkpt lat="44.00847" lon="4.31573">
        <ele>220.3</ele>
        <time>2011-11-27T08:19:32Z</time>
      </trkpt>
      <trkpt lat="44.00846" lon="4.31582">
        <ele>220</ele>
        <time>2011-11-27T08:19:35Z</time>
      </trkpt>
      <trkpt lat="44.00846" lon="4.3159">
        <ele>220.1</ele>
        <time>2011-11-27T08:19:37Z</time>
      </trkpt>
      <trkpt lat="44.00846" lon="4.31596">
        <ele>220.2</ele>
        <time>2011-11-27T08:19:39Z</time>
      </trkpt>
      <trkpt lat="44.00847" lon="4.31605">
        <ele>220.2</ele>
        <time>2011-11-27T08:19:42Z</time>
      </trkpt>
      <trkpt lat="44.00846" lon="4.31612">
        <ele>220.7</ele>
        <time>2011-11-27T08:20:13Z</time>
      </trkpt>
      <trkpt lat="44.00846" lon="4.31619">
        <ele>220.9</ele>
        <time>2011-11-27T08:20:16Z</time>
      </trkpt>
      <trkpt lat="44.00846" lon="4.31626">
        <ele>221.2</ele>
        <time>2011-11-27T08:20:18Z</time>
      </trkpt>
      <trkpt lat="44.00846" lon="4.31636">
        <ele>220.8</ele>
        <time>2011-11-27T08:20:20Z</time>
      </trkpt>
      <trkpt lat="44.00846" lon="4.31643">
        <ele>220.5</ele>
        <time>2011-11-27T08:20:21Z</time>
      </trkpt>
      <trkpt lat="44.00847" lon="4.31651">
        <ele>220.3</ele>
        <time>2011-11-27T08:20:22Z</time>
      </trkpt>
      <trkpt lat="44.00848" lon="4.3166">
        <ele>220</ele>
        <time>2011-11-27T08:20:23Z</time>
      </trkpt>
      <trkpt lat="44.00849" lon="4.31669">
        <ele>219.4</ele>
        <time>2011-11-27T08:20:24Z</time>
      </trkpt>
      <trkpt lat="44.0085" lon="4.31677">
        <ele>219</ele>
        <time>2011-11-27T08:20:25Z</time>
      </trkpt>
      <trkpt lat="44.0085" lon="4.31686">
        <ele>218.6</ele>
        <time>2011-11-27T08:20:26Z</time>
      </trkpt>
      <trkpt lat="44.0085" lon="4.31694">
        <ele>218</ele>
        <time>2011-11-27T08:20:27Z</time>
      </trkpt>
      <trkpt lat="44.0085" lon="4.31701">
        <ele>217.4</ele>
        <time>2011-11-27T08:20:28Z</time>
      </trkpt>
      <trkpt lat="44.0085" lon="4.31709">
        <ele>217.1</ele>
        <time>2011-11-27T08:20:29Z</time>
      </trkpt>
      <trkpt lat="44.00849" lon="4.31717">
        <ele>216.7</ele>
        <time>2011-11-27T08:20:30Z</time>
      </trkpt>
      <trkpt lat="44.00848" lon="4.31724">
        <ele>216.7</ele>
        <time>2011-11-27T08:20:31Z</time>
      </trkpt>
      <trkpt lat="44.00848" lon="4.31731">
        <ele>216.5</ele>
        <time>2011-11-27T08:20:32Z</time>
      </trkpt>
      <trkpt lat="44.00848" lon="4.31738">
        <ele>216.3</ele>
        <time>2011-11-27T08:20:33Z</time>
      </trkpt>
      <trkpt lat="44.00848" lon="4.31749">
        <ele>215.7</ele>
        <time>2011-11-27T08:20:35Z</time>
      </trkpt>
      <trkpt lat="44.00847" lon="4.3176">
        <ele>215.4</ele>
        <time>2011-11-27T08:20:37Z</time>
      </trkpt>
      <trkpt lat="44.00847" lon="4.3177">
        <ele>215.4</ele>
        <time>2011-11-27T08:20:39Z</time>
      </trkpt>
      <trkpt lat="44.00846" lon="4.3178">
        <ele>215.6</ele>
        <time>2011-11-27T08:20:41Z</time>
      </trkpt>
      <trkpt lat="44.00847" lon="4.31789">
        <ele>215.6</ele>
        <time>2011-11-27T08:20:43Z</time>
      </trkpt>
      <trkpt lat="44.00848" lon="4.31796">
        <ele>215.8</ele>
        <time>2011-11-27T08:20:45Z</time>
      </trkpt>
      <trkpt lat="44.00848" lon="4.31804">
        <ele>215.9</ele>
        <time>2011-11-27T08:20:47Z</time>
      </trkpt>
      <trkpt lat="44.00848" lon="4.31811">
        <ele>215.9</ele>
        <time>2011-11-27T08:20:49Z</time>
      </trkpt>
      <trkpt lat="44.0085" lon="4.31817">
        <ele>216.1</ele>
        <time>2011-11-27T08:20:51Z</time>
      </trkpt>
      <trkpt lat="44.00852" lon="4.31822">
        <ele>215.9</ele>
        <time>2011-11-27T08:20:53Z</time>
      </trkpt>
      <trkpt lat="44.00855" lon="4.31828">
        <ele>215.8</ele>
        <time>2011-11-27T08:20:55Z</time>
      </trkpt>
      <trkpt lat="44.00859" lon="4.31833">
        <ele>216.1</ele>
        <time>2011-11-27T08:20:57Z</time>
      </trkpt>
      <trkpt lat="44.00864" lon="4.31837">
        <ele>216.8</ele>
        <time>2011-11-27T08:21:00Z</time>
      </trkpt>
      <trkpt lat="44.00868" lon="4.31837">
        <ele>217.2</ele>
        <time>2011-11-27T08:21:02Z</time>
      </trkpt>
      <trkpt lat="44.00875" lon="4.3184">
        <ele>217.7</ele>
        <time>2011-11-27T08:21:04Z</time>
      </trkpt>
      <trkpt lat="44.00882" lon="4.31843">
        <ele>217.8</ele>
        <time>2011-11-27T08:21:06Z</time>
      </trkpt>
      <trkpt lat="44.00888" lon="4.31844">
        <ele>218.1</ele>
        <time>2011-11-27T08:21:08Z</time>
      </trkpt>
      <trkpt lat="44.00894" lon="4.31844">
        <ele>218.3</ele>
        <time>2011-11-27T08:21:10Z</time>
      </trkpt>
      <trkpt lat="44.009" lon="4.31842">
        <ele>219.5</ele>
        <time>2011-11-27T08:21:12Z</time>
      </trkpt>
      <trkpt lat="44.00905" lon="4.31839">
        <ele>220.2</ele>
        <time>2011-11-27T08:21:14Z</time>
      </trkpt>
      <trkpt lat="44.00911" lon="4.31836">
        <ele>220.6</ele>
        <time>2011-11-27T08:21:16Z</time>
      </trkpt>
      <trkpt lat="44.00917" lon="4.31834">
        <ele>220.8</ele>
        <time>2011-11-27T08:21:18Z</time>
      </trkpt>
      <trkpt lat="44.00922" lon="4.31833">
        <ele>221</ele>
        <time>2011-11-27T08:21:20Z</time>
      </trkpt>
      <trkpt lat="44.00927" lon="4.31831">
        <ele>220.9</ele>
        <time>2011-11-27T08:21:24Z</time>
      </trkpt>
      <trkpt lat="44.00931" lon="4.31826">
        <ele>221.5</ele>
        <time>2011-11-27T08:21:31Z</time>
      </trkpt>
      <trkpt lat="44.00934" lon="4.3182">
        <ele>221.8</ele>
        <time>2011-11-27T08:21:38Z</time>
      </trkpt>
      <trkpt lat="44.00938" lon="4.31817">
        <ele>221.7</ele>
        <time>2011-11-27T08:21:45Z</time>
      </trkpt>
      <trkpt lat="44.00942" lon="4.31813">
        <ele>222.2</ele>
        <time>2011-11-27T08:21:52Z</time>
      </trkpt>
      <trkpt lat="44.00947" lon="4.31811">
        <ele>222.5</ele>
        <time>2011-11-27T08:22:01Z</time>
      </trkpt>
      <trkpt lat="44.00951" lon="4.31808">
        <ele>222.8</ele>
        <time>2011-11-27T08:22:09Z</time>
      </trkpt>
      <trkpt lat="44.00956" lon="4.31806">
        <ele>223.4</ele>
        <time>2011-11-27T08:22:18Z</time>
      </trkpt>
      <trkpt lat="44.00961" lon="4.31803">
        <ele>223.7</ele>
        <time>2011-11-27T08:22:24Z</time>
      </trkpt>
      <trkpt lat="44.00966" lon="4.31799">
        <ele>224.5</ele>
        <time>2011-11-27T08:22:28Z</time>
      </trkpt>
      <trkpt lat="44.0097" lon="4.31795">
        <ele>224.7</ele>
        <time>2011-11-27T08:22:31Z</time>
      </trkpt>
      <trkpt lat="44.00975" lon="4.31793">
        <ele>224.6</ele>
        <time>2011-11-27T08:22:34Z</time>
      </trkpt>
      <trkpt lat="44.0098" lon="4.3179">
        <ele>225</ele>
        <time>2011-11-27T08:22:37Z</time>
      </trkpt>
      <trkpt lat="44.00986" lon="4.31785">
        <ele>225.2</ele>
        <time>2011-11-27T08:22:40Z</time>
      </trkpt>
      <trkpt lat="44.00991" lon="4.3178">
        <ele>225.1</ele>
        <time>2011-11-27T08:22:43Z</time>
      </trkpt>
      <trkpt lat="44.00997" lon="4.31776">
        <ele>224.9</ele>
        <time>2011-11-27T08:22:47Z</time>
      </trkpt>
      <trkpt lat="44.01002" lon="4.31776">
        <ele>224.8</ele>
        <time>2011-11-27T08:22:50Z</time>
      </trkpt>
      <trkpt lat="44.0101" lon="4.31778">
        <ele>224.9</ele>
        <time>2011-11-27T08:22:53Z</time>
      </trkpt>
      <trkpt lat="44.01015" lon="4.31778">
        <ele>225.3</ele>
        <time>2011-11-27T08:22:55Z</time>
      </trkpt>
      <trkpt lat="44.0102" lon="4.31778">
        <ele>225.9</ele>
        <time>2011-11-27T08:22:57Z</time>
      </trkpt>
      <trkpt lat="44.01026" lon="4.31777">
        <ele>226.4</ele>
        <time>2011-11-27T08:22:59Z</time>
      </trkpt>
      <trkpt lat="44.0103" lon="4.31774">
        <ele>227</ele>
        <time>2011-11-27T08:23:01Z</time>
      </trkpt>
      <trkpt lat="44.01036" lon="4.31771">
        <ele>227.5</ele>
        <time>2011-11-27T08:23:03Z</time>
      </trkpt>
      <trkpt lat="44.01041" lon="4.3177">
        <ele>228.2</ele>
        <time>2011-11-27T08:23:05Z</time>
      </trkpt>
      <trkpt lat="44.01046" lon="4.31767">
        <ele>228.8</ele>
        <time>2011-11-27T08:23:07Z</time>
      </trkpt>
      <trkpt lat="44.0105" lon="4.31765">
        <ele>228.9</ele>
        <time>2011-11-27T08:23:09Z</time>
      </trkpt>
      <trkpt lat="44.01056" lon="4.31764">
        <ele>229.1</ele>
        <time>2011-11-27T08:23:11Z</time>
      </trkpt>
      <trkpt lat="44.0106" lon="4.31761">
        <ele>229.6</ele>
        <time>2011-11-27T08:23:13Z</time>
      </trkpt>
      <trkpt lat="44.01065" lon="4.31758">
        <ele>230</ele>
        <time>2011-11-27T08:23:15Z</time>
      </trkpt>
      <trkpt lat="44.01069" lon="4.31755">
        <ele>230.4</ele>
        <time>2011-11-27T08:23:17Z</time>
      </trkpt>
      <trkpt lat="44.01075" lon="4.31751">
        <ele>230.8</ele>
        <time>2011-11-27T08:23:19Z</time>
      </trkpt>
      <trkpt lat="44.01079" lon="4.31748">
        <ele>231.3</ele>
        <time>2011-11-27T08:23:21Z</time>
      </trkpt>
      <trkpt lat="44.01083" lon="4.31744">
        <ele>232</ele>
        <time>2011-11-27T08:23:23Z</time>
      </trkpt>
      <trkpt lat="44.01089" lon="4.31741">
        <ele>232.7</ele>
        <time>2011-11-27T08:23:26Z</time>
      </trkpt>
      <trkpt lat="44.01095" lon="4.31738">
        <ele>233.2</ele>
        <time>2011-11-27T08:23:29Z</time>
      </trkpt>
      <trkpt lat="44.01099" lon="4.31736">
        <ele>233.8</ele>
        <time>2011-11-27T08:23:31Z</time>
      </trkpt>
      <trkpt lat="44.01104" lon="4.31734">
        <ele>234.2</ele>
        <time>2011-11-27T08:23:33Z</time>
      </trkpt>
      <trkpt lat="44.01108" lon="4.31732">
        <ele>234.4</ele>
        <time>2011-11-27T08:23:35Z</time>
      </trkpt>
      <trkpt lat="44.01113" lon="4.31729">
        <ele>234.7</ele>
        <time>2011-11-27T08:23:37Z</time>
      </trkpt>
      <trkpt lat="44.01118" lon="4.31725">
        <ele>235.4</ele>
        <time>2011-11-27T08:23:39Z</time>
      </trkpt>
      <trkpt lat="44.01122" lon="4.3172">
        <ele>235.9</ele>
        <time>2011-11-27T08:23:41Z</time>
      </trkpt>
      <trkpt lat="44.01128" lon="4.31716">
        <ele>236.2</ele>
        <time>2011-11-27T08:23:43Z</time>
      </trkpt>
      <trkpt lat="44.01133" lon="4.31712">
        <ele>236.7</ele>
        <time>2011-11-27T08:23:45Z</time>
      </trkpt>
      <trkpt lat="44.01137" lon="4.31708">
        <ele>237</ele>
        <time>2011-11-27T08:23:47Z</time>
      </trkpt>
      <trkpt lat="44.01141" lon="4.31704">
        <ele>237.7</ele>
        <time>2011-11-27T08:23:49Z</time>
      </trkpt>
      <trkpt lat="44.01144" lon="4.31697">
        <ele>238.4</ele>
        <time>2011-11-27T08:23:51Z</time>
      </trkpt>
      <trkpt lat="44.01147" lon="4.3169">
        <ele>238.8</ele>
        <time>2011-11-27T08:23:53Z</time>
      </trkpt>
      <trkpt lat="44.0115" lon="4.31683">
        <ele>239</ele>
        <time>2011-11-27T08:23:55Z</time>
      </trkpt>
      <trkpt lat="44.01152" lon="4.31676">
        <ele>239.2</ele>
        <time>2011-11-27T08:23:57Z</time>
      </trkpt>
      <trkpt lat="44.01153" lon="4.3167">
        <ele>239.4</ele>
        <time>2011-11-27T08:23:59Z</time>
      </trkpt>
      <trkpt lat="44.01153" lon="4.31662">
        <ele>239.4</ele>
        <time>2011-11-27T08:24:01Z</time>
      </trkpt>
      <trkpt lat="44.01153" lon="4.31655">
        <ele>239.6</ele>
        <time>2011-11-27T08:24:03Z</time>
      </trkpt>
      <trkpt lat="44.01153" lon="4.31648">
        <ele>239.7</ele>
        <time>2011-11-27T08:24:05Z</time>
      </trkpt>
      <trkpt lat="44.01154" lon="4.31642">
        <ele>239.9</ele>
        <time>2011-11-27T08:24:07Z</time>
      </trkpt>
      <trkpt lat="44.01155" lon="4.31636">
        <ele>240</ele>
        <time>2011-11-27T08:24:09Z</time>
      </trkpt>
      <trkpt lat="44.01159" lon="4.3163">
        <ele>240.3</ele>
        <time>2011-11-27T08:24:12Z</time>
      </trkpt>
      <trkpt lat="44.01164" lon="4.3163">
        <ele>241.1</ele>
        <time>2011-11-27T08:24:15Z</time>
      </trkpt>
      <trkpt lat="44.01169" lon="4.31632">
        <ele>241.8</ele>
        <time>2011-11-27T08:24:18Z</time>
      </trkpt>
      <trkpt lat="44.01174" lon="4.31633">
        <ele>242.3</ele>
        <time>2011-11-27T08:24:21Z</time>
      </trkpt>
      <trkpt lat="44.0118" lon="4.31635">
        <ele>243</ele>
        <time>2011-11-27T08:24:24Z</time>
      </trkpt>
      <trkpt lat="44.01186" lon="4.31636">
        <ele>243.4</ele>
        <time>2011-11-27T08:24:27Z</time>
      </trkpt>
      <trkpt lat="44.01192" lon="4.31639">
        <ele>243.8</ele>
        <time>2011-11-27T08:24:30Z</time>
      </trkpt>
      <trkpt lat="44.01197" lon="4.3164">
        <ele>244.2</ele>
        <time>2011-11-27T08:24:32Z</time>
      </trkpt>
      <trkpt lat="44.01202" lon="4.31641">
        <ele>244.5</ele>
        <time>2011-11-27T08:24:34Z</time>
      </trkpt>
      <trkpt lat="44.01207" lon="4.31643">
        <ele>244.6</ele>
        <time>2011-11-27T08:24:37Z</time>
      </trkpt>
      <trkpt lat="44.01212" lon="4.31645">
        <ele>244.3</ele>
        <time>2011-11-27T08:24:40Z</time>
      </trkpt>
      <trkpt lat="44.01217" lon="4.31647">
        <ele>244.9</ele>
        <time>2011-11-27T08:24:43Z</time>
      </trkpt>
      <trkpt lat="44.01221" lon="4.3165">
        <ele>245.6</ele>
        <time>2011-11-27T08:24:46Z</time>
      </trkpt>
      <trkpt lat="44.01225" lon="4.31654">
        <ele>246.2</ele>
        <time>2011-11-27T08:24:50Z</time>
      </trkpt>
      <trkpt lat="44.01228" lon="4.31648">
        <ele>247.5</ele>
        <time>2011-11-27T08:25:01Z</time>
      </trkpt>
      <trkpt lat="44.01232" lon="4.3165">
        <ele>249.5</ele>
        <time>2011-11-27T08:25:21Z</time>
      </trkpt>
      <trkpt lat="44.0123" lon="4.31656">
        <ele>248.5</ele>
        <time>2011-11-27T08:25:50Z</time>
      </trkpt>
      <trkpt lat="44.0123" lon="4.31663">
        <ele>248.3</ele>
        <time>2011-11-27T08:25:53Z</time>
      </trkpt>
      <trkpt lat="44.0123" lon="4.3167">
        <ele>248.5</ele>
        <time>2011-11-27T08:25:56Z</time>
      </trkpt>
      <trkpt lat="44.0123" lon="4.31678">
        <ele>248.3</ele>
        <time>2011-11-27T08:25:59Z</time>
      </trkpt>
      <trkpt lat="44.0123" lon="4.31686">
        <ele>248.1</ele>
        <time>2011-11-27T08:26:02Z</time>
      </trkpt>
      <trkpt lat="44.0123" lon="4.31692">
        <ele>248</ele>
        <time>2011-11-27T08:26:04Z</time>
      </trkpt>
      <trkpt lat="44.0123" lon="4.31699">
        <ele>247.8</ele>
        <time>2011-11-27T08:26:06Z</time>
      </trkpt>
      <trkpt lat="44.0123" lon="4.31706">
        <ele>247.8</ele>
        <time>2011-11-27T08:26:08Z</time>
      </trkpt>
      <trkpt lat="44.0123" lon="4.31714">
        <ele>247.5</ele>
        <time>2011-11-27T08:26:10Z</time>
      </trkpt>
      <trkpt lat="44.01231" lon="4.31722">
        <ele>247.2</ele>
        <time>2011-11-27T08:26:12Z</time>
      </trkpt>
      <trkpt lat="44.01231" lon="4.3173">
        <ele>247.1</ele>
        <time>2011-11-27T08:26:14Z</time>
      </trkpt>
      <trkpt lat="44.01231" lon="4.31739">
        <ele>246.8</ele>
        <time>2011-11-27T08:26:16Z</time>
      </trkpt>
      <trkpt lat="44.01231" lon="4.31747">
        <ele>246.6</ele>
        <time>2011-11-27T08:26:18Z</time>
      </trkpt>
      <trkpt lat="44.01231" lon="4.31756">
        <ele>246.2</ele>
        <time>2011-11-27T08:26:20Z</time>
      </trkpt>
      <trkpt lat="44.01231" lon="4.31765">
        <ele>246.1</ele>
        <time>2011-11-27T08:26:22Z</time>
      </trkpt>
      <trkpt lat="44.01231" lon="4.31774">
        <ele>246</ele>
        <time>2011-11-27T08:26:24Z</time>
      </trkpt>
      <trkpt lat="44.01231" lon="4.31783">
        <ele>246.1</ele>
        <time>2011-11-27T08:26:26Z</time>
      </trkpt>
      <trkpt lat="44.01231" lon="4.31792">
        <ele>246.2</ele>
        <time>2011-11-27T08:26:28Z</time>
      </trkpt>
      <trkpt lat="44.0123" lon="4.31802">
        <ele>246.3</ele>
        <time>2011-11-27T08:26:30Z</time>
      </trkpt>
      <trkpt lat="44.0123" lon="4.31813">
        <ele>246.3</ele>
        <time>2011-11-27T08:26:32Z</time>
      </trkpt>
      <trkpt lat="44.0123" lon="4.31821">
        <ele>246.1</ele>
        <time>2011-11-27T08:26:34Z</time>
      </trkpt>
      <trkpt lat="44.01231" lon="4.3183">
        <ele>246.1</ele>
        <time>2011-11-27T08:26:37Z</time>
      </trkpt>
      <trkpt lat="44.01236" lon="4.31832">
        <ele>247</ele>
        <time>2011-11-27T08:26:41Z</time>
      </trkpt>
      <trkpt lat="44.01241" lon="4.3183">
        <ele>247.4</ele>
        <time>2011-11-27T08:26:44Z</time>
      </trkpt>
      <trkpt lat="44.01246" lon="4.31829">
        <ele>248.5</ele>
        <time>2011-11-27T08:26:47Z</time>
      </trkpt>
      <trkpt lat="44.01252" lon="4.31826">
        <ele>249.2</ele>
        <time>2011-11-27T08:26:50Z</time>
      </trkpt>
      <trkpt lat="44.01258" lon="4.31822">
        <ele>249.4</ele>
        <time>2011-11-27T08:26:53Z</time>
      </trkpt>
      <trkpt lat="44.01263" lon="4.31821">
        <ele>248.8</ele>
        <time>2011-11-27T08:26:55Z</time>
      </trkpt>
      <trkpt lat="44.01269" lon="4.3182">
        <ele>248.8</ele>
        <time>2011-11-27T08:26:57Z</time>
      </trkpt>
      <trkpt lat="44.01276" lon="4.3182">
        <ele>249</ele>
        <time>2011-11-27T08:26:59Z</time>
      </trkpt>
      <trkpt lat="44.01283" lon="4.31819">
        <ele>249.6</ele>
        <time>2011-11-27T08:27:01Z</time>
      </trkpt>
      <trkpt lat="44.01288" lon="4.31818">
        <ele>250</ele>
        <time>2011-11-27T08:27:03Z</time>
      </trkpt>
      <trkpt lat="44.01293" lon="4.31817">
        <ele>250.4</ele>
        <time>2011-11-27T08:27:05Z</time>
      </trkpt>
      <trkpt lat="44.01299" lon="4.31816">
        <ele>250.7</ele>
        <time>2011-11-27T08:27:07Z</time>
      </trkpt>
      <trkpt lat="44.01304" lon="4.31815">
        <ele>250.8</ele>
        <time>2011-11-27T08:27:09Z</time>
      </trkpt>
      <trkpt lat="44.0131" lon="4.31814">
        <ele>250.6</ele>
        <time>2011-11-27T08:27:11Z</time>
      </trkpt>
      <trkpt lat="44.01315" lon="4.31813">
        <ele>250.4</ele>
        <time>2011-11-27T08:27:13Z</time>
      </trkpt>
      <trkpt lat="44.0132" lon="4.31811">
        <ele>250.1</ele>
        <time>2011-11-27T08:27:15Z</time>
      </trkpt>
      <trkpt lat="44.01325" lon="4.31808">
        <ele>249.9</ele>
        <time>2011-11-27T08:27:17Z</time>
      </trkpt>
      <trkpt lat="44.0133" lon="4.31804">
        <ele>249.9</ele>
        <time>2011-11-27T08:27:19Z</time>
      </trkpt>
      <trkpt lat="44.01334" lon="4.318">
        <ele>249.9</ele>
        <time>2011-11-27T08:27:21Z</time>
      </trkpt>
      <trkpt lat="44.01339" lon="4.31796">
        <ele>250.4</ele>
        <time>2011-11-27T08:27:23Z</time>
      </trkpt>
      <trkpt lat="44.01343" lon="4.31792">
        <ele>251</ele>
        <time>2011-11-27T08:27:25Z</time>
      </trkpt>
      <trkpt lat="44.01348" lon="4.3179">
        <ele>251</ele>
        <time>2011-11-27T08:27:27Z</time>
      </trkpt>
      <trkpt lat="44.01353" lon="4.31791">
        <ele>251</ele>
        <time>2011-11-27T08:27:29Z</time>
      </trkpt>
      <trkpt lat="44.01357" lon="4.31796">
        <ele>250.9</ele>
        <time>2011-11-27T08:27:31Z</time>
      </trkpt>
      <trkpt lat="44.01359" lon="4.31803">
        <ele>250.6</ele>
        <time>2011-11-27T08:27:34Z</time>
      </trkpt>
      <trkpt lat="44.01358" lon="4.3181">
        <ele>250.4</ele>
        <time>2011-11-27T08:27:36Z</time>
      </trkpt>
      <trkpt lat="44.01356" lon="4.31818">
        <ele>250.4</ele>
        <time>2011-11-27T08:27:38Z</time>
      </trkpt>
      <trkpt lat="44.01354" lon="4.31826">
        <ele>250.1</ele>
        <time>2011-11-27T08:27:40Z</time>
      </trkpt>
      <trkpt lat="44.01352" lon="4.31835">
        <ele>249.8</ele>
        <time>2011-11-27T08:27:42Z</time>
      </trkpt>
      <trkpt lat="44.01349" lon="4.31844">
        <ele>249.8</ele>
        <time>2011-11-27T08:27:44Z</time>
      </trkpt>
      <trkpt lat="44.01347" lon="4.31854">
        <ele>249.3</ele>
        <time>2011-11-27T08:27:46Z</time>
      </trkpt>
      <trkpt lat="44.01345" lon="4.31865">
        <ele>248.8</ele>
        <time>2011-11-27T08:27:48Z</time>
      </trkpt>
      <trkpt lat="44.01343" lon="4.31876">
        <ele>248.3</ele>
        <time>2011-11-27T08:27:50Z</time>
      </trkpt>
      <trkpt lat="44.01342" lon="4.31888">
        <ele>247.8</ele>
        <time>2011-11-27T08:27:52Z</time>
      </trkpt>
      <trkpt lat="44.0134" lon="4.319">
        <ele>247.1</ele>
        <time>2011-11-27T08:27:54Z</time>
      </trkpt>
      <trkpt lat="44.01338" lon="4.31911">
        <ele>246.5</ele>
        <time>2011-11-27T08:27:56Z</time>
      </trkpt>
      <trkpt lat="44.01335" lon="4.31923">
        <ele>245.8</ele>
        <time>2011-11-27T08:27:58Z</time>
      </trkpt>
      <trkpt lat="44.01333" lon="4.31929">
        <ele>245.4</ele>
        <time>2011-11-27T08:27:59Z</time>
      </trkpt>
      <trkpt lat="44.01331" lon="4.31935">
        <ele>245.2</ele>
        <time>2011-11-27T08:28:00Z</time>
      </trkpt>
      <trkpt lat="44.01329" lon="4.31941">
        <ele>244.8</ele>
        <time>2011-11-27T08:28:01Z</time>
      </trkpt>
      <trkpt lat="44.01326" lon="4.31948">
        <ele>244.4</ele>
        <time>2011-11-27T08:28:02Z</time>
      </trkpt>
      <trkpt lat="44.01322" lon="4.31954">
        <ele>244</ele>
        <time>2011-11-27T08:28:03Z</time>
      </trkpt>
      <trkpt lat="44.01319" lon="4.3196">
        <ele>243.7</ele>
        <time>2011-11-27T08:28:04Z</time>
      </trkpt>
      <trkpt lat="44.01316" lon="4.31967">
        <ele>243.4</ele>
        <time>2011-11-27T08:28:05Z</time>
      </trkpt>
      <trkpt lat="44.01314" lon="4.31974">
        <ele>243.1</ele>
        <time>2011-11-27T08:28:06Z</time>
      </trkpt>
      <trkpt lat="44.01311" lon="4.31982">
        <ele>242.9</ele>
        <time>2011-11-27T08:28:07Z</time>
      </trkpt>
      <trkpt lat="44.01309" lon="4.3199">
        <ele>242.7</ele>
        <time>2011-11-27T08:28:08Z</time>
      </trkpt>
      <trkpt lat="44.01308" lon="4.31998">
        <ele>242.5</ele>
        <time>2011-11-27T08:28:09Z</time>
      </trkpt>
      <trkpt lat="44.01307" lon="4.32006">
        <ele>242.2</ele>
        <time>2011-11-27T08:28:10Z</time>
      </trkpt>
      <trkpt lat="44.01306" lon="4.32014">
        <ele>241.9</ele>
        <time>2011-11-27T08:28:11Z</time>
      </trkpt>
      <trkpt lat="44.01304" lon="4.32023">
        <ele>241.5</ele>
        <time>2011-11-27T08:28:12Z</time>
      </trkpt>
      <trkpt lat="44.01302" lon="4.32031">
        <ele>241</ele>
        <time>2011-11-27T08:28:13Z</time>
      </trkpt>
      <trkpt lat="44.013" lon="4.3204">
        <ele>240.5</ele>
        <time>2011-11-27T08:28:14Z</time>
      </trkpt>
      <trkpt lat="44.01298" lon="4.32048">
        <ele>240.1</ele>
        <time>2011-11-27T08:28:15Z</time>
      </trkpt>
      <trkpt lat="44.01296" lon="4.32057">
        <ele>239.6</ele>
        <time>2011-11-27T08:28:16Z</time>
      </trkpt>
      <trkpt lat="44.01294" lon="4.32066">
        <ele>239.1</ele>
        <time>2011-11-27T08:28:17Z</time>
      </trkpt>
      <trkpt lat="44.01292" lon="4.32074">
        <ele>238.5</ele>
        <time>2011-11-27T08:28:18Z</time>
      </trkpt>
      <trkpt lat="44.01289" lon="4.32083">
        <ele>238</ele>
        <time>2011-11-27T08:28:19Z</time>
      </trkpt>
      <trkpt lat="44.01286" lon="4.32092">
        <ele>237.5</ele>
        <time>2011-11-27T08:28:20Z</time>
      </trkpt>
      <trkpt lat="44.01284" lon="4.321">
        <ele>237</ele>
        <time>2011-11-27T08:28:21Z</time>
      </trkpt>
      <trkpt lat="44.01281" lon="4.32109">
        <ele>236.5</ele>
        <time>2011-11-27T08:28:22Z</time>
      </trkpt>
      <trkpt lat="44.01278" lon="4.32117">
        <ele>236</ele>
        <time>2011-11-27T08:28:23Z</time>
      </trkpt>
      <trkpt lat="44.01275" lon="4.32126">
        <ele>235.7</ele>
        <time>2011-11-27T08:28:24Z</time>
      </trkpt>
      <trkpt lat="44.01273" lon="4.32134">
        <ele>235.2</ele>
        <time>2011-11-27T08:28:25Z</time>
      </trkpt>
      <trkpt lat="44.01271" lon="4.32142">
        <ele>234.7</ele>
        <time>2011-11-27T08:28:26Z</time>
      </trkpt>
      <trkpt lat="44.01268" lon="4.32149">
        <ele>234.1</ele>
        <time>2011-11-27T08:28:27Z</time>
      </trkpt>
      <trkpt lat="44.01266" lon="4.32156">
        <ele>233.7</ele>
        <time>2011-11-27T08:28:28Z</time>
      </trkpt>
      <trkpt lat="44.01263" lon="4.32162">
        <ele>233.4</ele>
        <time>2011-11-27T08:28:29Z</time>
      </trkpt>
      <trkpt lat="44.0126" lon="4.32168">
        <ele>232.9</ele>
        <time>2011-11-27T08:28:30Z</time>
      </trkpt>
      <trkpt lat="44.01256" lon="4.32173">
        <ele>232.6</ele>
        <time>2011-11-27T08:28:31Z</time>
      </trkpt>
      <trkpt lat="44.01251" lon="4.32178">
        <ele>232.2</ele>
        <time>2011-11-27T08:28:32Z</time>
      </trkpt>
      <trkpt lat="44.01246" lon="4.32181">
        <ele>231.9</ele>
        <time>2011-11-27T08:28:33Z</time>
      </trkpt>
      <trkpt lat="44.01242" lon="4.32184">
        <ele>231.5</ele>
        <time>2011-11-27T08:28:34Z</time>
      </trkpt>
      <trkpt lat="44.01238" lon="4.32188">
        <ele>231.1</ele>
        <time>2011-11-27T08:28:35Z</time>
      </trkpt>
      <trkpt lat="44.01232" lon="4.32193">
        <ele>230.3</ele>
        <time>2011-11-27T08:28:37Z</time>
      </trkpt>
      <trkpt lat="44.01228" lon="4.32197">
        <ele>229.2</ele>
        <time>2011-11-27T08:28:40Z</time>
      </trkpt>
      <trkpt lat="44.01233" lon="4.32202">
        <ele>227.6</ele>
        <time>2011-11-27T08:28:59Z</time>
      </trkpt>
      <trkpt lat="44.01236" lon="4.32209">
        <ele>227.6</ele>
        <time>2011-11-27T08:29:01Z</time>
      </trkpt>
      <trkpt lat="44.0124" lon="4.32216">
        <ele>227.6</ele>
        <time>2011-11-27T08:29:03Z</time>
      </trkpt>
      <trkpt lat="44.01243" lon="4.32223">
        <ele>227.6</ele>
        <time>2011-11-27T08:29:05Z</time>
      </trkpt>
      <trkpt lat="44.01246" lon="4.32229">
        <ele>227.8</ele>
        <time>2011-11-27T08:29:07Z</time>
      </trkpt>
      <trkpt lat="44.0125" lon="4.32234">
        <ele>227.6</ele>
        <time>2011-11-27T08:29:09Z</time>
      </trkpt>
      <trkpt lat="44.01253" lon="4.32238">
        <ele>227.6</ele>
        <time>2011-11-27T08:29:11Z</time>
      </trkpt>
      <trkpt lat="44.0127" lon="4.3225">
        <ele>216.5</ele>
        <time>2011-11-27T08:29:18Z</time>
      </trkpt>
      <trkpt lat="44.01265" lon="4.32253">
        <ele>228</ele>
        <time>2011-11-27T08:29:19Z</time>
      </trkpt>
      <trkpt lat="44.0127" lon="4.32251">
        <ele>225.7</ele>
        <time>2011-11-27T08:29:22Z</time>
      </trkpt>
      <trkpt lat="44.01275" lon="4.32255">
        <ele>225.6</ele>
        <time>2011-11-27T08:29:24Z</time>
      </trkpt>
      <trkpt lat="44.01281" lon="4.32258">
        <ele>226.8</ele>
        <time>2011-11-27T08:29:27Z</time>
      </trkpt>
      <trkpt lat="44.01285" lon="4.32262">
        <ele>227.8</ele>
        <time>2011-11-27T08:29:30Z</time>
      </trkpt>
      <trkpt lat="44.01289" lon="4.32267">
        <ele>229.1</ele>
        <time>2011-11-27T08:29:33Z</time>
      </trkpt>
      <trkpt lat="44.01294" lon="4.32271">
        <ele>230.1</ele>
        <time>2011-11-27T08:29:36Z</time>
      </trkpt>
      <trkpt lat="44.01301" lon="4.32274">
        <ele>230.7</ele>
        <time>2011-11-27T08:29:39Z</time>
      </trkpt>
      <trkpt lat="44.01305" lon="4.32277">
        <ele>230.4</ele>
        <time>2011-11-27T08:29:41Z</time>
      </trkpt>
      <trkpt lat="44.01309" lon="4.3228">
        <ele>230.3</ele>
        <time>2011-11-27T08:29:43Z</time>
      </trkpt>
      <trkpt lat="44.01314" lon="4.32282">
        <ele>230.1</ele>
        <time>2011-11-27T08:29:45Z</time>
      </trkpt>
      <trkpt lat="44.01318" lon="4.32286">
        <ele>230.8</ele>
        <time>2011-11-27T08:29:47Z</time>
      </trkpt>
      <trkpt lat="44.01322" lon="4.3229">
        <ele>231.1</ele>
        <time>2011-11-27T08:29:49Z</time>
      </trkpt>
      <trkpt lat="44.01325" lon="4.32295">
        <ele>231.4</ele>
        <time>2011-11-27T08:29:51Z</time>
      </trkpt>
      <trkpt lat="44.01327" lon="4.323">
        <ele>231.7</ele>
        <time>2011-11-27T08:29:53Z</time>
      </trkpt>
      <trkpt lat="44.01329" lon="4.32305">
        <ele>231.8</ele>
        <time>2011-11-27T08:29:55Z</time>
      </trkpt>
      <trkpt lat="44.01331" lon="4.32311">
        <ele>231.8</ele>
        <time>2011-11-27T08:29:57Z</time>
      </trkpt>
      <trkpt lat="44.01333" lon="4.32317">
        <ele>232</ele>
        <time>2011-11-27T08:29:59Z</time>
      </trkpt>
      <trkpt lat="44.01334" lon="4.32323">
        <ele>232.1</ele>
        <time>2011-11-27T08:30:01Z</time>
      </trkpt>
      <trkpt lat="44.01336" lon="4.32331">
        <ele>232.2</ele>
        <time>2011-11-27T08:30:04Z</time>
      </trkpt>
      <trkpt lat="44.01339" lon="4.32339">
        <ele>232.2</ele>
        <time>2011-11-27T08:30:07Z</time>
      </trkpt>
      <trkpt lat="44.01343" lon="4.32346">
        <ele>232.4</ele>
        <time>2011-11-27T08:30:10Z</time>
      </trkpt>
      <trkpt lat="44.01347" lon="4.3235">
        <ele>232.6</ele>
        <time>2011-11-27T08:30:13Z</time>
      </trkpt>
      <trkpt lat="44.01351" lon="4.32354">
        <ele>232.1</ele>
        <time>2011-11-27T08:30:16Z</time>
      </trkpt>
      <trkpt lat="44.01356" lon="4.32356">
        <ele>232</ele>
        <time>2011-11-27T08:30:20Z</time>
      </trkpt>
      <trkpt lat="44.01362" lon="4.32357">
        <ele>232.1</ele>
        <time>2011-11-27T08:30:24Z</time>
      </trkpt>
      <trkpt lat="44.01367" lon="4.32357">
        <ele>232.2</ele>
        <time>2011-11-27T08:30:27Z</time>
      </trkpt>
      <trkpt lat="44.01372" lon="4.32356">
        <ele>231.2</ele>
        <time>2011-11-27T08:30:29Z</time>
      </trkpt>
      <trkpt lat="44.01379" lon="4.32354">
        <ele>230.8</ele>
        <time>2011-11-27T08:30:31Z</time>
      </trkpt>
      <trkpt lat="44.01386" lon="4.32352">
        <ele>230.2</ele>
        <time>2011-11-27T08:30:33Z</time>
      </trkpt>
      <trkpt lat="44.01391" lon="4.3235">
        <ele>229.9</ele>
        <time>2011-11-27T08:30:35Z</time>
      </trkpt>
      <trkpt lat="44.01395" lon="4.32347">
        <ele>229.4</ele>
        <time>2011-11-27T08:30:37Z</time>
      </trkpt>
      <trkpt lat="44.014" lon="4.32343">
        <ele>229</ele>
        <time>2011-11-27T08:30:40Z</time>
      </trkpt>
      <trkpt lat="44.01405" lon="4.32341">
        <ele>228.7</ele>
        <time>2011-11-27T08:30:43Z</time>
      </trkpt>
      <trkpt lat="44.0141" lon="4.32343">
        <ele>227.7</ele>
        <time>2011-11-27T08:30:46Z</time>
      </trkpt>
      <trkpt lat="44.01412" lon="4.32349">
        <ele>227.5</ele>
        <time>2011-11-27T08:30:49Z</time>
      </trkpt>
      <trkpt lat="44.01414" lon="4.32358">
        <ele>227.5</ele>
        <time>2011-11-27T08:30:52Z</time>
      </trkpt>
      <trkpt lat="44.01416" lon="4.32364">
        <ele>227.3</ele>
        <time>2011-11-27T08:30:54Z</time>
      </trkpt>
      <trkpt lat="44.01419" lon="4.32373">
        <ele>227.2</ele>
        <time>2011-11-27T08:30:56Z</time>
      </trkpt>
      <trkpt lat="44.01422" lon="4.3238">
        <ele>227.2</ele>
        <time>2011-11-27T08:30:57Z</time>
      </trkpt>
      <trkpt lat="44.01424" lon="4.32387">
        <ele>227.2</ele>
        <time>2011-11-27T08:30:58Z</time>
      </trkpt>
      <trkpt lat="44.01426" lon="4.32394">
        <ele>227.2</ele>
        <time>2011-11-27T08:30:59Z</time>
      </trkpt>
      <trkpt lat="44.01429" lon="4.32401">
        <ele>227</ele>
        <time>2011-11-27T08:31:00Z</time>
      </trkpt>
      <trkpt lat="44.01431" lon="4.32408">
        <ele>226.8</ele>
        <time>2011-11-27T08:31:01Z</time>
      </trkpt>
      <trkpt lat="44.01433" lon="4.32414">
        <ele>226.5</ele>
        <time>2011-11-27T08:31:02Z</time>
      </trkpt>
      <trkpt lat="44.01434" lon="4.32421">
        <ele>226.2</ele>
        <time>2011-11-27T08:31:03Z</time>
      </trkpt>
      <trkpt lat="44.01437" lon="4.32432">
        <ele>225.6</ele>
        <time>2011-11-27T08:31:05Z</time>
      </trkpt>
      <trkpt lat="44.0144" lon="4.32439">
        <ele>224.7</ele>
        <time>2011-11-27T08:31:07Z</time>
      </trkpt>
      <trkpt lat="44.0144" lon="4.32447">
        <ele>224.6</ele>
        <time>2011-11-27T08:31:09Z</time>
      </trkpt>
      <trkpt lat="44.0144" lon="4.32457">
        <ele>223.3</ele>
        <time>2011-11-27T08:31:11Z</time>
      </trkpt>
      <trkpt lat="44.01438" lon="4.32467">
        <ele>222.8</ele>
        <time>2011-11-27T08:31:13Z</time>
      </trkpt>
      <trkpt lat="44.01437" lon="4.32478">
        <ele>222.3</ele>
        <time>2011-11-27T08:31:15Z</time>
      </trkpt>
      <trkpt lat="44.01436" lon="4.32484">
        <ele>222.1</ele>
        <time>2011-11-27T08:31:16Z</time>
      </trkpt>
      <trkpt lat="44.01435" lon="4.32491">
        <ele>221.7</ele>
        <time>2011-11-27T08:31:17Z</time>
      </trkpt>
      <trkpt lat="44.01435" lon="4.32497">
        <ele>221.3</ele>
        <time>2011-11-27T08:31:18Z</time>
      </trkpt>
      <trkpt lat="44.01434" lon="4.32509">
        <ele>220.9</ele>
        <time>2011-11-27T08:31:20Z</time>
      </trkpt>
      <trkpt lat="44.01431" lon="4.3252">
        <ele>220.7</ele>
        <time>2011-11-27T08:31:22Z</time>
      </trkpt>
      <trkpt lat="44.01428" lon="4.32531">
        <ele>220.2</ele>
        <time>2011-11-27T08:31:24Z</time>
      </trkpt>
      <trkpt lat="44.01426" lon="4.32536">
        <ele>220</ele>
        <time>2011-11-27T08:31:25Z</time>
      </trkpt>
      <trkpt lat="44.01424" lon="4.32542">
        <ele>219.5</ele>
        <time>2011-11-27T08:31:26Z</time>
      </trkpt>
      <trkpt lat="44.01422" lon="4.32548">
        <ele>219.1</ele>
        <time>2011-11-27T08:31:27Z</time>
      </trkpt>
      <trkpt lat="44.0142" lon="4.32555">
        <ele>218.6</ele>
        <time>2011-11-27T08:31:28Z</time>
      </trkpt>
      <trkpt lat="44.01417" lon="4.32562">
        <ele>218.1</ele>
        <time>2011-11-27T08:31:29Z</time>
      </trkpt>
      <trkpt lat="44.01414" lon="4.32568">
        <ele>217.7</ele>
        <time>2011-11-27T08:31:30Z</time>
      </trkpt>
      <trkpt lat="44.0141" lon="4.32576">
        <ele>217.2</ele>
        <time>2011-11-27T08:31:31Z</time>
      </trkpt>
      <trkpt lat="44.01407" lon="4.32583">
        <ele>216.6</ele>
        <time>2011-11-27T08:31:32Z</time>
      </trkpt>
      <trkpt lat="44.01404" lon="4.32589">
        <ele>216.1</ele>
        <time>2011-11-27T08:31:33Z</time>
      </trkpt>
      <trkpt lat="44.01401" lon="4.32595">
        <ele>215.7</ele>
        <time>2011-11-27T08:31:34Z</time>
      </trkpt>
      <trkpt lat="44.01397" lon="4.32601">
        <ele>215.2</ele>
        <time>2011-11-27T08:31:35Z</time>
      </trkpt>
      <trkpt lat="44.01393" lon="4.32607">
        <ele>214.6</ele>
        <time>2011-11-27T08:31:36Z</time>
      </trkpt>
      <trkpt lat="44.01389" lon="4.32614">
        <ele>213.9</ele>
        <time>2011-11-27T08:31:37Z</time>
      </trkpt>
      <trkpt lat="44.01384" lon="4.32621">
        <ele>213.4</ele>
        <time>2011-11-27T08:31:38Z</time>
      </trkpt>
      <trkpt lat="44.01379" lon="4.32629">
        <ele>212.7</ele>
        <time>2011-11-27T08:31:39Z</time>
      </trkpt>
      <trkpt lat="44.01373" lon="4.32636">
        <ele>211.9</ele>
        <time>2011-11-27T08:31:40Z</time>
      </trkpt>
      <trkpt lat="44.01367" lon="4.32642">
        <ele>211.3</ele>
        <time>2011-11-27T08:31:41Z</time>
      </trkpt>
      <trkpt lat="44.01362" lon="4.32648">
        <ele>210.6</ele>
        <time>2011-11-27T08:31:42Z</time>
      </trkpt>
      <trkpt lat="44.01356" lon="4.32655">
        <ele>209.9</ele>
        <time>2011-11-27T08:31:43Z</time>
      </trkpt>
      <trkpt lat="44.01352" lon="4.32662">
        <ele>209.3</ele>
        <time>2011-11-27T08:31:44Z</time>
      </trkpt>
      <trkpt lat="44.01348" lon="4.32669">
        <ele>208.6</ele>
        <time>2011-11-27T08:31:45Z</time>
      </trkpt>
      <trkpt lat="44.01344" lon="4.32675">
        <ele>208.1</ele>
        <time>2011-11-27T08:31:46Z</time>
      </trkpt>
      <trkpt lat="44.0134" lon="4.3268">
        <ele>207.7</ele>
        <time>2011-11-27T08:31:47Z</time>
      </trkpt>
      <trkpt lat="44.01336" lon="4.32687">
        <ele>207.4</ele>
        <time>2011-11-27T08:31:48Z</time>
      </trkpt>
      <trkpt lat="44.01333" lon="4.32693">
        <ele>207.4</ele>
        <time>2011-11-27T08:31:49Z</time>
      </trkpt>
      <trkpt lat="44.01328" lon="4.327">
        <ele>207</ele>
        <time>2011-11-27T08:31:50Z</time>
      </trkpt>
      <trkpt lat="44.01323" lon="4.32706">
        <ele>206.9</ele>
        <time>2011-11-27T08:31:51Z</time>
      </trkpt>
      <trkpt lat="44.01319" lon="4.32712">
        <ele>206.7</ele>
        <time>2011-11-27T08:31:52Z</time>
      </trkpt>
      <trkpt lat="44.01315" lon="4.32718">
        <ele>206.4</ele>
        <time>2011-11-27T08:31:53Z</time>
      </trkpt>
      <trkpt lat="44.01312" lon="4.32723">
        <ele>206.4</ele>
        <time>2011-11-27T08:31:54Z</time>
      </trkpt>
      <trkpt lat="44.01306" lon="4.32729">
        <ele>206.1</ele>
        <time>2011-11-27T08:31:56Z</time>
      </trkpt>
      <trkpt lat="44.01309" lon="4.32723">
        <ele>208.5</ele>
        <time>2011-11-27T08:32:19Z</time>
      </trkpt>
      <trkpt lat="44.01313" lon="4.3272">
        <ele>199.6</ele>
        <time>2011-11-27T08:33:17Z</time>
      </trkpt>
      <trkpt lat="44.01316" lon="4.32724">
        <ele>202</ele>
        <time>2011-11-27T08:33:20Z</time>
      </trkpt>
      <trkpt lat="44.01321" lon="4.32728">
        <ele>203.9</ele>
        <time>2011-11-27T08:33:24Z</time>
      </trkpt>
      <trkpt lat="44.01324" lon="4.32735">
        <ele>204.5</ele>
        <time>2011-11-27T08:33:27Z</time>
      </trkpt>
      <trkpt lat="44.01325" lon="4.32744">
        <ele>207.1</ele>
        <time>2011-11-27T08:33:30Z</time>
      </trkpt>
      <trkpt lat="44.01323" lon="4.32753">
        <ele>208.5</ele>
        <time>2011-11-27T08:33:33Z</time>
      </trkpt>
      <trkpt lat="44.01321" lon="4.3276">
        <ele>209.4</ele>
        <time>2011-11-27T08:33:35Z</time>
      </trkpt>
      <trkpt lat="44.01319" lon="4.32768">
        <ele>210</ele>
        <time>2011-11-27T08:33:37Z</time>
      </trkpt>
      <trkpt lat="44.01318" lon="4.32777">
        <ele>209.5</ele>
        <time>2011-11-27T08:33:39Z</time>
      </trkpt>
      <trkpt lat="44.01318" lon="4.32784">
        <ele>210</ele>
        <time>2011-11-27T08:33:41Z</time>
      </trkpt>
      <trkpt lat="44.0132" lon="4.32792">
        <ele>209.7</ele>
        <time>2011-11-27T08:33:43Z</time>
      </trkpt>
      <trkpt lat="44.01323" lon="4.328">
        <ele>209.2</ele>
        <time>2011-11-27T08:33:45Z</time>
      </trkpt>
      <trkpt lat="44.01326" lon="4.32806">
        <ele>209.1</ele>
        <time>2011-11-27T08:33:47Z</time>
      </trkpt>
      <trkpt lat="44.01328" lon="4.32812">
        <ele>209.6</ele>
        <time>2011-11-27T08:33:49Z</time>
      </trkpt>
      <trkpt lat="44.01331" lon="4.32817">
        <ele>210.5</ele>
        <time>2011-11-27T08:33:51Z</time>
      </trkpt>
      <trkpt lat="44.01335" lon="4.32824">
        <ele>210.8</ele>
        <time>2011-11-27T08:33:54Z</time>
      </trkpt>
      <trkpt lat="44.01339" lon="4.32829">
        <ele>210.8</ele>
        <time>2011-11-27T08:33:57Z</time>
      </trkpt>
      <trkpt lat="44.01344" lon="4.32836">
        <ele>211.4</ele>
        <time>2011-11-27T08:34:01Z</time>
      </trkpt>
      <trkpt lat="44.01348" lon="4.32844">
        <ele>210.6</ele>
        <time>2011-11-27T08:34:03Z</time>
      </trkpt>
      <trkpt lat="44.01353" lon="4.32851">
        <ele>209.8</ele>
        <time>2011-11-27T08:34:05Z</time>
      </trkpt>
      <trkpt lat="44.01356" lon="4.32856">
        <ele>209.4</ele>
        <time>2011-11-27T08:34:06Z</time>
      </trkpt>
      <trkpt lat="44.01359" lon="4.3286">
        <ele>209.7</ele>
        <time>2011-11-27T08:34:07Z</time>
      </trkpt>
      <trkpt lat="44.01363" lon="4.32865">
        <ele>209.9</ele>
        <time>2011-11-27T08:34:08Z</time>
      </trkpt>
      <trkpt lat="44.01366" lon="4.32871">
        <ele>209.9</ele>
        <time>2011-11-27T08:34:09Z</time>
      </trkpt>
      <trkpt lat="44.01369" lon="4.32877">
        <ele>209.9</ele>
        <time>2011-11-27T08:34:10Z</time>
      </trkpt>
      <trkpt lat="44.01372" lon="4.32882">
        <ele>209.9</ele>
        <time>2011-11-27T08:34:11Z</time>
      </trkpt>
      <trkpt lat="44.01374" lon="4.32888">
        <ele>209.6</ele>
        <time>2011-11-27T08:34:12Z</time>
      </trkpt>
      <trkpt lat="44.01377" lon="4.32893">
        <ele>209.4</ele>
        <time>2011-11-27T08:34:13Z</time>
      </trkpt>
      <trkpt lat="44.01379" lon="4.32899">
        <ele>209.2</ele>
        <time>2011-11-27T08:34:14Z</time>
      </trkpt>
      <trkpt lat="44.01381" lon="4.32904">
        <ele>209</ele>
        <time>2011-11-27T08:34:15Z</time>
      </trkpt>
      <trkpt lat="44.01384" lon="4.32909">
        <ele>208.7</ele>
        <time>2011-11-27T08:34:16Z</time>
      </trkpt>
      <trkpt lat="44.01389" lon="4.32919">
        <ele>208.4</ele>
        <time>2011-11-27T08:34:18Z</time>
      </trkpt>
      <trkpt lat="44.01392" lon="4.32924">
        <ele>208.1</ele>
        <time>2011-11-27T08:34:19Z</time>
      </trkpt>
      <trkpt lat="44.01396" lon="4.3293">
        <ele>206</ele>
        <time>2011-11-27T08:34:20Z</time>
      </trkpt>
      <trkpt lat="44.01399" lon="4.32935">
        <ele>204.6</ele>
        <time>2011-11-27T08:34:21Z</time>
      </trkpt>
      <trkpt lat="44.01403" lon="4.32939">
        <ele>204</ele>
        <time>2011-11-27T08:34:22Z</time>
      </trkpt>
      <trkpt lat="44.01407" lon="4.32943">
        <ele>203.3</ele>
        <time>2011-11-27T08:34:23Z</time>
      </trkpt>
      <trkpt lat="44.01412" lon="4.32947">
        <ele>202.7</ele>
        <time>2011-11-27T08:34:24Z</time>
      </trkpt>
      <trkpt lat="44.01416" lon="4.32951">
        <ele>202.5</ele>
        <time>2011-11-27T08:34:25Z</time>
      </trkpt>
      <trkpt lat="44.01421" lon="4.32954">
        <ele>202</ele>
        <time>2011-11-27T08:34:26Z</time>
      </trkpt>
      <trkpt lat="44.01426" lon="4.32958">
        <ele>201.4</ele>
        <time>2011-11-27T08:34:27Z</time>
      </trkpt>
      <trkpt lat="44.0143" lon="4.32961">
        <ele>201.3</ele>
        <time>2011-11-27T08:34:28Z</time>
      </trkpt>
      <trkpt lat="44.01435" lon="4.32964">
        <ele>201</ele>
        <time>2011-11-27T08:34:29Z</time>
      </trkpt>
      <trkpt lat="44.0144" lon="4.32967">
        <ele>200.7</ele>
        <time>2011-11-27T08:34:30Z</time>
      </trkpt>
      <trkpt lat="44.01445" lon="4.3297">
        <ele>200.3</ele>
        <time>2011-11-27T08:34:31Z</time>
      </trkpt>
      <trkpt lat="44.01449" lon="4.32974">
        <ele>200</ele>
        <time>2011-11-27T08:34:32Z</time>
      </trkpt>
      <trkpt lat="44.01453" lon="4.32978">
        <ele>199.7</ele>
        <time>2011-11-27T08:34:33Z</time>
      </trkpt>
      <trkpt lat="44.01456" lon="4.32984">
        <ele>199.8</ele>
        <time>2011-11-27T08:34:34Z</time>
      </trkpt>
      <trkpt lat="44.0146" lon="4.32989">
        <ele>199.5</ele>
        <time>2011-11-27T08:34:35Z</time>
      </trkpt>
      <trkpt lat="44.01463" lon="4.32995">
        <ele>199.4</ele>
        <time>2011-11-27T08:34:36Z</time>
      </trkpt>
      <trkpt lat="44.01466" lon="4.33">
        <ele>199.5</ele>
        <time>2011-11-27T08:34:37Z</time>
      </trkpt>
      <trkpt lat="44.0147" lon="4.33006">
        <ele>199.3</ele>
        <time>2011-11-27T08:34:38Z</time>
      </trkpt>
      <trkpt lat="44.01473" lon="4.33012">
        <ele>199.3</ele>
        <time>2011-11-27T08:34:39Z</time>
      </trkpt>
      <trkpt lat="44.01476" lon="4.33018">
        <ele>199.3</ele>
        <time>2011-11-27T08:34:40Z</time>
      </trkpt>
      <trkpt lat="44.0148" lon="4.33024">
        <ele>199.1</ele>
        <time>2011-11-27T08:34:41Z</time>
      </trkpt>
      <trkpt lat="44.01484" lon="4.33029">
        <ele>198.9</ele>
        <time>2011-11-27T08:34:42Z</time>
      </trkpt>
      <trkpt lat="44.01488" lon="4.33034">
        <ele>198.4</ele>
        <time>2011-11-27T08:34:43Z</time>
      </trkpt>
      <trkpt lat="44.01492" lon="4.33038">
        <ele>198</ele>
        <time>2011-11-27T08:34:44Z</time>
      </trkpt>
      <trkpt lat="44.01497" lon="4.33041">
        <ele>197.8</ele>
        <time>2011-11-27T08:34:45Z</time>
      </trkpt>
      <trkpt lat="44.01501" lon="4.33044">
        <ele>197.7</ele>
        <time>2011-11-27T08:34:46Z</time>
      </trkpt>
      <trkpt lat="44.01505" lon="4.33047">
        <ele>197.6</ele>
        <time>2011-11-27T08:34:47Z</time>
      </trkpt>
      <trkpt lat="44.0151" lon="4.33048">
        <ele>197.5</ele>
        <time>2011-11-27T08:34:48Z</time>
      </trkpt>
      <trkpt lat="44.01518" lon="4.33049">
        <ele>197</ele>
        <time>2011-11-27T08:34:50Z</time>
      </trkpt>
      <trkpt lat="44.01523" lon="4.33049">
        <ele>196.7</ele>
        <time>2011-11-27T08:34:51Z</time>
      </trkpt>
      <trkpt lat="44.01528" lon="4.33047">
        <ele>196.6</ele>
        <time>2011-11-27T08:34:52Z</time>
      </trkpt>
      <trkpt lat="44.01532" lon="4.33044">
        <ele>196.6</ele>
        <time>2011-11-27T08:34:53Z</time>
      </trkpt>
      <trkpt lat="44.01536" lon="4.3304">
        <ele>196.7</ele>
        <time>2011-11-27T08:34:54Z</time>
      </trkpt>
      <trkpt lat="44.0154" lon="4.33036">
        <ele>196.6</ele>
        <time>2011-11-27T08:34:55Z</time>
      </trkpt>
      <trkpt lat="44.01545" lon="4.33032">
        <ele>196.3</ele>
        <time>2011-11-27T08:34:56Z</time>
      </trkpt>
      <trkpt lat="44.0155" lon="4.33028">
        <ele>196.3</ele>
        <time>2011-11-27T08:34:57Z</time>
      </trkpt>
      <trkpt lat="44.01554" lon="4.33024">
        <ele>196</ele>
        <time>2011-11-27T08:34:58Z</time>
      </trkpt>
      <trkpt lat="44.01558" lon="4.33019">
        <ele>195.9</ele>
        <time>2011-11-27T08:34:59Z</time>
      </trkpt>
      <trkpt lat="44.01563" lon="4.33014">
        <ele>195.6</ele>
        <time>2011-11-27T08:35:00Z</time>
      </trkpt>
      <trkpt lat="44.01568" lon="4.33009">
        <ele>195.4</ele>
        <time>2011-11-27T08:35:01Z</time>
      </trkpt>
      <trkpt lat="44.01572" lon="4.33004">
        <ele>195.2</ele>
        <time>2011-11-27T08:35:02Z</time>
      </trkpt>
      <trkpt lat="44.01576" lon="4.32999">
        <ele>195</ele>
        <time>2011-11-27T08:35:03Z</time>
      </trkpt>
      <trkpt lat="44.01581" lon="4.32994">
        <ele>194.8</ele>
        <time>2011-11-27T08:35:04Z</time>
      </trkpt>
      <trkpt lat="44.01586" lon="4.32989">
        <ele>194.5</ele>
        <time>2011-11-27T08:35:05Z</time>
      </trkpt>
      <trkpt lat="44.0159" lon="4.32983">
        <ele>194.1</ele>
        <time>2011-11-27T08:35:06Z</time>
      </trkpt>
      <trkpt lat="44.01595" lon="4.32978">
        <ele>193.9</ele>
        <time>2011-11-27T08:35:07Z</time>
      </trkpt>
      <trkpt lat="44.01599" lon="4.32972">
        <ele>193.4</ele>
        <time>2011-11-27T08:35:08Z</time>
      </trkpt>
      <trkpt lat="44.01603" lon="4.32965">
        <ele>192.9</ele>
        <time>2011-11-27T08:35:09Z</time>
      </trkpt>
      <trkpt lat="44.01608" lon="4.32959">
        <ele>192.3</ele>
        <time>2011-11-27T08:35:10Z</time>
      </trkpt>
      <trkpt lat="44.01612" lon="4.32953">
        <ele>191.8</ele>
        <time>2011-11-27T08:35:11Z</time>
      </trkpt>
      <trkpt lat="44.01616" lon="4.32947">
        <ele>191.4</ele>
        <time>2011-11-27T08:35:12Z</time>
      </trkpt>
      <trkpt lat="44.0162" lon="4.3294">
        <ele>191</ele>
        <time>2011-11-27T08:35:13Z</time>
      </trkpt>
      <trkpt lat="44.01623" lon="4.32934">
        <ele>190.8</ele>
        <time>2011-11-27T08:35:14Z</time>
      </trkpt>
      <trkpt lat="44.01626" lon="4.32928">
        <ele>190.3</ele>
        <time>2011-11-27T08:35:15Z</time>
      </trkpt>
      <trkpt lat="44.01628" lon="4.3292">
        <ele>189.8</ele>
        <time>2011-11-27T08:35:16Z</time>
      </trkpt>
      <trkpt lat="44.0163" lon="4.32912">
        <ele>189.1</ele>
        <time>2011-11-27T08:35:17Z</time>
      </trkpt>
      <trkpt lat="44.01631" lon="4.32903">
        <ele>188.6</ele>
        <time>2011-11-27T08:35:18Z</time>
      </trkpt>
      <trkpt lat="44.01632" lon="4.32895">
        <ele>188.3</ele>
        <time>2011-11-27T08:35:19Z</time>
      </trkpt>
      <trkpt lat="44.01634" lon="4.32888">
        <ele>188.1</ele>
        <time>2011-11-27T08:35:20Z</time>
      </trkpt>
      <trkpt lat="44.01636" lon="4.3288">
        <ele>187.9</ele>
        <time>2011-11-27T08:35:21Z</time>
      </trkpt>
      <trkpt lat="44.01637" lon="4.32872">
        <ele>187.7</ele>
        <time>2011-11-27T08:35:22Z</time>
      </trkpt>
      <trkpt lat="44.01639" lon="4.32864">
        <ele>187.5</ele>
        <time>2011-11-27T08:35:23Z</time>
      </trkpt>
      <trkpt lat="44.01641" lon="4.32856">
        <ele>187.3</ele>
        <time>2011-11-27T08:35:24Z</time>
      </trkpt>
      <trkpt lat="44.01642" lon="4.32848">
        <ele>187.2</ele>
        <time>2011-11-27T08:35:25Z</time>
      </trkpt>
      <trkpt lat="44.01644" lon="4.3284">
        <ele>186.9</ele>
        <time>2011-11-27T08:35:26Z</time>
      </trkpt>
      <trkpt lat="44.01646" lon="4.32832">
        <ele>186.5</ele>
        <time>2011-11-27T08:35:27Z</time>
      </trkpt>
      <trkpt lat="44.01648" lon="4.32824">
        <ele>185.9</ele>
        <time>2011-11-27T08:35:28Z</time>
      </trkpt>
      <trkpt lat="44.0165" lon="4.32816">
        <ele>185.4</ele>
        <time>2011-11-27T08:35:29Z</time>
      </trkpt>
      <trkpt lat="44.01653" lon="4.32808">
        <ele>185</ele>
        <time>2011-11-27T08:35:30Z</time>
      </trkpt>
      <trkpt lat="44.01656" lon="4.32801">
        <ele>184.4</ele>
        <time>2011-11-27T08:35:31Z</time>
      </trkpt>
      <trkpt lat="44.0166" lon="4.32795">
        <ele>184.1</ele>
        <time>2011-11-27T08:35:32Z</time>
      </trkpt>
      <trkpt lat="44.01663" lon="4.32789">
        <ele>184</ele>
        <time>2011-11-27T08:35:33Z</time>
      </trkpt>
      <trkpt lat="44.01666" lon="4.32784">
        <ele>183.9</ele>
        <time>2011-11-27T08:35:34Z</time>
      </trkpt>
      <trkpt lat="44.0167" lon="4.3278">
        <ele>183.9</ele>
        <time>2011-11-27T08:35:35Z</time>
      </trkpt>
      <trkpt lat="44.01675" lon="4.32778">
        <ele>184</ele>
        <time>2011-11-27T08:35:36Z</time>
      </trkpt>
      <trkpt lat="44.01679" lon="4.32777">
        <ele>184</ele>
        <time>2011-11-27T08:35:37Z</time>
      </trkpt>
      <trkpt lat="44.01688" lon="4.32776">
        <ele>183.9</ele>
        <time>2011-11-27T08:35:39Z</time>
      </trkpt>
      <trkpt lat="44.01693" lon="4.32776">
        <ele>184.1</ele>
        <time>2011-11-27T08:35:40Z</time>
      </trkpt>
      <trkpt lat="44.01699" lon="4.32777">
        <ele>184.1</ele>
        <time>2011-11-27T08:35:41Z</time>
      </trkpt>
      <trkpt lat="44.01705" lon="4.32779">
        <ele>184.1</ele>
        <time>2011-11-27T08:35:42Z</time>
      </trkpt>
      <trkpt lat="44.01711" lon="4.3278">
        <ele>183.9</ele>
        <time>2011-11-27T08:35:43Z</time>
      </trkpt>
      <trkpt lat="44.01717" lon="4.32781">
        <ele>183.6</ele>
        <time>2011-11-27T08:35:44Z</time>
      </trkpt>
      <trkpt lat="44.01722" lon="4.32781">
        <ele>183.4</ele>
        <time>2011-11-27T08:35:45Z</time>
      </trkpt>
      <trkpt lat="44.01729" lon="4.32781">
        <ele>183.1</ele>
        <time>2011-11-27T08:35:46Z</time>
      </trkpt>
      <trkpt lat="44.01735" lon="4.3278">
        <ele>182.9</ele>
        <time>2011-11-27T08:35:47Z</time>
      </trkpt>
      <trkpt lat="44.01742" lon="4.32779">
        <ele>182.5</ele>
        <time>2011-11-27T08:35:48Z</time>
      </trkpt>
      <trkpt lat="44.01748" lon="4.32777">
        <ele>182.2</ele>
        <time>2011-11-27T08:35:49Z</time>
      </trkpt>
      <trkpt lat="44.01754" lon="4.32774">
        <ele>182.2</ele>
        <time>2011-11-27T08:35:50Z</time>
      </trkpt>
      <trkpt lat="44.01758" lon="4.32769">
        <ele>182.2</ele>
        <time>2011-11-27T08:35:51Z</time>
      </trkpt>
      <trkpt lat="44.01762" lon="4.32764">
        <ele>181.9</ele>
        <time>2011-11-27T08:35:52Z</time>
      </trkpt>
      <trkpt lat="44.01767" lon="4.3276">
        <ele>181.6</ele>
        <time>2011-11-27T08:35:53Z</time>
      </trkpt>
      <trkpt lat="44.01771" lon="4.32754">
        <ele>181.2</ele>
        <time>2011-11-27T08:35:54Z</time>
      </trkpt>
      <trkpt lat="44.01774" lon="4.32748">
        <ele>180.9</ele>
        <time>2011-11-27T08:35:55Z</time>
      </trkpt>
      <trkpt lat="44.01777" lon="4.32742">
        <ele>180.6</ele>
        <time>2011-11-27T08:35:56Z</time>
      </trkpt>
      <trkpt lat="44.0178" lon="4.32737">
        <ele>180.4</ele>
        <time>2011-11-27T08:35:57Z</time>
      </trkpt>
      <trkpt lat="44.01783" lon="4.32731">
        <ele>180.1</ele>
        <time>2011-11-27T08:35:58Z</time>
      </trkpt>
      <trkpt lat="44.01786" lon="4.32726">
        <ele>179.8</ele>
        <time>2011-11-27T08:35:59Z</time>
      </trkpt>
      <trkpt lat="44.01789" lon="4.3272">
        <ele>179.7</ele>
        <time>2011-11-27T08:36:00Z</time>
      </trkpt>
      <trkpt lat="44.01792" lon="4.32714">
        <ele>179.5</ele>
        <time>2011-11-27T08:36:01Z</time>
      </trkpt>
      <trkpt lat="44.01795" lon="4.32708">
        <ele>179.4</ele>
        <time>2011-11-27T08:36:02Z</time>
      </trkpt>
      <trkpt lat="44.01797" lon="4.32701">
        <ele>179.3</ele>
        <time>2011-11-27T08:36:03Z</time>
      </trkpt>
      <trkpt lat="44.01799" lon="4.32694">
        <ele>179.3</ele>
        <time>2011-11-27T08:36:04Z</time>
      </trkpt>
      <trkpt lat="44.01801" lon="4.32687">
        <ele>179.2</ele>
        <time>2011-11-27T08:36:05Z</time>
      </trkpt>
      <trkpt lat="44.01803" lon="4.32679">
        <ele>179</ele>
        <time>2011-11-27T08:36:06Z</time>
      </trkpt>
      <trkpt lat="44.01804" lon="4.32672">
        <ele>178.9</ele>
        <time>2011-11-27T08:36:07Z</time>
      </trkpt>
      <trkpt lat="44.01806" lon="4.32666">
        <ele>178.6</ele>
        <time>2011-11-27T08:36:08Z</time>
      </trkpt>
      <trkpt lat="44.01808" lon="4.32659">
        <ele>178.5</ele>
        <time>2011-11-27T08:36:09Z</time>
      </trkpt>
      <trkpt lat="44.01811" lon="4.32652">
        <ele>178.3</ele>
        <time>2011-11-27T08:36:10Z</time>
      </trkpt>
      <trkpt lat="44.01813" lon="4.32646">
        <ele>178.2</ele>
        <time>2011-11-27T08:36:11Z</time>
      </trkpt>
      <trkpt lat="44.01816" lon="4.32641">
        <ele>178.1</ele>
        <time>2011-11-27T08:36:12Z</time>
      </trkpt>
      <trkpt lat="44.01819" lon="4.32635">
        <ele>177.9</ele>
        <time>2011-11-27T08:36:13Z</time>
      </trkpt>
      <trkpt lat="44.01821" lon="4.32628">
        <ele>177.3</ele>
        <time>2011-11-27T08:36:14Z</time>
      </trkpt>
      <trkpt lat="44.01823" lon="4.32622">
        <ele>176.8</ele>
        <time>2011-11-27T08:36:15Z</time>
      </trkpt>
      <trkpt lat="44.01825" lon="4.32615">
        <ele>176.4</ele>
        <time>2011-11-27T08:36:16Z</time>
      </trkpt>
      <trkpt lat="44.01826" lon="4.32609">
        <ele>176.2</ele>
        <time>2011-11-27T08:36:17Z</time>
      </trkpt>
      <trkpt lat="44.01828" lon="4.32603">
        <ele>176</ele>
        <time>2011-11-27T08:36:18Z</time>
      </trkpt>
      <trkpt lat="44.01829" lon="4.32596">
        <ele>175.8</ele>
        <time>2011-11-27T08:36:19Z</time>
      </trkpt>
      <trkpt lat="44.0183" lon="4.32589">
        <ele>176</ele>
        <time>2011-11-27T08:36:20Z</time>
      </trkpt>
      <trkpt lat="44.01831" lon="4.32583">
        <ele>176.3</ele>
        <time>2011-11-27T08:36:21Z</time>
      </trkpt>
      <trkpt lat="44.01832" lon="4.32571">
        <ele>176.7</ele>
        <time>2011-11-27T08:36:23Z</time>
      </trkpt>
      <trkpt lat="44.01832" lon="4.32562">
        <ele>176.9</ele>
        <time>2011-11-27T08:36:25Z</time>
      </trkpt>
      <trkpt lat="44.01832" lon="4.32555">
        <ele>176.6</ele>
        <time>2011-11-27T08:36:27Z</time>
      </trkpt>
      <trkpt lat="44.01833" lon="4.32548">
        <ele>176.8</ele>
        <time>2011-11-27T08:36:30Z</time>
      </trkpt>
      <trkpt lat="44.01835" lon="4.3254">
        <ele>177.7</ele>
        <time>2011-11-27T08:36:33Z</time>
      </trkpt>
      <trkpt lat="44.01835" lon="4.32533">
        <ele>178.4</ele>
        <time>2011-11-27T08:36:36Z</time>
      </trkpt>
      <trkpt lat="44.01835" lon="4.32526">
        <ele>178.9</ele>
        <time>2011-11-27T08:36:39Z</time>
      </trkpt>
      <trkpt lat="44.01836" lon="4.32518">
        <ele>178.9</ele>
        <time>2011-11-27T08:36:43Z</time>
      </trkpt>
      <trkpt lat="44.01838" lon="4.32512">
        <ele>178.6</ele>
        <time>2011-11-27T08:36:46Z</time>
      </trkpt>
      <trkpt lat="44.01842" lon="4.32507">
        <ele>178.1</ele>
        <time>2011-11-27T08:36:49Z</time>
      </trkpt>
      <trkpt lat="44.01846" lon="4.32502">
        <ele>177.2</ele>
        <time>2011-11-27T08:36:53Z</time>
      </trkpt>
      <trkpt lat="44.01851" lon="4.32498">
        <ele>175.1</ele>
        <time>2011-11-27T08:36:58Z</time>
      </trkpt>
      <trkpt lat="44.01855" lon="4.32497">
        <ele>174</ele>
        <time>2011-11-27T08:37:02Z</time>
      </trkpt>
      <trkpt lat="44.01857" lon="4.3249">
        <ele>172</ele>
        <time>2011-11-27T08:37:09Z</time>
      </trkpt>
      <trkpt lat="44.01857" lon="4.32483">
        <ele>169.6</ele>
        <time>2011-11-27T08:37:38Z</time>
      </trkpt>
      <trkpt lat="44.01856" lon="4.32476">
        <ele>169.7</ele>
        <time>2011-11-27T08:37:41Z</time>
      </trkpt>
      <trkpt lat="44.01855" lon="4.32467">
        <ele>170.1</ele>
        <time>2011-11-27T08:37:44Z</time>
      </trkpt>
      <trkpt lat="44.01855" lon="4.32459">
        <ele>170.3</ele>
        <time>2011-11-27T08:37:47Z</time>
      </trkpt>
      <trkpt lat="44.01855" lon="4.32452">
        <ele>170.3</ele>
        <time>2011-11-27T08:37:49Z</time>
      </trkpt>
      <trkpt lat="44.01856" lon="4.32446">
        <ele>170.2</ele>
        <time>2011-11-27T08:37:51Z</time>
      </trkpt>
      <trkpt lat="44.01856" lon="4.32439">
        <ele>170.1</ele>
        <time>2011-11-27T08:37:53Z</time>
      </trkpt>
      <trkpt lat="44.01857" lon="4.32431">
        <ele>170.2</ele>
        <time>2011-11-27T08:37:55Z</time>
      </trkpt>
      <trkpt lat="44.01858" lon="4.32424">
        <ele>170</ele>
        <time>2011-11-27T08:37:57Z</time>
      </trkpt>
      <trkpt lat="44.01858" lon="4.32417">
        <ele>170.2</ele>
        <time>2011-11-27T08:37:59Z</time>
      </trkpt>
      <trkpt lat="44.01859" lon="4.3241">
        <ele>170.2</ele>
        <time>2011-11-27T08:38:01Z</time>
      </trkpt>
      <trkpt lat="44.0186" lon="4.32403">
        <ele>170.4</ele>
        <time>2011-11-27T08:38:03Z</time>
      </trkpt>
      <trkpt lat="44.01861" lon="4.32396">
        <ele>170.6</ele>
        <time>2011-11-27T08:38:05Z</time>
      </trkpt>
      <trkpt lat="44.01863" lon="4.32389">
        <ele>170.7</ele>
        <time>2011-11-27T08:38:07Z</time>
      </trkpt>
      <trkpt lat="44.01866" lon="4.32382">
        <ele>170.8</ele>
        <time>2011-11-27T08:38:09Z</time>
      </trkpt>
      <trkpt lat="44.01869" lon="4.32376">
        <ele>170.8</ele>
        <time>2011-11-27T08:38:11Z</time>
      </trkpt>
      <trkpt lat="44.01874" lon="4.32371">
        <ele>170.9</ele>
        <time>2011-11-27T08:38:13Z</time>
      </trkpt>
      <trkpt lat="44.01878" lon="4.32367">
        <ele>171</ele>
        <time>2011-11-27T08:38:15Z</time>
      </trkpt>
      <trkpt lat="44.01884" lon="4.32363">
        <ele>171.2</ele>
        <time>2011-11-27T08:38:17Z</time>
      </trkpt>
      <trkpt lat="44.01889" lon="4.32358">
        <ele>171.2</ele>
        <time>2011-11-27T08:38:19Z</time>
      </trkpt>
      <trkpt lat="44.01894" lon="4.32353">
        <ele>171.4</ele>
        <time>2011-11-27T08:38:21Z</time>
      </trkpt>
      <trkpt lat="44.019" lon="4.32348">
        <ele>171.7</ele>
        <time>2011-11-27T08:38:23Z</time>
      </trkpt>
      <trkpt lat="44.01905" lon="4.32343">
        <ele>171.9</ele>
        <time>2011-11-27T08:38:25Z</time>
      </trkpt>
      <trkpt lat="44.0191" lon="4.32338">
        <ele>172.3</ele>
        <time>2011-11-27T08:38:27Z</time>
      </trkpt>
      <trkpt lat="44.01915" lon="4.32333">
        <ele>172.6</ele>
        <time>2011-11-27T08:38:29Z</time>
      </trkpt>
      <trkpt lat="44.01919" lon="4.32328">
        <ele>173.1</ele>
        <time>2011-11-27T08:38:31Z</time>
      </trkpt>
      <trkpt lat="44.01923" lon="4.32322">
        <ele>173.7</ele>
        <time>2011-11-27T08:38:33Z</time>
      </trkpt>
      <trkpt lat="44.01927" lon="4.32316">
        <ele>174.1</ele>
        <time>2011-11-27T08:38:35Z</time>
      </trkpt>
      <trkpt lat="44.0193" lon="4.3231">
        <ele>174.2</ele>
        <time>2011-11-27T08:38:37Z</time>
      </trkpt>
      <trkpt lat="44.01933" lon="4.32304">
        <ele>174.4</ele>
        <time>2011-11-27T08:38:39Z</time>
      </trkpt>
      <trkpt lat="44.01936" lon="4.32299">
        <ele>174.6</ele>
        <time>2011-11-27T08:38:41Z</time>
      </trkpt>
      <trkpt lat="44.01938" lon="4.32292">
        <ele>174.7</ele>
        <time>2011-11-27T08:38:43Z</time>
      </trkpt>
      <trkpt lat="44.01941" lon="4.32284">
        <ele>174.9</ele>
        <time>2011-11-27T08:38:45Z</time>
      </trkpt>
      <trkpt lat="44.01943" lon="4.32277">
        <ele>175.3</ele>
        <time>2011-11-27T08:38:47Z</time>
      </trkpt>
      <trkpt lat="44.01945" lon="4.3227">
        <ele>175.7</ele>
        <time>2011-11-27T08:38:49Z</time>
      </trkpt>
      <trkpt lat="44.01947" lon="4.32262">
        <ele>176.1</ele>
        <time>2011-11-27T08:38:51Z</time>
      </trkpt>
      <trkpt lat="44.01949" lon="4.32256">
        <ele>176.4</ele>
        <time>2011-11-27T08:38:53Z</time>
      </trkpt>
      <trkpt lat="44.01951" lon="4.3225">
        <ele>176.9</ele>
        <time>2011-11-27T08:38:55Z</time>
      </trkpt>
      <trkpt lat="44.01953" lon="4.32243">
        <ele>176.9</ele>
        <time>2011-11-27T08:38:57Z</time>
      </trkpt>
      <trkpt lat="44.01954" lon="4.32236">
        <ele>177</ele>
        <time>2011-11-27T08:38:59Z</time>
      </trkpt>
      <trkpt lat="44.01956" lon="4.32229">
        <ele>177.2</ele>
        <time>2011-11-27T08:39:02Z</time>
      </trkpt>
      <trkpt lat="44.01958" lon="4.32223">
        <ele>177.2</ele>
        <time>2011-11-27T08:39:05Z</time>
      </trkpt>
      <trkpt lat="44.0196" lon="4.32217">
        <ele>177.1</ele>
        <time>2011-11-27T08:39:08Z</time>
      </trkpt>
      <trkpt lat="44.01963" lon="4.32208">
        <ele>177.2</ele>
        <time>2011-11-27T08:39:11Z</time>
      </trkpt>
      <trkpt lat="44.01965" lon="4.32201">
        <ele>177.1</ele>
        <time>2011-11-27T08:39:13Z</time>
      </trkpt>
      <trkpt lat="44.01968" lon="4.32192">
        <ele>176.9</ele>
        <time>2011-11-27T08:39:15Z</time>
      </trkpt>
      <trkpt lat="44.01972" lon="4.32186">
        <ele>176.7</ele>
        <time>2011-11-27T08:39:17Z</time>
      </trkpt>
      <trkpt lat="44.01976" lon="4.3218">
        <ele>176.5</ele>
        <time>2011-11-27T08:39:19Z</time>
      </trkpt>
      <trkpt lat="44.0198" lon="4.32175">
        <ele>176.5</ele>
        <time>2011-11-27T08:39:21Z</time>
      </trkpt>
      <trkpt lat="44.01984" lon="4.32171">
        <ele>176.6</ele>
        <time>2011-11-27T08:39:23Z</time>
      </trkpt>
      <trkpt lat="44.01988" lon="4.32167">
        <ele>176.7</ele>
        <time>2011-11-27T08:39:25Z</time>
      </trkpt>
      <trkpt lat="44.01995" lon="4.3216">
        <ele>177</ele>
        <time>2011-11-27T08:39:27Z</time>
      </trkpt>
      <trkpt lat="44.02001" lon="4.32154">
        <ele>177.7</ele>
        <time>2011-11-27T08:39:29Z</time>
      </trkpt>
      <trkpt lat="44.02007" lon="4.32147">
        <ele>178.2</ele>
        <time>2011-11-27T08:39:31Z</time>
      </trkpt>
      <trkpt lat="44.02013" lon="4.32141">
        <ele>178.2</ele>
        <time>2011-11-27T08:39:33Z</time>
      </trkpt>
      <trkpt lat="44.02019" lon="4.32134">
        <ele>177.9</ele>
        <time>2011-11-27T08:39:35Z</time>
      </trkpt>
      <trkpt lat="44.02025" lon="4.32128">
        <ele>178</ele>
        <time>2011-11-27T08:39:37Z</time>
      </trkpt>
      <trkpt lat="44.0203" lon="4.32122">
        <ele>178</ele>
        <time>2011-11-27T08:39:39Z</time>
      </trkpt>
      <trkpt lat="44.02036" lon="4.32115">
        <ele>178.1</ele>
        <time>2011-11-27T08:39:41Z</time>
      </trkpt>
      <trkpt lat="44.0204" lon="4.32109">
        <ele>178.3</ele>
        <time>2011-11-27T08:39:43Z</time>
      </trkpt>
      <trkpt lat="44.02045" lon="4.32102">
        <ele>178.2</ele>
        <time>2011-11-27T08:39:45Z</time>
      </trkpt>
      <trkpt lat="44.02048" lon="4.32094">
        <ele>178.1</ele>
        <time>2011-11-27T08:39:47Z</time>
      </trkpt>
      <trkpt lat="44.02052" lon="4.32086">
        <ele>178.4</ele>
        <time>2011-11-27T08:39:49Z</time>
      </trkpt>
      <trkpt lat="44.02054" lon="4.32079">
        <ele>178.4</ele>
        <time>2011-11-27T08:39:51Z</time>
      </trkpt>
      <trkpt lat="44.02058" lon="4.32073">
        <ele>178.3</ele>
        <time>2011-11-27T08:39:53Z</time>
      </trkpt>
      <trkpt lat="44.02059" lon="4.32066">
        <ele>178.3</ele>
        <time>2011-11-27T08:39:55Z</time>
      </trkpt>
      <trkpt lat="44.02059" lon="4.32058">
        <ele>178.5</ele>
        <time>2011-11-27T08:39:57Z</time>
      </trkpt>
      <trkpt lat="44.02059" lon="4.32049">
        <ele>178.6</ele>
        <time>2011-11-27T08:39:59Z</time>
      </trkpt>
      <trkpt lat="44.02058" lon="4.32038">
        <ele>179.3</ele>
        <time>2011-11-27T08:40:01Z</time>
      </trkpt>
      <trkpt lat="44.02057" lon="4.32032">
        <ele>179.5</ele>
        <time>2011-11-27T08:40:02Z</time>
      </trkpt>
      <trkpt lat="44.02056" lon="4.32025">
        <ele>179.5</ele>
        <time>2011-11-27T08:40:03Z</time>
      </trkpt>
      <trkpt lat="44.02056" lon="4.32019">
        <ele>179.6</ele>
        <time>2011-11-27T08:40:04Z</time>
      </trkpt>
      <trkpt lat="44.02056" lon="4.32006">
        <ele>179.4</ele>
        <time>2011-11-27T08:40:06Z</time>
      </trkpt>
      <trkpt lat="44.02056" lon="4.31994">
        <ele>179.4</ele>
        <time>2011-11-27T08:40:08Z</time>
      </trkpt>
      <trkpt lat="44.02056" lon="4.31987">
        <ele>179.2</ele>
        <time>2011-11-27T08:40:09Z</time>
      </trkpt>
      <trkpt lat="44.02056" lon="4.31975">
        <ele>179.1</ele>
        <time>2011-11-27T08:40:11Z</time>
      </trkpt>
      <trkpt lat="44.02056" lon="4.31964">
        <ele>178.8</ele>
        <time>2011-11-27T08:40:13Z</time>
      </trkpt>
      <trkpt lat="44.02057" lon="4.31954">
        <ele>178.6</ele>
        <time>2011-11-27T08:40:15Z</time>
      </trkpt>
      <trkpt lat="44.02057" lon="4.31946">
        <ele>178.6</ele>
        <time>2011-11-27T08:40:17Z</time>
      </trkpt>
      <trkpt lat="44.02058" lon="4.31938">
        <ele>178.6</ele>
        <time>2011-11-27T08:40:20Z</time>
      </trkpt>
      <trkpt lat="44.0206" lon="4.31931">
        <ele>178.4</ele>
        <time>2011-11-27T08:40:23Z</time>
      </trkpt>
      <trkpt lat="44.02059" lon="4.3192">
        <ele>175.7</ele>
        <time>2011-11-27T08:40:53Z</time>
      </trkpt>
      <trkpt lat="44.02059" lon="4.31914">
        <ele>176.1</ele>
        <time>2011-11-27T08:40:57Z</time>
      </trkpt>
      <trkpt lat="44.02061" lon="4.31907">
        <ele>176.3</ele>
        <time>2011-11-27T08:41:00Z</time>
      </trkpt>
      <trkpt lat="44.02063" lon="4.31898">
        <ele>177.4</ele>
        <time>2011-11-27T08:41:03Z</time>
      </trkpt>
      <trkpt lat="44.02064" lon="4.31892">
        <ele>177.9</ele>
        <time>2011-11-27T08:41:05Z</time>
      </trkpt>
      <trkpt lat="44.02066" lon="4.31885">
        <ele>178.2</ele>
        <time>2011-11-27T08:41:07Z</time>
      </trkpt>
      <trkpt lat="44.02068" lon="4.31877">
        <ele>178</ele>
        <time>2011-11-27T08:41:09Z</time>
      </trkpt>
      <trkpt lat="44.0207" lon="4.31868">
        <ele>178.2</ele>
        <time>2011-11-27T08:41:11Z</time>
      </trkpt>
      <trkpt lat="44.0207" lon="4.31858">
        <ele>178.2</ele>
        <time>2011-11-27T08:41:13Z</time>
      </trkpt>
      <trkpt lat="44.02071" lon="4.31849">
        <ele>178.4</ele>
        <time>2011-11-27T08:41:15Z</time>
      </trkpt>
      <trkpt lat="44.02071" lon="4.3184">
        <ele>178.1</ele>
        <time>2011-11-27T08:41:17Z</time>
      </trkpt>
      <trkpt lat="44.02071" lon="4.31832">
        <ele>177.8</ele>
        <time>2011-11-27T08:41:19Z</time>
      </trkpt>
      <trkpt lat="44.02072" lon="4.31823">
        <ele>177.5</ele>
        <time>2011-11-27T08:41:21Z</time>
      </trkpt>
      <trkpt lat="44.02073" lon="4.31814">
        <ele>177.3</ele>
        <time>2011-11-27T08:41:23Z</time>
      </trkpt>
      <trkpt lat="44.02073" lon="4.31806">
        <ele>176.8</ele>
        <time>2011-11-27T08:41:25Z</time>
      </trkpt>
      <trkpt lat="44.02074" lon="4.31797">
        <ele>176.6</ele>
        <time>2011-11-27T08:41:27Z</time>
      </trkpt>
      <trkpt lat="44.02075" lon="4.31788">
        <ele>176.6</ele>
        <time>2011-11-27T08:41:29Z</time>
      </trkpt>
      <trkpt lat="44.02076" lon="4.31779">
        <ele>176.4</ele>
        <time>2011-11-27T08:41:31Z</time>
      </trkpt>
      <trkpt lat="44.02077" lon="4.3177">
        <ele>176.1</ele>
        <time>2011-11-27T08:41:33Z</time>
      </trkpt>
      <trkpt lat="44.02078" lon="4.31761">
        <ele>176</ele>
        <time>2011-11-27T08:41:35Z</time>
      </trkpt>
      <trkpt lat="44.02078" lon="4.31753">
        <ele>176</ele>
        <time>2011-11-27T08:41:37Z</time>
      </trkpt>
      <trkpt lat="44.0208" lon="4.31746">
        <ele>175.8</ele>
        <time>2011-11-27T08:41:39Z</time>
      </trkpt>
      <trkpt lat="44.0208" lon="4.31738">
        <ele>175.8</ele>
        <time>2011-11-27T08:41:41Z</time>
      </trkpt>
      <trkpt lat="44.0208" lon="4.3173">
        <ele>175.9</ele>
        <time>2011-11-27T08:41:43Z</time>
      </trkpt>
      <trkpt lat="44.02081" lon="4.31723">
        <ele>175.9</ele>
        <time>2011-11-27T08:41:45Z</time>
      </trkpt>
      <trkpt lat="44.02081" lon="4.31715">
        <ele>175.8</ele>
        <time>2011-11-27T08:41:47Z</time>
      </trkpt>
      <trkpt lat="44.02081" lon="4.31706">
        <ele>175.8</ele>
        <time>2011-11-27T08:41:49Z</time>
      </trkpt>
      <trkpt lat="44.02081" lon="4.31698">
        <ele>175.8</ele>
        <time>2011-11-27T08:41:51Z</time>
      </trkpt>
      <trkpt lat="44.02081" lon="4.3169">
        <ele>175.8</ele>
        <time>2011-11-27T08:41:53Z</time>
      </trkpt>
      <trkpt lat="44.02081" lon="4.31681">
        <ele>175.7</ele>
        <time>2011-11-27T08:41:55Z</time>
      </trkpt>
      <trkpt lat="44.02082" lon="4.31673">
        <ele>175.9</ele>
        <time>2011-11-27T08:41:57Z</time>
      </trkpt>
      <trkpt lat="44.02082" lon="4.31666">
        <ele>176.1</ele>
        <time>2011-11-27T08:41:59Z</time>
      </trkpt>
      <trkpt lat="44.02084" lon="4.31658">
        <ele>176.3</ele>
        <time>2011-11-27T08:42:01Z</time>
      </trkpt>
      <trkpt lat="44.02085" lon="4.3165">
        <ele>176.7</ele>
        <time>2011-11-27T08:42:03Z</time>
      </trkpt>
      <trkpt lat="44.02087" lon="4.31642">
        <ele>176.8</ele>
        <time>2011-11-27T08:42:05Z</time>
      </trkpt>
      <trkpt lat="44.02088" lon="4.31635">
        <ele>177.1</ele>
        <time>2011-11-27T08:42:07Z</time>
      </trkpt>
      <trkpt lat="44.0209" lon="4.31629">
        <ele>177.3</ele>
        <time>2011-11-27T08:42:09Z</time>
      </trkpt>
      <trkpt lat="44.02094" lon="4.31621">
        <ele>177.3</ele>
        <time>2011-11-27T08:42:12Z</time>
      </trkpt>
      <trkpt lat="44.02097" lon="4.31616">
        <ele>177.6</ele>
        <time>2011-11-27T08:42:14Z</time>
      </trkpt>
      <trkpt lat="44.021" lon="4.3161">
        <ele>177.5</ele>
        <time>2011-11-27T08:42:16Z</time>
      </trkpt>
      <trkpt lat="44.02104" lon="4.31604">
        <ele>177.5</ele>
        <time>2011-11-27T08:42:18Z</time>
      </trkpt>
      <trkpt lat="44.02108" lon="4.31598">
        <ele>177.4</ele>
        <time>2011-11-27T08:42:20Z</time>
      </trkpt>
      <trkpt lat="44.02112" lon="4.31591">
        <ele>177.1</ele>
        <time>2011-11-27T08:42:22Z</time>
      </trkpt>
      <trkpt lat="44.02115" lon="4.31584">
        <ele>177.3</ele>
        <time>2011-11-27T08:42:24Z</time>
      </trkpt>
      <trkpt lat="44.02117" lon="4.31578">
        <ele>177.7</ele>
        <time>2011-11-27T08:42:26Z</time>
      </trkpt>
      <trkpt lat="44.02118" lon="4.31571">
        <ele>177.9</ele>
        <time>2011-11-27T08:42:28Z</time>
      </trkpt>
      <trkpt lat="44.0212" lon="4.31564">
        <ele>178</ele>
        <time>2011-11-27T08:42:30Z</time>
      </trkpt>
      <trkpt lat="44.0212" lon="4.31557">
        <ele>178.3</ele>
        <time>2011-11-27T08:42:32Z</time>
      </trkpt>
      <trkpt lat="44.02122" lon="4.3155">
        <ele>178.8</ele>
        <time>2011-11-27T08:42:34Z</time>
      </trkpt>
      <trkpt lat="44.02124" lon="4.31543">
        <ele>179.1</ele>
        <time>2011-11-27T08:42:36Z</time>
      </trkpt>
      <trkpt lat="44.02126" lon="4.31537">
        <ele>179.3</ele>
        <time>2011-11-27T08:42:38Z</time>
      </trkpt>
      <trkpt lat="44.0213" lon="4.3153">
        <ele>179.9</ele>
        <time>2011-11-27T08:42:41Z</time>
      </trkpt>
      <trkpt lat="44.02132" lon="4.31524">
        <ele>179.8</ele>
        <time>2011-11-27T08:42:43Z</time>
      </trkpt>
      <trkpt lat="44.02134" lon="4.31518">
        <ele>179.7</ele>
        <time>2011-11-27T08:42:45Z</time>
      </trkpt>
      <trkpt lat="44.02136" lon="4.31512">
        <ele>179.7</ele>
        <time>2011-11-27T08:42:47Z</time>
      </trkpt>
      <trkpt lat="44.02138" lon="4.31504">
        <ele>179.6</ele>
        <time>2011-11-27T08:42:49Z</time>
      </trkpt>
      <trkpt lat="44.0214" lon="4.31496">
        <ele>179.3</ele>
        <time>2011-11-27T08:42:51Z</time>
      </trkpt>
      <trkpt lat="44.02143" lon="4.31489">
        <ele>179.2</ele>
        <time>2011-11-27T08:42:53Z</time>
      </trkpt>
      <trkpt lat="44.02145" lon="4.31482">
        <ele>179.1</ele>
        <time>2011-11-27T08:42:55Z</time>
      </trkpt>
      <trkpt lat="44.02147" lon="4.31474">
        <ele>178.9</ele>
        <time>2011-11-27T08:42:57Z</time>
      </trkpt>
      <trkpt lat="44.0215" lon="4.31466">
        <ele>178.5</ele>
        <time>2011-11-27T08:42:59Z</time>
      </trkpt>
      <trkpt lat="44.02153" lon="4.31458">
        <ele>178.3</ele>
        <time>2011-11-27T08:43:01Z</time>
      </trkpt>
      <trkpt lat="44.02154" lon="4.31449">
        <ele>178.1</ele>
        <time>2011-11-27T08:43:03Z</time>
      </trkpt>
      <trkpt lat="44.02155" lon="4.3144">
        <ele>177.9</ele>
        <time>2011-11-27T08:43:05Z</time>
      </trkpt>
      <trkpt lat="44.02157" lon="4.31432">
        <ele>177.7</ele>
        <time>2011-11-27T08:43:07Z</time>
      </trkpt>
      <trkpt lat="44.0216" lon="4.31424">
        <ele>177.4</ele>
        <time>2011-11-27T08:43:09Z</time>
      </trkpt>
      <trkpt lat="44.02164" lon="4.31417">
        <ele>177.2</ele>
        <time>2011-11-27T08:43:11Z</time>
      </trkpt>
      <trkpt lat="44.02169" lon="4.31414">
        <ele>176.8</ele>
        <time>2011-11-27T08:43:13Z</time>
      </trkpt>
      <trkpt lat="44.02175" lon="4.31414">
        <ele>176.3</ele>
        <time>2011-11-27T08:43:15Z</time>
      </trkpt>
      <trkpt lat="44.0218" lon="4.31417">
        <ele>176.4</ele>
        <time>2011-11-27T08:43:17Z</time>
      </trkpt>
      <trkpt lat="44.02184" lon="4.31422">
        <ele>176.9</ele>
        <time>2011-11-27T08:43:19Z</time>
      </trkpt>
      <trkpt lat="44.02188" lon="4.31427">
        <ele>176.9</ele>
        <time>2011-11-27T08:43:21Z</time>
      </trkpt>
      <trkpt lat="44.02193" lon="4.31431">
        <ele>177.1</ele>
        <time>2011-11-27T08:43:23Z</time>
      </trkpt>
      <trkpt lat="44.02197" lon="4.31434">
        <ele>177.3</ele>
        <time>2011-11-27T08:43:25Z</time>
      </trkpt>
      <trkpt lat="44.02203" lon="4.31436">
        <ele>177.8</ele>
        <time>2011-11-27T08:43:27Z</time>
      </trkpt>
      <trkpt lat="44.02209" lon="4.31438">
        <ele>178</ele>
        <time>2011-11-27T08:43:29Z</time>
      </trkpt>
      <trkpt lat="44.02214" lon="4.31438">
        <ele>178.5</ele>
        <time>2011-11-27T08:43:31Z</time>
      </trkpt>
      <trkpt lat="44.0222" lon="4.31438">
        <ele>179.2</ele>
        <time>2011-11-27T08:43:33Z</time>
      </trkpt>
      <trkpt lat="44.02224" lon="4.31435">
        <ele>180</ele>
        <time>2011-11-27T08:43:35Z</time>
      </trkpt>
      <trkpt lat="44.02228" lon="4.31433">
        <ele>180</ele>
        <time>2011-11-27T08:43:37Z</time>
      </trkpt>
      <trkpt lat="44.02233" lon="4.3143">
        <ele>179.9</ele>
        <time>2011-11-27T08:43:39Z</time>
      </trkpt>
      <trkpt lat="44.02237" lon="4.31426">
        <ele>180</ele>
        <time>2011-11-27T08:43:41Z</time>
      </trkpt>
      <trkpt lat="44.02241" lon="4.31423">
        <ele>180.3</ele>
        <time>2011-11-27T08:43:43Z</time>
      </trkpt>
      <trkpt lat="44.02245" lon="4.31419">
        <ele>180.4</ele>
        <time>2011-11-27T08:43:45Z</time>
      </trkpt>
      <trkpt lat="44.02251" lon="4.31412">
        <ele>180.6</ele>
        <time>2011-11-27T08:43:48Z</time>
      </trkpt>
      <trkpt lat="44.02255" lon="4.31408">
        <ele>180.5</ele>
        <time>2011-11-27T08:43:50Z</time>
      </trkpt>
      <trkpt lat="44.02259" lon="4.31404">
        <ele>180.8</ele>
        <time>2011-11-27T08:43:52Z</time>
      </trkpt>
      <trkpt lat="44.02263" lon="4.31401">
        <ele>181.3</ele>
        <time>2011-11-27T08:43:54Z</time>
      </trkpt>
      <trkpt lat="44.02268" lon="4.31397">
        <ele>181.8</ele>
        <time>2011-11-27T08:43:56Z</time>
      </trkpt>
      <trkpt lat="44.02274" lon="4.31395">
        <ele>181.9</ele>
        <time>2011-11-27T08:43:58Z</time>
      </trkpt>
      <trkpt lat="44.02281" lon="4.31393">
        <ele>181.3</ele>
        <time>2011-11-27T08:44:00Z</time>
      </trkpt>
      <trkpt lat="44.02287" lon="4.31392">
        <ele>181.5</ele>
        <time>2011-11-27T08:44:02Z</time>
      </trkpt>
      <trkpt lat="44.02292" lon="4.31392">
        <ele>181.8</ele>
        <time>2011-11-27T08:44:04Z</time>
      </trkpt>
      <trkpt lat="44.02297" lon="4.31393">
        <ele>182</ele>
        <time>2011-11-27T08:44:06Z</time>
      </trkpt>
      <trkpt lat="44.02303" lon="4.31394">
        <ele>182.4</ele>
        <time>2011-11-27T08:44:08Z</time>
      </trkpt>
      <trkpt lat="44.02308" lon="4.31397">
        <ele>182.8</ele>
        <time>2011-11-27T08:44:10Z</time>
      </trkpt>
      <trkpt lat="44.02315" lon="4.314">
        <ele>183.2</ele>
        <time>2011-11-27T08:44:12Z</time>
      </trkpt>
      <trkpt lat="44.02321" lon="4.31403">
        <ele>183.4</ele>
        <time>2011-11-27T08:44:14Z</time>
      </trkpt>
      <trkpt lat="44.02327" lon="4.31405">
        <ele>184.1</ele>
        <time>2011-11-27T08:44:16Z</time>
      </trkpt>
      <trkpt lat="44.02333" lon="4.31408">
        <ele>184.3</ele>
        <time>2011-11-27T08:44:18Z</time>
      </trkpt>
      <trkpt lat="44.02339" lon="4.31411">
        <ele>184.2</ele>
        <time>2011-11-27T08:44:20Z</time>
      </trkpt>
      <trkpt lat="44.02344" lon="4.31414">
        <ele>184.3</ele>
        <time>2011-11-27T08:44:22Z</time>
      </trkpt>
      <trkpt lat="44.02351" lon="4.31417">
        <ele>184.6</ele>
        <time>2011-11-27T08:44:24Z</time>
      </trkpt>
      <trkpt lat="44.02356" lon="4.31419">
        <ele>184.5</ele>
        <time>2011-11-27T08:44:26Z</time>
      </trkpt>
      <trkpt lat="44.02361" lon="4.31422">
        <ele>184.6</ele>
        <time>2011-11-27T08:44:28Z</time>
      </trkpt>
      <trkpt lat="44.02366" lon="4.31425">
        <ele>184.4</ele>
        <time>2011-11-27T08:44:30Z</time>
      </trkpt>
      <trkpt lat="44.02371" lon="4.31428">
        <ele>184.5</ele>
        <time>2011-11-27T08:44:32Z</time>
      </trkpt>
      <trkpt lat="44.02376" lon="4.3143">
        <ele>184.3</ele>
        <time>2011-11-27T08:44:34Z</time>
      </trkpt>
      <trkpt lat="44.02381" lon="4.31433">
        <ele>184.5</ele>
        <time>2011-11-27T08:44:36Z</time>
      </trkpt>
      <trkpt lat="44.02386" lon="4.31434">
        <ele>184.8</ele>
        <time>2011-11-27T08:44:38Z</time>
      </trkpt>
      <trkpt lat="44.02391" lon="4.31437">
        <ele>185.2</ele>
        <time>2011-11-27T08:44:40Z</time>
      </trkpt>
      <trkpt lat="44.02396" lon="4.31439">
        <ele>185.9</ele>
        <time>2011-11-27T08:44:42Z</time>
      </trkpt>
      <trkpt lat="44.02401" lon="4.31441">
        <ele>186</ele>
        <time>2011-11-27T08:44:44Z</time>
      </trkpt>
      <trkpt lat="44.02406" lon="4.31444">
        <ele>186.3</ele>
        <time>2011-11-27T08:44:46Z</time>
      </trkpt>
      <trkpt lat="44.02412" lon="4.31446">
        <ele>186.3</ele>
        <time>2011-11-27T08:44:48Z</time>
      </trkpt>
      <trkpt lat="44.02418" lon="4.3145">
        <ele>187</ele>
        <time>2011-11-27T08:44:50Z</time>
      </trkpt>
      <trkpt lat="44.02423" lon="4.31452">
        <ele>187.3</ele>
        <time>2011-11-27T08:44:52Z</time>
      </trkpt>
      <trkpt lat="44.02428" lon="4.31455">
        <ele>187.5</ele>
        <time>2011-11-27T08:44:54Z</time>
      </trkpt>
      <trkpt lat="44.02435" lon="4.31459">
        <ele>187.5</ele>
        <time>2011-11-27T08:44:56Z</time>
      </trkpt>
      <trkpt lat="44.02442" lon="4.31462">
        <ele>187.7</ele>
        <time>2011-11-27T08:44:58Z</time>
      </trkpt>
      <trkpt lat="44.02448" lon="4.31464">
        <ele>188.1</ele>
        <time>2011-11-27T08:45:00Z</time>
      </trkpt>
      <trkpt lat="44.02455" lon="4.31466">
        <ele>188.5</ele>
        <time>2011-11-27T08:45:02Z</time>
      </trkpt>
      <trkpt lat="44.02462" lon="4.31467">
        <ele>188.8</ele>
        <time>2011-11-27T08:45:04Z</time>
      </trkpt>
      <trkpt lat="44.0247" lon="4.31469">
        <ele>188.6</ele>
        <time>2011-11-27T08:45:06Z</time>
      </trkpt>
      <trkpt lat="44.02477" lon="4.31472">
        <ele>189.4</ele>
        <time>2011-11-27T08:45:08Z</time>
      </trkpt>
      <trkpt lat="44.02483" lon="4.31473">
        <ele>190.1</ele>
        <time>2011-11-27T08:45:10Z</time>
      </trkpt>
      <trkpt lat="44.0249" lon="4.31475">
        <ele>190.5</ele>
        <time>2011-11-27T08:45:12Z</time>
      </trkpt>
      <trkpt lat="44.02497" lon="4.31477">
        <ele>190.7</ele>
        <time>2011-11-27T08:45:14Z</time>
      </trkpt>
      <trkpt lat="44.02504" lon="4.3148">
        <ele>191</ele>
        <time>2011-11-27T08:45:16Z</time>
      </trkpt>
      <trkpt lat="44.0251" lon="4.31482">
        <ele>191.8</ele>
        <time>2011-11-27T08:45:18Z</time>
      </trkpt>
      <trkpt lat="44.02515" lon="4.31484">
        <ele>192</ele>
        <time>2011-11-27T08:45:20Z</time>
      </trkpt>
      <trkpt lat="44.02521" lon="4.31486">
        <ele>192.6</ele>
        <time>2011-11-27T08:45:22Z</time>
      </trkpt>
      <trkpt lat="44.02525" lon="4.31487">
        <ele>192.5</ele>
        <time>2011-11-27T08:45:24Z</time>
      </trkpt>
      <trkpt lat="44.02531" lon="4.31488">
        <ele>192.6</ele>
        <time>2011-11-27T08:45:26Z</time>
      </trkpt>
      <trkpt lat="44.02537" lon="4.3149">
        <ele>193.1</ele>
        <time>2011-11-27T08:45:28Z</time>
      </trkpt>
      <trkpt lat="44.02542" lon="4.31492">
        <ele>193.6</ele>
        <time>2011-11-27T08:45:30Z</time>
      </trkpt>
      <trkpt lat="44.02549" lon="4.31492">
        <ele>194.3</ele>
        <time>2011-11-27T08:45:32Z</time>
      </trkpt>
      <trkpt lat="44.02555" lon="4.31494">
        <ele>194.3</ele>
        <time>2011-11-27T08:45:34Z</time>
      </trkpt>
      <trkpt lat="44.02561" lon="4.31495">
        <ele>195.1</ele>
        <time>2011-11-27T08:45:36Z</time>
      </trkpt>
      <trkpt lat="44.02567" lon="4.31495">
        <ele>195.7</ele>
        <time>2011-11-27T08:45:38Z</time>
      </trkpt>
      <trkpt lat="44.02573" lon="4.31495">
        <ele>196.1</ele>
        <time>2011-11-27T08:45:40Z</time>
      </trkpt>
      <trkpt lat="44.02578" lon="4.31495">
        <ele>196.7</ele>
        <time>2011-11-27T08:45:42Z</time>
      </trkpt>
      <trkpt lat="44.02583" lon="4.31495">
        <ele>197.1</ele>
        <time>2011-11-27T08:45:44Z</time>
      </trkpt>
      <trkpt lat="44.02589" lon="4.31496">
        <ele>197.6</ele>
        <time>2011-11-27T08:45:46Z</time>
      </trkpt>
      <trkpt lat="44.02594" lon="4.31496">
        <ele>197.8</ele>
        <time>2011-11-27T08:45:48Z</time>
      </trkpt>
      <trkpt lat="44.026" lon="4.31497">
        <ele>197.9</ele>
        <time>2011-11-27T08:45:50Z</time>
      </trkpt>
      <trkpt lat="44.02606" lon="4.31498">
        <ele>197.7</ele>
        <time>2011-11-27T08:45:52Z</time>
      </trkpt>
      <trkpt lat="44.02611" lon="4.31498">
        <ele>197.8</ele>
        <time>2011-11-27T08:45:54Z</time>
      </trkpt>
      <trkpt lat="44.02616" lon="4.31498">
        <ele>198</ele>
        <time>2011-11-27T08:45:56Z</time>
      </trkpt>
      <trkpt lat="44.02621" lon="4.31498">
        <ele>198.4</ele>
        <time>2011-11-27T08:45:58Z</time>
      </trkpt>
      <trkpt lat="44.02626" lon="4.31499">
        <ele>198.5</ele>
        <time>2011-11-27T08:46:00Z</time>
      </trkpt>
      <trkpt lat="44.02631" lon="4.315">
        <ele>198.8</ele>
        <time>2011-11-27T08:46:02Z</time>
      </trkpt>
      <trkpt lat="44.02637" lon="4.31503">
        <ele>199.5</ele>
        <time>2011-11-27T08:46:05Z</time>
      </trkpt>
      <trkpt lat="44.02642" lon="4.31506">
        <ele>200</ele>
        <time>2011-11-27T08:46:08Z</time>
      </trkpt>
      <trkpt lat="44.02647" lon="4.31508">
        <ele>200.4</ele>
        <time>2011-11-27T08:46:11Z</time>
      </trkpt>
      <trkpt lat="44.02652" lon="4.3151">
        <ele>201.6</ele>
        <time>2011-11-27T08:46:14Z</time>
      </trkpt>
      <trkpt lat="44.02658" lon="4.31512">
        <ele>202.1</ele>
        <time>2011-11-27T08:46:17Z</time>
      </trkpt>
      <trkpt lat="44.02663" lon="4.31516">
        <ele>201.8</ele>
        <time>2011-11-27T08:46:20Z</time>
      </trkpt>
      <trkpt lat="44.02668" lon="4.31519">
        <ele>202.7</ele>
        <time>2011-11-27T08:46:24Z</time>
      </trkpt>
      <trkpt lat="44.02674" lon="4.31522">
        <ele>203.2</ele>
        <time>2011-11-27T08:46:27Z</time>
      </trkpt>
      <trkpt lat="44.02679" lon="4.31525">
        <ele>203.3</ele>
        <time>2011-11-27T08:46:30Z</time>
      </trkpt>
      <trkpt lat="44.02684" lon="4.31527">
        <ele>201.9</ele>
        <time>2011-11-27T08:46:32Z</time>
      </trkpt>
      <trkpt lat="44.02689" lon="4.31527">
        <ele>201.3</ele>
        <time>2011-11-27T08:46:35Z</time>
      </trkpt>
      <trkpt lat="44.02694" lon="4.31522">
        <ele>201.6</ele>
        <time>2011-11-27T08:46:39Z</time>
      </trkpt>
      <trkpt lat="44.02697" lon="4.31517">
        <ele>201.6</ele>
        <time>2011-11-27T08:46:41Z</time>
      </trkpt>
      <trkpt lat="44.027" lon="4.31511">
        <ele>201.7</ele>
        <time>2011-11-27T08:46:44Z</time>
      </trkpt>
      <trkpt lat="44.02702" lon="4.31504">
        <ele>201.4</ele>
        <time>2011-11-27T08:46:47Z</time>
      </trkpt>
      <trkpt lat="44.02704" lon="4.31497">
        <ele>201.7</ele>
        <time>2011-11-27T08:46:51Z</time>
      </trkpt>
      <trkpt lat="44.02707" lon="4.3149">
        <ele>201.6</ele>
        <time>2011-11-27T08:46:55Z</time>
      </trkpt>
      <trkpt lat="44.0271" lon="4.31485">
        <ele>201.6</ele>
        <time>2011-11-27T08:46:58Z</time>
      </trkpt>
      <trkpt lat="44.02713" lon="4.3148">
        <ele>201.2</ele>
        <time>2011-11-27T08:47:00Z</time>
      </trkpt>
      <trkpt lat="44.02715" lon="4.31473">
        <ele>201.3</ele>
        <time>2011-11-27T08:47:02Z</time>
      </trkpt>
      <trkpt lat="44.02718" lon="4.31467">
        <ele>201</ele>
        <time>2011-11-27T08:47:04Z</time>
      </trkpt>
      <trkpt lat="44.02721" lon="4.3146">
        <ele>200.8</ele>
        <time>2011-11-27T08:47:06Z</time>
      </trkpt>
      <trkpt lat="44.02725" lon="4.31453">
        <ele>200.8</ele>
        <time>2011-11-27T08:47:08Z</time>
      </trkpt>
      <trkpt lat="44.02728" lon="4.31447">
        <ele>200.7</ele>
        <time>2011-11-27T08:47:10Z</time>
      </trkpt>
      <trkpt lat="44.02731" lon="4.3144">
        <ele>200.8</ele>
        <time>2011-11-27T08:47:12Z</time>
      </trkpt>
      <trkpt lat="44.02733" lon="4.31433">
        <ele>201.1</ele>
        <time>2011-11-27T08:47:14Z</time>
      </trkpt>
      <trkpt lat="44.02736" lon="4.31426">
        <ele>201</ele>
        <time>2011-11-27T08:47:16Z</time>
      </trkpt>
      <trkpt lat="44.0274" lon="4.3142">
        <ele>201</ele>
        <time>2011-11-27T08:47:18Z</time>
      </trkpt>
      <trkpt lat="44.02743" lon="4.31413">
        <ele>200.8</ele>
        <time>2011-11-27T08:47:20Z</time>
      </trkpt>
      <trkpt lat="44.02746" lon="4.31407">
        <ele>201</ele>
        <time>2011-11-27T08:47:22Z</time>
      </trkpt>
      <trkpt lat="44.02749" lon="4.31401">
        <ele>200.5</ele>
        <time>2011-11-27T08:47:24Z</time>
      </trkpt>
      <trkpt lat="44.02753" lon="4.31394">
        <ele>200.2</ele>
        <time>2011-11-27T08:47:26Z</time>
      </trkpt>
      <trkpt lat="44.02757" lon="4.31387">
        <ele>200.2</ele>
        <time>2011-11-27T08:47:28Z</time>
      </trkpt>
      <trkpt lat="44.02759" lon="4.31379">
        <ele>199.9</ele>
        <time>2011-11-27T08:47:30Z</time>
      </trkpt>
      <trkpt lat="44.02763" lon="4.31372">
        <ele>199.7</ele>
        <time>2011-11-27T08:47:32Z</time>
      </trkpt>
      <trkpt lat="44.02766" lon="4.31365">
        <ele>199.6</ele>
        <time>2011-11-27T08:47:34Z</time>
      </trkpt>
      <trkpt lat="44.02769" lon="4.31358">
        <ele>199.7</ele>
        <time>2011-11-27T08:47:36Z</time>
      </trkpt>
      <trkpt lat="44.02772" lon="4.3135">
        <ele>199.5</ele>
        <time>2011-11-27T08:47:38Z</time>
      </trkpt>
      <trkpt lat="44.02776" lon="4.31343">
        <ele>199.4</ele>
        <time>2011-11-27T08:47:40Z</time>
      </trkpt>
      <trkpt lat="44.02779" lon="4.31336">
        <ele>199</ele>
        <time>2011-11-27T08:47:42Z</time>
      </trkpt>
      <trkpt lat="44.02782" lon="4.31331">
        <ele>198</ele>
        <time>2011-11-27T08:47:44Z</time>
      </trkpt>
      <trkpt lat="44.02787" lon="4.31327">
        <ele>196.5</ele>
        <time>2011-11-27T08:47:46Z</time>
      </trkpt>
      <trkpt lat="44.02792" lon="4.31327">
        <ele>195.5</ele>
        <time>2011-11-27T08:47:48Z</time>
      </trkpt>
      <trkpt lat="44.02797" lon="4.31328">
        <ele>195</ele>
        <time>2011-11-27T08:47:50Z</time>
      </trkpt>
      <trkpt lat="44.02802" lon="4.31334">
        <ele>194.7</ele>
        <time>2011-11-27T08:47:53Z</time>
      </trkpt>
      <trkpt lat="44.02806" lon="4.31337">
        <ele>194.5</ele>
        <time>2011-11-27T08:47:55Z</time>
      </trkpt>
      <trkpt lat="44.02811" lon="4.31342">
        <ele>194.6</ele>
        <time>2011-11-27T08:47:58Z</time>
      </trkpt>
      <trkpt lat="44.02815" lon="4.31346">
        <ele>194.4</ele>
        <time>2011-11-27T08:48:00Z</time>
      </trkpt>
      <trkpt lat="44.02818" lon="4.3135">
        <ele>194</ele>
        <time>2011-11-27T08:48:02Z</time>
      </trkpt>
      <trkpt lat="44.02822" lon="4.31354">
        <ele>194</ele>
        <time>2011-11-27T08:48:04Z</time>
      </trkpt>
      <trkpt lat="44.02826" lon="4.31358">
        <ele>194</ele>
        <time>2011-11-27T08:48:06Z</time>
      </trkpt>
      <trkpt lat="44.0283" lon="4.31362">
        <ele>194.1</ele>
        <time>2011-11-27T08:48:08Z</time>
      </trkpt>
      <trkpt lat="44.02833" lon="4.31366">
        <ele>194.2</ele>
        <time>2011-11-27T08:48:10Z</time>
      </trkpt>
      <trkpt lat="44.02837" lon="4.3137">
        <ele>194.3</ele>
        <time>2011-11-27T08:48:12Z</time>
      </trkpt>
      <trkpt lat="44.0284" lon="4.31374">
        <ele>194.2</ele>
        <time>2011-11-27T08:48:14Z</time>
      </trkpt>
      <trkpt lat="44.02846" lon="4.31379">
        <ele>194.4</ele>
        <time>2011-11-27T08:48:17Z</time>
      </trkpt>
      <trkpt lat="44.02849" lon="4.31383">
        <ele>194.5</ele>
        <time>2011-11-27T08:48:19Z</time>
      </trkpt>
      <trkpt lat="44.02853" lon="4.31387">
        <ele>194.4</ele>
        <time>2011-11-27T08:48:21Z</time>
      </trkpt>
      <trkpt lat="44.02857" lon="4.3139">
        <ele>194.5</ele>
        <time>2011-11-27T08:48:23Z</time>
      </trkpt>
      <trkpt lat="44.02861" lon="4.31393">
        <ele>194.4</ele>
        <time>2011-11-27T08:48:25Z</time>
      </trkpt>
      <trkpt lat="44.02867" lon="4.31398">
        <ele>194.6</ele>
        <time>2011-11-27T08:48:28Z</time>
      </trkpt>
      <trkpt lat="44.02872" lon="4.31402">
        <ele>194.6</ele>
        <time>2011-11-27T08:48:31Z</time>
      </trkpt>
      <trkpt lat="44.02878" lon="4.31406">
        <ele>194.4</ele>
        <time>2011-11-27T08:48:34Z</time>
      </trkpt>
      <trkpt lat="44.02883" lon="4.31411">
        <ele>194.4</ele>
        <time>2011-11-27T08:48:37Z</time>
      </trkpt>
      <trkpt lat="44.02887" lon="4.31414">
        <ele>194.4</ele>
        <time>2011-11-27T08:48:39Z</time>
      </trkpt>
      <trkpt lat="44.02892" lon="4.31419">
        <ele>194.4</ele>
        <time>2011-11-27T08:48:42Z</time>
      </trkpt>
      <trkpt lat="44.02897" lon="4.31423">
        <ele>194.4</ele>
        <time>2011-11-27T08:48:45Z</time>
      </trkpt>
      <trkpt lat="44.02903" lon="4.31428">
        <ele>194.3</ele>
        <time>2011-11-27T08:48:48Z</time>
      </trkpt>
      <trkpt lat="44.02906" lon="4.31432">
        <ele>194.5</ele>
        <time>2011-11-27T08:48:50Z</time>
      </trkpt>
      <trkpt lat="44.0291" lon="4.31436">
        <ele>194.7</ele>
        <time>2011-11-27T08:48:52Z</time>
      </trkpt>
      <trkpt lat="44.02914" lon="4.3144">
        <ele>195.1</ele>
        <time>2011-11-27T08:48:54Z</time>
      </trkpt>
      <trkpt lat="44.02918" lon="4.31444">
        <ele>195.1</ele>
        <time>2011-11-27T08:48:56Z</time>
      </trkpt>
      <trkpt lat="44.02922" lon="4.31447">
        <ele>195.2</ele>
        <time>2011-11-27T08:48:58Z</time>
      </trkpt>
      <trkpt lat="44.02926" lon="4.31451">
        <ele>195.3</ele>
        <time>2011-11-27T08:49:00Z</time>
      </trkpt>
      <trkpt lat="44.0293" lon="4.31455">
        <ele>195.3</ele>
        <time>2011-11-27T08:49:02Z</time>
      </trkpt>
      <trkpt lat="44.02935" lon="4.31458">
        <ele>195.4</ele>
        <time>2011-11-27T08:49:04Z</time>
      </trkpt>
      <trkpt lat="44.0294" lon="4.31462">
        <ele>195.3</ele>
        <time>2011-11-27T08:49:06Z</time>
      </trkpt>
      <trkpt lat="44.02944" lon="4.31465">
        <ele>195.5</ele>
        <time>2011-11-27T08:49:08Z</time>
      </trkpt>
      <trkpt lat="44.02949" lon="4.31468">
        <ele>195.5</ele>
        <time>2011-11-27T08:49:10Z</time>
      </trkpt>
      <trkpt lat="44.02953" lon="4.3147">
        <ele>195.7</ele>
        <time>2011-11-27T08:49:12Z</time>
      </trkpt>
      <trkpt lat="44.02958" lon="4.31473">
        <ele>195.7</ele>
        <time>2011-11-27T08:49:14Z</time>
      </trkpt>
      <trkpt lat="44.02963" lon="4.31476">
        <ele>196</ele>
        <time>2011-11-27T08:49:16Z</time>
      </trkpt>
      <trkpt lat="44.02968" lon="4.31478">
        <ele>196.3</ele>
        <time>2011-11-27T08:49:18Z</time>
      </trkpt>
      <trkpt lat="44.02973" lon="4.3148">
        <ele>196.3</ele>
        <time>2011-11-27T08:49:20Z</time>
      </trkpt>
      <trkpt lat="44.02979" lon="4.31482">
        <ele>196.2</ele>
        <time>2011-11-27T08:49:23Z</time>
      </trkpt>
      <trkpt lat="44.02984" lon="4.31483">
        <ele>196</ele>
        <time>2011-11-27T08:49:25Z</time>
      </trkpt>
      <trkpt lat="44.02988" lon="4.31484">
        <ele>196.2</ele>
        <time>2011-11-27T08:49:27Z</time>
      </trkpt>
      <trkpt lat="44.02992" lon="4.31486">
        <ele>196.5</ele>
        <time>2011-11-27T08:49:29Z</time>
      </trkpt>
      <trkpt lat="44.02997" lon="4.31488">
        <ele>196.6</ele>
        <time>2011-11-27T08:49:31Z</time>
      </trkpt>
      <trkpt lat="44.03002" lon="4.3149">
        <ele>196.3</ele>
        <time>2011-11-27T08:49:33Z</time>
      </trkpt>
      <trkpt lat="44.03007" lon="4.31491">
        <ele>196.4</ele>
        <time>2011-11-27T08:49:35Z</time>
      </trkpt>
      <trkpt lat="44.03011" lon="4.31494">
        <ele>196.6</ele>
        <time>2011-11-27T08:49:37Z</time>
      </trkpt>
      <trkpt lat="44.03016" lon="4.31496">
        <ele>196.8</ele>
        <time>2011-11-27T08:49:39Z</time>
      </trkpt>
      <trkpt lat="44.03021" lon="4.315">
        <ele>197</ele>
        <time>2011-11-27T08:49:41Z</time>
      </trkpt>
      <trkpt lat="44.03025" lon="4.31503">
        <ele>197.3</ele>
        <time>2011-11-27T08:49:43Z</time>
      </trkpt>
      <trkpt lat="44.0303" lon="4.31507">
        <ele>197.5</ele>
        <time>2011-11-27T08:49:45Z</time>
      </trkpt>
      <trkpt lat="44.03034" lon="4.31511">
        <ele>197.8</ele>
        <time>2011-11-27T08:49:47Z</time>
      </trkpt>
      <trkpt lat="44.03039" lon="4.31514">
        <ele>198</ele>
        <time>2011-11-27T08:49:49Z</time>
      </trkpt>
      <trkpt lat="44.03044" lon="4.31517">
        <ele>198.1</ele>
        <time>2011-11-27T08:49:51Z</time>
      </trkpt>
      <trkpt lat="44.03049" lon="4.3152">
        <ele>198.2</ele>
        <time>2011-11-27T08:49:53Z</time>
      </trkpt>
      <trkpt lat="44.03055" lon="4.31522">
        <ele>198.5</ele>
        <time>2011-11-27T08:49:55Z</time>
      </trkpt>
      <trkpt lat="44.0306" lon="4.31522">
        <ele>198.6</ele>
        <time>2011-11-27T08:49:57Z</time>
      </trkpt>
      <trkpt lat="44.03065" lon="4.31521">
        <ele>198.8</ele>
        <time>2011-11-27T08:49:59Z</time>
      </trkpt>
      <trkpt lat="44.0307" lon="4.31518">
        <ele>199</ele>
        <time>2011-11-27T08:50:01Z</time>
      </trkpt>
      <trkpt lat="44.03074" lon="4.31516">
        <ele>199.1</ele>
        <time>2011-11-27T08:50:03Z</time>
      </trkpt>
      <trkpt lat="44.0308" lon="4.31514">
        <ele>199.1</ele>
        <time>2011-11-27T08:50:05Z</time>
      </trkpt>
      <trkpt lat="44.03085" lon="4.31514">
        <ele>199.6</ele>
        <time>2011-11-27T08:50:07Z</time>
      </trkpt>
      <trkpt lat="44.0309" lon="4.31516">
        <ele>199.7</ele>
        <time>2011-11-27T08:50:09Z</time>
      </trkpt>
      <trkpt lat="44.03095" lon="4.31519">
        <ele>200.1</ele>
        <time>2011-11-27T08:50:11Z</time>
      </trkpt>
      <trkpt lat="44.031" lon="4.31523">
        <ele>200.3</ele>
        <time>2011-11-27T08:50:13Z</time>
      </trkpt>
      <trkpt lat="44.03105" lon="4.31527">
        <ele>200.5</ele>
        <time>2011-11-27T08:50:15Z</time>
      </trkpt>
      <trkpt lat="44.0311" lon="4.31531">
        <ele>200.7</ele>
        <time>2011-11-27T08:50:17Z</time>
      </trkpt>
      <trkpt lat="44.03114" lon="4.31535">
        <ele>201.3</ele>
        <time>2011-11-27T08:50:19Z</time>
      </trkpt>
      <trkpt lat="44.03118" lon="4.31538">
        <ele>201.7</ele>
        <time>2011-11-27T08:50:21Z</time>
      </trkpt>
      <trkpt lat="44.03123" lon="4.31542">
        <ele>201.9</ele>
        <time>2011-11-27T08:50:23Z</time>
      </trkpt>
      <trkpt lat="44.03128" lon="4.31545">
        <ele>201.9</ele>
        <time>2011-11-27T08:50:25Z</time>
      </trkpt>
      <trkpt lat="44.03133" lon="4.31549">
        <ele>202.2</ele>
        <time>2011-11-27T08:50:27Z</time>
      </trkpt>
      <trkpt lat="44.03138" lon="4.31552">
        <ele>202.1</ele>
        <time>2011-11-27T08:50:29Z</time>
      </trkpt>
      <trkpt lat="44.03142" lon="4.31557">
        <ele>202.2</ele>
        <time>2011-11-27T08:50:31Z</time>
      </trkpt>
      <trkpt lat="44.03147" lon="4.31561">
        <ele>202.4</ele>
        <time>2011-11-27T08:50:33Z</time>
      </trkpt>
      <trkpt lat="44.03151" lon="4.31564">
        <ele>202.6</ele>
        <time>2011-11-27T08:50:35Z</time>
      </trkpt>
      <trkpt lat="44.03156" lon="4.31568">
        <ele>203</ele>
        <time>2011-11-27T08:50:37Z</time>
      </trkpt>
      <trkpt lat="44.03161" lon="4.31572">
        <ele>203.3</ele>
        <time>2011-11-27T08:50:39Z</time>
      </trkpt>
      <trkpt lat="44.03165" lon="4.31576">
        <ele>203.6</ele>
        <time>2011-11-27T08:50:41Z</time>
      </trkpt>
      <trkpt lat="44.0317" lon="4.3158">
        <ele>204</ele>
        <time>2011-11-27T08:50:43Z</time>
      </trkpt>
      <trkpt lat="44.03174" lon="4.31584">
        <ele>204.3</ele>
        <time>2011-11-27T08:50:45Z</time>
      </trkpt>
      <trkpt lat="44.03179" lon="4.31588">
        <ele>204.5</ele>
        <time>2011-11-27T08:50:47Z</time>
      </trkpt>
      <trkpt lat="44.03184" lon="4.31592">
        <ele>204.9</ele>
        <time>2011-11-27T08:50:49Z</time>
      </trkpt>
      <trkpt lat="44.03189" lon="4.31595">
        <ele>205.1</ele>
        <time>2011-11-27T08:50:51Z</time>
      </trkpt>
      <trkpt lat="44.03194" lon="4.31599">
        <ele>205.4</ele>
        <time>2011-11-27T08:50:53Z</time>
      </trkpt>
      <trkpt lat="44.03199" lon="4.31603">
        <ele>205.7</ele>
        <time>2011-11-27T08:50:55Z</time>
      </trkpt>
      <trkpt lat="44.03204" lon="4.31606">
        <ele>205.8</ele>
        <time>2011-11-27T08:50:57Z</time>
      </trkpt>
      <trkpt lat="44.03209" lon="4.31611">
        <ele>206</ele>
        <time>2011-11-27T08:50:59Z</time>
      </trkpt>
      <trkpt lat="44.03214" lon="4.31615">
        <ele>206.3</ele>
        <time>2011-11-27T08:51:01Z</time>
      </trkpt>
      <trkpt lat="44.03219" lon="4.31618">
        <ele>206.5</ele>
        <time>2011-11-27T08:51:03Z</time>
      </trkpt>
      <trkpt lat="44.03224" lon="4.31622">
        <ele>206.8</ele>
        <time>2011-11-27T08:51:05Z</time>
      </trkpt>
      <trkpt lat="44.03229" lon="4.31626">
        <ele>206.9</ele>
        <time>2011-11-27T08:51:07Z</time>
      </trkpt>
      <trkpt lat="44.03234" lon="4.31629">
        <ele>207</ele>
        <time>2011-11-27T08:51:09Z</time>
      </trkpt>
      <trkpt lat="44.03239" lon="4.31633">
        <ele>207.1</ele>
        <time>2011-11-27T08:51:11Z</time>
      </trkpt>
      <trkpt lat="44.03244" lon="4.31637">
        <ele>207.3</ele>
        <time>2011-11-27T08:51:13Z</time>
      </trkpt>
      <trkpt lat="44.03249" lon="4.31641">
        <ele>207.6</ele>
        <time>2011-11-27T08:51:15Z</time>
      </trkpt>
      <trkpt lat="44.03254" lon="4.31644">
        <ele>207.9</ele>
        <time>2011-11-27T08:51:17Z</time>
      </trkpt>
      <trkpt lat="44.03259" lon="4.31648">
        <ele>208.3</ele>
        <time>2011-11-27T08:51:19Z</time>
      </trkpt>
      <trkpt lat="44.03264" lon="4.31652">
        <ele>208.7</ele>
        <time>2011-11-27T08:51:21Z</time>
      </trkpt>
      <trkpt lat="44.03269" lon="4.31655">
        <ele>209.3</ele>
        <time>2011-11-27T08:51:23Z</time>
      </trkpt>
      <trkpt lat="44.03274" lon="4.31659">
        <ele>209.7</ele>
        <time>2011-11-27T08:51:25Z</time>
      </trkpt>
      <trkpt lat="44.0328" lon="4.31662">
        <ele>210.1</ele>
        <time>2011-11-27T08:51:27Z</time>
      </trkpt>
      <trkpt lat="44.03285" lon="4.31666">
        <ele>210.6</ele>
        <time>2011-11-27T08:51:29Z</time>
      </trkpt>
      <trkpt lat="44.03291" lon="4.31669">
        <ele>211.1</ele>
        <time>2011-11-27T08:51:31Z</time>
      </trkpt>
      <trkpt lat="44.03296" lon="4.31672">
        <ele>211.5</ele>
        <time>2011-11-27T08:51:33Z</time>
      </trkpt>
      <trkpt lat="44.03302" lon="4.31674">
        <ele>211.8</ele>
        <time>2011-11-27T08:51:35Z</time>
      </trkpt>
      <trkpt lat="44.03308" lon="4.31677">
        <ele>212.1</ele>
        <time>2011-11-27T08:51:37Z</time>
      </trkpt>
      <trkpt lat="44.03313" lon="4.31679">
        <ele>212.5</ele>
        <time>2011-11-27T08:51:39Z</time>
      </trkpt>
      <trkpt lat="44.03318" lon="4.31682">
        <ele>212.8</ele>
        <time>2011-11-27T08:51:41Z</time>
      </trkpt>
      <trkpt lat="44.03324" lon="4.31684">
        <ele>213.1</ele>
        <time>2011-11-27T08:51:43Z</time>
      </trkpt>
      <trkpt lat="44.0333" lon="4.31687">
        <ele>213.3</ele>
        <time>2011-11-27T08:51:45Z</time>
      </trkpt>
      <trkpt lat="44.03336" lon="4.3169">
        <ele>213.6</ele>
        <time>2011-11-27T08:51:47Z</time>
      </trkpt>
      <trkpt lat="44.03341" lon="4.31693">
        <ele>214.1</ele>
        <time>2011-11-27T08:51:49Z</time>
      </trkpt>
      <trkpt lat="44.03347" lon="4.31696">
        <ele>214.5</ele>
        <time>2011-11-27T08:51:51Z</time>
      </trkpt>
      <trkpt lat="44.03353" lon="4.31698">
        <ele>215</ele>
        <time>2011-11-27T08:51:53Z</time>
      </trkpt>
      <trkpt lat="44.03358" lon="4.31701">
        <ele>215.5</ele>
        <time>2011-11-27T08:51:55Z</time>
      </trkpt>
      <trkpt lat="44.03364" lon="4.31703">
        <ele>215.9</ele>
        <time>2011-11-27T08:51:57Z</time>
      </trkpt>
      <trkpt lat="44.0337" lon="4.31706">
        <ele>216.3</ele>
        <time>2011-11-27T08:51:59Z</time>
      </trkpt>
      <trkpt lat="44.03375" lon="4.31709">
        <ele>216.4</ele>
        <time>2011-11-27T08:52:01Z</time>
      </trkpt>
      <trkpt lat="44.03382" lon="4.31712">
        <ele>216.9</ele>
        <time>2011-11-27T08:52:03Z</time>
      </trkpt>
      <trkpt lat="44.03388" lon="4.31715">
        <ele>217.2</ele>
        <time>2011-11-27T08:52:05Z</time>
      </trkpt>
      <trkpt lat="44.03395" lon="4.31718">
        <ele>217.6</ele>
        <time>2011-11-27T08:52:07Z</time>
      </trkpt>
      <trkpt lat="44.03401" lon="4.31721">
        <ele>218</ele>
        <time>2011-11-27T08:52:09Z</time>
      </trkpt>
      <trkpt lat="44.03409" lon="4.31725">
        <ele>218</ele>
        <time>2011-11-27T08:52:11Z</time>
      </trkpt>
      <trkpt lat="44.03416" lon="4.31728">
        <ele>218.1</ele>
        <time>2011-11-27T08:52:13Z</time>
      </trkpt>
      <trkpt lat="44.03423" lon="4.31731">
        <ele>218.3</ele>
        <time>2011-11-27T08:52:15Z</time>
      </trkpt>
      <trkpt lat="44.03429" lon="4.31733">
        <ele>218.9</ele>
        <time>2011-11-27T08:52:17Z</time>
      </trkpt>
      <trkpt lat="44.03436" lon="4.31736">
        <ele>219.6</ele>
        <time>2011-11-27T08:52:19Z</time>
      </trkpt>
      <trkpt lat="44.03442" lon="4.31739">
        <ele>220</ele>
        <time>2011-11-27T08:52:21Z</time>
      </trkpt>
      <trkpt lat="44.03449" lon="4.31741">
        <ele>220.3</ele>
        <time>2011-11-27T08:52:23Z</time>
      </trkpt>
      <trkpt lat="44.03455" lon="4.31744">
        <ele>220.9</ele>
        <time>2011-11-27T08:52:25Z</time>
      </trkpt>
      <trkpt lat="44.03461" lon="4.31747">
        <ele>221.4</ele>
        <time>2011-11-27T08:52:27Z</time>
      </trkpt>
      <trkpt lat="44.03467" lon="4.3175">
        <ele>221.9</ele>
        <time>2011-11-27T08:52:29Z</time>
      </trkpt>
      <trkpt lat="44.03473" lon="4.31754">
        <ele>222.2</ele>
        <time>2011-11-27T08:52:31Z</time>
      </trkpt>
      <trkpt lat="44.03479" lon="4.31758">
        <ele>222.4</ele>
        <time>2011-11-27T08:52:33Z</time>
      </trkpt>
      <trkpt lat="44.03485" lon="4.31762">
        <ele>222.6</ele>
        <time>2011-11-27T08:52:35Z</time>
      </trkpt>
      <trkpt lat="44.03491" lon="4.31765">
        <ele>223.2</ele>
        <time>2011-11-27T08:52:37Z</time>
      </trkpt>
      <trkpt lat="44.03497" lon="4.31769">
        <ele>223.4</ele>
        <time>2011-11-27T08:52:39Z</time>
      </trkpt>
      <trkpt lat="44.03502" lon="4.31774">
        <ele>223.6</ele>
        <time>2011-11-27T08:52:41Z</time>
      </trkpt>
      <trkpt lat="44.03508" lon="4.31778">
        <ele>223.9</ele>
        <time>2011-11-27T08:52:43Z</time>
      </trkpt>
      <trkpt lat="44.03513" lon="4.31783">
        <ele>224.1</ele>
        <time>2011-11-27T08:52:45Z</time>
      </trkpt>
      <trkpt lat="44.03518" lon="4.31788">
        <ele>224</ele>
        <time>2011-11-27T08:52:47Z</time>
      </trkpt>
      <trkpt lat="44.03524" lon="4.31792">
        <ele>224.3</ele>
        <time>2011-11-27T08:52:49Z</time>
      </trkpt>
      <trkpt lat="44.03529" lon="4.31797">
        <ele>224.7</ele>
        <time>2011-11-27T08:52:51Z</time>
      </trkpt>
      <trkpt lat="44.03534" lon="4.31801">
        <ele>225.1</ele>
        <time>2011-11-27T08:52:53Z</time>
      </trkpt>
      <trkpt lat="44.0354" lon="4.31806">
        <ele>225.8</ele>
        <time>2011-11-27T08:52:55Z</time>
      </trkpt>
      <trkpt lat="44.03545" lon="4.31811">
        <ele>226.2</ele>
        <time>2011-11-27T08:52:57Z</time>
      </trkpt>
      <trkpt lat="44.03551" lon="4.31816">
        <ele>226.9</ele>
        <time>2011-11-27T08:52:59Z</time>
      </trkpt>
      <trkpt lat="44.03556" lon="4.31822">
        <ele>227</ele>
        <time>2011-11-27T08:53:01Z</time>
      </trkpt>
      <trkpt lat="44.0356" lon="4.31826">
        <ele>228</ele>
        <time>2011-11-27T08:53:03Z</time>
      </trkpt>
      <trkpt lat="44.03564" lon="4.3183">
        <ele>228.9</ele>
        <time>2011-11-27T08:53:05Z</time>
      </trkpt>
      <trkpt lat="44.03568" lon="4.31835">
        <ele>229.6</ele>
        <time>2011-11-27T08:53:07Z</time>
      </trkpt>
      <trkpt lat="44.03574" lon="4.31839">
        <ele>230</ele>
        <time>2011-11-27T08:53:09Z</time>
      </trkpt>
      <trkpt lat="44.03578" lon="4.31843">
        <ele>230.3</ele>
        <time>2011-11-27T08:53:11Z</time>
      </trkpt>
      <trkpt lat="44.03583" lon="4.31848">
        <ele>230.8</ele>
        <time>2011-11-27T08:53:13Z</time>
      </trkpt>
      <trkpt lat="44.03589" lon="4.31854">
        <ele>231.1</ele>
        <time>2011-11-27T08:53:15Z</time>
      </trkpt>
      <trkpt lat="44.03592" lon="4.31858">
        <ele>231.2</ele>
        <time>2011-11-27T08:53:16Z</time>
      </trkpt>
      <trkpt lat="44.03599" lon="4.31867">
        <ele>230.9</ele>
        <time>2011-11-27T08:53:18Z</time>
      </trkpt>
      <trkpt lat="44.03603" lon="4.31872">
        <ele>230.7</ele>
        <time>2011-11-27T08:53:19Z</time>
      </trkpt>
      <trkpt lat="44.03607" lon="4.31877">
        <ele>230.5</ele>
        <time>2011-11-27T08:53:20Z</time>
      </trkpt>
      <trkpt lat="44.03612" lon="4.3188">
        <ele>230.5</ele>
        <time>2011-11-27T08:53:21Z</time>
      </trkpt>
      <trkpt lat="44.03618" lon="4.31883">
        <ele>230.4</ele>
        <time>2011-11-27T08:53:22Z</time>
      </trkpt>
      <trkpt lat="44.03624" lon="4.31885">
        <ele>230.5</ele>
        <time>2011-11-27T08:53:23Z</time>
      </trkpt>
      <trkpt lat="44.0363" lon="4.31888">
        <ele>230.6</ele>
        <time>2011-11-27T08:53:24Z</time>
      </trkpt>
      <trkpt lat="44.03636" lon="4.3189">
        <ele>230.4</ele>
        <time>2011-11-27T08:53:25Z</time>
      </trkpt>
      <trkpt lat="44.03643" lon="4.31892">
        <ele>230.2</ele>
        <time>2011-11-27T08:53:26Z</time>
      </trkpt>
      <trkpt lat="44.0365" lon="4.31894">
        <ele>229.6</ele>
        <time>2011-11-27T08:53:27Z</time>
      </trkpt>
      <trkpt lat="44.03657" lon="4.31896">
        <ele>229.2</ele>
        <time>2011-11-27T08:53:28Z</time>
      </trkpt>
      <trkpt lat="44.03664" lon="4.31898">
        <ele>228.6</ele>
        <time>2011-11-27T08:53:29Z</time>
      </trkpt>
      <trkpt lat="44.03671" lon="4.319">
        <ele>228.2</ele>
        <time>2011-11-27T08:53:30Z</time>
      </trkpt>
      <trkpt lat="44.03678" lon="4.31901">
        <ele>227.8</ele>
        <time>2011-11-27T08:53:31Z</time>
      </trkpt>
      <trkpt lat="44.03684" lon="4.31903">
        <ele>227.4</ele>
        <time>2011-11-27T08:53:32Z</time>
      </trkpt>
      <trkpt lat="44.0369" lon="4.31904">
        <ele>226.9</ele>
        <time>2011-11-27T08:53:33Z</time>
      </trkpt>
      <trkpt lat="44.03697" lon="4.31906">
        <ele>226.6</ele>
        <time>2011-11-27T08:53:34Z</time>
      </trkpt>
      <trkpt lat="44.03703" lon="4.31908">
        <ele>226.1</ele>
        <time>2011-11-27T08:53:35Z</time>
      </trkpt>
      <trkpt lat="44.03709" lon="4.31909">
        <ele>225.8</ele>
        <time>2011-11-27T08:53:36Z</time>
      </trkpt>
      <trkpt lat="44.03714" lon="4.31911">
        <ele>225.5</ele>
        <time>2011-11-27T08:53:37Z</time>
      </trkpt>
      <trkpt lat="44.03719" lon="4.31912">
        <ele>225.2</ele>
        <time>2011-11-27T08:53:38Z</time>
      </trkpt>
      <trkpt lat="44.03724" lon="4.31913">
        <ele>225.2</ele>
        <time>2011-11-27T08:53:39Z</time>
      </trkpt>
      <trkpt lat="44.03732" lon="4.31915">
        <ele>225.1</ele>
        <time>2011-11-27T08:53:41Z</time>
      </trkpt>
      <trkpt lat="44.03739" lon="4.31916">
        <ele>225.4</ele>
        <time>2011-11-27T08:53:43Z</time>
      </trkpt>
      <trkpt lat="44.03746" lon="4.31916">
        <ele>225.3</ele>
        <time>2011-11-27T08:53:45Z</time>
      </trkpt>
      <trkpt lat="44.03753" lon="4.31916">
        <ele>224.8</ele>
        <time>2011-11-27T08:53:47Z</time>
      </trkpt>
      <trkpt lat="44.0376" lon="4.31918">
        <ele>224.4</ele>
        <time>2011-11-27T08:53:49Z</time>
      </trkpt>
      <trkpt lat="44.03768" lon="4.31919">
        <ele>224</ele>
        <time>2011-11-27T08:53:51Z</time>
      </trkpt>
      <trkpt lat="44.03775" lon="4.3192">
        <ele>223.3</ele>
        <time>2011-11-27T08:53:53Z</time>
      </trkpt>
      <trkpt lat="44.03783" lon="4.31922">
        <ele>222.4</ele>
        <time>2011-11-27T08:53:55Z</time>
      </trkpt>
      <trkpt lat="44.0379" lon="4.31923">
        <ele>221.5</ele>
        <time>2011-11-27T08:53:57Z</time>
      </trkpt>
      <trkpt lat="44.03797" lon="4.31924">
        <ele>220.7</ele>
        <time>2011-11-27T08:53:59Z</time>
      </trkpt>
      <trkpt lat="44.03805" lon="4.31925">
        <ele>220.1</ele>
        <time>2011-11-27T08:54:01Z</time>
      </trkpt>
      <trkpt lat="44.03812" lon="4.31926">
        <ele>219.6</ele>
        <time>2011-11-27T08:54:03Z</time>
      </trkpt>
      <trkpt lat="44.03819" lon="4.31926">
        <ele>219.1</ele>
        <time>2011-11-27T08:54:05Z</time>
      </trkpt>
      <trkpt lat="44.03825" lon="4.31926">
        <ele>218.7</ele>
        <time>2011-11-27T08:54:07Z</time>
      </trkpt>
      <trkpt lat="44.0383" lon="4.31926">
        <ele>218.3</ele>
        <time>2011-11-27T08:54:09Z</time>
      </trkpt>
      <trkpt lat="44.03835" lon="4.31926">
        <ele>218.1</ele>
        <time>2011-11-27T08:54:11Z</time>
      </trkpt>
      <trkpt lat="44.0384" lon="4.31926">
        <ele>218</ele>
        <time>2011-11-27T08:54:14Z</time>
      </trkpt>
      <trkpt lat="44.03846" lon="4.31926">
        <ele>217.8</ele>
        <time>2011-11-27T08:54:17Z</time>
      </trkpt>
      <trkpt lat="44.03852" lon="4.31926">
        <ele>217.7</ele>
        <time>2011-11-27T08:54:19Z</time>
      </trkpt>
      <trkpt lat="44.03856" lon="4.31926">
        <ele>217.6</ele>
        <time>2011-11-27T08:54:21Z</time>
      </trkpt>
      <trkpt lat="44.03861" lon="4.31927">
        <ele>217.6</ele>
        <time>2011-11-27T08:54:23Z</time>
      </trkpt>
      <trkpt lat="44.03866" lon="4.31928">
        <ele>217.5</ele>
        <time>2011-11-27T08:54:26Z</time>
      </trkpt>
      <trkpt lat="44.03871" lon="4.31927">
        <ele>216.4</ele>
        <time>2011-11-27T08:55:25Z</time>
      </trkpt>
      <trkpt lat="44.03874" lon="4.3192">
        <ele>216.2</ele>
        <time>2011-11-27T08:55:27Z</time>
      </trkpt>
      <trkpt lat="44.03875" lon="4.31913">
        <ele>216.4</ele>
        <time>2011-11-27T08:55:29Z</time>
      </trkpt>
      <trkpt lat="44.03877" lon="4.31906">
        <ele>216.6</ele>
        <time>2011-11-27T08:55:32Z</time>
      </trkpt>
      <trkpt lat="44.03882" lon="4.31907">
        <ele>215.4</ele>
        <time>2011-11-27T08:56:22Z</time>
      </trkpt>
      <trkpt lat="44.03886" lon="4.31908">
        <ele>216</ele>
        <time>2011-11-27T08:56:29Z</time>
      </trkpt>
      <trkpt lat="44.03891" lon="4.3191">
        <ele>216.8</ele>
        <time>2011-11-27T08:56:36Z</time>
      </trkpt>
      <trkpt lat="44.03896" lon="4.31912">
        <ele>217</ele>
        <time>2011-11-27T08:56:40Z</time>
      </trkpt>
      <trkpt lat="44.03901" lon="4.31913">
        <ele>217.3</ele>
        <time>2011-11-27T08:56:43Z</time>
      </trkpt>
      <trkpt lat="44.03907" lon="4.31913">
        <ele>217.4</ele>
        <time>2011-11-27T08:56:46Z</time>
      </trkpt>
      <trkpt lat="44.03911" lon="4.31915">
        <ele>217.4</ele>
        <time>2011-11-27T08:56:48Z</time>
      </trkpt>
      <trkpt lat="44.03916" lon="4.31917">
        <ele>217.5</ele>
        <time>2011-11-27T08:56:50Z</time>
      </trkpt>
      <trkpt lat="44.0392" lon="4.31919">
        <ele>217.8</ele>
        <time>2011-11-27T08:56:52Z</time>
      </trkpt>
      <trkpt lat="44.03925" lon="4.3192">
        <ele>218</ele>
        <time>2011-11-27T08:56:54Z</time>
      </trkpt>
      <trkpt lat="44.0393" lon="4.3192">
        <ele>218.1</ele>
        <time>2011-11-27T08:56:56Z</time>
      </trkpt>
      <trkpt lat="44.03935" lon="4.31916">
        <ele>218.1</ele>
        <time>2011-11-27T08:56:58Z</time>
      </trkpt>
      <trkpt lat="44.03939" lon="4.3191">
        <ele>218.5</ele>
        <time>2011-11-27T08:57:00Z</time>
      </trkpt>
      <trkpt lat="44.03943" lon="4.31903">
        <ele>218.5</ele>
        <time>2011-11-27T08:57:02Z</time>
      </trkpt>
      <trkpt lat="44.03946" lon="4.31896">
        <ele>218.5</ele>
        <time>2011-11-27T08:57:04Z</time>
      </trkpt>
      <trkpt lat="44.0395" lon="4.31888">
        <ele>218.5</ele>
        <time>2011-11-27T08:57:06Z</time>
      </trkpt>
      <trkpt lat="44.03955" lon="4.31877">
        <ele>218.5</ele>
        <time>2011-11-27T08:57:08Z</time>
      </trkpt>
      <trkpt lat="44.03959" lon="4.31872">
        <ele>218.5</ele>
        <time>2011-11-27T08:57:09Z</time>
      </trkpt>
      <trkpt lat="44.03962" lon="4.31867">
        <ele>218.7</ele>
        <time>2011-11-27T08:57:10Z</time>
      </trkpt>
      <trkpt lat="44.03966" lon="4.31861">
        <ele>218.8</ele>
        <time>2011-11-27T08:57:11Z</time>
      </trkpt>
      <trkpt lat="44.0397" lon="4.31856">
        <ele>218.9</ele>
        <time>2011-11-27T08:57:12Z</time>
      </trkpt>
      <trkpt lat="44.03975" lon="4.31851">
        <ele>219</ele>
        <time>2011-11-27T08:57:13Z</time>
      </trkpt>
      <trkpt lat="44.0398" lon="4.31846">
        <ele>219.1</ele>
        <time>2011-11-27T08:57:14Z</time>
      </trkpt>
      <trkpt lat="44.03985" lon="4.31843">
        <ele>219.2</ele>
        <time>2011-11-27T08:57:15Z</time>
      </trkpt>
      <trkpt lat="44.0399" lon="4.31839">
        <ele>219.3</ele>
        <time>2011-11-27T08:57:16Z</time>
      </trkpt>
      <trkpt lat="44.03995" lon="4.31836">
        <ele>219.2</ele>
        <time>2011-11-27T08:57:17Z</time>
      </trkpt>
      <trkpt lat="44.04" lon="4.31834">
        <ele>219.1</ele>
        <time>2011-11-27T08:57:18Z</time>
      </trkpt>
      <trkpt lat="44.04005" lon="4.31832">
        <ele>219.4</ele>
        <time>2011-11-27T08:57:19Z</time>
      </trkpt>
      <trkpt lat="44.04012" lon="4.31834">
        <ele>221.1</ele>
        <time>2011-11-27T08:57:21Z</time>
      </trkpt>
      <trkpt lat="44.04017" lon="4.3184">
        <ele>222.9</ele>
        <time>2011-11-27T08:57:23Z</time>
      </trkpt>
      <trkpt lat="44.04018" lon="4.31847">
        <ele>224</ele>
        <time>2011-11-27T08:57:24Z</time>
      </trkpt>
      <trkpt lat="44.04019" lon="4.31855">
        <ele>225</ele>
        <time>2011-11-27T08:57:25Z</time>
      </trkpt>
      <trkpt lat="44.04019" lon="4.31865">
        <ele>226.3</ele>
        <time>2011-11-27T08:57:26Z</time>
      </trkpt>
      <trkpt lat="44.0402" lon="4.31873">
        <ele>226.8</ele>
        <time>2011-11-27T08:57:27Z</time>
      </trkpt>
      <trkpt lat="44.0402" lon="4.31881">
        <ele>227.3</ele>
        <time>2011-11-27T08:57:28Z</time>
      </trkpt>
      <trkpt lat="44.04021" lon="4.31888">
        <ele>227.6</ele>
        <time>2011-11-27T08:57:29Z</time>
      </trkpt>
      <trkpt lat="44.04021" lon="4.31895">
        <ele>227.8</ele>
        <time>2011-11-27T08:57:30Z</time>
      </trkpt>
      <trkpt lat="44.04021" lon="4.31908">
        <ele>228.4</ele>
        <time>2011-11-27T08:57:32Z</time>
      </trkpt>
      <trkpt lat="44.04021" lon="4.31915">
        <ele>228.7</ele>
        <time>2011-11-27T08:57:33Z</time>
      </trkpt>
      <trkpt lat="44.04022" lon="4.31922">
        <ele>228.7</ele>
        <time>2011-11-27T08:57:34Z</time>
      </trkpt>
      <trkpt lat="44.04023" lon="4.31928">
        <ele>228.7</ele>
        <time>2011-11-27T08:57:35Z</time>
      </trkpt>
      <trkpt lat="44.04024" lon="4.31936">
        <ele>227.8</ele>
        <time>2011-11-27T08:57:36Z</time>
      </trkpt>
      <trkpt lat="44.04026" lon="4.31942">
        <ele>227.3</ele>
        <time>2011-11-27T08:57:37Z</time>
      </trkpt>
      <trkpt lat="44.0403" lon="4.31947">
        <ele>227</ele>
        <time>2011-11-27T08:57:38Z</time>
      </trkpt>
      <trkpt lat="44.04035" lon="4.31951">
        <ele>226.8</ele>
        <time>2011-11-27T08:57:39Z</time>
      </trkpt>
      <trkpt lat="44.04041" lon="4.31954">
        <ele>226.5</ele>
        <time>2011-11-27T08:57:40Z</time>
      </trkpt>
      <trkpt lat="44.04046" lon="4.31954">
        <ele>226.2</ele>
        <time>2011-11-27T08:57:41Z</time>
      </trkpt>
      <trkpt lat="44.0405" lon="4.31955">
        <ele>225.8</ele>
        <time>2011-11-27T08:57:42Z</time>
      </trkpt>
      <trkpt lat="44.04058" lon="4.31956">
        <ele>225.8</ele>
        <time>2011-11-27T08:57:44Z</time>
      </trkpt>
      <trkpt lat="44.04065" lon="4.31958">
        <ele>225.8</ele>
        <time>2011-11-27T08:57:46Z</time>
      </trkpt>
      <trkpt lat="44.04072" lon="4.31959">
        <ele>225.9</ele>
        <time>2011-11-27T08:57:48Z</time>
      </trkpt>
      <trkpt lat="44.04078" lon="4.3196">
        <ele>226</ele>
        <time>2011-11-27T08:57:50Z</time>
      </trkpt>
      <trkpt lat="44.04084" lon="4.31961">
        <ele>226.1</ele>
        <time>2011-11-27T08:57:52Z</time>
      </trkpt>
      <trkpt lat="44.04091" lon="4.31962">
        <ele>226.4</ele>
        <time>2011-11-27T08:57:54Z</time>
      </trkpt>
      <trkpt lat="44.04097" lon="4.31964">
        <ele>226.6</ele>
        <time>2011-11-27T08:57:56Z</time>
      </trkpt>
      <trkpt lat="44.04103" lon="4.31966">
        <ele>226.9</ele>
        <time>2011-11-27T08:57:58Z</time>
      </trkpt>
      <trkpt lat="44.04109" lon="4.31968">
        <ele>226.9</ele>
        <time>2011-11-27T08:58:00Z</time>
      </trkpt>
      <trkpt lat="44.04116" lon="4.3197">
        <ele>227</ele>
        <time>2011-11-27T08:58:02Z</time>
      </trkpt>
      <trkpt lat="44.04123" lon="4.31972">
        <ele>227.3</ele>
        <time>2011-11-27T08:58:04Z</time>
      </trkpt>
      <trkpt lat="44.04129" lon="4.31973">
        <ele>227.7</ele>
        <time>2011-11-27T08:58:06Z</time>
      </trkpt>
      <trkpt lat="44.04137" lon="4.31973">
        <ele>228.1</ele>
        <time>2011-11-27T08:58:08Z</time>
      </trkpt>
      <trkpt lat="44.04144" lon="4.31973">
        <ele>228.3</ele>
        <time>2011-11-27T08:58:10Z</time>
      </trkpt>
      <trkpt lat="44.0415" lon="4.31972">
        <ele>228.5</ele>
        <time>2011-11-27T08:58:12Z</time>
      </trkpt>
      <trkpt lat="44.04155" lon="4.31971">
        <ele>228.7</ele>
        <time>2011-11-27T08:58:14Z</time>
      </trkpt>
      <trkpt lat="44.0416" lon="4.3197">
        <ele>229</ele>
        <time>2011-11-27T08:58:16Z</time>
      </trkpt>
      <trkpt lat="44.04166" lon="4.3197">
        <ele>229.2</ele>
        <time>2011-11-27T08:58:18Z</time>
      </trkpt>
      <trkpt lat="44.04171" lon="4.3197">
        <ele>229.4</ele>
        <time>2011-11-27T08:58:20Z</time>
      </trkpt>
      <trkpt lat="44.04177" lon="4.3197">
        <ele>229.9</ele>
        <time>2011-11-27T08:58:23Z</time>
      </trkpt>
      <trkpt lat="44.04182" lon="4.31968">
        <ele>230.5</ele>
        <time>2011-11-27T08:58:26Z</time>
      </trkpt>
      <trkpt lat="44.04187" lon="4.31968">
        <ele>232</ele>
        <time>2011-11-27T08:58:34Z</time>
      </trkpt>
      <trkpt lat="44.04192" lon="4.31968">
        <ele>232.4</ele>
        <time>2011-11-27T08:58:39Z</time>
      </trkpt>
      <trkpt lat="44.04196" lon="4.31969">
        <ele>233.3</ele>
        <time>2011-11-27T08:58:45Z</time>
      </trkpt>
      <trkpt lat="44.04201" lon="4.31971">
        <ele>233.9</ele>
        <time>2011-11-27T08:58:50Z</time>
      </trkpt>
      <trkpt lat="44.04206" lon="4.31972">
        <ele>234.8</ele>
        <time>2011-11-27T08:58:55Z</time>
      </trkpt>
      <trkpt lat="44.04211" lon="4.31973">
        <ele>235.8</ele>
        <time>2011-11-27T08:58:59Z</time>
      </trkpt>
      <trkpt lat="44.04216" lon="4.31972">
        <ele>236.8</ele>
        <time>2011-11-27T08:59:01Z</time>
      </trkpt>
      <trkpt lat="44.04222" lon="4.3197">
        <ele>238.4</ele>
        <time>2011-11-27T08:59:03Z</time>
      </trkpt>
      <trkpt lat="44.04228" lon="4.31967">
        <ele>239.1</ele>
        <time>2011-11-27T08:59:05Z</time>
      </trkpt>
      <trkpt lat="44.04235" lon="4.31966">
        <ele>239.1</ele>
        <time>2011-11-27T08:59:07Z</time>
      </trkpt>
      <trkpt lat="44.04242" lon="4.31965">
        <ele>239.2</ele>
        <time>2011-11-27T08:59:09Z</time>
      </trkpt>
      <trkpt lat="44.04248" lon="4.31965">
        <ele>239.1</ele>
        <time>2011-11-27T08:59:11Z</time>
      </trkpt>
      <trkpt lat="44.04253" lon="4.31964">
        <ele>239</ele>
        <time>2011-11-27T08:59:13Z</time>
      </trkpt>
      <trkpt lat="44.04261" lon="4.31964">
        <ele>239.1</ele>
        <time>2011-11-27T08:59:15Z</time>
      </trkpt>
      <trkpt lat="44.04267" lon="4.31964">
        <ele>239.4</ele>
        <time>2011-11-27T08:59:17Z</time>
      </trkpt>
      <trkpt lat="44.04273" lon="4.31964">
        <ele>239.4</ele>
        <time>2011-11-27T08:59:19Z</time>
      </trkpt>
      <trkpt lat="44.04279" lon="4.31964">
        <ele>239.6</ele>
        <time>2011-11-27T08:59:21Z</time>
      </trkpt>
      <trkpt lat="44.04285" lon="4.31963">
        <ele>239.7</ele>
        <time>2011-11-27T08:59:23Z</time>
      </trkpt>
      <trkpt lat="44.04291" lon="4.31964">
        <ele>239.3</ele>
        <time>2011-11-27T08:59:25Z</time>
      </trkpt>
      <trkpt lat="44.04297" lon="4.31964">
        <ele>239</ele>
        <time>2011-11-27T08:59:27Z</time>
      </trkpt>
      <trkpt lat="44.04302" lon="4.31964">
        <ele>238.8</ele>
        <time>2011-11-27T08:59:29Z</time>
      </trkpt>
      <trkpt lat="44.04308" lon="4.31965">
        <ele>238.4</ele>
        <time>2011-11-27T08:59:31Z</time>
      </trkpt>
      <trkpt lat="44.04314" lon="4.31966">
        <ele>238.6</ele>
        <time>2011-11-27T08:59:33Z</time>
      </trkpt>
      <trkpt lat="44.04322" lon="4.31965">
        <ele>238.4</ele>
        <time>2011-11-27T08:59:35Z</time>
      </trkpt>
      <trkpt lat="44.0433" lon="4.31965">
        <ele>238.3</ele>
        <time>2011-11-27T08:59:37Z</time>
      </trkpt>
      <trkpt lat="44.04337" lon="4.31966">
        <ele>238.4</ele>
        <time>2011-11-27T08:59:39Z</time>
      </trkpt>
      <trkpt lat="44.04342" lon="4.31966">
        <ele>237.7</ele>
        <time>2011-11-27T08:59:40Z</time>
      </trkpt>
      <trkpt lat="44.04352" lon="4.3197">
        <ele>237.6</ele>
        <time>2011-11-27T08:59:41Z</time>
      </trkpt>
      <trkpt lat="44.04361" lon="4.31974">
        <ele>237.4</ele>
        <time>2011-11-27T08:59:42Z</time>
      </trkpt>
      <trkpt lat="44.04367" lon="4.31978">
        <ele>237.6</ele>
        <time>2011-11-27T08:59:43Z</time>
      </trkpt>
      <trkpt lat="44.04373" lon="4.3198">
        <ele>237.4</ele>
        <time>2011-11-27T08:59:44Z</time>
      </trkpt>
      <trkpt lat="44.04378" lon="4.31982">
        <ele>237.2</ele>
        <time>2011-11-27T08:59:45Z</time>
      </trkpt>
      <trkpt lat="44.04384" lon="4.31984">
        <ele>237</ele>
        <time>2011-11-27T08:59:46Z</time>
      </trkpt>
      <trkpt lat="44.0439" lon="4.31985">
        <ele>236.7</ele>
        <time>2011-11-27T08:59:47Z</time>
      </trkpt>
      <trkpt lat="44.04396" lon="4.31986">
        <ele>236.5</ele>
        <time>2011-11-27T08:59:48Z</time>
      </trkpt>
      <trkpt lat="44.04402" lon="4.31986">
        <ele>236.4</ele>
        <time>2011-11-27T08:59:49Z</time>
      </trkpt>
      <trkpt lat="44.04408" lon="4.31988">
        <ele>236.3</ele>
        <time>2011-11-27T08:59:50Z</time>
      </trkpt>
      <trkpt lat="44.04414" lon="4.31989">
        <ele>236.3</ele>
        <time>2011-11-27T08:59:51Z</time>
      </trkpt>
      <trkpt lat="44.04421" lon="4.3199">
        <ele>236.5</ele>
        <time>2011-11-27T08:59:52Z</time>
      </trkpt>
      <trkpt lat="44.04427" lon="4.31991">
        <ele>236.4</ele>
        <time>2011-11-27T08:59:53Z</time>
      </trkpt>
      <trkpt lat="44.04434" lon="4.31992">
        <ele>236.3</ele>
        <time>2011-11-27T08:59:54Z</time>
      </trkpt>
      <trkpt lat="44.0444" lon="4.31992">
        <ele>235.8</ele>
        <time>2011-11-27T08:59:55Z</time>
      </trkpt>
      <trkpt lat="44.04447" lon="4.31993">
        <ele>235.5</ele>
        <time>2011-11-27T08:59:56Z</time>
      </trkpt>
      <trkpt lat="44.04454" lon="4.31994">
        <ele>234.9</ele>
        <time>2011-11-27T08:59:57Z</time>
      </trkpt>
      <trkpt lat="44.04462" lon="4.31995">
        <ele>234.3</ele>
        <time>2011-11-27T08:59:58Z</time>
      </trkpt>
      <trkpt lat="44.0447" lon="4.31997">
        <ele>233.4</ele>
        <time>2011-11-27T08:59:59Z</time>
      </trkpt>
      <trkpt lat="44.04478" lon="4.31998">
        <ele>232.5</ele>
        <time>2011-11-27T09:00:00Z</time>
      </trkpt>
      <trkpt lat="44.04486" lon="4.31999">
        <ele>231.7</ele>
        <time>2011-11-27T09:00:01Z</time>
      </trkpt>
      <trkpt lat="44.04494" lon="4.32">
        <ele>230.9</ele>
        <time>2011-11-27T09:00:02Z</time>
      </trkpt>
      <trkpt lat="44.04501" lon="4.32">
        <ele>230.1</ele>
        <time>2011-11-27T09:00:03Z</time>
      </trkpt>
      <trkpt lat="44.04508" lon="4.32001">
        <ele>229.5</ele>
        <time>2011-11-27T09:00:04Z</time>
      </trkpt>
      <trkpt lat="44.04516" lon="4.32002">
        <ele>228.7</ele>
        <time>2011-11-27T09:00:05Z</time>
      </trkpt>
      <trkpt lat="44.04523" lon="4.32003">
        <ele>228</ele>
        <time>2011-11-27T09:00:06Z</time>
      </trkpt>
      <trkpt lat="44.0453" lon="4.32004">
        <ele>227.3</ele>
        <time>2011-11-27T09:00:07Z</time>
      </trkpt>
      <trkpt lat="44.04537" lon="4.32006">
        <ele>226.7</ele>
        <time>2011-11-27T09:00:08Z</time>
      </trkpt>
      <trkpt lat="44.04544" lon="4.32009">
        <ele>226</ele>
        <time>2011-11-27T09:00:09Z</time>
      </trkpt>
      <trkpt lat="44.04551" lon="4.32012">
        <ele>225.3</ele>
        <time>2011-11-27T09:00:10Z</time>
      </trkpt>
      <trkpt lat="44.04557" lon="4.32016">
        <ele>224.5</ele>
        <time>2011-11-27T09:00:11Z</time>
      </trkpt>
      <trkpt lat="44.04563" lon="4.32021">
        <ele>223.7</ele>
        <time>2011-11-27T09:00:12Z</time>
      </trkpt>
      <trkpt lat="44.04569" lon="4.32027">
        <ele>223.1</ele>
        <time>2011-11-27T09:00:13Z</time>
      </trkpt>
      <trkpt lat="44.04573" lon="4.32034">
        <ele>222.6</ele>
        <time>2011-11-27T09:00:14Z</time>
      </trkpt>
      <trkpt lat="44.04577" lon="4.32043">
        <ele>222.2</ele>
        <time>2011-11-27T09:00:15Z</time>
      </trkpt>
      <trkpt lat="44.04581" lon="4.3205">
        <ele>221.7</ele>
        <time>2011-11-27T09:00:16Z</time>
      </trkpt>
      <trkpt lat="44.04585" lon="4.32057">
        <ele>221.3</ele>
        <time>2011-11-27T09:00:17Z</time>
      </trkpt>
      <trkpt lat="44.04589" lon="4.32064">
        <ele>220.9</ele>
        <time>2011-11-27T09:00:18Z</time>
      </trkpt>
      <trkpt lat="44.04593" lon="4.32071">
        <ele>220.5</ele>
        <time>2011-11-27T09:00:19Z</time>
      </trkpt>
      <trkpt lat="44.04596" lon="4.32078">
        <ele>220.2</ele>
        <time>2011-11-27T09:00:20Z</time>
      </trkpt>
      <trkpt lat="44.046" lon="4.32084">
        <ele>219.9</ele>
        <time>2011-11-27T09:00:21Z</time>
      </trkpt>
      <trkpt lat="44.04603" lon="4.3209">
        <ele>219.6</ele>
        <time>2011-11-27T09:00:22Z</time>
      </trkpt>
      <trkpt lat="44.04607" lon="4.32096">
        <ele>219.3</ele>
        <time>2011-11-27T09:00:23Z</time>
      </trkpt>
      <trkpt lat="44.0461" lon="4.32101">
        <ele>219</ele>
        <time>2011-11-27T09:00:24Z</time>
      </trkpt>
      <trkpt lat="44.04614" lon="4.32106">
        <ele>218.8</ele>
        <time>2011-11-27T09:00:25Z</time>
      </trkpt>
      <trkpt lat="44.04617" lon="4.32111">
        <ele>218.7</ele>
        <time>2011-11-27T09:00:26Z</time>
      </trkpt>
      <trkpt lat="44.04621" lon="4.32115">
        <ele>218.4</ele>
        <time>2011-11-27T09:00:27Z</time>
      </trkpt>
      <trkpt lat="44.04624" lon="4.32119">
        <ele>218.2</ele>
        <time>2011-11-27T09:00:28Z</time>
      </trkpt>
      <trkpt lat="44.0463" lon="4.32128">
        <ele>217.8</ele>
        <time>2011-11-27T09:00:30Z</time>
      </trkpt>
      <trkpt lat="44.04634" lon="4.32137">
        <ele>217.8</ele>
        <time>2011-11-27T09:00:32Z</time>
      </trkpt>
      <trkpt lat="44.04637" lon="4.32146">
        <ele>217.9</ele>
        <time>2011-11-27T09:00:34Z</time>
      </trkpt>
      <trkpt lat="44.04639" lon="4.32155">
        <ele>218.1</ele>
        <time>2011-11-27T09:00:36Z</time>
      </trkpt>
      <trkpt lat="44.04638" lon="4.32161">
        <ele>218.1</ele>
        <time>2011-11-27T09:00:38Z</time>
      </trkpt>
      <trkpt lat="44.04634" lon="4.32168">
        <ele>218.1</ele>
        <time>2011-11-27T09:00:40Z</time>
      </trkpt>
      <trkpt lat="44.04631" lon="4.32175">
        <ele>218.2</ele>
        <time>2011-11-27T09:00:42Z</time>
      </trkpt>
      <trkpt lat="44.04628" lon="4.32183">
        <ele>218.2</ele>
        <time>2011-11-27T09:00:44Z</time>
      </trkpt>
      <trkpt lat="44.04625" lon="4.32191">
        <ele>218.3</ele>
        <time>2011-11-27T09:00:46Z</time>
      </trkpt>
      <trkpt lat="44.04624" lon="4.32199">
        <ele>218.1</ele>
        <time>2011-11-27T09:00:48Z</time>
      </trkpt>
      <trkpt lat="44.04622" lon="4.32206">
        <ele>218.2</ele>
        <time>2011-11-27T09:00:50Z</time>
      </trkpt>
      <trkpt lat="44.04625" lon="4.32214">
        <ele>218.5</ele>
        <time>2011-11-27T09:00:52Z</time>
      </trkpt>
      <trkpt lat="44.04632" lon="4.3222">
        <ele>219</ele>
        <time>2011-11-27T09:00:54Z</time>
      </trkpt>
      <trkpt lat="44.04637" lon="4.32222">
        <ele>219.3</ele>
        <time>2011-11-27T09:00:55Z</time>
      </trkpt>
      <trkpt lat="44.04646" lon="4.32224">
        <ele>219.9</ele>
        <time>2011-11-27T09:00:57Z</time>
      </trkpt>
      <trkpt lat="44.04651" lon="4.32224">
        <ele>220.1</ele>
        <time>2011-11-27T09:00:58Z</time>
      </trkpt>
      <trkpt lat="44.04656" lon="4.32224">
        <ele>219.9</ele>
        <time>2011-11-27T09:00:59Z</time>
      </trkpt>
      <trkpt lat="44.04662" lon="4.32224">
        <ele>219.7</ele>
        <time>2011-11-27T09:01:00Z</time>
      </trkpt>
      <trkpt lat="44.0467" lon="4.32224">
        <ele>219.3</ele>
        <time>2011-11-27T09:01:01Z</time>
      </trkpt>
      <trkpt lat="44.04678" lon="4.32225">
        <ele>219</ele>
        <time>2011-11-27T09:01:02Z</time>
      </trkpt>
      <trkpt lat="44.04684" lon="4.32225">
        <ele>218.7</ele>
        <time>2011-11-27T09:01:03Z</time>
      </trkpt>
      <trkpt lat="44.04691" lon="4.32226">
        <ele>218.4</ele>
        <time>2011-11-27T09:01:04Z</time>
      </trkpt>
      <trkpt lat="44.04697" lon="4.32226">
        <ele>218.2</ele>
        <time>2011-11-27T09:01:05Z</time>
      </trkpt>
      <trkpt lat="44.04702" lon="4.32226">
        <ele>217.9</ele>
        <time>2011-11-27T09:01:06Z</time>
      </trkpt>
      <trkpt lat="44.04708" lon="4.32226">
        <ele>217.7</ele>
        <time>2011-11-27T09:01:07Z</time>
      </trkpt>
      <trkpt lat="44.04713" lon="4.32227">
        <ele>217.5</ele>
        <time>2011-11-27T09:01:08Z</time>
      </trkpt>
      <trkpt lat="44.04718" lon="4.32228">
        <ele>217.2</ele>
        <time>2011-11-27T09:01:09Z</time>
      </trkpt>
      <trkpt lat="44.04722" lon="4.3223">
        <ele>216.9</ele>
        <time>2011-11-27T09:01:10Z</time>
      </trkpt>
      <trkpt lat="44.04729" lon="4.32238">
        <ele>216.9</ele>
        <time>2011-11-27T09:01:12Z</time>
      </trkpt>
      <trkpt lat="44.04732" lon="4.32244">
        <ele>217</ele>
        <time>2011-11-27T09:01:13Z</time>
      </trkpt>
      <trkpt lat="44.04734" lon="4.32251">
        <ele>216.9</ele>
        <time>2011-11-27T09:01:14Z</time>
      </trkpt>
      <trkpt lat="44.04734" lon="4.32257">
        <ele>216.8</ele>
        <time>2011-11-27T09:01:15Z</time>
      </trkpt>
      <trkpt lat="44.04736" lon="4.32269">
        <ele>216.2</ele>
        <time>2011-11-27T09:01:17Z</time>
      </trkpt>
      <trkpt lat="44.04737" lon="4.32276">
        <ele>215.3</ele>
        <time>2011-11-27T09:01:18Z</time>
      </trkpt>
      <trkpt lat="44.04738" lon="4.32288">
        <ele>214.5</ele>
        <time>2011-11-27T09:01:20Z</time>
      </trkpt>
      <trkpt lat="44.0474" lon="4.32298">
        <ele>213.8</ele>
        <time>2011-11-27T09:01:22Z</time>
      </trkpt>
      <trkpt lat="44.04742" lon="4.32308">
        <ele>213.3</ele>
        <time>2011-11-27T09:01:24Z</time>
      </trkpt>
      <trkpt lat="44.04744" lon="4.32317">
        <ele>212.8</ele>
        <time>2011-11-27T09:01:26Z</time>
      </trkpt>
      <trkpt lat="44.04746" lon="4.32323">
        <ele>212.4</ele>
        <time>2011-11-27T09:01:28Z</time>
      </trkpt>
      <trkpt lat="44.04749" lon="4.32328">
        <ele>211.2</ele>
        <time>2011-11-27T09:01:54Z</time>
      </trkpt>
      <trkpt lat="44.04754" lon="4.32325">
        <ele>211.1</ele>
        <time>2011-11-27T09:01:58Z</time>
      </trkpt>
      <trkpt lat="44.0476" lon="4.32322">
        <ele>211.1</ele>
        <time>2011-11-27T09:02:01Z</time>
      </trkpt>
      <trkpt lat="44.04764" lon="4.3232">
        <ele>211</ele>
        <time>2011-11-27T09:02:03Z</time>
      </trkpt>
      <trkpt lat="44.04769" lon="4.32317">
        <ele>211</ele>
        <time>2011-11-27T09:02:05Z</time>
      </trkpt>
      <trkpt lat="44.04774" lon="4.32314">
        <ele>211.2</ele>
        <time>2011-11-27T09:02:07Z</time>
      </trkpt>
      <trkpt lat="44.04779" lon="4.3231">
        <ele>211.5</ele>
        <time>2011-11-27T09:02:09Z</time>
      </trkpt>
      <trkpt lat="44.04783" lon="4.32306">
        <ele>211.4</ele>
        <time>2011-11-27T09:02:11Z</time>
      </trkpt>
      <trkpt lat="44.04788" lon="4.32302">
        <ele>211.4</ele>
        <time>2011-11-27T09:02:13Z</time>
      </trkpt>
      <trkpt lat="44.04793" lon="4.32299">
        <ele>211.6</ele>
        <time>2011-11-27T09:02:15Z</time>
      </trkpt>
      <trkpt lat="44.04798" lon="4.32295">
        <ele>211.8</ele>
        <time>2011-11-27T09:02:17Z</time>
      </trkpt>
      <trkpt lat="44.04804" lon="4.32291">
        <ele>211.7</ele>
        <time>2011-11-27T09:02:19Z</time>
      </trkpt>
      <trkpt lat="44.04809" lon="4.32287">
        <ele>211.9</ele>
        <time>2011-11-27T09:02:21Z</time>
      </trkpt>
      <trkpt lat="44.04814" lon="4.32282">
        <ele>212</ele>
        <time>2011-11-27T09:02:23Z</time>
      </trkpt>
      <trkpt lat="44.04819" lon="4.32278">
        <ele>212</ele>
        <time>2011-11-27T09:02:25Z</time>
      </trkpt>
      <trkpt lat="44.04824" lon="4.32274">
        <ele>212.4</ele>
        <time>2011-11-27T09:02:27Z</time>
      </trkpt>
      <trkpt lat="44.04829" lon="4.32271">
        <ele>212.3</ele>
        <time>2011-11-27T09:02:29Z</time>
      </trkpt>
      <trkpt lat="44.04835" lon="4.32267">
        <ele>212.3</ele>
        <time>2011-11-27T09:02:31Z</time>
      </trkpt>
      <trkpt lat="44.04841" lon="4.32264">
        <ele>212.3</ele>
        <time>2011-11-27T09:02:33Z</time>
      </trkpt>
      <trkpt lat="44.04847" lon="4.32261">
        <ele>212.4</ele>
        <time>2011-11-27T09:02:35Z</time>
      </trkpt>
      <trkpt lat="44.04854" lon="4.32259">
        <ele>212.5</ele>
        <time>2011-11-27T09:02:37Z</time>
      </trkpt>
      <trkpt lat="44.0486" lon="4.32257">
        <ele>212.4</ele>
        <time>2011-11-27T09:02:39Z</time>
      </trkpt>
      <trkpt lat="44.04867" lon="4.32255">
        <ele>212.5</ele>
        <time>2011-11-27T09:02:41Z</time>
      </trkpt>
      <trkpt lat="44.04873" lon="4.32253">
        <ele>212.5</ele>
        <time>2011-11-27T09:02:43Z</time>
      </trkpt>
      <trkpt lat="44.0488" lon="4.32251">
        <ele>212.5</ele>
        <time>2011-11-27T09:02:45Z</time>
      </trkpt>
      <trkpt lat="44.04886" lon="4.32249">
        <ele>212.8</ele>
        <time>2011-11-27T09:02:47Z</time>
      </trkpt>
      <trkpt lat="44.04893" lon="4.32247">
        <ele>213</ele>
        <time>2011-11-27T09:02:49Z</time>
      </trkpt>
      <trkpt lat="44.04899" lon="4.32245">
        <ele>213.1</ele>
        <time>2011-11-27T09:02:51Z</time>
      </trkpt>
      <trkpt lat="44.04905" lon="4.32244">
        <ele>213</ele>
        <time>2011-11-27T09:02:53Z</time>
      </trkpt>
      <trkpt lat="44.04912" lon="4.32242">
        <ele>212.9</ele>
        <time>2011-11-27T09:02:55Z</time>
      </trkpt>
      <trkpt lat="44.04918" lon="4.3224">
        <ele>213.3</ele>
        <time>2011-11-27T09:02:57Z</time>
      </trkpt>
      <trkpt lat="44.04925" lon="4.32239">
        <ele>213.4</ele>
        <time>2011-11-27T09:02:59Z</time>
      </trkpt>
      <trkpt lat="44.04931" lon="4.32237">
        <ele>213.6</ele>
        <time>2011-11-27T09:03:01Z</time>
      </trkpt>
      <trkpt lat="44.04936" lon="4.32236">
        <ele>214</ele>
        <time>2011-11-27T09:03:03Z</time>
      </trkpt>
      <trkpt lat="44.04942" lon="4.32234">
        <ele>214.3</ele>
        <time>2011-11-27T09:03:05Z</time>
      </trkpt>
      <trkpt lat="44.04947" lon="4.32233">
        <ele>214.6</ele>
        <time>2011-11-27T09:03:07Z</time>
      </trkpt>
      <trkpt lat="44.04952" lon="4.32232">
        <ele>215.1</ele>
        <time>2011-11-27T09:03:09Z</time>
      </trkpt>
      <trkpt lat="44.04957" lon="4.32232">
        <ele>215.3</ele>
        <time>2011-11-27T09:03:11Z</time>
      </trkpt>
      <trkpt lat="44.04963" lon="4.32232">
        <ele>215.6</ele>
        <time>2011-11-27T09:03:13Z</time>
      </trkpt>
      <trkpt lat="44.04968" lon="4.32232">
        <ele>215.9</ele>
        <time>2011-11-27T09:03:15Z</time>
      </trkpt>
      <trkpt lat="44.04973" lon="4.32233">
        <ele>216.1</ele>
        <time>2011-11-27T09:03:17Z</time>
      </trkpt>
      <trkpt lat="44.04979" lon="4.32233">
        <ele>216.3</ele>
        <time>2011-11-27T09:03:19Z</time>
      </trkpt>
      <trkpt lat="44.04984" lon="4.32234">
        <ele>216.7</ele>
        <time>2011-11-27T09:03:21Z</time>
      </trkpt>
      <trkpt lat="44.04989" lon="4.32234">
        <ele>216.7</ele>
        <time>2011-11-27T09:03:23Z</time>
      </trkpt>
      <trkpt lat="44.04994" lon="4.32233">
        <ele>216.9</ele>
        <time>2011-11-27T09:03:25Z</time>
      </trkpt>
      <trkpt lat="44.05" lon="4.32233">
        <ele>217</ele>
        <time>2011-11-27T09:03:27Z</time>
      </trkpt>
      <trkpt lat="44.05006" lon="4.32232">
        <ele>217</ele>
        <time>2011-11-27T09:03:29Z</time>
      </trkpt>
      <trkpt lat="44.05012" lon="4.32232">
        <ele>217.2</ele>
        <time>2011-11-27T09:03:31Z</time>
      </trkpt>
      <trkpt lat="44.05018" lon="4.32232">
        <ele>217.4</ele>
        <time>2011-11-27T09:03:33Z</time>
      </trkpt>
      <trkpt lat="44.05024" lon="4.32232">
        <ele>217.5</ele>
        <time>2011-11-27T09:03:35Z</time>
      </trkpt>
      <trkpt lat="44.05029" lon="4.32231">
        <ele>217.4</ele>
        <time>2011-11-27T09:03:37Z</time>
      </trkpt>
      <trkpt lat="44.05035" lon="4.32231">
        <ele>217.8</ele>
        <time>2011-11-27T09:03:39Z</time>
      </trkpt>
      <trkpt lat="44.0504" lon="4.32231">
        <ele>218.3</ele>
        <time>2011-11-27T09:03:41Z</time>
      </trkpt>
      <trkpt lat="44.05046" lon="4.3223">
        <ele>218.8</ele>
        <time>2011-11-27T09:03:43Z</time>
      </trkpt>
      <trkpt lat="44.05051" lon="4.32229">
        <ele>219.3</ele>
        <time>2011-11-27T09:03:45Z</time>
      </trkpt>
      <trkpt lat="44.05056" lon="4.32229">
        <ele>219.5</ele>
        <time>2011-11-27T09:03:47Z</time>
      </trkpt>
      <trkpt lat="44.05061" lon="4.32232">
        <ele>219.8</ele>
        <time>2011-11-27T09:03:49Z</time>
      </trkpt>
      <trkpt lat="44.05065" lon="4.32237">
        <ele>220.3</ele>
        <time>2011-11-27T09:03:51Z</time>
      </trkpt>
      <trkpt lat="44.05068" lon="4.32246">
        <ele>220.6</ele>
        <time>2011-11-27T09:03:53Z</time>
      </trkpt>
      <trkpt lat="44.0507" lon="4.32255">
        <ele>220.9</ele>
        <time>2011-11-27T09:03:55Z</time>
      </trkpt>
      <trkpt lat="44.05071" lon="4.32264">
        <ele>221</ele>
        <time>2011-11-27T09:03:57Z</time>
      </trkpt>
      <trkpt lat="44.05074" lon="4.32271">
        <ele>221</ele>
        <time>2011-11-27T09:03:59Z</time>
      </trkpt>
      <trkpt lat="44.05077" lon="4.32278">
        <ele>221</ele>
        <time>2011-11-27T09:04:01Z</time>
      </trkpt>
      <trkpt lat="44.05081" lon="4.32284">
        <ele>220.7</ele>
        <time>2011-11-27T09:04:03Z</time>
      </trkpt>
      <trkpt lat="44.05086" lon="4.32289">
        <ele>220.6</ele>
        <time>2011-11-27T09:04:05Z</time>
      </trkpt>
      <trkpt lat="44.05092" lon="4.32294">
        <ele>220.5</ele>
        <time>2011-11-27T09:04:07Z</time>
      </trkpt>
      <trkpt lat="44.05098" lon="4.32297">
        <ele>220.3</ele>
        <time>2011-11-27T09:04:09Z</time>
      </trkpt>
      <trkpt lat="44.05106" lon="4.32301">
        <ele>219.9</ele>
        <time>2011-11-27T09:04:11Z</time>
      </trkpt>
      <trkpt lat="44.0511" lon="4.32303">
        <ele>219.6</ele>
        <time>2011-11-27T09:04:12Z</time>
      </trkpt>
      <trkpt lat="44.05115" lon="4.32305">
        <ele>219.4</ele>
        <time>2011-11-27T09:04:13Z</time>
      </trkpt>
      <trkpt lat="44.05119" lon="4.32308">
        <ele>219.1</ele>
        <time>2011-11-27T09:04:14Z</time>
      </trkpt>
      <trkpt lat="44.05123" lon="4.3231">
        <ele>218.8</ele>
        <time>2011-11-27T09:04:15Z</time>
      </trkpt>
      <trkpt lat="44.05128" lon="4.32312">
        <ele>218.7</ele>
        <time>2011-11-27T09:04:16Z</time>
      </trkpt>
      <trkpt lat="44.05132" lon="4.32314">
        <ele>218.5</ele>
        <time>2011-11-27T09:04:17Z</time>
      </trkpt>
      <trkpt lat="44.05137" lon="4.32316">
        <ele>218.4</ele>
        <time>2011-11-27T09:04:18Z</time>
      </trkpt>
      <trkpt lat="44.05141" lon="4.32318">
        <ele>218.2</ele>
        <time>2011-11-27T09:04:19Z</time>
      </trkpt>
      <trkpt lat="44.05146" lon="4.3232">
        <ele>218.1</ele>
        <time>2011-11-27T09:04:20Z</time>
      </trkpt>
      <trkpt lat="44.0515" lon="4.32322">
        <ele>218</ele>
        <time>2011-11-27T09:04:21Z</time>
      </trkpt>
      <trkpt lat="44.05158" lon="4.32325">
        <ele>218</ele>
        <time>2011-11-27T09:04:23Z</time>
      </trkpt>
      <trkpt lat="44.05166" lon="4.32329">
        <ele>218.1</ele>
        <time>2011-11-27T09:04:25Z</time>
      </trkpt>
      <trkpt lat="44.05174" lon="4.32333">
        <ele>218.1</ele>
        <time>2011-11-27T09:04:27Z</time>
      </trkpt>
      <trkpt lat="44.05181" lon="4.32337">
        <ele>218.1</ele>
        <time>2011-11-27T09:04:29Z</time>
      </trkpt>
      <trkpt lat="44.05187" lon="4.3234">
        <ele>217.7</ele>
        <time>2011-11-27T09:04:31Z</time>
      </trkpt>
      <trkpt lat="44.05194" lon="4.32342">
        <ele>217.6</ele>
        <time>2011-11-27T09:04:33Z</time>
      </trkpt>
      <trkpt lat="44.05199" lon="4.32345">
        <ele>217.6</ele>
        <time>2011-11-27T09:04:35Z</time>
      </trkpt>
      <trkpt lat="44.05204" lon="4.32348">
        <ele>217.7</ele>
        <time>2011-11-27T09:04:37Z</time>
      </trkpt>
      <trkpt lat="44.0521" lon="4.32351">
        <ele>217.5</ele>
        <time>2011-11-27T09:04:39Z</time>
      </trkpt>
      <trkpt lat="44.05216" lon="4.32355">
        <ele>217.2</ele>
        <time>2011-11-27T09:04:41Z</time>
      </trkpt>
      <trkpt lat="44.05224" lon="4.32359">
        <ele>217.1</ele>
        <time>2011-11-27T09:04:43Z</time>
      </trkpt>
      <trkpt lat="44.05228" lon="4.32363">
        <ele>217.3</ele>
        <time>2011-11-27T09:04:44Z</time>
      </trkpt>
      <trkpt lat="44.05232" lon="4.32367">
        <ele>217.4</ele>
        <time>2011-11-27T09:04:45Z</time>
      </trkpt>
      <trkpt lat="44.05235" lon="4.32372">
        <ele>217.5</ele>
        <time>2011-11-27T09:04:46Z</time>
      </trkpt>
      <trkpt lat="44.05238" lon="4.32378">
        <ele>217.8</ele>
        <time>2011-11-27T09:04:47Z</time>
      </trkpt>
      <trkpt lat="44.05239" lon="4.32384">
        <ele>218</ele>
        <time>2011-11-27T09:04:48Z</time>
      </trkpt>
      <trkpt lat="44.0524" lon="4.32396">
        <ele>218.3</ele>
        <time>2011-11-27T09:04:50Z</time>
      </trkpt>
      <trkpt lat="44.05239" lon="4.32406">
        <ele>218.7</ele>
        <time>2011-11-27T09:04:52Z</time>
      </trkpt>
      <trkpt lat="44.05238" lon="4.32417">
        <ele>219</ele>
        <time>2011-11-27T09:04:54Z</time>
      </trkpt>
      <trkpt lat="44.05236" lon="4.32426">
        <ele>219.1</ele>
        <time>2011-11-27T09:04:56Z</time>
      </trkpt>
      <trkpt lat="44.05232" lon="4.32434">
        <ele>219.3</ele>
        <time>2011-11-27T09:04:58Z</time>
      </trkpt>
      <trkpt lat="44.05228" lon="4.32441">
        <ele>219.2</ele>
        <time>2011-11-27T09:05:00Z</time>
      </trkpt>
      <trkpt lat="44.05225" lon="4.32449">
        <ele>219.1</ele>
        <time>2011-11-27T09:05:02Z</time>
      </trkpt>
      <trkpt lat="44.05222" lon="4.32458">
        <ele>219.1</ele>
        <time>2011-11-27T09:05:04Z</time>
      </trkpt>
      <trkpt lat="44.05221" lon="4.32468">
        <ele>219</ele>
        <time>2011-11-27T09:05:06Z</time>
      </trkpt>
      <trkpt lat="44.05221" lon="4.32479">
        <ele>218.9</ele>
        <time>2011-11-27T09:05:08Z</time>
      </trkpt>
      <trkpt lat="44.05221" lon="4.3249">
        <ele>218.6</ele>
        <time>2011-11-27T09:05:10Z</time>
      </trkpt>
      <trkpt lat="44.05221" lon="4.32501">
        <ele>218.6</ele>
        <time>2011-11-27T09:05:12Z</time>
      </trkpt>
      <trkpt lat="44.05221" lon="4.32512">
        <ele>218.5</ele>
        <time>2011-11-27T09:05:14Z</time>
      </trkpt>
      <trkpt lat="44.05221" lon="4.32523">
        <ele>218.3</ele>
        <time>2011-11-27T09:05:16Z</time>
      </trkpt>
      <trkpt lat="44.05222" lon="4.32533">
        <ele>218.5</ele>
        <time>2011-11-27T09:05:18Z</time>
      </trkpt>
      <trkpt lat="44.05223" lon="4.32545">
        <ele>218.6</ele>
        <time>2011-11-27T09:05:20Z</time>
      </trkpt>
      <trkpt lat="44.05225" lon="4.32556">
        <ele>218.5</ele>
        <time>2011-11-27T09:05:22Z</time>
      </trkpt>
      <trkpt lat="44.05227" lon="4.32567">
        <ele>218.3</ele>
        <time>2011-11-27T09:05:24Z</time>
      </trkpt>
      <trkpt lat="44.0523" lon="4.32578">
        <ele>218.1</ele>
        <time>2011-11-27T09:05:26Z</time>
      </trkpt>
      <trkpt lat="44.05233" lon="4.32589">
        <ele>218.3</ele>
        <time>2011-11-27T09:05:28Z</time>
      </trkpt>
      <trkpt lat="44.05236" lon="4.32599">
        <ele>218.2</ele>
        <time>2011-11-27T09:05:30Z</time>
      </trkpt>
      <trkpt lat="44.0524" lon="4.3261">
        <ele>218.2</ele>
        <time>2011-11-27T09:05:32Z</time>
      </trkpt>
      <trkpt lat="44.05244" lon="4.3262">
        <ele>218.4</ele>
        <time>2011-11-27T09:05:34Z</time>
      </trkpt>
      <trkpt lat="44.05248" lon="4.3263">
        <ele>218.7</ele>
        <time>2011-11-27T09:05:36Z</time>
      </trkpt>
      <trkpt lat="44.05252" lon="4.32639">
        <ele>218.8</ele>
        <time>2011-11-27T09:05:38Z</time>
      </trkpt>
      <trkpt lat="44.05256" lon="4.32647">
        <ele>219.1</ele>
        <time>2011-11-27T09:05:40Z</time>
      </trkpt>
      <trkpt lat="44.05259" lon="4.32655">
        <ele>219.2</ele>
        <time>2011-11-27T09:05:42Z</time>
      </trkpt>
      <trkpt lat="44.05263" lon="4.32663">
        <ele>219.4</ele>
        <time>2011-11-27T09:05:44Z</time>
      </trkpt>
      <trkpt lat="44.05267" lon="4.32672">
        <ele>219.6</ele>
        <time>2011-11-27T09:05:46Z</time>
      </trkpt>
      <trkpt lat="44.05271" lon="4.3268">
        <ele>219.9</ele>
        <time>2011-11-27T09:05:48Z</time>
      </trkpt>
      <trkpt lat="44.05276" lon="4.32689">
        <ele>220.5</ele>
        <time>2011-11-27T09:05:50Z</time>
      </trkpt>
      <trkpt lat="44.0528" lon="4.32698">
        <ele>220.8</ele>
        <time>2011-11-27T09:05:52Z</time>
      </trkpt>
      <trkpt lat="44.05285" lon="4.32708">
        <ele>221</ele>
        <time>2011-11-27T09:05:54Z</time>
      </trkpt>
      <trkpt lat="44.0529" lon="4.32717">
        <ele>221.1</ele>
        <time>2011-11-27T09:05:56Z</time>
      </trkpt>
      <trkpt lat="44.05295" lon="4.32725">
        <ele>221.2</ele>
        <time>2011-11-27T09:05:58Z</time>
      </trkpt>
      <trkpt lat="44.053" lon="4.32728">
        <ele>222</ele>
        <time>2011-11-27T09:06:00Z</time>
      </trkpt>
      <trkpt lat="44.05307" lon="4.3273">
        <ele>222.7</ele>
        <time>2011-11-27T09:06:02Z</time>
      </trkpt>
      <trkpt lat="44.05314" lon="4.32733">
        <ele>223.6</ele>
        <time>2011-11-27T09:06:04Z</time>
      </trkpt>
      <trkpt lat="44.0532" lon="4.32736">
        <ele>224.1</ele>
        <time>2011-11-27T09:06:06Z</time>
      </trkpt>
      <trkpt lat="44.05327" lon="4.3274">
        <ele>224.6</ele>
        <time>2011-11-27T09:06:08Z</time>
      </trkpt>
      <trkpt lat="44.05334" lon="4.32745">
        <ele>224.7</ele>
        <time>2011-11-27T09:06:10Z</time>
      </trkpt>
      <trkpt lat="44.05341" lon="4.32751">
        <ele>225</ele>
        <time>2011-11-27T09:06:12Z</time>
      </trkpt>
      <trkpt lat="44.05347" lon="4.32755">
        <ele>225.7</ele>
        <time>2011-11-27T09:06:14Z</time>
      </trkpt>
      <trkpt lat="44.05352" lon="4.32762">
        <ele>226.4</ele>
        <time>2011-11-27T09:06:16Z</time>
      </trkpt>
      <trkpt lat="44.05358" lon="4.32768">
        <ele>226.8</ele>
        <time>2011-11-27T09:06:18Z</time>
      </trkpt>
      <trkpt lat="44.05363" lon="4.32775">
        <ele>227.3</ele>
        <time>2011-11-27T09:06:20Z</time>
      </trkpt>
      <trkpt lat="44.05369" lon="4.32782">
        <ele>227.9</ele>
        <time>2011-11-27T09:06:22Z</time>
      </trkpt>
      <trkpt lat="44.05373" lon="4.32789">
        <ele>228.4</ele>
        <time>2011-11-27T09:06:24Z</time>
      </trkpt>
      <trkpt lat="44.05378" lon="4.32794">
        <ele>228.3</ele>
        <time>2011-11-27T09:06:26Z</time>
      </trkpt>
      <trkpt lat="44.05383" lon="4.328">
        <ele>228.2</ele>
        <time>2011-11-27T09:06:28Z</time>
      </trkpt>
      <trkpt lat="44.05388" lon="4.32807">
        <ele>228.4</ele>
        <time>2011-11-27T09:06:30Z</time>
      </trkpt>
      <trkpt lat="44.05391" lon="4.32812">
        <ele>228.5</ele>
        <time>2011-11-27T09:06:31Z</time>
      </trkpt>
      <trkpt lat="44.05394" lon="4.32816">
        <ele>228.5</ele>
        <time>2011-11-27T09:06:32Z</time>
      </trkpt>
      <trkpt lat="44.05398" lon="4.32821">
        <ele>228.6</ele>
        <time>2011-11-27T09:06:33Z</time>
      </trkpt>
      <trkpt lat="44.05401" lon="4.32826">
        <ele>228.8</ele>
        <time>2011-11-27T09:06:34Z</time>
      </trkpt>
      <trkpt lat="44.05405" lon="4.32831">
        <ele>229</ele>
        <time>2011-11-27T09:06:35Z</time>
      </trkpt>
      <trkpt lat="44.05409" lon="4.32837">
        <ele>229.2</ele>
        <time>2011-11-27T09:06:36Z</time>
      </trkpt>
      <trkpt lat="44.05412" lon="4.32844">
        <ele>229.3</ele>
        <time>2011-11-27T09:06:37Z</time>
      </trkpt>
      <trkpt lat="44.05416" lon="4.32851">
        <ele>229.3</ele>
        <time>2011-11-27T09:06:38Z</time>
      </trkpt>
      <trkpt lat="44.05419" lon="4.32858">
        <ele>229.2</ele>
        <time>2011-11-27T09:06:39Z</time>
      </trkpt>
      <trkpt lat="44.05423" lon="4.32864">
        <ele>229.2</ele>
        <time>2011-11-27T09:06:40Z</time>
      </trkpt>
      <trkpt lat="44.05427" lon="4.3287">
        <ele>229.2</ele>
        <time>2011-11-27T09:06:41Z</time>
      </trkpt>
      <trkpt lat="44.05432" lon="4.32876">
        <ele>229.2</ele>
        <time>2011-11-27T09:06:42Z</time>
      </trkpt>
      <trkpt lat="44.05437" lon="4.32882">
        <ele>229.2</ele>
        <time>2011-11-27T09:06:43Z</time>
      </trkpt>
      <trkpt lat="44.05442" lon="4.32888">
        <ele>229.3</ele>
        <time>2011-11-27T09:06:44Z</time>
      </trkpt>
      <trkpt lat="44.05448" lon="4.32893">
        <ele>229.1</ele>
        <time>2011-11-27T09:06:45Z</time>
      </trkpt>
      <trkpt lat="44.05453" lon="4.32898">
        <ele>229</ele>
        <time>2011-11-27T09:06:46Z</time>
      </trkpt>
      <trkpt lat="44.05458" lon="4.32902">
        <ele>228.7</ele>
        <time>2011-11-27T09:06:47Z</time>
      </trkpt>
      <trkpt lat="44.05463" lon="4.32906">
        <ele>228.4</ele>
        <time>2011-11-27T09:06:48Z</time>
      </trkpt>
      <trkpt lat="44.05466" lon="4.32909">
        <ele>228.5</ele>
        <time>2011-11-27T09:06:49Z</time>
      </trkpt>
      <trkpt lat="44.05473" lon="4.32915">
        <ele>228.5</ele>
        <time>2011-11-27T09:06:51Z</time>
      </trkpt>
      <trkpt lat="44.05477" lon="4.32919">
        <ele>228.8</ele>
        <time>2011-11-27T09:06:54Z</time>
      </trkpt>
      <trkpt lat="44.05483" lon="4.32918">
        <ele>229.3</ele>
        <time>2011-11-27T09:08:24Z</time>
      </trkpt>
      <trkpt lat="44.05487" lon="4.3292">
        <ele>229.3</ele>
        <time>2011-11-27T09:08:27Z</time>
      </trkpt>
      <trkpt lat="44.05493" lon="4.32921">
        <ele>229.3</ele>
        <time>2011-11-27T09:08:30Z</time>
      </trkpt>
      <trkpt lat="44.05499" lon="4.32922">
        <ele>229.1</ele>
        <time>2011-11-27T09:08:33Z</time>
      </trkpt>
      <trkpt lat="44.05505" lon="4.32924">
        <ele>229.2</ele>
        <time>2011-11-27T09:08:36Z</time>
      </trkpt>
      <trkpt lat="44.05512" lon="4.32924">
        <ele>229.4</ele>
        <time>2011-11-27T09:08:39Z</time>
      </trkpt>
      <trkpt lat="44.05517" lon="4.32925">
        <ele>229.4</ele>
        <time>2011-11-27T09:08:41Z</time>
      </trkpt>
      <trkpt lat="44.05523" lon="4.32926">
        <ele>229.6</ele>
        <time>2011-11-27T09:08:44Z</time>
      </trkpt>
      <trkpt lat="44.05529" lon="4.32926">
        <ele>229.8</ele>
        <time>2011-11-27T09:08:47Z</time>
      </trkpt>
      <trkpt lat="44.05533" lon="4.32926">
        <ele>230.1</ele>
        <time>2011-11-27T09:08:49Z</time>
      </trkpt>
      <trkpt lat="44.05538" lon="4.32927">
        <ele>230.5</ele>
        <time>2011-11-27T09:08:51Z</time>
      </trkpt>
      <trkpt lat="44.05543" lon="4.32928">
        <ele>230.7</ele>
        <time>2011-11-27T09:08:53Z</time>
      </trkpt>
      <trkpt lat="44.05548" lon="4.32928">
        <ele>231.1</ele>
        <time>2011-11-27T09:08:55Z</time>
      </trkpt>
      <trkpt lat="44.05553" lon="4.3293">
        <ele>231.2</ele>
        <time>2011-11-27T09:08:57Z</time>
      </trkpt>
      <trkpt lat="44.05559" lon="4.32931">
        <ele>231.3</ele>
        <time>2011-11-27T09:08:59Z</time>
      </trkpt>
      <trkpt lat="44.05565" lon="4.32932">
        <ele>231.4</ele>
        <time>2011-11-27T09:09:01Z</time>
      </trkpt>
      <trkpt lat="44.05571" lon="4.32935">
        <ele>231.6</ele>
        <time>2011-11-27T09:09:03Z</time>
      </trkpt>
      <trkpt lat="44.05577" lon="4.32937">
        <ele>231.7</ele>
        <time>2011-11-27T09:09:05Z</time>
      </trkpt>
      <trkpt lat="44.05583" lon="4.3294">
        <ele>231.9</ele>
        <time>2011-11-27T09:09:07Z</time>
      </trkpt>
      <trkpt lat="44.05589" lon="4.32946">
        <ele>232.1</ele>
        <time>2011-11-27T09:09:09Z</time>
      </trkpt>
      <trkpt lat="44.05594" lon="4.32954">
        <ele>232.4</ele>
        <time>2011-11-27T09:09:11Z</time>
      </trkpt>
      <trkpt lat="44.05597" lon="4.32963">
        <ele>233</ele>
        <time>2011-11-27T09:09:13Z</time>
      </trkpt>
      <trkpt lat="44.05591" lon="4.32999">
        <ele>235.9</ele>
        <time>2011-11-27T09:09:18Z</time>
      </trkpt>
      <trkpt lat="44.05593" lon="4.33008">
        <ele>245.8</ele>
        <time>2011-11-27T09:09:22Z</time>
      </trkpt>
      <trkpt lat="44.05597" lon="4.33013">
        <ele>245.7</ele>
        <time>2011-11-27T09:09:24Z</time>
      </trkpt>
      <trkpt lat="44.05602" lon="4.33018">
        <ele>247.6</ele>
        <time>2011-11-27T09:09:27Z</time>
      </trkpt>
      <trkpt lat="44.05606" lon="4.33021">
        <ele>248.6</ele>
        <time>2011-11-27T09:09:29Z</time>
      </trkpt>
      <trkpt lat="44.0561" lon="4.33025">
        <ele>249.5</ele>
        <time>2011-11-27T09:09:31Z</time>
      </trkpt>
      <trkpt lat="44.05615" lon="4.3303">
        <ele>249.7</ele>
        <time>2011-11-27T09:09:33Z</time>
      </trkpt>
      <trkpt lat="44.0562" lon="4.33036">
        <ele>250.1</ele>
        <time>2011-11-27T09:09:35Z</time>
      </trkpt>
      <trkpt lat="44.05625" lon="4.33044">
        <ele>250.8</ele>
        <time>2011-11-27T09:09:37Z</time>
      </trkpt>
      <trkpt lat="44.05631" lon="4.33053">
        <ele>251</ele>
        <time>2011-11-27T09:09:39Z</time>
      </trkpt>
      <trkpt lat="44.05634" lon="4.33058">
        <ele>251.1</ele>
        <time>2011-11-27T09:09:40Z</time>
      </trkpt>
      <trkpt lat="44.05638" lon="4.33064">
        <ele>250.6</ele>
        <time>2011-11-27T09:09:41Z</time>
      </trkpt>
      <trkpt lat="44.05641" lon="4.3307">
        <ele>250.6</ele>
        <time>2011-11-27T09:09:42Z</time>
      </trkpt>
      <trkpt lat="44.05645" lon="4.33076">
        <ele>250</ele>
        <time>2011-11-27T09:09:43Z</time>
      </trkpt>
      <trkpt lat="44.05648" lon="4.33082">
        <ele>249.1</ele>
        <time>2011-11-27T09:09:44Z</time>
      </trkpt>
      <trkpt lat="44.05653" lon="4.33088">
        <ele>248.4</ele>
        <time>2011-11-27T09:09:45Z</time>
      </trkpt>
      <trkpt lat="44.05657" lon="4.33094">
        <ele>247.5</ele>
        <time>2011-11-27T09:09:46Z</time>
      </trkpt>
      <trkpt lat="44.05662" lon="4.33101">
        <ele>246.1</ele>
        <time>2011-11-27T09:09:47Z</time>
      </trkpt>
      <trkpt lat="44.05667" lon="4.33108">
        <ele>244.8</ele>
        <time>2011-11-27T09:09:48Z</time>
      </trkpt>
      <trkpt lat="44.05673" lon="4.33114">
        <ele>243.9</ele>
        <time>2011-11-27T09:09:49Z</time>
      </trkpt>
      <trkpt lat="44.05679" lon="4.3312">
        <ele>243.4</ele>
        <time>2011-11-27T09:09:50Z</time>
      </trkpt>
      <trkpt lat="44.05685" lon="4.33124">
        <ele>242.8</ele>
        <time>2011-11-27T09:09:51Z</time>
      </trkpt>
      <trkpt lat="44.05691" lon="4.33128">
        <ele>242.3</ele>
        <time>2011-11-27T09:09:52Z</time>
      </trkpt>
      <trkpt lat="44.05698" lon="4.3313">
        <ele>241.6</ele>
        <time>2011-11-27T09:09:53Z</time>
      </trkpt>
      <trkpt lat="44.05703" lon="4.33131">
        <ele>241.5</ele>
        <time>2011-11-27T09:09:54Z</time>
      </trkpt>
      <trkpt lat="44.05709" lon="4.33132">
        <ele>241.5</ele>
        <time>2011-11-27T09:09:55Z</time>
      </trkpt>
      <trkpt lat="44.05714" lon="4.33133">
        <ele>241.3</ele>
        <time>2011-11-27T09:09:56Z</time>
      </trkpt>
      <trkpt lat="44.05719" lon="4.33133">
        <ele>241.2</ele>
        <time>2011-11-27T09:09:57Z</time>
      </trkpt>
      <trkpt lat="44.05724" lon="4.33134">
        <ele>241.2</ele>
        <time>2011-11-27T09:09:58Z</time>
      </trkpt>
      <trkpt lat="44.05729" lon="4.33135">
        <ele>241</ele>
        <time>2011-11-27T09:09:59Z</time>
      </trkpt>
      <trkpt lat="44.05734" lon="4.33135">
        <ele>240.8</ele>
        <time>2011-11-27T09:10:00Z</time>
      </trkpt>
      <trkpt lat="44.05738" lon="4.33136">
        <ele>240.6</ele>
        <time>2011-11-27T09:10:01Z</time>
      </trkpt>
      <trkpt lat="44.05743" lon="4.33137">
        <ele>240.5</ele>
        <time>2011-11-27T09:10:02Z</time>
      </trkpt>
      <trkpt lat="44.05747" lon="4.33138">
        <ele>240.4</ele>
        <time>2011-11-27T09:10:03Z</time>
      </trkpt>
      <trkpt lat="44.05752" lon="4.33138">
        <ele>240.6</ele>
        <time>2011-11-27T09:10:04Z</time>
      </trkpt>
      <trkpt lat="44.0576" lon="4.3314">
        <ele>240.9</ele>
        <time>2011-11-27T09:10:06Z</time>
      </trkpt>
      <trkpt lat="44.05767" lon="4.3314">
        <ele>241.2</ele>
        <time>2011-11-27T09:10:08Z</time>
      </trkpt>
      <trkpt lat="44.05772" lon="4.3314">
        <ele>241.7</ele>
        <time>2011-11-27T09:10:10Z</time>
      </trkpt>
      <trkpt lat="44.05778" lon="4.33143">
        <ele>242.4</ele>
        <time>2011-11-27T09:10:14Z</time>
      </trkpt>
      <trkpt lat="44.05782" lon="4.33148">
        <ele>243</ele>
        <time>2011-11-27T09:10:18Z</time>
      </trkpt>
      <trkpt lat="44.05783" lon="4.33158">
        <ele>243.6</ele>
        <time>2011-11-27T09:10:21Z</time>
      </trkpt>
      <trkpt lat="44.05782" lon="4.33164">
        <ele>243.7</ele>
        <time>2011-11-27T09:10:23Z</time>
      </trkpt>
      <trkpt lat="44.0578" lon="4.33172">
        <ele>243.8</ele>
        <time>2011-11-27T09:10:25Z</time>
      </trkpt>
      <trkpt lat="44.05778" lon="4.33179">
        <ele>243.8</ele>
        <time>2011-11-27T09:10:27Z</time>
      </trkpt>
      <trkpt lat="44.05775" lon="4.33186">
        <ele>243.8</ele>
        <time>2011-11-27T09:10:29Z</time>
      </trkpt>
      <trkpt lat="44.05773" lon="4.33193">
        <ele>243.8</ele>
        <time>2011-11-27T09:10:31Z</time>
      </trkpt>
      <trkpt lat="44.05771" lon="4.332">
        <ele>243.7</ele>
        <time>2011-11-27T09:10:33Z</time>
      </trkpt>
      <trkpt lat="44.05769" lon="4.33207">
        <ele>243.3</ele>
        <time>2011-11-27T09:10:35Z</time>
      </trkpt>
      <trkpt lat="44.05767" lon="4.33213">
        <ele>243.4</ele>
        <time>2011-11-27T09:10:37Z</time>
      </trkpt>
      <trkpt lat="44.05764" lon="4.3322">
        <ele>243.4</ele>
        <time>2011-11-27T09:10:39Z</time>
      </trkpt>
      <trkpt lat="44.05762" lon="4.33228">
        <ele>243.6</ele>
        <time>2011-11-27T09:10:41Z</time>
      </trkpt>
      <trkpt lat="44.05759" lon="4.33236">
        <ele>243.8</ele>
        <time>2011-11-27T09:10:43Z</time>
      </trkpt>
      <trkpt lat="44.05757" lon="4.33245">
        <ele>243.8</ele>
        <time>2011-11-27T09:10:45Z</time>
      </trkpt>
      <trkpt lat="44.05755" lon="4.33252">
        <ele>243.6</ele>
        <time>2011-11-27T09:10:47Z</time>
      </trkpt>
      <trkpt lat="44.05752" lon="4.3326">
        <ele>243.5</ele>
        <time>2011-11-27T09:10:49Z</time>
      </trkpt>
      <trkpt lat="44.05751" lon="4.33266">
        <ele>243.7</ele>
        <time>2011-11-27T09:10:51Z</time>
      </trkpt>
      <trkpt lat="44.05748" lon="4.33272">
        <ele>243.8</ele>
        <time>2011-11-27T09:10:53Z</time>
      </trkpt>
      <trkpt lat="44.05746" lon="4.33278">
        <ele>244</ele>
        <time>2011-11-27T09:10:55Z</time>
      </trkpt>
      <trkpt lat="44.05744" lon="4.33287">
        <ele>244.6</ele>
        <time>2011-11-27T09:10:58Z</time>
      </trkpt>
      <trkpt lat="44.05741" lon="4.33293">
        <ele>244.9</ele>
        <time>2011-11-27T09:11:00Z</time>
      </trkpt>
      <trkpt lat="44.0574" lon="4.33301">
        <ele>245.3</ele>
        <time>2011-11-27T09:11:02Z</time>
      </trkpt>
      <trkpt lat="44.05738" lon="4.3331">
        <ele>245.4</ele>
        <time>2011-11-27T09:11:04Z</time>
      </trkpt>
      <trkpt lat="44.05737" lon="4.33321">
        <ele>245.4</ele>
        <time>2011-11-27T09:11:06Z</time>
      </trkpt>
      <trkpt lat="44.05736" lon="4.33333">
        <ele>245.5</ele>
        <time>2011-11-27T09:11:08Z</time>
      </trkpt>
      <trkpt lat="44.05735" lon="4.3334">
        <ele>245.5</ele>
        <time>2011-11-27T09:11:09Z</time>
      </trkpt>
      <trkpt lat="44.05734" lon="4.33347">
        <ele>245.6</ele>
        <time>2011-11-27T09:11:10Z</time>
      </trkpt>
      <trkpt lat="44.05734" lon="4.33355">
        <ele>245.6</ele>
        <time>2011-11-27T09:11:11Z</time>
      </trkpt>
      <trkpt lat="44.05733" lon="4.33365">
        <ele>245.8</ele>
        <time>2011-11-27T09:11:12Z</time>
      </trkpt>
      <trkpt lat="44.05733" lon="4.33375">
        <ele>245.8</ele>
        <time>2011-11-27T09:11:13Z</time>
      </trkpt>
      <trkpt lat="44.05733" lon="4.33387">
        <ele>245.4</ele>
        <time>2011-11-27T09:11:14Z</time>
      </trkpt>
      <trkpt lat="44.05733" lon="4.33399">
        <ele>244.9</ele>
        <time>2011-11-27T09:11:15Z</time>
      </trkpt>
      <trkpt lat="44.05733" lon="4.3341">
        <ele>244.7</ele>
        <time>2011-11-27T09:11:16Z</time>
      </trkpt>
      <trkpt lat="44.05734" lon="4.33422">
        <ele>244.1</ele>
        <time>2011-11-27T09:11:17Z</time>
      </trkpt>
      <trkpt lat="44.05734" lon="4.33433">
        <ele>243.6</ele>
        <time>2011-11-27T09:11:18Z</time>
      </trkpt>
      <trkpt lat="44.05734" lon="4.33445">
        <ele>243.2</ele>
        <time>2011-11-27T09:11:19Z</time>
      </trkpt>
      <trkpt lat="44.05733" lon="4.33457">
        <ele>242.9</ele>
        <time>2011-11-27T09:11:20Z</time>
      </trkpt>
      <trkpt lat="44.05732" lon="4.33469">
        <ele>243</ele>
        <time>2011-11-27T09:11:21Z</time>
      </trkpt>
      <trkpt lat="44.05731" lon="4.33482">
        <ele>242.9</ele>
        <time>2011-11-27T09:11:22Z</time>
      </trkpt>
      <trkpt lat="44.0573" lon="4.33496">
        <ele>241.9</ele>
        <time>2011-11-27T09:11:23Z</time>
      </trkpt>
      <trkpt lat="44.05729" lon="4.33509">
        <ele>241</ele>
        <time>2011-11-27T09:11:24Z</time>
      </trkpt>
      <trkpt lat="44.05729" lon="4.33523">
        <ele>238.9</ele>
        <time>2011-11-27T09:11:25Z</time>
      </trkpt>
      <trkpt lat="44.0573" lon="4.33536">
        <ele>237.6</ele>
        <time>2011-11-27T09:11:26Z</time>
      </trkpt>
      <trkpt lat="44.0573" lon="4.33547">
        <ele>236.4</ele>
        <time>2011-11-27T09:11:27Z</time>
      </trkpt>
      <trkpt lat="44.0573" lon="4.33559">
        <ele>235.5</ele>
        <time>2011-11-27T09:11:28Z</time>
      </trkpt>
      <trkpt lat="44.05731" lon="4.3357">
        <ele>234.3</ele>
        <time>2011-11-27T09:11:29Z</time>
      </trkpt>
      <trkpt lat="44.05732" lon="4.33582">
        <ele>233.8</ele>
        <time>2011-11-27T09:11:30Z</time>
      </trkpt>
      <trkpt lat="44.05733" lon="4.33593">
        <ele>233.5</ele>
        <time>2011-11-27T09:11:31Z</time>
      </trkpt>
      <trkpt lat="44.05734" lon="4.33603">
        <ele>233.4</ele>
        <time>2011-11-27T09:11:32Z</time>
      </trkpt>
      <trkpt lat="44.05734" lon="4.33614">
        <ele>233.5</ele>
        <time>2011-11-27T09:11:33Z</time>
      </trkpt>
      <trkpt lat="44.05735" lon="4.33623">
        <ele>233.6</ele>
        <time>2011-11-27T09:11:34Z</time>
      </trkpt>
      <trkpt lat="44.05735" lon="4.33633">
        <ele>233.9</ele>
        <time>2011-11-27T09:11:35Z</time>
      </trkpt>
      <trkpt lat="44.05736" lon="4.33642">
        <ele>234.1</ele>
        <time>2011-11-27T09:11:36Z</time>
      </trkpt>
      <trkpt lat="44.05737" lon="4.3365">
        <ele>234.1</ele>
        <time>2011-11-27T09:11:37Z</time>
      </trkpt>
      <trkpt lat="44.05738" lon="4.33659">
        <ele>234.2</ele>
        <time>2011-11-27T09:11:38Z</time>
      </trkpt>
      <trkpt lat="44.05739" lon="4.33668">
        <ele>234.1</ele>
        <time>2011-11-27T09:11:39Z</time>
      </trkpt>
      <trkpt lat="44.05741" lon="4.33677">
        <ele>234.1</ele>
        <time>2011-11-27T09:11:40Z</time>
      </trkpt>
      <trkpt lat="44.05742" lon="4.33686">
        <ele>233.9</ele>
        <time>2011-11-27T09:11:41Z</time>
      </trkpt>
      <trkpt lat="44.05744" lon="4.33695">
        <ele>233.8</ele>
        <time>2011-11-27T09:11:42Z</time>
      </trkpt>
      <trkpt lat="44.05746" lon="4.33704">
        <ele>233.7</ele>
        <time>2011-11-27T09:11:43Z</time>
      </trkpt>
      <trkpt lat="44.05748" lon="4.33713">
        <ele>233.4</ele>
        <time>2011-11-27T09:11:44Z</time>
      </trkpt>
      <trkpt lat="44.0575" lon="4.33723">
        <ele>233</ele>
        <time>2011-11-27T09:11:45Z</time>
      </trkpt>
      <trkpt lat="44.05752" lon="4.33732">
        <ele>233.1</ele>
        <time>2011-11-27T09:11:46Z</time>
      </trkpt>
      <trkpt lat="44.05753" lon="4.33742">
        <ele>233.1</ele>
        <time>2011-11-27T09:11:47Z</time>
      </trkpt>
      <trkpt lat="44.05754" lon="4.33752">
        <ele>232.7</ele>
        <time>2011-11-27T09:11:48Z</time>
      </trkpt>
      <trkpt lat="44.05755" lon="4.33762">
        <ele>232.6</ele>
        <time>2011-11-27T09:11:49Z</time>
      </trkpt>
      <trkpt lat="44.05756" lon="4.33773">
        <ele>232.5</ele>
        <time>2011-11-27T09:11:50Z</time>
      </trkpt>
      <trkpt lat="44.05757" lon="4.33783">
        <ele>232.5</ele>
        <time>2011-11-27T09:11:51Z</time>
      </trkpt>
      <trkpt lat="44.05759" lon="4.33794">
        <ele>232.4</ele>
        <time>2011-11-27T09:11:52Z</time>
      </trkpt>
      <trkpt lat="44.05761" lon="4.33803">
        <ele>232.3</ele>
        <time>2011-11-27T09:11:53Z</time>
      </trkpt>
      <trkpt lat="44.05763" lon="4.33812">
        <ele>232.6</ele>
        <time>2011-11-27T09:11:54Z</time>
      </trkpt>
      <trkpt lat="44.05766" lon="4.33819">
        <ele>233</ele>
        <time>2011-11-27T09:11:55Z</time>
      </trkpt>
      <trkpt lat="44.05769" lon="4.33826">
        <ele>233.6</ele>
        <time>2011-11-27T09:11:56Z</time>
      </trkpt>
      <trkpt lat="44.05771" lon="4.33832">
        <ele>233.7</ele>
        <time>2011-11-27T09:11:57Z</time>
      </trkpt>
      <trkpt lat="44.05774" lon="4.33838">
        <ele>234</ele>
        <time>2011-11-27T09:11:58Z</time>
      </trkpt>
      <trkpt lat="44.05776" lon="4.33843">
        <ele>234.6</ele>
        <time>2011-11-27T09:12:00Z</time>
      </trkpt>
      <trkpt lat="44.05781" lon="4.33843">
        <ele>234.3</ele>
        <time>2011-11-27T09:12:04Z</time>
      </trkpt>
      <trkpt lat="44.05785" lon="4.33842">
        <ele>234.6</ele>
        <time>2011-11-27T09:14:36Z</time>
      </trkpt>
      <trkpt lat="44.0579" lon="4.33839">
        <ele>234.3</ele>
        <time>2011-11-27T09:14:38Z</time>
      </trkpt>
      <trkpt lat="44.05796" lon="4.33835">
        <ele>234.4</ele>
        <time>2011-11-27T09:14:41Z</time>
      </trkpt>
      <trkpt lat="44.058" lon="4.33833">
        <ele>234.2</ele>
        <time>2011-11-27T09:14:43Z</time>
      </trkpt>
      <trkpt lat="44.05806" lon="4.3383">
        <ele>233.9</ele>
        <time>2011-11-27T09:14:46Z</time>
      </trkpt>
      <trkpt lat="44.05813" lon="4.33826">
        <ele>234.2</ele>
        <time>2011-11-27T09:14:49Z</time>
      </trkpt>
      <trkpt lat="44.05819" lon="4.33823">
        <ele>234.6</ele>
        <time>2011-11-27T09:14:52Z</time>
      </trkpt>
      <trkpt lat="44.05825" lon="4.33821">
        <ele>235.2</ele>
        <time>2011-11-27T09:14:55Z</time>
      </trkpt>
      <trkpt lat="44.05831" lon="4.33819">
        <ele>235.6</ele>
        <time>2011-11-27T09:14:58Z</time>
      </trkpt>
      <trkpt lat="44.05837" lon="4.33817">
        <ele>235.7</ele>
        <time>2011-11-27T09:15:01Z</time>
      </trkpt>
      <trkpt lat="44.05842" lon="4.33817">
        <ele>235.9</ele>
        <time>2011-11-27T09:15:04Z</time>
      </trkpt>
      <trkpt lat="44.05848" lon="4.33815">
        <ele>236.5</ele>
        <time>2011-11-27T09:15:07Z</time>
      </trkpt>
      <trkpt lat="44.05855" lon="4.33816">
        <ele>236.9</ele>
        <time>2011-11-27T09:15:10Z</time>
      </trkpt>
      <trkpt lat="44.0586" lon="4.33815">
        <ele>236.8</ele>
        <time>2011-11-27T09:15:12Z</time>
      </trkpt>
      <trkpt lat="44.05866" lon="4.33813">
        <ele>237.2</ele>
        <time>2011-11-27T09:15:15Z</time>
      </trkpt>
      <trkpt lat="44.05872" lon="4.33812">
        <ele>237.8</ele>
        <time>2011-11-27T09:15:18Z</time>
      </trkpt>
      <trkpt lat="44.05878" lon="4.3381">
        <ele>237.9</ele>
        <time>2011-11-27T09:15:20Z</time>
      </trkpt>
      <trkpt lat="44.05884" lon="4.33809">
        <ele>237.7</ele>
        <time>2011-11-27T09:15:22Z</time>
      </trkpt>
      <trkpt lat="44.05891" lon="4.33809">
        <ele>238.2</ele>
        <time>2011-11-27T09:15:24Z</time>
      </trkpt>
      <trkpt lat="44.05898" lon="4.33809">
        <ele>238.5</ele>
        <time>2011-11-27T09:15:26Z</time>
      </trkpt>
      <trkpt lat="44.05904" lon="4.33809">
        <ele>238.8</ele>
        <time>2011-11-27T09:15:28Z</time>
      </trkpt>
      <trkpt lat="44.05911" lon="4.33809">
        <ele>239.1</ele>
        <time>2011-11-27T09:15:30Z</time>
      </trkpt>
      <trkpt lat="44.05917" lon="4.3381">
        <ele>239</ele>
        <time>2011-11-27T09:15:32Z</time>
      </trkpt>
      <trkpt lat="44.05923" lon="4.33811">
        <ele>239</ele>
        <time>2011-11-27T09:15:34Z</time>
      </trkpt>
      <trkpt lat="44.05929" lon="4.33812">
        <ele>238.9</ele>
        <time>2011-11-27T09:15:36Z</time>
      </trkpt>
      <trkpt lat="44.05935" lon="4.33814">
        <ele>238.9</ele>
        <time>2011-11-27T09:15:38Z</time>
      </trkpt>
      <trkpt lat="44.05941" lon="4.33817">
        <ele>238.8</ele>
        <time>2011-11-27T09:15:40Z</time>
      </trkpt>
      <trkpt lat="44.05947" lon="4.3382">
        <ele>239.1</ele>
        <time>2011-11-27T09:15:42Z</time>
      </trkpt>
      <trkpt lat="44.05953" lon="4.33821">
        <ele>239.3</ele>
        <time>2011-11-27T09:15:44Z</time>
      </trkpt>
      <trkpt lat="44.05958" lon="4.33824">
        <ele>239.3</ele>
        <time>2011-11-27T09:15:46Z</time>
      </trkpt>
      <trkpt lat="44.05963" lon="4.33825">
        <ele>239.6</ele>
        <time>2011-11-27T09:15:48Z</time>
      </trkpt>
      <trkpt lat="44.05969" lon="4.33824">
        <ele>239.5</ele>
        <time>2011-11-27T09:15:50Z</time>
      </trkpt>
      <trkpt lat="44.05974" lon="4.33821">
        <ele>240</ele>
        <time>2011-11-27T09:15:52Z</time>
      </trkpt>
      <trkpt lat="44.05978" lon="4.33817">
        <ele>240.1</ele>
        <time>2011-11-27T09:15:54Z</time>
      </trkpt>
      <trkpt lat="44.05982" lon="4.33813">
        <ele>240.9</ele>
        <time>2011-11-27T09:15:56Z</time>
      </trkpt>
      <trkpt lat="44.05985" lon="4.33808">
        <ele>241.2</ele>
        <time>2011-11-27T09:15:58Z</time>
      </trkpt>
      <trkpt lat="44.05988" lon="4.33803">
        <ele>241.8</ele>
        <time>2011-11-27T09:16:00Z</time>
      </trkpt>
      <trkpt lat="44.05992" lon="4.33798">
        <ele>242</ele>
        <time>2011-11-27T09:16:02Z</time>
      </trkpt>
      <trkpt lat="44.05995" lon="4.33792">
        <ele>242.3</ele>
        <time>2011-11-27T09:16:04Z</time>
      </trkpt>
      <trkpt lat="44.05998" lon="4.33787">
        <ele>242.6</ele>
        <time>2011-11-27T09:16:06Z</time>
      </trkpt>
      <trkpt lat="44.06" lon="4.33782">
        <ele>242.7</ele>
        <time>2011-11-27T09:16:08Z</time>
      </trkpt>
      <trkpt lat="44.06003" lon="4.33776">
        <ele>243</ele>
        <time>2011-11-27T09:16:10Z</time>
      </trkpt>
      <trkpt lat="44.06006" lon="4.3377">
        <ele>243.3</ele>
        <time>2011-11-27T09:16:12Z</time>
      </trkpt>
      <trkpt lat="44.06009" lon="4.33764">
        <ele>243.7</ele>
        <time>2011-11-27T09:16:14Z</time>
      </trkpt>
      <trkpt lat="44.06011" lon="4.33759">
        <ele>243.8</ele>
        <time>2011-11-27T09:16:16Z</time>
      </trkpt>
      <trkpt lat="44.06015" lon="4.33753">
        <ele>243.9</ele>
        <time>2011-11-27T09:16:19Z</time>
      </trkpt>
      <trkpt lat="44.06018" lon="4.33747">
        <ele>244.3</ele>
        <time>2011-11-27T09:16:22Z</time>
      </trkpt>
      <trkpt lat="44.0602" lon="4.33741">
        <ele>244.4</ele>
        <time>2011-11-27T09:16:26Z</time>
      </trkpt>
      <trkpt lat="44.0602" lon="4.33735">
        <ele>244.3</ele>
        <time>2011-11-27T09:16:29Z</time>
      </trkpt>
      <trkpt lat="44.0602" lon="4.33728">
        <ele>244.2</ele>
        <time>2011-11-27T09:16:34Z</time>
      </trkpt>
      <trkpt lat="44.0602" lon="4.33722">
        <ele>247.7</ele>
        <time>2011-11-27T09:16:50Z</time>
      </trkpt>
      <trkpt lat="44.06021" lon="4.33716">
        <ele>247.8</ele>
        <time>2011-11-27T09:16:52Z</time>
      </trkpt>
      <trkpt lat="44.06022" lon="4.33708">
        <ele>247.6</ele>
        <time>2011-11-27T09:16:54Z</time>
      </trkpt>
      <trkpt lat="44.06024" lon="4.337">
        <ele>247.7</ele>
        <time>2011-11-27T09:16:56Z</time>
      </trkpt>
      <trkpt lat="44.06025" lon="4.3369">
        <ele>248.2</ele>
        <time>2011-11-27T09:16:58Z</time>
      </trkpt>
      <trkpt lat="44.06027" lon="4.33682">
        <ele>248.9</ele>
        <time>2011-11-27T09:17:00Z</time>
      </trkpt>
      <trkpt lat="44.06028" lon="4.33671">
        <ele>249.8</ele>
        <time>2011-11-27T09:17:02Z</time>
      </trkpt>
      <trkpt lat="44.06028" lon="4.33659">
        <ele>250.6</ele>
        <time>2011-11-27T09:17:04Z</time>
      </trkpt>
      <trkpt lat="44.06027" lon="4.33651">
        <ele>251</ele>
        <time>2011-11-27T09:17:06Z</time>
      </trkpt>
      <trkpt lat="44.06028" lon="4.33642">
        <ele>251.1</ele>
        <time>2011-11-27T09:17:08Z</time>
      </trkpt>
      <trkpt lat="44.06026" lon="4.33633">
        <ele>251.4</ele>
        <time>2011-11-27T09:17:10Z</time>
      </trkpt>
      <trkpt lat="44.06022" lon="4.33622">
        <ele>251.6</ele>
        <time>2011-11-27T09:17:12Z</time>
      </trkpt>
      <trkpt lat="44.06019" lon="4.33613">
        <ele>252</ele>
        <time>2011-11-27T09:17:14Z</time>
      </trkpt>
      <trkpt lat="44.06015" lon="4.33606">
        <ele>252.6</ele>
        <time>2011-11-27T09:17:16Z</time>
      </trkpt>
      <trkpt lat="44.06012" lon="4.33599">
        <ele>253.2</ele>
        <time>2011-11-27T09:17:18Z</time>
      </trkpt>
      <trkpt lat="44.06008" lon="4.33593">
        <ele>253.4</ele>
        <time>2011-11-27T09:17:20Z</time>
      </trkpt>
      <trkpt lat="44.06005" lon="4.33588">
        <ele>253.6</ele>
        <time>2011-11-27T09:17:22Z</time>
      </trkpt>
      <trkpt lat="44.06" lon="4.33582">
        <ele>254</ele>
        <time>2011-11-27T09:17:24Z</time>
      </trkpt>
      <trkpt lat="44.05994" lon="4.33578">
        <ele>254</ele>
        <time>2011-11-27T09:17:26Z</time>
      </trkpt>
      <trkpt lat="44.05991" lon="4.33574">
        <ele>254.3</ele>
        <time>2011-11-27T09:17:28Z</time>
      </trkpt>
      <trkpt lat="44.05988" lon="4.33568">
        <ele>255</ele>
        <time>2011-11-27T09:17:30Z</time>
      </trkpt>
      <trkpt lat="44.05987" lon="4.33559">
        <ele>255.5</ele>
        <time>2011-11-27T09:17:32Z</time>
      </trkpt>
      <trkpt lat="44.05987" lon="4.3355">
        <ele>256.1</ele>
        <time>2011-11-27T09:17:34Z</time>
      </trkpt>
      <trkpt lat="44.05986" lon="4.33543">
        <ele>256.4</ele>
        <time>2011-11-27T09:17:36Z</time>
      </trkpt>
      <trkpt lat="44.05987" lon="4.33535">
        <ele>256.2</ele>
        <time>2011-11-27T09:17:38Z</time>
      </trkpt>
      <trkpt lat="44.05989" lon="4.33527">
        <ele>256.3</ele>
        <time>2011-11-27T09:17:40Z</time>
      </trkpt>
      <trkpt lat="44.05993" lon="4.3352">
        <ele>256.5</ele>
        <time>2011-11-27T09:17:42Z</time>
      </trkpt>
      <trkpt lat="44.05998" lon="4.33512">
        <ele>256.9</ele>
        <time>2011-11-27T09:17:44Z</time>
      </trkpt>
      <trkpt lat="44.06004" lon="4.33505">
        <ele>257.5</ele>
        <time>2011-11-27T09:17:46Z</time>
      </trkpt>
      <trkpt lat="44.0601" lon="4.335">
        <ele>258.4</ele>
        <time>2011-11-27T09:17:48Z</time>
      </trkpt>
      <trkpt lat="44.06016" lon="4.33495">
        <ele>258.8</ele>
        <time>2011-11-27T09:17:50Z</time>
      </trkpt>
      <trkpt lat="44.06022" lon="4.33491">
        <ele>259.2</ele>
        <time>2011-11-27T09:17:52Z</time>
      </trkpt>
      <trkpt lat="44.06028" lon="4.33486">
        <ele>259.5</ele>
        <time>2011-11-27T09:17:54Z</time>
      </trkpt>
      <trkpt lat="44.06034" lon="4.33481">
        <ele>259.2</ele>
        <time>2011-11-27T09:17:56Z</time>
      </trkpt>
      <trkpt lat="44.0604" lon="4.33476">
        <ele>259.6</ele>
        <time>2011-11-27T09:17:58Z</time>
      </trkpt>
      <trkpt lat="44.06045" lon="4.3347">
        <ele>260.1</ele>
        <time>2011-11-27T09:18:00Z</time>
      </trkpt>
      <trkpt lat="44.06051" lon="4.33465">
        <ele>260.7</ele>
        <time>2011-11-27T09:18:02Z</time>
      </trkpt>
      <trkpt lat="44.06055" lon="4.33461">
        <ele>261.2</ele>
        <time>2011-11-27T09:18:04Z</time>
      </trkpt>
      <trkpt lat="44.0606" lon="4.33456">
        <ele>261.8</ele>
        <time>2011-11-27T09:18:06Z</time>
      </trkpt>
      <trkpt lat="44.06066" lon="4.33452">
        <ele>262</ele>
        <time>2011-11-27T09:18:08Z</time>
      </trkpt>
      <trkpt lat="44.06071" lon="4.33449">
        <ele>262.6</ele>
        <time>2011-11-27T09:18:11Z</time>
      </trkpt>
      <trkpt lat="44.06076" lon="4.3345">
        <ele>264.9</ele>
        <time>2011-11-27T09:18:15Z</time>
      </trkpt>
      <trkpt lat="44.0608" lon="4.33455">
        <ele>265.2</ele>
        <time>2011-11-27T09:18:17Z</time>
      </trkpt>
      <trkpt lat="44.06088" lon="4.3346">
        <ele>266.1</ele>
        <time>2011-11-27T09:18:19Z</time>
      </trkpt>
      <trkpt lat="44.06092" lon="4.33462">
        <ele>266.5</ele>
        <time>2011-11-27T09:18:20Z</time>
      </trkpt>
      <trkpt lat="44.061" lon="4.33466">
        <ele>267.4</ele>
        <time>2011-11-27T09:18:22Z</time>
      </trkpt>
      <trkpt lat="44.06107" lon="4.33469">
        <ele>267.7</ele>
        <time>2011-11-27T09:18:24Z</time>
      </trkpt>
      <trkpt lat="44.06113" lon="4.33469">
        <ele>267.8</ele>
        <time>2011-11-27T09:18:26Z</time>
      </trkpt>
      <trkpt lat="44.0612" lon="4.3347">
        <ele>268.5</ele>
        <time>2011-11-27T09:18:28Z</time>
      </trkpt>
      <trkpt lat="44.06126" lon="4.33471">
        <ele>268.6</ele>
        <time>2011-11-27T09:18:30Z</time>
      </trkpt>
      <trkpt lat="44.06133" lon="4.33473">
        <ele>269</ele>
        <time>2011-11-27T09:18:32Z</time>
      </trkpt>
      <trkpt lat="44.06141" lon="4.33474">
        <ele>269.5</ele>
        <time>2011-11-27T09:18:34Z</time>
      </trkpt>
      <trkpt lat="44.06148" lon="4.33475">
        <ele>269.4</ele>
        <time>2011-11-27T09:18:36Z</time>
      </trkpt>
      <trkpt lat="44.06154" lon="4.33477">
        <ele>269.6</ele>
        <time>2011-11-27T09:18:38Z</time>
      </trkpt>
      <trkpt lat="44.06162" lon="4.3348">
        <ele>269.9</ele>
        <time>2011-11-27T09:18:40Z</time>
      </trkpt>
      <trkpt lat="44.06169" lon="4.33482">
        <ele>270.4</ele>
        <time>2011-11-27T09:18:42Z</time>
      </trkpt>
      <trkpt lat="44.06176" lon="4.33485">
        <ele>270.6</ele>
        <time>2011-11-27T09:18:44Z</time>
      </trkpt>
      <trkpt lat="44.06182" lon="4.33489">
        <ele>270.9</ele>
        <time>2011-11-27T09:18:46Z</time>
      </trkpt>
      <trkpt lat="44.06188" lon="4.33493">
        <ele>271</ele>
        <time>2011-11-27T09:18:48Z</time>
      </trkpt>
      <trkpt lat="44.06194" lon="4.33494">
        <ele>270.7</ele>
        <time>2011-11-27T09:18:50Z</time>
      </trkpt>
      <trkpt lat="44.062" lon="4.33496">
        <ele>271.2</ele>
        <time>2011-11-27T09:18:52Z</time>
      </trkpt>
      <trkpt lat="44.06205" lon="4.33498">
        <ele>271.2</ele>
        <time>2011-11-27T09:18:54Z</time>
      </trkpt>
      <trkpt lat="44.06211" lon="4.335">
        <ele>271.2</ele>
        <time>2011-11-27T09:18:56Z</time>
      </trkpt>
      <trkpt lat="44.06217" lon="4.33502">
        <ele>271.3</ele>
        <time>2011-11-27T09:18:58Z</time>
      </trkpt>
      <trkpt lat="44.06222" lon="4.33505">
        <ele>271.6</ele>
        <time>2011-11-27T09:19:00Z</time>
      </trkpt>
      <trkpt lat="44.06228" lon="4.33507">
        <ele>271.9</ele>
        <time>2011-11-27T09:19:02Z</time>
      </trkpt>
      <trkpt lat="44.06234" lon="4.33509">
        <ele>272.7</ele>
        <time>2011-11-27T09:19:04Z</time>
      </trkpt>
      <trkpt lat="44.06239" lon="4.33512">
        <ele>273.4</ele>
        <time>2011-11-27T09:19:06Z</time>
      </trkpt>
      <trkpt lat="44.06244" lon="4.33518">
        <ele>273.8</ele>
        <time>2011-11-27T09:19:08Z</time>
      </trkpt>
      <trkpt lat="44.06249" lon="4.33522">
        <ele>273.6</ele>
        <time>2011-11-27T09:19:10Z</time>
      </trkpt>
      <trkpt lat="44.06256" lon="4.33526">
        <ele>273.9</ele>
        <time>2011-11-27T09:19:12Z</time>
      </trkpt>
      <trkpt lat="44.06264" lon="4.3353">
        <ele>274</ele>
        <time>2011-11-27T09:19:14Z</time>
      </trkpt>
      <trkpt lat="44.0627" lon="4.33536">
        <ele>274.4</ele>
        <time>2011-11-27T09:19:16Z</time>
      </trkpt>
      <trkpt lat="44.06276" lon="4.3354">
        <ele>274.8</ele>
        <time>2011-11-27T09:19:18Z</time>
      </trkpt>
      <trkpt lat="44.06282" lon="4.33545">
        <ele>274.7</ele>
        <time>2011-11-27T09:19:20Z</time>
      </trkpt>
      <trkpt lat="44.06288" lon="4.33551">
        <ele>274.5</ele>
        <time>2011-11-27T09:19:22Z</time>
      </trkpt>
      <trkpt lat="44.06294" lon="4.33555">
        <ele>274.4</ele>
        <time>2011-11-27T09:19:24Z</time>
      </trkpt>
      <trkpt lat="44.06298" lon="4.3356">
        <ele>274.8</ele>
        <time>2011-11-27T09:19:26Z</time>
      </trkpt>
      <trkpt lat="44.06301" lon="4.33565">
        <ele>275.1</ele>
        <time>2011-11-27T09:19:28Z</time>
      </trkpt>
      <trkpt lat="44.06306" lon="4.3357">
        <ele>275.7</ele>
        <time>2011-11-27T09:19:30Z</time>
      </trkpt>
      <trkpt lat="44.0631" lon="4.33576">
        <ele>277</ele>
        <time>2011-11-27T09:19:32Z</time>
      </trkpt>
      <trkpt lat="44.06317" lon="4.33582">
        <ele>277.7</ele>
        <time>2011-11-27T09:19:34Z</time>
      </trkpt>
      <trkpt lat="44.06324" lon="4.33587">
        <ele>278.5</ele>
        <time>2011-11-27T09:19:36Z</time>
      </trkpt>
      <trkpt lat="44.06331" lon="4.33591">
        <ele>278.9</ele>
        <time>2011-11-27T09:19:38Z</time>
      </trkpt>
      <trkpt lat="44.06338" lon="4.33597">
        <ele>279.4</ele>
        <time>2011-11-27T09:19:40Z</time>
      </trkpt>
      <trkpt lat="44.06346" lon="4.33602">
        <ele>279.6</ele>
        <time>2011-11-27T09:19:42Z</time>
      </trkpt>
      <trkpt lat="44.06354" lon="4.33606">
        <ele>280.1</ele>
        <time>2011-11-27T09:19:44Z</time>
      </trkpt>
      <trkpt lat="44.06361" lon="4.33611">
        <ele>280.4</ele>
        <time>2011-11-27T09:19:46Z</time>
      </trkpt>
      <trkpt lat="44.06368" lon="4.33615">
        <ele>280.6</ele>
        <time>2011-11-27T09:19:48Z</time>
      </trkpt>
      <trkpt lat="44.06374" lon="4.33621">
        <ele>280.7</ele>
        <time>2011-11-27T09:19:50Z</time>
      </trkpt>
      <trkpt lat="44.06381" lon="4.33626">
        <ele>280.8</ele>
        <time>2011-11-27T09:19:52Z</time>
      </trkpt>
      <trkpt lat="44.06389" lon="4.33629">
        <ele>281</ele>
        <time>2011-11-27T09:19:54Z</time>
      </trkpt>
      <trkpt lat="44.06397" lon="4.33632">
        <ele>281.4</ele>
        <time>2011-11-27T09:19:56Z</time>
      </trkpt>
      <trkpt lat="44.06404" lon="4.33634">
        <ele>281.7</ele>
        <time>2011-11-27T09:19:58Z</time>
      </trkpt>
      <trkpt lat="44.06413" lon="4.33636">
        <ele>282.1</ele>
        <time>2011-11-27T09:20:00Z</time>
      </trkpt>
      <trkpt lat="44.0642" lon="4.33639">
        <ele>282.3</ele>
        <time>2011-11-27T09:20:02Z</time>
      </trkpt>
      <trkpt lat="44.06428" lon="4.33643">
        <ele>282.4</ele>
        <time>2011-11-27T09:20:04Z</time>
      </trkpt>
      <trkpt lat="44.06434" lon="4.33649">
        <ele>282.6</ele>
        <time>2011-11-27T09:20:06Z</time>
      </trkpt>
      <trkpt lat="44.0644" lon="4.33655">
        <ele>283</ele>
        <time>2011-11-27T09:20:08Z</time>
      </trkpt>
      <trkpt lat="44.06446" lon="4.3366">
        <ele>283.1</ele>
        <time>2011-11-27T09:20:10Z</time>
      </trkpt>
      <trkpt lat="44.06453" lon="4.33665">
        <ele>283.4</ele>
        <time>2011-11-27T09:20:12Z</time>
      </trkpt>
      <trkpt lat="44.0646" lon="4.33669">
        <ele>284</ele>
        <time>2011-11-27T09:20:14Z</time>
      </trkpt>
      <trkpt lat="44.06467" lon="4.33671">
        <ele>284.4</ele>
        <time>2011-11-27T09:20:16Z</time>
      </trkpt>
      <trkpt lat="44.06474" lon="4.33675">
        <ele>285.1</ele>
        <time>2011-11-27T09:20:18Z</time>
      </trkpt>
      <trkpt lat="44.0648" lon="4.33681">
        <ele>285.6</ele>
        <time>2011-11-27T09:20:20Z</time>
      </trkpt>
      <trkpt lat="44.06487" lon="4.33686">
        <ele>285.7</ele>
        <time>2011-11-27T09:20:22Z</time>
      </trkpt>
      <trkpt lat="44.06492" lon="4.33693">
        <ele>286.2</ele>
        <time>2011-11-27T09:20:24Z</time>
      </trkpt>
      <trkpt lat="44.06498" lon="4.337">
        <ele>286.6</ele>
        <time>2011-11-27T09:20:26Z</time>
      </trkpt>
      <trkpt lat="44.06504" lon="4.33705">
        <ele>286.9</ele>
        <time>2011-11-27T09:20:28Z</time>
      </trkpt>
      <trkpt lat="44.0651" lon="4.3371">
        <ele>287</ele>
        <time>2011-11-27T09:20:30Z</time>
      </trkpt>
      <trkpt lat="44.06516" lon="4.33714">
        <ele>287</ele>
        <time>2011-11-27T09:20:32Z</time>
      </trkpt>
      <trkpt lat="44.06522" lon="4.33717">
        <ele>286.9</ele>
        <time>2011-11-27T09:20:34Z</time>
      </trkpt>
      <trkpt lat="44.06528" lon="4.33719">
        <ele>287.1</ele>
        <time>2011-11-27T09:20:36Z</time>
      </trkpt>
      <trkpt lat="44.06534" lon="4.3372">
        <ele>287.3</ele>
        <time>2011-11-27T09:20:38Z</time>
      </trkpt>
      <trkpt lat="44.06542" lon="4.33719">
        <ele>287.1</ele>
        <time>2011-11-27T09:20:40Z</time>
      </trkpt>
      <trkpt lat="44.06548" lon="4.33721">
        <ele>287.3</ele>
        <time>2011-11-27T09:20:42Z</time>
      </trkpt>
      <trkpt lat="44.06554" lon="4.33725">
        <ele>287.2</ele>
        <time>2011-11-27T09:20:44Z</time>
      </trkpt>
      <trkpt lat="44.06559" lon="4.3373">
        <ele>287.6</ele>
        <time>2011-11-27T09:20:46Z</time>
      </trkpt>
      <trkpt lat="44.06565" lon="4.33734">
        <ele>288.1</ele>
        <time>2011-11-27T09:20:48Z</time>
      </trkpt>
      <trkpt lat="44.06572" lon="4.33738">
        <ele>288.5</ele>
        <time>2011-11-27T09:20:50Z</time>
      </trkpt>
      <trkpt lat="44.06577" lon="4.33744">
        <ele>288.7</ele>
        <time>2011-11-27T09:20:52Z</time>
      </trkpt>
      <trkpt lat="44.06578" lon="4.3375">
        <ele>290</ele>
        <time>2011-11-27T09:20:55Z</time>
      </trkpt>
      <trkpt lat="44.06578" lon="4.33757">
        <ele>290.7</ele>
        <time>2011-11-27T09:21:29Z</time>
      </trkpt>
      <trkpt lat="44.06588" lon="4.33759">
        <ele>280.6</ele>
        <time>2011-11-27T09:25:13Z</time>
      </trkpt>
      <trkpt lat="44.06592" lon="4.33764">
        <ele>280.9</ele>
        <time>2011-11-27T09:25:15Z</time>
      </trkpt>
      <trkpt lat="44.06597" lon="4.33769">
        <ele>281.1</ele>
        <time>2011-11-27T09:25:17Z</time>
      </trkpt>
      <trkpt lat="44.06602" lon="4.33776">
        <ele>281.4</ele>
        <time>2011-11-27T09:25:19Z</time>
      </trkpt>
      <trkpt lat="44.06607" lon="4.33783">
        <ele>281.7</ele>
        <time>2011-11-27T09:25:21Z</time>
      </trkpt>
      <trkpt lat="44.06612" lon="4.33791">
        <ele>282.1</ele>
        <time>2011-11-27T09:25:23Z</time>
      </trkpt>
      <trkpt lat="44.06618" lon="4.33798">
        <ele>282.4</ele>
        <time>2011-11-27T09:25:25Z</time>
      </trkpt>
      <trkpt lat="44.06623" lon="4.33806">
        <ele>282.6</ele>
        <time>2011-11-27T09:25:27Z</time>
      </trkpt>
      <trkpt lat="44.06629" lon="4.33813">
        <ele>282.7</ele>
        <time>2011-11-27T09:25:29Z</time>
      </trkpt>
      <trkpt lat="44.06635" lon="4.33821">
        <ele>282.7</ele>
        <time>2011-11-27T09:25:31Z</time>
      </trkpt>
      <trkpt lat="44.06641" lon="4.33829">
        <ele>282.9</ele>
        <time>2011-11-27T09:25:33Z</time>
      </trkpt>
      <trkpt lat="44.06646" lon="4.33836">
        <ele>283</ele>
        <time>2011-11-27T09:25:35Z</time>
      </trkpt>
      <trkpt lat="44.06652" lon="4.33843">
        <ele>283</ele>
        <time>2011-11-27T09:25:37Z</time>
      </trkpt>
      <trkpt lat="44.06658" lon="4.33851">
        <ele>283</ele>
        <time>2011-11-27T09:25:39Z</time>
      </trkpt>
      <trkpt lat="44.06661" lon="4.33855">
        <ele>282.8</ele>
        <time>2011-11-27T09:25:41Z</time>
      </trkpt>
      <trkpt lat="44.06667" lon="4.33862">
        <ele>286.8</ele>
        <time>2011-11-27T09:26:51Z</time>
      </trkpt>
      <trkpt lat="44.0668" lon="4.3388">
        <ele>286.7</ele>
        <time>2011-11-27T09:26:54Z</time>
      </trkpt>
      <trkpt lat="44.06685" lon="4.33887">
        <ele>286.7</ele>
        <time>2011-11-27T09:26:55Z</time>
      </trkpt>
      <trkpt lat="44.06688" lon="4.33893">
        <ele>287.9</ele>
        <time>2011-11-27T09:27:17Z</time>
      </trkpt>
      <trkpt lat="44.06707" lon="4.33926">
        <ele>287.9</ele>
        <time>2011-11-27T09:27:19Z</time>
      </trkpt>
      <trkpt lat="44.0671" lon="4.33931">
        <ele>287.9</ele>
        <time>2011-11-27T09:27:22Z</time>
      </trkpt>
      <trkpt lat="44.06713" lon="4.33938">
        <ele>287.9</ele>
        <time>2011-11-27T09:27:26Z</time>
      </trkpt>
      <trkpt lat="44.06713" lon="4.33938">
        <ele>287.9</ele>
        <time>2011-11-27T09:27:26Z</time>
      </trkpt>
      <trkpt lat="44.06713" lon="4.33938">
        <ele>287.9</ele>
        <time>2011-11-27T09:27:32Z</time>
      </trkpt>
      <trkpt lat="44.06719" lon="4.3395">
        <ele>287.1</ele>
        <time>2011-11-27T09:27:33Z</time>
      </trkpt>
      <trkpt lat="44.06722" lon="4.33954">
        <ele>286.7</ele>
        <time>2011-11-27T09:27:35Z</time>
      </trkpt>
      <trkpt lat="44.06727" lon="4.33959">
        <ele>286</ele>
        <time>2011-11-27T09:27:37Z</time>
      </trkpt>
      <trkpt lat="44.0673" lon="4.33965">
        <ele>285.6</ele>
        <time>2011-11-27T09:27:39Z</time>
      </trkpt>
      <trkpt lat="44.06731" lon="4.33971">
        <ele>286.2</ele>
        <time>2011-11-27T09:27:41Z</time>
      </trkpt>
      <trkpt lat="44.06731" lon="4.33977">
        <ele>286.7</ele>
        <time>2011-11-27T09:27:43Z</time>
      </trkpt>
      <trkpt lat="44.0673" lon="4.33984">
        <ele>287.4</ele>
        <time>2011-11-27T09:27:45Z</time>
      </trkpt>
      <trkpt lat="44.0673" lon="4.33991">
        <ele>288</ele>
        <time>2011-11-27T09:27:47Z</time>
      </trkpt>
      <trkpt lat="44.0673" lon="4.33998">
        <ele>288.1</ele>
        <time>2011-11-27T09:27:49Z</time>
      </trkpt>
      <trkpt lat="44.06731" lon="4.34005">
        <ele>288.2</ele>
        <time>2011-11-27T09:27:51Z</time>
      </trkpt>
      <trkpt lat="44.06731" lon="4.34012">
        <ele>288</ele>
        <time>2011-11-27T09:27:53Z</time>
      </trkpt>
      <trkpt lat="44.06731" lon="4.34018">
        <ele>288.2</ele>
        <time>2011-11-27T09:27:55Z</time>
      </trkpt>
      <trkpt lat="44.06731" lon="4.34025">
        <ele>288</ele>
        <time>2011-11-27T09:27:57Z</time>
      </trkpt>
      <trkpt lat="44.06731" lon="4.34032">
        <ele>288</ele>
        <time>2011-11-27T09:27:59Z</time>
      </trkpt>
      <trkpt lat="44.06731" lon="4.34038">
        <ele>287.9</ele>
        <time>2011-11-27T09:28:01Z</time>
      </trkpt>
      <trkpt lat="44.06731" lon="4.34046">
        <ele>288.5</ele>
        <time>2011-11-27T09:28:04Z</time>
      </trkpt>
      <trkpt lat="44.06731" lon="4.34052">
        <ele>289</ele>
        <time>2011-11-27T09:28:06Z</time>
      </trkpt>
      <trkpt lat="44.06731" lon="4.34059">
        <ele>289.5</ele>
        <time>2011-11-27T09:28:08Z</time>
      </trkpt>
      <trkpt lat="44.06731" lon="4.34065">
        <ele>290</ele>
        <time>2011-11-27T09:28:10Z</time>
      </trkpt>
      <trkpt lat="44.06732" lon="4.34072">
        <ele>290.3</ele>
        <time>2011-11-27T09:28:12Z</time>
      </trkpt>
      <trkpt lat="44.06732" lon="4.34079">
        <ele>290.5</ele>
        <time>2011-11-27T09:28:14Z</time>
      </trkpt>
      <trkpt lat="44.06734" lon="4.34086">
        <ele>291</ele>
        <time>2011-11-27T09:28:16Z</time>
      </trkpt>
      <trkpt lat="44.06736" lon="4.34092">
        <ele>291.3</ele>
        <time>2011-11-27T09:28:18Z</time>
      </trkpt>
      <trkpt lat="44.06739" lon="4.34099">
        <ele>291.5</ele>
        <time>2011-11-27T09:28:20Z</time>
      </trkpt>
      <trkpt lat="44.06743" lon="4.34106">
        <ele>291.3</ele>
        <time>2011-11-27T09:28:22Z</time>
      </trkpt>
      <trkpt lat="44.06746" lon="4.34112">
        <ele>291.1</ele>
        <time>2011-11-27T09:28:24Z</time>
      </trkpt>
      <trkpt lat="44.0675" lon="4.34119">
        <ele>290.8</ele>
        <time>2011-11-27T09:28:26Z</time>
      </trkpt>
      <trkpt lat="44.06753" lon="4.34127">
        <ele>291.1</ele>
        <time>2011-11-27T09:28:29Z</time>
      </trkpt>
      <trkpt lat="44.06755" lon="4.34133">
        <ele>291</ele>
        <time>2011-11-27T09:28:31Z</time>
      </trkpt>
      <trkpt lat="44.06756" lon="4.34139">
        <ele>290.8</ele>
        <time>2011-11-27T09:28:33Z</time>
      </trkpt>
      <trkpt lat="44.06755" lon="4.34148">
        <ele>291.2</ele>
        <time>2011-11-27T09:28:36Z</time>
      </trkpt>
      <trkpt lat="44.06754" lon="4.34156">
        <ele>291.5</ele>
        <time>2011-11-27T09:28:38Z</time>
      </trkpt>
      <trkpt lat="44.06753" lon="4.34162">
        <ele>291.5</ele>
        <time>2011-11-27T09:28:40Z</time>
      </trkpt>
      <trkpt lat="44.06753" lon="4.34171">
        <ele>291.8</ele>
        <time>2011-11-27T09:28:43Z</time>
      </trkpt>
      <trkpt lat="44.06753" lon="4.34179">
        <ele>292.1</ele>
        <time>2011-11-27T09:28:46Z</time>
      </trkpt>
      <trkpt lat="44.06755" lon="4.34186">
        <ele>291.6</ele>
        <time>2011-11-27T09:28:49Z</time>
      </trkpt>
      <trkpt lat="44.06758" lon="4.34192">
        <ele>289.9</ele>
        <time>2011-11-27T09:28:52Z</time>
      </trkpt>
      <trkpt lat="44.0676" lon="4.34199">
        <ele>290</ele>
        <time>2011-11-27T09:28:55Z</time>
      </trkpt>
      <trkpt lat="44.06761" lon="4.34205">
        <ele>290.1</ele>
        <time>2011-11-27T09:28:58Z</time>
      </trkpt>
      <trkpt lat="44.06764" lon="4.34212">
        <ele>291.1</ele>
        <time>2011-11-27T09:29:02Z</time>
      </trkpt>
      <trkpt lat="44.06766" lon="4.34219">
        <ele>291.6</ele>
        <time>2011-11-27T09:29:05Z</time>
      </trkpt>
      <trkpt lat="44.06767" lon="4.34226">
        <ele>291.6</ele>
        <time>2011-11-27T09:29:08Z</time>
      </trkpt>
      <trkpt lat="44.06768" lon="4.34232">
        <ele>292.3</ele>
        <time>2011-11-27T09:29:11Z</time>
      </trkpt>
      <trkpt lat="44.0677" lon="4.3424">
        <ele>292.2</ele>
        <time>2011-11-27T09:29:14Z</time>
      </trkpt>
      <trkpt lat="44.0677" lon="4.34248">
        <ele>292.3</ele>
        <time>2011-11-27T09:29:17Z</time>
      </trkpt>
      <trkpt lat="44.06772" lon="4.34256">
        <ele>293.3</ele>
        <time>2011-11-27T09:29:21Z</time>
      </trkpt>
      <trkpt lat="44.06772" lon="4.34263">
        <ele>293.6</ele>
        <time>2011-11-27T09:29:24Z</time>
      </trkpt>
      <trkpt lat="44.06774" lon="4.3427">
        <ele>293.3</ele>
        <time>2011-11-27T09:29:27Z</time>
      </trkpt>
      <trkpt lat="44.06777" lon="4.34277">
        <ele>293.3</ele>
        <time>2011-11-27T09:29:30Z</time>
      </trkpt>
      <trkpt lat="44.06779" lon="4.34285">
        <ele>292.9</ele>
        <time>2011-11-27T09:29:33Z</time>
      </trkpt>
      <trkpt lat="44.06782" lon="4.34292">
        <ele>294.3</ele>
        <time>2011-11-27T09:29:37Z</time>
      </trkpt>
      <trkpt lat="44.06783" lon="4.34301">
        <ele>294.7</ele>
        <time>2011-11-27T09:29:40Z</time>
      </trkpt>
      <trkpt lat="44.06785" lon="4.34308">
        <ele>295.1</ele>
        <time>2011-11-27T09:29:43Z</time>
      </trkpt>
      <trkpt lat="44.06787" lon="4.34314">
        <ele>295.5</ele>
        <time>2011-11-27T09:29:46Z</time>
      </trkpt>
      <trkpt lat="44.06789" lon="4.34322">
        <ele>295.9</ele>
        <time>2011-11-27T09:29:49Z</time>
      </trkpt>
      <trkpt lat="44.0679" lon="4.3433">
        <ele>296.7</ele>
        <time>2011-11-27T09:29:52Z</time>
      </trkpt>
      <trkpt lat="44.0679" lon="4.34337">
        <ele>297.1</ele>
        <time>2011-11-27T09:29:54Z</time>
      </trkpt>
      <trkpt lat="44.06791" lon="4.34343">
        <ele>297.4</ele>
        <time>2011-11-27T09:29:56Z</time>
      </trkpt>
      <trkpt lat="44.06792" lon="4.3435">
        <ele>297.3</ele>
        <time>2011-11-27T09:29:58Z</time>
      </trkpt>
      <trkpt lat="44.06794" lon="4.34357">
        <ele>297.1</ele>
        <time>2011-11-27T09:30:00Z</time>
      </trkpt>
      <trkpt lat="44.06796" lon="4.34365">
        <ele>297.4</ele>
        <time>2011-11-27T09:30:03Z</time>
      </trkpt>
      <trkpt lat="44.06799" lon="4.34371">
        <ele>297.8</ele>
        <time>2011-11-27T09:30:07Z</time>
      </trkpt>
      <trkpt lat="44.06802" lon="4.34377">
        <ele>294.8</ele>
        <time>2011-11-27T09:34:30Z</time>
      </trkpt>
      <trkpt lat="44.06801" lon="4.34383">
        <ele>295</ele>
        <time>2011-11-27T09:34:33Z</time>
      </trkpt>
      <trkpt lat="44.068" lon="4.34392">
        <ele>295.1</ele>
        <time>2011-11-27T09:34:36Z</time>
      </trkpt>
      <trkpt lat="44.06798" lon="4.344">
        <ele>295</ele>
        <time>2011-11-27T09:34:38Z</time>
      </trkpt>
      <trkpt lat="44.06798" lon="4.3441">
        <ele>294.6</ele>
        <time>2011-11-27T09:34:40Z</time>
      </trkpt>
      <trkpt lat="44.06797" lon="4.3442">
        <ele>294.1</ele>
        <time>2011-11-27T09:34:42Z</time>
      </trkpt>
      <trkpt lat="44.06796" lon="4.34428">
        <ele>293.9</ele>
        <time>2011-11-27T09:34:44Z</time>
      </trkpt>
      <trkpt lat="44.06795" lon="4.34437">
        <ele>293.4</ele>
        <time>2011-11-27T09:34:46Z</time>
      </trkpt>
      <trkpt lat="44.06794" lon="4.34445">
        <ele>292.6</ele>
        <time>2011-11-27T09:34:48Z</time>
      </trkpt>
      <trkpt lat="44.06793" lon="4.34455">
        <ele>291.9</ele>
        <time>2011-11-27T09:34:50Z</time>
      </trkpt>
      <trkpt lat="44.06792" lon="4.34465">
        <ele>290.9</ele>
        <time>2011-11-27T09:34:52Z</time>
      </trkpt>
      <trkpt lat="44.06793" lon="4.34475">
        <ele>290.1</ele>
        <time>2011-11-27T09:34:54Z</time>
      </trkpt>
      <trkpt lat="44.06794" lon="4.34483">
        <ele>289.2</ele>
        <time>2011-11-27T09:34:56Z</time>
      </trkpt>
      <trkpt lat="44.06794" lon="4.34492">
        <ele>288.5</ele>
        <time>2011-11-27T09:34:58Z</time>
      </trkpt>
      <trkpt lat="44.06796" lon="4.345">
        <ele>287.9</ele>
        <time>2011-11-27T09:35:00Z</time>
      </trkpt>
      <trkpt lat="44.06799" lon="4.34509">
        <ele>287.4</ele>
        <time>2011-11-27T09:35:02Z</time>
      </trkpt>
      <trkpt lat="44.06803" lon="4.34518">
        <ele>286.6</ele>
        <time>2011-11-27T09:35:04Z</time>
      </trkpt>
      <trkpt lat="44.06806" lon="4.34528">
        <ele>285.8</ele>
        <time>2011-11-27T09:35:06Z</time>
      </trkpt>
      <trkpt lat="44.06808" lon="4.34537">
        <ele>284.8</ele>
        <time>2011-11-27T09:35:08Z</time>
      </trkpt>
      <trkpt lat="44.06809" lon="4.34546">
        <ele>284</ele>
        <time>2011-11-27T09:35:10Z</time>
      </trkpt>
      <trkpt lat="44.06808" lon="4.34557">
        <ele>282.8</ele>
        <time>2011-11-27T09:35:12Z</time>
      </trkpt>
      <trkpt lat="44.06808" lon="4.34569">
        <ele>282</ele>
        <time>2011-11-27T09:35:14Z</time>
      </trkpt>
      <trkpt lat="44.06808" lon="4.34579">
        <ele>281</ele>
        <time>2011-11-27T09:35:16Z</time>
      </trkpt>
      <trkpt lat="44.06809" lon="4.34588">
        <ele>280.1</ele>
        <time>2011-11-27T09:35:19Z</time>
      </trkpt>
      <trkpt lat="44.0681" lon="4.34594">
        <ele>274.3</ele>
        <time>2011-11-27T09:37:19Z</time>
      </trkpt>
      <trkpt lat="44.06811" lon="4.34604">
        <ele>274.1</ele>
        <time>2011-11-27T09:37:22Z</time>
      </trkpt>
      <trkpt lat="44.06814" lon="4.34613">
        <ele>274.2</ele>
        <time>2011-11-27T09:37:24Z</time>
      </trkpt>
      <trkpt lat="44.06815" lon="4.34619">
        <ele>274</ele>
        <time>2011-11-27T09:37:25Z</time>
      </trkpt>
      <trkpt lat="44.06816" lon="4.34625">
        <ele>273.7</ele>
        <time>2011-11-27T09:37:26Z</time>
      </trkpt>
      <trkpt lat="44.06817" lon="4.34633">
        <ele>273.3</ele>
        <time>2011-11-27T09:37:27Z</time>
      </trkpt>
      <trkpt lat="44.06819" lon="4.3464">
        <ele>273.1</ele>
        <time>2011-11-27T09:37:28Z</time>
      </trkpt>
      <trkpt lat="44.06821" lon="4.34648">
        <ele>272.8</ele>
        <time>2011-11-27T09:37:29Z</time>
      </trkpt>
      <trkpt lat="44.06821" lon="4.34656">
        <ele>272.5</ele>
        <time>2011-11-27T09:37:30Z</time>
      </trkpt>
      <trkpt lat="44.06822" lon="4.34664">
        <ele>272.4</ele>
        <time>2011-11-27T09:37:31Z</time>
      </trkpt>
      <trkpt lat="44.06824" lon="4.34671">
        <ele>272.2</ele>
        <time>2011-11-27T09:37:32Z</time>
      </trkpt>
      <trkpt lat="44.06826" lon="4.34678">
        <ele>271.9</ele>
        <time>2011-11-27T09:37:33Z</time>
      </trkpt>
      <trkpt lat="44.06827" lon="4.34686">
        <ele>271.5</ele>
        <time>2011-11-27T09:37:34Z</time>
      </trkpt>
      <trkpt lat="44.06828" lon="4.34695">
        <ele>271.1</ele>
        <time>2011-11-27T09:37:35Z</time>
      </trkpt>
      <trkpt lat="44.0683" lon="4.34703">
        <ele>270.7</ele>
        <time>2011-11-27T09:37:36Z</time>
      </trkpt>
      <trkpt lat="44.0683" lon="4.34712">
        <ele>270.5</ele>
        <time>2011-11-27T09:37:37Z</time>
      </trkpt>
      <trkpt lat="44.06831" lon="4.34721">
        <ele>270.2</ele>
        <time>2011-11-27T09:37:38Z</time>
      </trkpt>
      <trkpt lat="44.06832" lon="4.34731">
        <ele>270.1</ele>
        <time>2011-11-27T09:37:39Z</time>
      </trkpt>
      <trkpt lat="44.06832" lon="4.34739">
        <ele>269.8</ele>
        <time>2011-11-27T09:37:40Z</time>
      </trkpt>
      <trkpt lat="44.06834" lon="4.34748">
        <ele>269.8</ele>
        <time>2011-11-27T09:37:41Z</time>
      </trkpt>
      <trkpt lat="44.06834" lon="4.34756">
        <ele>269.4</ele>
        <time>2011-11-27T09:37:42Z</time>
      </trkpt>
      <trkpt lat="44.06835" lon="4.34766">
        <ele>269.1</ele>
        <time>2011-11-27T09:37:43Z</time>
      </trkpt>
      <trkpt lat="44.06836" lon="4.34774">
        <ele>269.2</ele>
        <time>2011-11-27T09:37:44Z</time>
      </trkpt>
      <trkpt lat="44.06836" lon="4.34783">
        <ele>269</ele>
        <time>2011-11-27T09:37:45Z</time>
      </trkpt>
      <trkpt lat="44.06836" lon="4.34791">
        <ele>268.9</ele>
        <time>2011-11-27T09:37:46Z</time>
      </trkpt>
      <trkpt lat="44.06837" lon="4.34799">
        <ele>268.6</ele>
        <time>2011-11-27T09:37:47Z</time>
      </trkpt>
      <trkpt lat="44.06837" lon="4.34806">
        <ele>268.4</ele>
        <time>2011-11-27T09:37:48Z</time>
      </trkpt>
      <trkpt lat="44.06838" lon="4.34813">
        <ele>268.2</ele>
        <time>2011-11-27T09:37:49Z</time>
      </trkpt>
      <trkpt lat="44.0684" lon="4.34824">
        <ele>267.8</ele>
        <time>2011-11-27T09:37:51Z</time>
      </trkpt>
      <trkpt lat="44.06846" lon="4.34831">
        <ele>266.9</ele>
        <time>2011-11-27T09:37:53Z</time>
      </trkpt>
      <trkpt lat="44.0685" lon="4.34835">
        <ele>266.1</ele>
        <time>2011-11-27T09:37:54Z</time>
      </trkpt>
      <trkpt lat="44.06854" lon="4.34838">
        <ele>265.3</ele>
        <time>2011-11-27T09:37:55Z</time>
      </trkpt>
      <trkpt lat="44.06859" lon="4.34842">
        <ele>264.7</ele>
        <time>2011-11-27T09:37:56Z</time>
      </trkpt>
      <trkpt lat="44.06864" lon="4.34846">
        <ele>264.2</ele>
        <time>2011-11-27T09:37:57Z</time>
      </trkpt>
      <trkpt lat="44.06868" lon="4.3485">
        <ele>263.3</ele>
        <time>2011-11-27T09:37:58Z</time>
      </trkpt>
      <trkpt lat="44.06871" lon="4.34856">
        <ele>262.6</ele>
        <time>2011-11-27T09:37:59Z</time>
      </trkpt>
      <trkpt lat="44.06874" lon="4.34861">
        <ele>261.9</ele>
        <time>2011-11-27T09:38:00Z</time>
      </trkpt>
      <trkpt lat="44.06876" lon="4.34867">
        <ele>261.3</ele>
        <time>2011-11-27T09:38:01Z</time>
      </trkpt>
      <trkpt lat="44.06877" lon="4.34874">
        <ele>261</ele>
        <time>2011-11-27T09:38:02Z</time>
      </trkpt>
      <trkpt lat="44.0688" lon="4.34882">
        <ele>260</ele>
        <time>2011-11-27T09:38:04Z</time>
      </trkpt>
      <trkpt lat="44.06883" lon="4.3489">
        <ele>258.9</ele>
        <time>2011-11-27T09:38:06Z</time>
      </trkpt>
      <trkpt lat="44.06887" lon="4.34897">
        <ele>258.5</ele>
        <time>2011-11-27T09:38:08Z</time>
      </trkpt>
      <trkpt lat="44.06892" lon="4.34906">
        <ele>257.9</ele>
        <time>2011-11-27T09:38:10Z</time>
      </trkpt>
      <trkpt lat="44.06895" lon="4.3491">
        <ele>257.5</ele>
        <time>2011-11-27T09:38:11Z</time>
      </trkpt>
      <trkpt lat="44.06898" lon="4.34915">
        <ele>257.2</ele>
        <time>2011-11-27T09:38:12Z</time>
      </trkpt>
      <trkpt lat="44.06902" lon="4.34921">
        <ele>257</ele>
        <time>2011-11-27T09:38:13Z</time>
      </trkpt>
      <trkpt lat="44.06904" lon="4.34927">
        <ele>256.7</ele>
        <time>2011-11-27T09:38:14Z</time>
      </trkpt>
      <trkpt lat="44.06905" lon="4.34934">
        <ele>256.6</ele>
        <time>2011-11-27T09:38:15Z</time>
      </trkpt>
      <trkpt lat="44.06906" lon="4.3494">
        <ele>256</ele>
        <time>2011-11-27T09:38:16Z</time>
      </trkpt>
      <trkpt lat="44.06906" lon="4.34948">
        <ele>255.4</ele>
        <time>2011-11-27T09:38:17Z</time>
      </trkpt>
      <trkpt lat="44.06906" lon="4.34955">
        <ele>255.2</ele>
        <time>2011-11-27T09:38:18Z</time>
      </trkpt>
      <trkpt lat="44.06906" lon="4.34962">
        <ele>254.9</ele>
        <time>2011-11-27T09:38:19Z</time>
      </trkpt>
      <trkpt lat="44.06907" lon="4.34968">
        <ele>254.6</ele>
        <time>2011-11-27T09:38:20Z</time>
      </trkpt>
      <trkpt lat="44.06908" lon="4.34975">
        <ele>254.4</ele>
        <time>2011-11-27T09:38:21Z</time>
      </trkpt>
      <trkpt lat="44.06909" lon="4.34981">
        <ele>254.2</ele>
        <time>2011-11-27T09:38:22Z</time>
      </trkpt>
      <trkpt lat="44.0691" lon="4.34988">
        <ele>254.1</ele>
        <time>2011-11-27T09:38:23Z</time>
      </trkpt>
      <trkpt lat="44.06914" lon="4.35001">
        <ele>253.9</ele>
        <time>2011-11-27T09:38:25Z</time>
      </trkpt>
      <trkpt lat="44.06916" lon="4.35006">
        <ele>253.7</ele>
        <time>2011-11-27T09:38:26Z</time>
      </trkpt>
      <trkpt lat="44.06917" lon="4.35013">
        <ele>253.5</ele>
        <time>2011-11-27T09:38:27Z</time>
      </trkpt>
      <trkpt lat="44.0692" lon="4.35025">
        <ele>253.2</ele>
        <time>2011-11-27T09:38:29Z</time>
      </trkpt>
      <trkpt lat="44.06922" lon="4.35031">
        <ele>253.1</ele>
        <time>2011-11-27T09:38:30Z</time>
      </trkpt>
      <trkpt lat="44.06925" lon="4.35041">
        <ele>252.8</ele>
        <time>2011-11-27T09:38:32Z</time>
      </trkpt>
      <trkpt lat="44.06926" lon="4.3505">
        <ele>252.1</ele>
        <time>2011-11-27T09:38:34Z</time>
      </trkpt>
      <trkpt lat="44.06927" lon="4.35059">
        <ele>251.6</ele>
        <time>2011-11-27T09:38:36Z</time>
      </trkpt>
      <trkpt lat="44.06926" lon="4.35068">
        <ele>251</ele>
        <time>2011-11-27T09:38:38Z</time>
      </trkpt>
      <trkpt lat="44.06925" lon="4.35078">
        <ele>250.8</ele>
        <time>2011-11-27T09:38:40Z</time>
      </trkpt>
      <trkpt lat="44.06925" lon="4.35088">
        <ele>251.1</ele>
        <time>2011-11-27T09:38:42Z</time>
      </trkpt>
      <trkpt lat="44.06924" lon="4.35099">
        <ele>250.9</ele>
        <time>2011-11-27T09:38:44Z</time>
      </trkpt>
      <trkpt lat="44.06922" lon="4.3511">
        <ele>250.8</ele>
        <time>2011-11-27T09:38:46Z</time>
      </trkpt>
      <trkpt lat="44.06921" lon="4.35121">
        <ele>250</ele>
        <time>2011-11-27T09:38:48Z</time>
      </trkpt>
      <trkpt lat="44.06921" lon="4.35128">
        <ele>249.6</ele>
        <time>2011-11-27T09:38:49Z</time>
      </trkpt>
      <trkpt lat="44.06921" lon="4.35134">
        <ele>249.3</ele>
        <time>2011-11-27T09:38:50Z</time>
      </trkpt>
      <trkpt lat="44.06922" lon="4.3514">
        <ele>249.1</ele>
        <time>2011-11-27T09:38:51Z</time>
      </trkpt>
      <trkpt lat="44.06922" lon="4.35147">
        <ele>248.9</ele>
        <time>2011-11-27T09:38:52Z</time>
      </trkpt>
      <trkpt lat="44.06923" lon="4.35158">
        <ele>248.3</ele>
        <time>2011-11-27T09:38:54Z</time>
      </trkpt>
      <trkpt lat="44.06924" lon="4.35168">
        <ele>247.9</ele>
        <time>2011-11-27T09:38:56Z</time>
      </trkpt>
      <trkpt lat="44.06925" lon="4.35177">
        <ele>247.8</ele>
        <time>2011-11-27T09:38:58Z</time>
      </trkpt>
      <trkpt lat="44.06925" lon="4.35187">
        <ele>247.5</ele>
        <time>2011-11-27T09:39:00Z</time>
      </trkpt>
      <trkpt lat="44.06925" lon="4.35197">
        <ele>247.1</ele>
        <time>2011-11-27T09:39:02Z</time>
      </trkpt>
      <trkpt lat="44.06925" lon="4.35207">
        <ele>246.9</ele>
        <time>2011-11-27T09:39:04Z</time>
      </trkpt>
      <trkpt lat="44.06925" lon="4.35216">
        <ele>246.8</ele>
        <time>2011-11-27T09:39:06Z</time>
      </trkpt>
      <trkpt lat="44.06924" lon="4.35223">
        <ele>247.2</ele>
        <time>2011-11-27T09:39:08Z</time>
      </trkpt>
      <trkpt lat="44.06923" lon="4.35231">
        <ele>247.4</ele>
        <time>2011-11-27T09:39:10Z</time>
      </trkpt>
      <trkpt lat="44.06922" lon="4.35239">
        <ele>247.4</ele>
        <time>2011-11-27T09:39:12Z</time>
      </trkpt>
      <trkpt lat="44.0692" lon="4.35246">
        <ele>247.5</ele>
        <time>2011-11-27T09:39:14Z</time>
      </trkpt>
      <trkpt lat="44.06919" lon="4.35254">
        <ele>247.9</ele>
        <time>2011-11-27T09:39:17Z</time>
      </trkpt>
      <trkpt lat="44.0692" lon="4.35261">
        <ele>246.1</ele>
        <time>2011-11-27T09:39:20Z</time>
      </trkpt>
      <trkpt lat="44.06925" lon="4.35265">
        <ele>243.8</ele>
        <time>2011-11-27T09:39:23Z</time>
      </trkpt>
      <trkpt lat="44.06929" lon="4.35263">
        <ele>243.1</ele>
        <time>2011-11-27T09:39:36Z</time>
      </trkpt>
      <trkpt lat="44.06934" lon="4.35259">
        <ele>240.7</ele>
        <time>2011-11-27T09:39:41Z</time>
      </trkpt>
      <trkpt lat="44.06935" lon="4.35253">
        <ele>240.5</ele>
        <time>2011-11-27T09:39:43Z</time>
      </trkpt>
      <trkpt lat="44.06935" lon="4.35245">
        <ele>240.5</ele>
        <time>2011-11-27T09:39:46Z</time>
      </trkpt>
      <trkpt lat="44.06933" lon="4.35239">
        <ele>240.5</ele>
        <time>2011-11-27T09:40:26Z</time>
      </trkpt>
      <trkpt lat="44.06933" lon="4.35246">
        <ele>240.5</ele>
        <time>2011-11-27T09:41:01Z</time>
      </trkpt>
      <trkpt lat="44.06927" lon="4.3525">
        <ele>239.5</ele>
        <time>2011-11-27T09:41:12Z</time>
      </trkpt>
      <trkpt lat="44.06925" lon="4.35259">
        <ele>239.8</ele>
        <time>2011-11-27T09:41:14Z</time>
      </trkpt>
      <trkpt lat="44.06923" lon="4.35266">
        <ele>239.7</ele>
        <time>2011-11-27T09:41:16Z</time>
      </trkpt>
      <trkpt lat="44.06922" lon="4.35274">
        <ele>239.9</ele>
        <time>2011-11-27T09:41:18Z</time>
      </trkpt>
      <trkpt lat="44.06922" lon="4.35284">
        <ele>240</ele>
        <time>2011-11-27T09:41:20Z</time>
      </trkpt>
      <trkpt lat="44.06923" lon="4.35292">
        <ele>239.7</ele>
        <time>2011-11-27T09:41:22Z</time>
      </trkpt>
      <trkpt lat="44.06923" lon="4.35302">
        <ele>239.3</ele>
        <time>2011-11-27T09:41:24Z</time>
      </trkpt>
      <trkpt lat="44.06924" lon="4.35312">
        <ele>238.5</ele>
        <time>2011-11-27T09:41:26Z</time>
      </trkpt>
      <trkpt lat="44.06925" lon="4.3532">
        <ele>238.6</ele>
        <time>2011-11-27T09:41:28Z</time>
      </trkpt>
      <trkpt lat="44.06926" lon="4.3533">
        <ele>238.2</ele>
        <time>2011-11-27T09:41:30Z</time>
      </trkpt>
      <trkpt lat="44.06928" lon="4.3534">
        <ele>238.2</ele>
        <time>2011-11-27T09:41:32Z</time>
      </trkpt>
      <trkpt lat="44.0693" lon="4.3535">
        <ele>237.8</ele>
        <time>2011-11-27T09:41:34Z</time>
      </trkpt>
      <trkpt lat="44.06932" lon="4.35359">
        <ele>237.3</ele>
        <time>2011-11-27T09:41:36Z</time>
      </trkpt>
      <trkpt lat="44.06934" lon="4.35368">
        <ele>237.4</ele>
        <time>2011-11-27T09:41:38Z</time>
      </trkpt>
      <trkpt lat="44.06936" lon="4.35377">
        <ele>237.5</ele>
        <time>2011-11-27T09:41:40Z</time>
      </trkpt>
      <trkpt lat="44.06938" lon="4.35386">
        <ele>237.5</ele>
        <time>2011-11-27T09:41:42Z</time>
      </trkpt>
      <trkpt lat="44.06939" lon="4.35394">
        <ele>237.2</ele>
        <time>2011-11-27T09:41:44Z</time>
      </trkpt>
      <trkpt lat="44.06941" lon="4.35402">
        <ele>237.2</ele>
        <time>2011-11-27T09:41:46Z</time>
      </trkpt>
      <trkpt lat="44.06943" lon="4.3541">
        <ele>237.5</ele>
        <time>2011-11-27T09:41:48Z</time>
      </trkpt>
      <trkpt lat="44.06944" lon="4.35418">
        <ele>237.6</ele>
        <time>2011-11-27T09:41:50Z</time>
      </trkpt>
      <trkpt lat="44.06945" lon="4.35425">
        <ele>237.1</ele>
        <time>2011-11-27T09:41:52Z</time>
      </trkpt>
      <trkpt lat="44.06946" lon="4.35433">
        <ele>237.5</ele>
        <time>2011-11-27T09:41:54Z</time>
      </trkpt>
      <trkpt lat="44.06946" lon="4.35443">
        <ele>237.6</ele>
        <time>2011-11-27T09:41:56Z</time>
      </trkpt>
      <trkpt lat="44.06947" lon="4.35453">
        <ele>237.9</ele>
        <time>2011-11-27T09:41:58Z</time>
      </trkpt>
      <trkpt lat="44.06949" lon="4.35461">
        <ele>238.3</ele>
        <time>2011-11-27T09:42:00Z</time>
      </trkpt>
      <trkpt lat="44.06951" lon="4.35469">
        <ele>238.2</ele>
        <time>2011-11-27T09:42:02Z</time>
      </trkpt>
      <trkpt lat="44.06954" lon="4.35477">
        <ele>237.9</ele>
        <time>2011-11-27T09:42:04Z</time>
      </trkpt>
      <trkpt lat="44.06957" lon="4.35484">
        <ele>238.1</ele>
        <time>2011-11-27T09:42:06Z</time>
      </trkpt>
      <trkpt lat="44.06962" lon="4.35491">
        <ele>237.9</ele>
        <time>2011-11-27T09:42:08Z</time>
      </trkpt>
      <trkpt lat="44.06968" lon="4.35498">
        <ele>237.4</ele>
        <time>2011-11-27T09:42:10Z</time>
      </trkpt>
      <trkpt lat="44.06974" lon="4.35503">
        <ele>236.9</ele>
        <time>2011-11-27T09:42:12Z</time>
      </trkpt>
      <trkpt lat="44.0698" lon="4.3551">
        <ele>236.6</ele>
        <time>2011-11-27T09:42:14Z</time>
      </trkpt>
      <trkpt lat="44.06984" lon="4.35517">
        <ele>236.1</ele>
        <time>2011-11-27T09:42:16Z</time>
      </trkpt>
      <trkpt lat="44.06986" lon="4.35525">
        <ele>235.3</ele>
        <time>2011-11-27T09:42:18Z</time>
      </trkpt>
      <trkpt lat="44.06987" lon="4.35533">
        <ele>234.6</ele>
        <time>2011-11-27T09:42:20Z</time>
      </trkpt>
      <trkpt lat="44.06988" lon="4.35542">
        <ele>233.8</ele>
        <time>2011-11-27T09:42:22Z</time>
      </trkpt>
      <trkpt lat="44.06988" lon="4.3555">
        <ele>233.3</ele>
        <time>2011-11-27T09:42:24Z</time>
      </trkpt>
      <trkpt lat="44.06989" lon="4.35559">
        <ele>232.9</ele>
        <time>2011-11-27T09:42:44Z</time>
      </trkpt>
      <trkpt lat="44.0699" lon="4.35566">
        <ele>233</ele>
        <time>2011-11-27T09:42:46Z</time>
      </trkpt>
      <trkpt lat="44.0699" lon="4.35573">
        <ele>233.2</ele>
        <time>2011-11-27T09:42:48Z</time>
      </trkpt>
      <trkpt lat="44.06991" lon="4.35581">
        <ele>233.4</ele>
        <time>2011-11-27T09:42:50Z</time>
      </trkpt>
      <trkpt lat="44.06994" lon="4.3559">
        <ele>233.1</ele>
        <time>2011-11-27T09:42:52Z</time>
      </trkpt>
      <trkpt lat="44.06998" lon="4.35599">
        <ele>232.9</ele>
        <time>2011-11-27T09:42:54Z</time>
      </trkpt>
      <trkpt lat="44.07002" lon="4.3561">
        <ele>232.9</ele>
        <time>2011-11-27T09:42:56Z</time>
      </trkpt>
      <trkpt lat="44.07003" lon="4.35616">
        <ele>232.6</ele>
        <time>2011-11-27T09:42:57Z</time>
      </trkpt>
      <trkpt lat="44.07004" lon="4.35623">
        <ele>232.2</ele>
        <time>2011-11-27T09:42:58Z</time>
      </trkpt>
      <trkpt lat="44.07005" lon="4.35631">
        <ele>231.8</ele>
        <time>2011-11-27T09:42:59Z</time>
      </trkpt>
      <trkpt lat="44.07007" lon="4.35638">
        <ele>231.1</ele>
        <time>2011-11-27T09:43:00Z</time>
      </trkpt>
      <trkpt lat="44.07008" lon="4.35647">
        <ele>230.3</ele>
        <time>2011-11-27T09:43:01Z</time>
      </trkpt>
      <trkpt lat="44.0701" lon="4.35655">
        <ele>229.6</ele>
        <time>2011-11-27T09:43:02Z</time>
      </trkpt>
      <trkpt lat="44.07014" lon="4.35661">
        <ele>229.2</ele>
        <time>2011-11-27T09:43:03Z</time>
      </trkpt>
      <trkpt lat="44.07019" lon="4.35664">
        <ele>228.8</ele>
        <time>2011-11-27T09:43:04Z</time>
      </trkpt>
      <trkpt lat="44.07024" lon="4.35666">
        <ele>228.6</ele>
        <time>2011-11-27T09:43:05Z</time>
      </trkpt>
      <trkpt lat="44.07029" lon="4.35666">
        <ele>228.4</ele>
        <time>2011-11-27T09:43:06Z</time>
      </trkpt>
      <trkpt lat="44.07037" lon="4.3567">
        <ele>227.3</ele>
        <time>2011-11-27T09:43:08Z</time>
      </trkpt>
      <trkpt lat="44.07044" lon="4.35674">
        <ele>226.4</ele>
        <time>2011-11-27T09:43:10Z</time>
      </trkpt>
      <trkpt lat="44.0705" lon="4.35679">
        <ele>225.7</ele>
        <time>2011-11-27T09:43:12Z</time>
      </trkpt>
      <trkpt lat="44.07051" lon="4.35686">
        <ele>225.2</ele>
        <time>2011-11-27T09:43:15Z</time>
      </trkpt>
      <trkpt lat="44.07051" lon="4.35692">
        <ele>225</ele>
        <time>2011-11-27T09:43:18Z</time>
      </trkpt>
      <trkpt lat="44.07051" lon="4.35699">
        <ele>224.8</ele>
        <time>2011-11-27T09:43:22Z</time>
      </trkpt>
      <trkpt lat="44.07052" lon="4.35708">
        <ele>224.5</ele>
        <time>2011-11-27T09:43:26Z</time>
      </trkpt>
      <trkpt lat="44.07052" lon="4.35716">
        <ele>224.5</ele>
        <time>2011-11-27T09:43:30Z</time>
      </trkpt>
      <trkpt lat="44.07053" lon="4.35724">
        <ele>224</ele>
        <time>2011-11-27T09:43:34Z</time>
      </trkpt>
      <trkpt lat="44.07054" lon="4.3573">
        <ele>223.8</ele>
        <time>2011-11-27T09:44:06Z</time>
      </trkpt>
      <trkpt lat="44.07054" lon="4.35739">
        <ele>223.2</ele>
        <time>2011-11-27T09:44:10Z</time>
      </trkpt>
      <trkpt lat="44.07055" lon="4.35746">
        <ele>223.3</ele>
        <time>2011-11-27T09:44:12Z</time>
      </trkpt>
      <trkpt lat="44.07055" lon="4.35754">
        <ele>223.4</ele>
        <time>2011-11-27T09:44:15Z</time>
      </trkpt>
      <trkpt lat="44.07056" lon="4.35762">
        <ele>223.4</ele>
        <time>2011-11-27T09:44:20Z</time>
      </trkpt>
      <trkpt lat="44.07052" lon="4.35766">
        <ele>223.7</ele>
        <time>2011-11-27T09:44:23Z</time>
      </trkpt>
      <trkpt lat="44.07052" lon="4.35774">
        <ele>222.4</ele>
        <time>2011-11-27T09:44:33Z</time>
      </trkpt>
      <trkpt lat="44.07052" lon="4.35781">
        <ele>222.1</ele>
        <time>2011-11-27T09:44:35Z</time>
      </trkpt>
      <trkpt lat="44.07052" lon="4.35788">
        <ele>222.6</ele>
        <time>2011-11-27T09:44:37Z</time>
      </trkpt>
      <trkpt lat="44.07052" lon="4.35795">
        <ele>223</ele>
        <time>2011-11-27T09:44:39Z</time>
      </trkpt>
      <trkpt lat="44.07052" lon="4.35803">
        <ele>223.3</ele>
        <time>2011-11-27T09:44:41Z</time>
      </trkpt>
      <trkpt lat="44.07052" lon="4.35811">
        <ele>223.1</ele>
        <time>2011-11-27T09:44:43Z</time>
      </trkpt>
      <trkpt lat="44.07053" lon="4.35819">
        <ele>223</ele>
        <time>2011-11-27T09:44:46Z</time>
      </trkpt>
      <trkpt lat="44.07054" lon="4.35826">
        <ele>222.9</ele>
        <time>2011-11-27T09:44:49Z</time>
      </trkpt>
      <trkpt lat="44.07054" lon="4.35834">
        <ele>222.9</ele>
        <time>2011-11-27T09:44:52Z</time>
      </trkpt>
      <trkpt lat="44.07055" lon="4.35842">
        <ele>222.6</ele>
        <time>2011-11-27T09:44:55Z</time>
      </trkpt>
      <trkpt lat="44.07057" lon="4.35849">
        <ele>222.9</ele>
        <time>2011-11-27T09:48:02Z</time>
      </trkpt>
      <trkpt lat="44.07059" lon="4.35856">
        <ele>217.8</ele>
        <time>2011-11-27T09:48:24Z</time>
      </trkpt>
      <trkpt lat="44.0706" lon="4.35862">
        <ele>217.7</ele>
        <time>2011-11-27T09:48:26Z</time>
      </trkpt>
      <trkpt lat="44.07062" lon="4.35869">
        <ele>217.8</ele>
        <time>2011-11-27T09:48:28Z</time>
      </trkpt>
      <trkpt lat="44.07063" lon="4.35876">
        <ele>217.7</ele>
        <time>2011-11-27T09:48:30Z</time>
      </trkpt>
      <trkpt lat="44.07064" lon="4.35884">
        <ele>217.5</ele>
        <time>2011-11-27T09:48:32Z</time>
      </trkpt>
      <trkpt lat="44.07066" lon="4.35892">
        <ele>217.3</ele>
        <time>2011-11-27T09:48:34Z</time>
      </trkpt>
      <trkpt lat="44.07068" lon="4.35901">
        <ele>217.3</ele>
        <time>2011-11-27T09:48:36Z</time>
      </trkpt>
      <trkpt lat="44.07069" lon="4.35909">
        <ele>217.4</ele>
        <time>2011-11-27T09:48:38Z</time>
      </trkpt>
      <trkpt lat="44.0707" lon="4.35917">
        <ele>217.7</ele>
        <time>2011-11-27T09:48:40Z</time>
      </trkpt>
      <trkpt lat="44.07072" lon="4.35926">
        <ele>218</ele>
        <time>2011-11-27T09:48:42Z</time>
      </trkpt>
      <trkpt lat="44.07073" lon="4.35935">
        <ele>217.9</ele>
        <time>2011-11-27T09:48:44Z</time>
      </trkpt>
      <trkpt lat="44.07074" lon="4.35947">
        <ele>217.5</ele>
        <time>2011-11-27T09:48:46Z</time>
      </trkpt>
      <trkpt lat="44.07075" lon="4.35953">
        <ele>217.4</ele>
        <time>2011-11-27T09:48:47Z</time>
      </trkpt>
      <trkpt lat="44.07075" lon="4.35959">
        <ele>217.3</ele>
        <time>2011-11-27T09:48:48Z</time>
      </trkpt>
      <trkpt lat="44.07076" lon="4.35965">
        <ele>217.4</ele>
        <time>2011-11-27T09:48:49Z</time>
      </trkpt>
      <trkpt lat="44.07077" lon="4.35977">
        <ele>217.4</ele>
        <time>2011-11-27T09:48:51Z</time>
      </trkpt>
      <trkpt lat="44.07078" lon="4.35989">
        <ele>217.2</ele>
        <time>2011-11-27T09:48:53Z</time>
      </trkpt>
      <trkpt lat="44.07078" lon="4.36">
        <ele>216.9</ele>
        <time>2011-11-27T09:48:55Z</time>
      </trkpt>
      <trkpt lat="44.0708" lon="4.36012">
        <ele>216.6</ele>
        <time>2011-11-27T09:48:57Z</time>
      </trkpt>
      <trkpt lat="44.07082" lon="4.36024">
        <ele>216.3</ele>
        <time>2011-11-27T09:48:59Z</time>
      </trkpt>
      <trkpt lat="44.07083" lon="4.3603">
        <ele>216.1</ele>
        <time>2011-11-27T09:49:00Z</time>
      </trkpt>
      <trkpt lat="44.07084" lon="4.36037">
        <ele>215.7</ele>
        <time>2011-11-27T09:49:01Z</time>
      </trkpt>
      <trkpt lat="44.07085" lon="4.36044">
        <ele>215.6</ele>
        <time>2011-11-27T09:49:02Z</time>
      </trkpt>
      <trkpt lat="44.07087" lon="4.3605">
        <ele>215.5</ele>
        <time>2011-11-27T09:49:03Z</time>
      </trkpt>
      <trkpt lat="44.07088" lon="4.36057">
        <ele>215.4</ele>
        <time>2011-11-27T09:49:04Z</time>
      </trkpt>
      <trkpt lat="44.0709" lon="4.36064">
        <ele>215.4</ele>
        <time>2011-11-27T09:49:05Z</time>
      </trkpt>
      <trkpt lat="44.07092" lon="4.36071">
        <ele>215.4</ele>
        <time>2011-11-27T09:49:06Z</time>
      </trkpt>
      <trkpt lat="44.07093" lon="4.36078">
        <ele>215.4</ele>
        <time>2011-11-27T09:49:07Z</time>
      </trkpt>
      <trkpt lat="44.07096" lon="4.36084">
        <ele>215.1</ele>
        <time>2011-11-27T09:49:08Z</time>
      </trkpt>
      <trkpt lat="44.07098" lon="4.36091">
        <ele>214.7</ele>
        <time>2011-11-27T09:49:09Z</time>
      </trkpt>
      <trkpt lat="44.07101" lon="4.36098">
        <ele>214.4</ele>
        <time>2011-11-27T09:49:10Z</time>
      </trkpt>
      <trkpt lat="44.07104" lon="4.36104">
        <ele>214.2</ele>
        <time>2011-11-27T09:49:11Z</time>
      </trkpt>
      <trkpt lat="44.07108" lon="4.36109">
        <ele>214</ele>
        <time>2011-11-27T09:49:12Z</time>
      </trkpt>
      <trkpt lat="44.07112" lon="4.36114">
        <ele>213.9</ele>
        <time>2011-11-27T09:49:13Z</time>
      </trkpt>
      <trkpt lat="44.07117" lon="4.3612">
        <ele>213.7</ele>
        <time>2011-11-27T09:49:14Z</time>
      </trkpt>
      <trkpt lat="44.07122" lon="4.36125">
        <ele>213.2</ele>
        <time>2011-11-27T09:49:15Z</time>
      </trkpt>
      <trkpt lat="44.07126" lon="4.36129">
        <ele>213</ele>
        <time>2011-11-27T09:49:16Z</time>
      </trkpt>
      <trkpt lat="44.07131" lon="4.36132">
        <ele>212.8</ele>
        <time>2011-11-27T09:49:17Z</time>
      </trkpt>
      <trkpt lat="44.07136" lon="4.36134">
        <ele>212.7</ele>
        <time>2011-11-27T09:49:18Z</time>
      </trkpt>
      <trkpt lat="44.07141" lon="4.36135">
        <ele>212.7</ele>
        <time>2011-11-27T09:49:19Z</time>
      </trkpt>
      <trkpt lat="44.07146" lon="4.36134">
        <ele>212.6</ele>
        <time>2011-11-27T09:49:20Z</time>
      </trkpt>
      <trkpt lat="44.07151" lon="4.36132">
        <ele>212.4</ele>
        <time>2011-11-27T09:49:21Z</time>
      </trkpt>
      <trkpt lat="44.07156" lon="4.3613">
        <ele>212.5</ele>
        <time>2011-11-27T09:49:22Z</time>
      </trkpt>
      <trkpt lat="44.07161" lon="4.36129">
        <ele>212.6</ele>
        <time>2011-11-27T09:49:23Z</time>
      </trkpt>
      <trkpt lat="44.07169" lon="4.36127">
        <ele>212.9</ele>
        <time>2011-11-27T09:49:25Z</time>
      </trkpt>
      <trkpt lat="44.07174" lon="4.36125">
        <ele>213.1</ele>
        <time>2011-11-27T09:49:27Z</time>
      </trkpt>
      <trkpt lat="44.0718" lon="4.36124">
        <ele>213.1</ele>
        <time>2011-11-27T09:49:30Z</time>
      </trkpt>
      <trkpt lat="44.07185" lon="4.36124">
        <ele>213.4</ele>
        <time>2011-11-27T09:49:33Z</time>
      </trkpt>
      <trkpt lat="44.07191" lon="4.36122">
        <ele>213.3</ele>
        <time>2011-11-27T09:49:35Z</time>
      </trkpt>
      <trkpt lat="44.07199" lon="4.3612">
        <ele>213</ele>
        <time>2011-11-27T09:49:37Z</time>
      </trkpt>
      <trkpt lat="44.07208" lon="4.36118">
        <ele>212.9</ele>
        <time>2011-11-27T09:49:39Z</time>
      </trkpt>
      <trkpt lat="44.07216" lon="4.36116">
        <ele>212.8</ele>
        <time>2011-11-27T09:49:41Z</time>
      </trkpt>
      <trkpt lat="44.07224" lon="4.36116">
        <ele>212.8</ele>
        <time>2011-11-27T09:49:43Z</time>
      </trkpt>
      <trkpt lat="44.07232" lon="4.36117">
        <ele>212.8</ele>
        <time>2011-11-27T09:49:45Z</time>
      </trkpt>
      <trkpt lat="44.0724" lon="4.36119">
        <ele>212.9</ele>
        <time>2011-11-27T09:49:47Z</time>
      </trkpt>
      <trkpt lat="44.07247" lon="4.36121">
        <ele>213</ele>
        <time>2011-11-27T09:49:49Z</time>
      </trkpt>
      <trkpt lat="44.07254" lon="4.36123">
        <ele>213.3</ele>
        <time>2011-11-27T09:49:51Z</time>
      </trkpt>
      <trkpt lat="44.07261" lon="4.36125">
        <ele>213.5</ele>
        <time>2011-11-27T09:49:53Z</time>
      </trkpt>
      <trkpt lat="44.07268" lon="4.36127">
        <ele>213.7</ele>
        <time>2011-11-27T09:49:55Z</time>
      </trkpt>
      <trkpt lat="44.07274" lon="4.36128">
        <ele>213.8</ele>
        <time>2011-11-27T09:49:57Z</time>
      </trkpt>
      <trkpt lat="44.0728" lon="4.36129">
        <ele>213.9</ele>
        <time>2011-11-27T09:49:59Z</time>
      </trkpt>
      <trkpt lat="44.07287" lon="4.36132">
        <ele>214.3</ele>
        <time>2011-11-27T09:50:01Z</time>
      </trkpt>
      <trkpt lat="44.07292" lon="4.36139">
        <ele>214.7</ele>
        <time>2011-11-27T09:50:03Z</time>
      </trkpt>
      <trkpt lat="44.07295" lon="4.36147">
        <ele>215</ele>
        <time>2011-11-27T09:50:05Z</time>
      </trkpt>
      <trkpt lat="44.07299" lon="4.36155">
        <ele>215.3</ele>
        <time>2011-11-27T09:50:07Z</time>
      </trkpt>
      <trkpt lat="44.07303" lon="4.36164">
        <ele>215.6</ele>
        <time>2011-11-27T09:50:09Z</time>
      </trkpt>
      <trkpt lat="44.07308" lon="4.36174">
        <ele>215.7</ele>
        <time>2011-11-27T09:50:11Z</time>
      </trkpt>
      <trkpt lat="44.07311" lon="4.36178">
        <ele>215.7</ele>
        <time>2011-11-27T09:50:12Z</time>
      </trkpt>
      <trkpt lat="44.07314" lon="4.36183">
        <ele>215.7</ele>
        <time>2011-11-27T09:50:13Z</time>
      </trkpt>
      <trkpt lat="44.07321" lon="4.3619">
        <ele>215.7</ele>
        <time>2011-11-27T09:50:15Z</time>
      </trkpt>
      <trkpt lat="44.07328" lon="4.36197">
        <ele>215.7</ele>
        <time>2011-11-27T09:50:17Z</time>
      </trkpt>
      <trkpt lat="44.07334" lon="4.36203">
        <ele>215.7</ele>
        <time>2011-11-27T09:50:19Z</time>
      </trkpt>
      <trkpt lat="44.07339" lon="4.36208">
        <ele>215.9</ele>
        <time>2011-11-27T09:50:21Z</time>
      </trkpt>
      <trkpt lat="44.07344" lon="4.36213">
        <ele>216.1</ele>
        <time>2011-11-27T09:50:23Z</time>
      </trkpt>
      <trkpt lat="44.0735" lon="4.36218">
        <ele>216.2</ele>
        <time>2011-11-27T09:50:25Z</time>
      </trkpt>
      <trkpt lat="44.07356" lon="4.36223">
        <ele>216.4</ele>
        <time>2011-11-27T09:50:27Z</time>
      </trkpt>
      <trkpt lat="44.07363" lon="4.36228">
        <ele>216.5</ele>
        <time>2011-11-27T09:50:29Z</time>
      </trkpt>
      <trkpt lat="44.07369" lon="4.36233">
        <ele>216.5</ele>
        <time>2011-11-27T09:50:31Z</time>
      </trkpt>
      <trkpt lat="44.07376" lon="4.36238">
        <ele>216.5</ele>
        <time>2011-11-27T09:50:33Z</time>
      </trkpt>
      <trkpt lat="44.07382" lon="4.36244">
        <ele>216.5</ele>
        <time>2011-11-27T09:50:35Z</time>
      </trkpt>
      <trkpt lat="44.07388" lon="4.3625">
        <ele>216.6</ele>
        <time>2011-11-27T09:50:37Z</time>
      </trkpt>
      <trkpt lat="44.07394" lon="4.36255">
        <ele>216.6</ele>
        <time>2011-11-27T09:50:39Z</time>
      </trkpt>
      <trkpt lat="44.074" lon="4.3626">
        <ele>216.6</ele>
        <time>2011-11-27T09:50:41Z</time>
      </trkpt>
      <trkpt lat="44.07406" lon="4.36264">
        <ele>216.6</ele>
        <time>2011-11-27T09:50:43Z</time>
      </trkpt>
      <trkpt lat="44.07412" lon="4.36269">
        <ele>216.7</ele>
        <time>2011-11-27T09:50:45Z</time>
      </trkpt>
      <trkpt lat="44.07419" lon="4.36273">
        <ele>216.7</ele>
        <time>2011-11-27T09:50:47Z</time>
      </trkpt>
      <trkpt lat="44.07425" lon="4.36276">
        <ele>216.7</ele>
        <time>2011-11-27T09:50:49Z</time>
      </trkpt>
      <trkpt lat="44.07432" lon="4.3628">
        <ele>216.7</ele>
        <time>2011-11-27T09:50:51Z</time>
      </trkpt>
      <trkpt lat="44.07439" lon="4.36282">
        <ele>216.8</ele>
        <time>2011-11-27T09:50:53Z</time>
      </trkpt>
      <trkpt lat="44.07445" lon="4.36285">
        <ele>216.9</ele>
        <time>2011-11-27T09:50:55Z</time>
      </trkpt>
      <trkpt lat="44.07452" lon="4.36287">
        <ele>216.9</ele>
        <time>2011-11-27T09:50:57Z</time>
      </trkpt>
      <trkpt lat="44.07459" lon="4.36289">
        <ele>217</ele>
        <time>2011-11-27T09:50:59Z</time>
      </trkpt>
      <trkpt lat="44.07466" lon="4.36291">
        <ele>217</ele>
        <time>2011-11-27T09:51:01Z</time>
      </trkpt>
      <trkpt lat="44.07472" lon="4.36293">
        <ele>217</ele>
        <time>2011-11-27T09:51:03Z</time>
      </trkpt>
      <trkpt lat="44.07479" lon="4.36295">
        <ele>216.9</ele>
        <time>2011-11-27T09:51:05Z</time>
      </trkpt>
      <trkpt lat="44.07485" lon="4.36296">
        <ele>216.8</ele>
        <time>2011-11-27T09:51:07Z</time>
      </trkpt>
      <trkpt lat="44.07491" lon="4.36297">
        <ele>216.9</ele>
        <time>2011-11-27T09:51:09Z</time>
      </trkpt>
      <trkpt lat="44.07497" lon="4.36299">
        <ele>217.1</ele>
        <time>2011-11-27T09:51:11Z</time>
      </trkpt>
      <trkpt lat="44.075" lon="4.36303">
        <ele>217.2</ele>
        <time>2011-11-27T09:51:13Z</time>
      </trkpt>
      <trkpt lat="44.07504" lon="4.36311">
        <ele>217.5</ele>
        <time>2011-11-27T09:51:16Z</time>
      </trkpt>
      <trkpt lat="44.07506" lon="4.36318">
        <ele>217.5</ele>
        <time>2011-11-27T09:51:18Z</time>
      </trkpt>
      <trkpt lat="44.07509" lon="4.36325">
        <ele>217.5</ele>
        <time>2011-11-27T09:51:20Z</time>
      </trkpt>
      <trkpt lat="44.07511" lon="4.36332">
        <ele>217.6</ele>
        <time>2011-11-27T09:51:22Z</time>
      </trkpt>
      <trkpt lat="44.07513" lon="4.36338">
        <ele>217.7</ele>
        <time>2011-11-27T09:51:24Z</time>
      </trkpt>
      <trkpt lat="44.07516" lon="4.36344">
        <ele>217.8</ele>
        <time>2011-11-27T09:51:26Z</time>
      </trkpt>
      <trkpt lat="44.07518" lon="4.3635">
        <ele>218</ele>
        <time>2011-11-27T09:51:28Z</time>
      </trkpt>
      <trkpt lat="44.0752" lon="4.36356">
        <ele>218.2</ele>
        <time>2011-11-27T09:51:30Z</time>
      </trkpt>
      <trkpt lat="44.07522" lon="4.36364">
        <ele>218.4</ele>
        <time>2011-11-27T09:51:33Z</time>
      </trkpt>
      <trkpt lat="44.07525" lon="4.36371">
        <ele>218.5</ele>
        <time>2011-11-27T09:51:35Z</time>
      </trkpt>
      <trkpt lat="44.07527" lon="4.36377">
        <ele>218.6</ele>
        <time>2011-11-27T09:51:37Z</time>
      </trkpt>
      <trkpt lat="44.0753" lon="4.36384">
        <ele>219</ele>
        <time>2011-11-27T09:51:40Z</time>
      </trkpt>
      <trkpt lat="44.07533" lon="4.3639">
        <ele>219.2</ele>
        <time>2011-11-27T09:51:43Z</time>
      </trkpt>
      <trkpt lat="44.07537" lon="4.36396">
        <ele>219.8</ele>
        <time>2011-11-27T09:51:46Z</time>
      </trkpt>
      <trkpt lat="44.0754" lon="4.36402">
        <ele>220</ele>
        <time>2011-11-27T09:51:49Z</time>
      </trkpt>
      <trkpt lat="44.07544" lon="4.36408">
        <ele>220.2</ele>
        <time>2011-11-27T09:51:52Z</time>
      </trkpt>
      <trkpt lat="44.07548" lon="4.36412">
        <ele>220.5</ele>
        <time>2011-11-27T09:51:55Z</time>
      </trkpt>
      <trkpt lat="44.07552" lon="4.36416">
        <ele>221.2</ele>
        <time>2011-11-27T09:51:58Z</time>
      </trkpt>
      <trkpt lat="44.07555" lon="4.3642">
        <ele>221.5</ele>
        <time>2011-11-27T09:52:01Z</time>
      </trkpt>
      <trkpt lat="44.07559" lon="4.36425">
        <ele>221.6</ele>
        <time>2011-11-27T09:52:04Z</time>
      </trkpt>
      <trkpt lat="44.07563" lon="4.3643">
        <ele>221.5</ele>
        <time>2011-11-27T09:52:07Z</time>
      </trkpt>
      <trkpt lat="44.07567" lon="4.36434">
        <ele>221.6</ele>
        <time>2011-11-27T09:52:10Z</time>
      </trkpt>
      <trkpt lat="44.07572" lon="4.36439">
        <ele>221.5</ele>
        <time>2011-11-27T09:52:14Z</time>
      </trkpt>
      <trkpt lat="44.07576" lon="4.36443">
        <ele>221.3</ele>
        <time>2011-11-27T09:52:17Z</time>
      </trkpt>
      <trkpt lat="44.07579" lon="4.36447">
        <ele>221.4</ele>
        <time>2011-11-27T09:52:20Z</time>
      </trkpt>
      <trkpt lat="44.07584" lon="4.36451">
        <ele>221.3</ele>
        <time>2011-11-27T09:52:23Z</time>
      </trkpt>
      <trkpt lat="44.07588" lon="4.36456">
        <ele>221.3</ele>
        <time>2011-11-27T09:52:26Z</time>
      </trkpt>
      <trkpt lat="44.07593" lon="4.3646">
        <ele>221.1</ele>
        <time>2011-11-27T09:52:29Z</time>
      </trkpt>
      <trkpt lat="44.07598" lon="4.36464">
        <ele>221.9</ele>
        <time>2011-11-27T09:52:33Z</time>
      </trkpt>
      <trkpt lat="44.07602" lon="4.36468">
        <ele>222.2</ele>
        <time>2011-11-27T09:52:36Z</time>
      </trkpt>
      <trkpt lat="44.07607" lon="4.36472">
        <ele>222.5</ele>
        <time>2011-11-27T09:52:39Z</time>
      </trkpt>
      <trkpt lat="44.07611" lon="4.36476">
        <ele>223</ele>
        <time>2011-11-27T09:52:42Z</time>
      </trkpt>
      <trkpt lat="44.07616" lon="4.36481">
        <ele>223</ele>
        <time>2011-11-27T09:52:45Z</time>
      </trkpt>
      <trkpt lat="44.07621" lon="4.36486">
        <ele>223.2</ele>
        <time>2011-11-27T09:52:48Z</time>
      </trkpt>
      <trkpt lat="44.07626" lon="4.3649">
        <ele>223.3</ele>
        <time>2011-11-27T09:52:51Z</time>
      </trkpt>
      <trkpt lat="44.07631" lon="4.36494">
        <ele>223.5</ele>
        <time>2011-11-27T09:52:54Z</time>
      </trkpt>
      <trkpt lat="44.07636" lon="4.36499">
        <ele>223.5</ele>
        <time>2011-11-27T09:52:57Z</time>
      </trkpt>
      <trkpt lat="44.07641" lon="4.36504">
        <ele>223.5</ele>
        <time>2011-11-27T09:53:00Z</time>
      </trkpt>
      <trkpt lat="44.07645" lon="4.36509">
        <ele>223.5</ele>
        <time>2011-11-27T09:53:03Z</time>
      </trkpt>
      <trkpt lat="44.0765" lon="4.36514">
        <ele>223.6</ele>
        <time>2011-11-27T09:53:06Z</time>
      </trkpt>
      <trkpt lat="44.07653" lon="4.36518">
        <ele>223.4</ele>
        <time>2011-11-27T09:53:08Z</time>
      </trkpt>
      <trkpt lat="44.07656" lon="4.36523">
        <ele>223.3</ele>
        <time>2011-11-27T09:53:10Z</time>
      </trkpt>
      <trkpt lat="44.0766" lon="4.36527">
        <ele>223.6</ele>
        <time>2011-11-27T09:53:12Z</time>
      </trkpt>
      <trkpt lat="44.07664" lon="4.36533">
        <ele>224.2</ele>
        <time>2011-11-27T09:53:15Z</time>
      </trkpt>
      <trkpt lat="44.07669" lon="4.3654">
        <ele>224.9</ele>
        <time>2011-11-27T09:53:18Z</time>
      </trkpt>
      <trkpt lat="44.07673" lon="4.36545">
        <ele>224.8</ele>
        <time>2011-11-27T09:53:20Z</time>
      </trkpt>
      <trkpt lat="44.07677" lon="4.3655">
        <ele>224.4</ele>
        <time>2011-11-27T09:53:22Z</time>
      </trkpt>
      <trkpt lat="44.07681" lon="4.36556">
        <ele>224.1</ele>
        <time>2011-11-27T09:53:24Z</time>
      </trkpt>
      <trkpt lat="44.07685" lon="4.36562">
        <ele>224</ele>
        <time>2011-11-27T09:53:26Z</time>
      </trkpt>
      <trkpt lat="44.07689" lon="4.36568">
        <ele>223.6</ele>
        <time>2011-11-27T09:53:28Z</time>
      </trkpt>
      <trkpt lat="44.07694" lon="4.36575">
        <ele>223.4</ele>
        <time>2011-11-27T09:53:30Z</time>
      </trkpt>
      <trkpt lat="44.07699" lon="4.36583">
        <ele>223.1</ele>
        <time>2011-11-27T09:53:32Z</time>
      </trkpt>
      <trkpt lat="44.07704" lon="4.3659">
        <ele>223</ele>
        <time>2011-11-27T09:53:34Z</time>
      </trkpt>
      <trkpt lat="44.07709" lon="4.36597">
        <ele>222.7</ele>
        <time>2011-11-27T09:53:36Z</time>
      </trkpt>
      <trkpt lat="44.07714" lon="4.36604">
        <ele>222.6</ele>
        <time>2011-11-27T09:53:38Z</time>
      </trkpt>
      <trkpt lat="44.0772" lon="4.36611">
        <ele>222.5</ele>
        <time>2011-11-27T09:53:40Z</time>
      </trkpt>
      <trkpt lat="44.07725" lon="4.36617">
        <ele>222.3</ele>
        <time>2011-11-27T09:53:42Z</time>
      </trkpt>
      <trkpt lat="44.0773" lon="4.36624">
        <ele>222.2</ele>
        <time>2011-11-27T09:53:44Z</time>
      </trkpt>
      <trkpt lat="44.07736" lon="4.36631">
        <ele>222.1</ele>
        <time>2011-11-27T09:53:46Z</time>
      </trkpt>
      <trkpt lat="44.07741" lon="4.36638">
        <ele>222.1</ele>
        <time>2011-11-27T09:53:48Z</time>
      </trkpt>
      <trkpt lat="44.07746" lon="4.36644">
        <ele>222.3</ele>
        <time>2011-11-27T09:53:50Z</time>
      </trkpt>
      <trkpt lat="44.07751" lon="4.36651">
        <ele>222.7</ele>
        <time>2011-11-27T09:53:52Z</time>
      </trkpt>
      <trkpt lat="44.07756" lon="4.36658">
        <ele>223.2</ele>
        <time>2011-11-27T09:53:54Z</time>
      </trkpt>
      <trkpt lat="44.07761" lon="4.36666">
        <ele>223.5</ele>
        <time>2011-11-27T09:53:56Z</time>
      </trkpt>
      <trkpt lat="44.07766" lon="4.36674">
        <ele>223.5</ele>
        <time>2011-11-27T09:53:58Z</time>
      </trkpt>
      <trkpt lat="44.0777" lon="4.36682">
        <ele>223.4</ele>
        <time>2011-11-27T09:54:00Z</time>
      </trkpt>
      <trkpt lat="44.07776" lon="4.36689">
        <ele>223.4</ele>
        <time>2011-11-27T09:54:02Z</time>
      </trkpt>
      <trkpt lat="44.07781" lon="4.36697">
        <ele>223.2</ele>
        <time>2011-11-27T09:54:04Z</time>
      </trkpt>
      <trkpt lat="44.07786" lon="4.36705">
        <ele>223.2</ele>
        <time>2011-11-27T09:54:06Z</time>
      </trkpt>
      <trkpt lat="44.07791" lon="4.36713">
        <ele>223.1</ele>
        <time>2011-11-27T09:54:08Z</time>
      </trkpt>
      <trkpt lat="44.07796" lon="4.36721">
        <ele>223.3</ele>
        <time>2011-11-27T09:54:10Z</time>
      </trkpt>
      <trkpt lat="44.078" lon="4.36729">
        <ele>223.7</ele>
        <time>2011-11-27T09:54:12Z</time>
      </trkpt>
      <trkpt lat="44.07805" lon="4.36736">
        <ele>223.9</ele>
        <time>2011-11-27T09:54:14Z</time>
      </trkpt>
      <trkpt lat="44.0781" lon="4.36744">
        <ele>223.9</ele>
        <time>2011-11-27T09:54:16Z</time>
      </trkpt>
      <trkpt lat="44.07815" lon="4.36752">
        <ele>224.1</ele>
        <time>2011-11-27T09:54:18Z</time>
      </trkpt>
      <trkpt lat="44.0782" lon="4.36759">
        <ele>224.3</ele>
        <time>2011-11-27T09:54:20Z</time>
      </trkpt>
      <trkpt lat="44.07825" lon="4.36767">
        <ele>224.3</ele>
        <time>2011-11-27T09:54:22Z</time>
      </trkpt>
      <trkpt lat="44.0783" lon="4.36774">
        <ele>224.4</ele>
        <time>2011-11-27T09:54:24Z</time>
      </trkpt>
      <trkpt lat="44.07835" lon="4.36782">
        <ele>224.6</ele>
        <time>2011-11-27T09:54:26Z</time>
      </trkpt>
      <trkpt lat="44.07839" lon="4.36789">
        <ele>224.7</ele>
        <time>2011-11-27T09:54:28Z</time>
      </trkpt>
      <trkpt lat="44.07844" lon="4.36796">
        <ele>224.9</ele>
        <time>2011-11-27T09:54:30Z</time>
      </trkpt>
      <trkpt lat="44.07849" lon="4.36804">
        <ele>224.8</ele>
        <time>2011-11-27T09:54:32Z</time>
      </trkpt>
      <trkpt lat="44.07854" lon="4.36811">
        <ele>224.9</ele>
        <time>2011-11-27T09:54:34Z</time>
      </trkpt>
      <trkpt lat="44.07859" lon="4.36818">
        <ele>224.9</ele>
        <time>2011-11-27T09:54:36Z</time>
      </trkpt>
      <trkpt lat="44.07864" lon="4.36824">
        <ele>225</ele>
        <time>2011-11-27T09:54:38Z</time>
      </trkpt>
      <trkpt lat="44.0787" lon="4.36832">
        <ele>224.8</ele>
        <time>2011-11-27T09:54:40Z</time>
      </trkpt>
      <trkpt lat="44.07874" lon="4.36838">
        <ele>224.9</ele>
        <time>2011-11-27T09:54:42Z</time>
      </trkpt>
      <trkpt lat="44.07879" lon="4.36845">
        <ele>224.8</ele>
        <time>2011-11-27T09:54:44Z</time>
      </trkpt>
      <trkpt lat="44.07884" lon="4.36852">
        <ele>225.4</ele>
        <time>2011-11-27T09:54:46Z</time>
      </trkpt>
      <trkpt lat="44.07889" lon="4.3686">
        <ele>225.3</ele>
        <time>2011-11-27T09:54:48Z</time>
      </trkpt>
      <trkpt lat="44.07893" lon="4.36868">
        <ele>225.6</ele>
        <time>2011-11-27T09:54:50Z</time>
      </trkpt>
      <trkpt lat="44.07897" lon="4.36875">
        <ele>225.8</ele>
        <time>2011-11-27T09:54:52Z</time>
      </trkpt>
      <trkpt lat="44.07901" lon="4.36883">
        <ele>225.9</ele>
        <time>2011-11-27T09:54:54Z</time>
      </trkpt>
      <trkpt lat="44.07904" lon="4.36892">
        <ele>226.1</ele>
        <time>2011-11-27T09:54:56Z</time>
      </trkpt>
      <trkpt lat="44.07908" lon="4.369">
        <ele>226</ele>
        <time>2011-11-27T09:54:58Z</time>
      </trkpt>
      <trkpt lat="44.07911" lon="4.36907">
        <ele>226.5</ele>
        <time>2011-11-27T09:55:00Z</time>
      </trkpt>
      <trkpt lat="44.07914" lon="4.36914">
        <ele>226.8</ele>
        <time>2011-11-27T09:55:02Z</time>
      </trkpt>
      <trkpt lat="44.07917" lon="4.36921">
        <ele>227.3</ele>
        <time>2011-11-27T09:55:04Z</time>
      </trkpt>
      <trkpt lat="44.0792" lon="4.36928">
        <ele>227.3</ele>
        <time>2011-11-27T09:55:06Z</time>
      </trkpt>
      <trkpt lat="44.07923" lon="4.36935">
        <ele>227.5</ele>
        <time>2011-11-27T09:55:08Z</time>
      </trkpt>
      <trkpt lat="44.07927" lon="4.36943">
        <ele>227.3</ele>
        <time>2011-11-27T09:55:10Z</time>
      </trkpt>
      <trkpt lat="44.07932" lon="4.36953">
        <ele>226.9</ele>
        <time>2011-11-27T09:55:12Z</time>
      </trkpt>
      <trkpt lat="44.07934" lon="4.36959">
        <ele>226.8</ele>
        <time>2011-11-27T09:55:13Z</time>
      </trkpt>
      <trkpt lat="44.07937" lon="4.36966">
        <ele>226.4</ele>
        <time>2011-11-27T09:55:14Z</time>
      </trkpt>
      <trkpt lat="44.07939" lon="4.36971">
        <ele>226.3</ele>
        <time>2011-11-27T09:55:15Z</time>
      </trkpt>
      <trkpt lat="44.07942" lon="4.36976">
        <ele>226.4</ele>
        <time>2011-11-27T09:55:16Z</time>
      </trkpt>
      <trkpt lat="44.07946" lon="4.36986">
        <ele>226.3</ele>
        <time>2011-11-27T09:55:18Z</time>
      </trkpt>
      <trkpt lat="44.0795" lon="4.36997">
        <ele>226</ele>
        <time>2011-11-27T09:55:20Z</time>
      </trkpt>
      <trkpt lat="44.07953" lon="4.37002">
        <ele>226</ele>
        <time>2011-11-27T09:55:21Z</time>
      </trkpt>
      <trkpt lat="44.07956" lon="4.37008">
        <ele>225.7</ele>
        <time>2011-11-27T09:55:22Z</time>
      </trkpt>
      <trkpt lat="44.07958" lon="4.37015">
        <ele>225.5</ele>
        <time>2011-11-27T09:55:23Z</time>
      </trkpt>
      <trkpt lat="44.0796" lon="4.37022">
        <ele>225.4</ele>
        <time>2011-11-27T09:55:24Z</time>
      </trkpt>
      <trkpt lat="44.07962" lon="4.37029">
        <ele>225.3</ele>
        <time>2011-11-27T09:55:25Z</time>
      </trkpt>
      <trkpt lat="44.07964" lon="4.37037">
        <ele>225.4</ele>
        <time>2011-11-27T09:55:26Z</time>
      </trkpt>
      <trkpt lat="44.07966" lon="4.37044">
        <ele>225.1</ele>
        <time>2011-11-27T09:55:27Z</time>
      </trkpt>
      <trkpt lat="44.07968" lon="4.37053">
        <ele>224.8</ele>
        <time>2011-11-27T09:55:28Z</time>
      </trkpt>
      <trkpt lat="44.07972" lon="4.3706">
        <ele>224.9</ele>
        <time>2011-11-27T09:55:29Z</time>
      </trkpt>
      <trkpt lat="44.07976" lon="4.37066">
        <ele>224.9</ele>
        <time>2011-11-27T09:55:30Z</time>
      </trkpt>
      <trkpt lat="44.0798" lon="4.37071">
        <ele>224.8</ele>
        <time>2011-11-27T09:55:31Z</time>
      </trkpt>
      <trkpt lat="44.07984" lon="4.37076">
        <ele>224.8</ele>
        <time>2011-11-27T09:55:32Z</time>
      </trkpt>
      <trkpt lat="44.07988" lon="4.37083">
        <ele>224.6</ele>
        <time>2011-11-27T09:55:33Z</time>
      </trkpt>
      <trkpt lat="44.07992" lon="4.3709">
        <ele>224.4</ele>
        <time>2011-11-27T09:55:34Z</time>
      </trkpt>
      <trkpt lat="44.07994" lon="4.37097">
        <ele>224.2</ele>
        <time>2011-11-27T09:55:35Z</time>
      </trkpt>
      <trkpt lat="44.07995" lon="4.37103">
        <ele>224.1</ele>
        <time>2011-11-27T09:55:36Z</time>
      </trkpt>
      <trkpt lat="44.07995" lon="4.37113">
        <ele>224.3</ele>
        <time>2011-11-27T09:55:38Z</time>
      </trkpt>
      <trkpt lat="44.07992" lon="4.3712">
        <ele>224.6</ele>
        <time>2011-11-27T09:55:40Z</time>
      </trkpt>
      <trkpt lat="44.0799" lon="4.37126">
        <ele>224.7</ele>
        <time>2011-11-27T09:55:42Z</time>
      </trkpt>
      <trkpt lat="44.07987" lon="4.37132">
        <ele>224.8</ele>
        <time>2011-11-27T09:55:44Z</time>
      </trkpt>
      <trkpt lat="44.07984" lon="4.3714">
        <ele>224.9</ele>
        <time>2011-11-27T09:55:47Z</time>
      </trkpt>
      <trkpt lat="44.0798" lon="4.37147">
        <ele>225.6</ele>
        <time>2011-11-27T09:55:50Z</time>
      </trkpt>
      <trkpt lat="44.07976" lon="4.3715">
        <ele>225.9</ele>
        <time>2011-11-27T09:55:52Z</time>
      </trkpt>
      <trkpt lat="44.07971" lon="4.37156">
        <ele>226.3</ele>
        <time>2011-11-27T09:55:55Z</time>
      </trkpt>
      <trkpt lat="44.07969" lon="4.37164">
        <ele>226.8</ele>
        <time>2011-11-27T09:55:58Z</time>
      </trkpt>
      <trkpt lat="44.07966" lon="4.3717">
        <ele>226.9</ele>
        <time>2011-11-27T09:56:01Z</time>
      </trkpt>
      <trkpt lat="44.07965" lon="4.3718">
        <ele>226.9</ele>
        <time>2011-11-27T09:56:04Z</time>
      </trkpt>
      <trkpt lat="44.07963" lon="4.37188">
        <ele>226.5</ele>
        <time>2011-11-27T09:56:06Z</time>
      </trkpt>
      <trkpt lat="44.0796" lon="4.37196">
        <ele>226.3</ele>
        <time>2011-11-27T09:56:08Z</time>
      </trkpt>
      <trkpt lat="44.07957" lon="4.37205">
        <ele>226.1</ele>
        <time>2011-11-27T09:56:10Z</time>
      </trkpt>
      <trkpt lat="44.07953" lon="4.37211">
        <ele>225.9</ele>
        <time>2011-11-27T09:56:12Z</time>
      </trkpt>
      <trkpt lat="44.0795" lon="4.37215">
        <ele>226.3</ele>
        <time>2011-11-27T09:56:14Z</time>
      </trkpt>
      <trkpt lat="44.07944" lon="4.37217">
        <ele>226.7</ele>
        <time>2011-11-27T09:56:16Z</time>
      </trkpt>
      <trkpt lat="44.07938" lon="4.37217">
        <ele>227.7</ele>
        <time>2011-11-27T09:56:19Z</time>
      </trkpt>
      <trkpt lat="44.07932" lon="4.37217">
        <ele>227.9</ele>
        <time>2011-11-27T09:56:22Z</time>
      </trkpt>
      <trkpt lat="44.07927" lon="4.37215">
        <ele>228.6</ele>
        <time>2011-11-27T09:56:25Z</time>
      </trkpt>
      <trkpt lat="44.07922" lon="4.37214">
        <ele>228.7</ele>
        <time>2011-11-27T09:56:27Z</time>
      </trkpt>
      <trkpt lat="44.07918" lon="4.37214">
        <ele>228.5</ele>
        <time>2011-11-27T09:56:29Z</time>
      </trkpt>
      <trkpt lat="44.0791" lon="4.37212">
        <ele>229.1</ele>
        <time>2011-11-27T09:56:32Z</time>
      </trkpt>
      <trkpt lat="44.07904" lon="4.37211">
        <ele>229</ele>
        <time>2011-11-27T09:56:35Z</time>
      </trkpt>
      <trkpt lat="44.07897" lon="4.3721">
        <ele>229.8</ele>
        <time>2011-11-27T09:56:38Z</time>
      </trkpt>
      <trkpt lat="44.07891" lon="4.37209">
        <ele>230</ele>
        <time>2011-11-27T09:56:41Z</time>
      </trkpt>
      <trkpt lat="44.07886" lon="4.37208">
        <ele>230</ele>
        <time>2011-11-27T09:56:44Z</time>
      </trkpt>
      <trkpt lat="44.07879" lon="4.3721">
        <ele>227.7</ele>
        <time>2011-11-27T09:57:54Z</time>
      </trkpt>
      <trkpt lat="44.07875" lon="4.37209">
        <ele>227.9</ele>
        <time>2011-11-27T09:57:56Z</time>
      </trkpt>
      <trkpt lat="44.07869" lon="4.3721">
        <ele>227.9</ele>
        <time>2011-11-27T09:57:58Z</time>
      </trkpt>
      <trkpt lat="44.07863" lon="4.37212">
        <ele>228.2</ele>
        <time>2011-11-27T09:58:00Z</time>
      </trkpt>
      <trkpt lat="44.07858" lon="4.37215">
        <ele>228.4</ele>
        <time>2011-11-27T09:58:02Z</time>
      </trkpt>
      <trkpt lat="44.07853" lon="4.37217">
        <ele>228.6</ele>
        <time>2011-11-27T09:58:04Z</time>
      </trkpt>
      <trkpt lat="44.07848" lon="4.37218">
        <ele>228.8</ele>
        <time>2011-11-27T09:58:06Z</time>
      </trkpt>
      <trkpt lat="44.07843" lon="4.3722">
        <ele>228.7</ele>
        <time>2011-11-27T09:58:08Z</time>
      </trkpt>
      <trkpt lat="44.07838" lon="4.37222">
        <ele>228.3</ele>
        <time>2011-11-27T09:58:10Z</time>
      </trkpt>
      <trkpt lat="44.07832" lon="4.37224">
        <ele>228.5</ele>
        <time>2011-11-27T09:58:12Z</time>
      </trkpt>
      <trkpt lat="44.07828" lon="4.37227">
        <ele>228.4</ele>
        <time>2011-11-27T09:58:14Z</time>
      </trkpt>
      <trkpt lat="44.07823" lon="4.3723">
        <ele>228.6</ele>
        <time>2011-11-27T09:58:16Z</time>
      </trkpt>
      <trkpt lat="44.07817" lon="4.37233">
        <ele>228.6</ele>
        <time>2011-11-27T09:58:18Z</time>
      </trkpt>
      <trkpt lat="44.07811" lon="4.37236">
        <ele>228.5</ele>
        <time>2011-11-27T09:58:20Z</time>
      </trkpt>
      <trkpt lat="44.07805" lon="4.3724">
        <ele>228.2</ele>
        <time>2011-11-27T09:58:22Z</time>
      </trkpt>
      <trkpt lat="44.078" lon="4.37244">
        <ele>228</ele>
        <time>2011-11-27T09:58:24Z</time>
      </trkpt>
      <trkpt lat="44.07795" lon="4.37248">
        <ele>228.1</ele>
        <time>2011-11-27T09:58:26Z</time>
      </trkpt>
      <trkpt lat="44.07791" lon="4.37253">
        <ele>228.1</ele>
        <time>2011-11-27T09:58:28Z</time>
      </trkpt>
      <trkpt lat="44.07787" lon="4.3726">
        <ele>228.9</ele>
        <time>2011-11-27T09:58:31Z</time>
      </trkpt>
      <trkpt lat="44.07784" lon="4.37265">
        <ele>229.5</ele>
        <time>2011-11-27T09:58:33Z</time>
      </trkpt>
      <trkpt lat="44.07782" lon="4.37271">
        <ele>230.3</ele>
        <time>2011-11-27T09:58:36Z</time>
      </trkpt>
      <trkpt lat="44.07776" lon="4.37274">
        <ele>230.8</ele>
        <time>2011-11-27T09:58:40Z</time>
      </trkpt>
      <trkpt lat="44.07771" lon="4.37277">
        <ele>230.7</ele>
        <time>2011-11-27T09:58:44Z</time>
      </trkpt>
      <trkpt lat="44.07771" lon="4.37277">
        <ele>230.7</ele>
        <time>2011-11-27T09:58:44Z</time>
      </trkpt>
      <trkpt lat="44.07771" lon="4.37277">
        <ele>230.7</ele>
        <time>2011-11-27T09:58:46Z</time>
      </trkpt>
      <trkpt lat="44.07765" lon="4.37278">
        <ele>230.8</ele>
        <time>2011-11-27T09:58:48Z</time>
      </trkpt>
      <trkpt lat="44.07759" lon="4.3728">
        <ele>230.9</ele>
        <time>2011-11-27T09:58:51Z</time>
      </trkpt>
      <trkpt lat="44.07754" lon="4.37282">
        <ele>231.1</ele>
        <time>2011-11-27T09:58:53Z</time>
      </trkpt>
      <trkpt lat="44.07748" lon="4.37285">
        <ele>231.3</ele>
        <time>2011-11-27T09:58:56Z</time>
      </trkpt>
      <trkpt lat="44.07742" lon="4.37288">
        <ele>231.8</ele>
        <time>2011-11-27T09:58:59Z</time>
      </trkpt>
      <trkpt lat="44.07737" lon="4.37291">
        <ele>232.2</ele>
        <time>2011-11-27T09:59:02Z</time>
      </trkpt>
      <trkpt lat="44.07731" lon="4.37292">
        <ele>232.2</ele>
        <time>2011-11-27T09:59:05Z</time>
      </trkpt>
      <trkpt lat="44.07724" lon="4.37294">
        <ele>232.1</ele>
        <time>2011-11-27T09:59:08Z</time>
      </trkpt>
      <trkpt lat="44.07718" lon="4.37295">
        <ele>232.1</ele>
        <time>2011-11-27T09:59:11Z</time>
      </trkpt>
      <trkpt lat="44.07711" lon="4.37296">
        <ele>232.6</ele>
        <time>2011-11-27T09:59:14Z</time>
      </trkpt>
      <trkpt lat="44.07705" lon="4.37296">
        <ele>232.7</ele>
        <time>2011-11-27T09:59:17Z</time>
      </trkpt>
      <trkpt lat="44.07698" lon="4.37296">
        <ele>232.8</ele>
        <time>2011-11-27T09:59:20Z</time>
      </trkpt>
      <trkpt lat="44.07692" lon="4.37297">
        <ele>232.7</ele>
        <time>2011-11-27T09:59:23Z</time>
      </trkpt>
      <trkpt lat="44.07686" lon="4.37297">
        <ele>232.9</ele>
        <time>2011-11-27T09:59:26Z</time>
      </trkpt>
      <trkpt lat="44.0768" lon="4.37301">
        <ele>233.4</ele>
        <time>2011-11-27T09:59:29Z</time>
      </trkpt>
      <trkpt lat="44.07674" lon="4.37303">
        <ele>233.9</ele>
        <time>2011-11-27T09:59:32Z</time>
      </trkpt>
      <trkpt lat="44.07668" lon="4.37306">
        <ele>234.6</ele>
        <time>2011-11-27T09:59:35Z</time>
      </trkpt>
      <trkpt lat="44.07663" lon="4.37306">
        <ele>235.3</ele>
        <time>2011-11-27T09:59:38Z</time>
      </trkpt>
      <trkpt lat="44.07658" lon="4.37309">
        <ele>235.8</ele>
        <time>2011-11-27T09:59:41Z</time>
      </trkpt>
      <trkpt lat="44.07652" lon="4.37311">
        <ele>236.4</ele>
        <time>2011-11-27T09:59:44Z</time>
      </trkpt>
      <trkpt lat="44.07646" lon="4.37311">
        <ele>237</ele>
        <time>2011-11-27T09:59:47Z</time>
      </trkpt>
      <trkpt lat="44.0764" lon="4.3731">
        <ele>237.5</ele>
        <time>2011-11-27T09:59:50Z</time>
      </trkpt>
      <trkpt lat="44.07635" lon="4.37309">
        <ele>238.4</ele>
        <time>2011-11-27T09:59:53Z</time>
      </trkpt>
      <trkpt lat="44.0763" lon="4.37309">
        <ele>238.6</ele>
        <time>2011-11-27T09:59:56Z</time>
      </trkpt>
      <trkpt lat="44.07625" lon="4.37309">
        <ele>238.2</ele>
        <time>2011-11-27T09:59:59Z</time>
      </trkpt>
      <trkpt lat="44.07618" lon="4.3731">
        <ele>237.6</ele>
        <time>2011-11-27T10:00:02Z</time>
      </trkpt>
      <trkpt lat="44.07613" lon="4.3731">
        <ele>237.3</ele>
        <time>2011-11-27T10:00:04Z</time>
      </trkpt>
      <trkpt lat="44.07607" lon="4.37311">
        <ele>237.6</ele>
        <time>2011-11-27T10:00:07Z</time>
      </trkpt>
      <trkpt lat="44.07602" lon="4.37312">
        <ele>237.9</ele>
        <time>2011-11-27T10:00:09Z</time>
      </trkpt>
      <trkpt lat="44.07596" lon="4.37313">
        <ele>238.3</ele>
        <time>2011-11-27T10:00:12Z</time>
      </trkpt>
      <trkpt lat="44.0759" lon="4.37314">
        <ele>238.8</ele>
        <time>2011-11-27T10:00:15Z</time>
      </trkpt>
      <trkpt lat="44.07583" lon="4.37315">
        <ele>238.9</ele>
        <time>2011-11-27T10:00:18Z</time>
      </trkpt>
      <trkpt lat="44.07579" lon="4.37316">
        <ele>238.7</ele>
        <time>2011-11-27T10:00:20Z</time>
      </trkpt>
      <trkpt lat="44.07574" lon="4.37316">
        <ele>238.6</ele>
        <time>2011-11-27T10:00:22Z</time>
      </trkpt>
      <trkpt lat="44.07568" lon="4.37317">
        <ele>238.9</ele>
        <time>2011-11-27T10:00:25Z</time>
      </trkpt>
      <trkpt lat="44.07561" lon="4.37316">
        <ele>239.3</ele>
        <time>2011-11-27T10:00:28Z</time>
      </trkpt>
      <trkpt lat="44.07556" lon="4.37314">
        <ele>239.1</ele>
        <time>2011-11-27T10:00:30Z</time>
      </trkpt>
      <trkpt lat="44.07551" lon="4.37311">
        <ele>238.8</ele>
        <time>2011-11-27T10:00:32Z</time>
      </trkpt>
      <trkpt lat="44.07547" lon="4.37308">
        <ele>238.6</ele>
        <time>2011-11-27T10:00:34Z</time>
      </trkpt>
      <trkpt lat="44.07542" lon="4.37306">
        <ele>238.7</ele>
        <time>2011-11-27T10:00:36Z</time>
      </trkpt>
      <trkpt lat="44.07538" lon="4.37303">
        <ele>238.8</ele>
        <time>2011-11-27T10:00:38Z</time>
      </trkpt>
      <trkpt lat="44.07533" lon="4.37301">
        <ele>238.8</ele>
        <time>2011-11-27T10:00:40Z</time>
      </trkpt>
      <trkpt lat="44.07528" lon="4.37298">
        <ele>238.7</ele>
        <time>2011-11-27T10:00:42Z</time>
      </trkpt>
      <trkpt lat="44.07523" lon="4.37296">
        <ele>238.7</ele>
        <time>2011-11-27T10:00:44Z</time>
      </trkpt>
      <trkpt lat="44.07518" lon="4.37294">
        <ele>238.8</ele>
        <time>2011-11-27T10:00:46Z</time>
      </trkpt>
      <trkpt lat="44.07513" lon="4.37292">
        <ele>238.9</ele>
        <time>2011-11-27T10:00:48Z</time>
      </trkpt>
      <trkpt lat="44.07508" lon="4.3729">
        <ele>238.9</ele>
        <time>2011-11-27T10:00:50Z</time>
      </trkpt>
      <trkpt lat="44.07503" lon="4.37288">
        <ele>238.9</ele>
        <time>2011-11-27T10:00:52Z</time>
      </trkpt>
      <trkpt lat="44.07498" lon="4.37286">
        <ele>239.1</ele>
        <time>2011-11-27T10:00:54Z</time>
      </trkpt>
      <trkpt lat="44.07494" lon="4.37283">
        <ele>239.2</ele>
        <time>2011-11-27T10:00:56Z</time>
      </trkpt>
      <trkpt lat="44.07489" lon="4.3728">
        <ele>239.2</ele>
        <time>2011-11-27T10:00:58Z</time>
      </trkpt>
      <trkpt lat="44.07485" lon="4.37278">
        <ele>239.3</ele>
        <time>2011-11-27T10:01:00Z</time>
      </trkpt>
      <trkpt lat="44.0748" lon="4.37275">
        <ele>239.4</ele>
        <time>2011-11-27T10:01:02Z</time>
      </trkpt>
      <trkpt lat="44.07476" lon="4.37272">
        <ele>239.4</ele>
        <time>2011-11-27T10:01:04Z</time>
      </trkpt>
      <trkpt lat="44.07472" lon="4.37269">
        <ele>239.5</ele>
        <time>2011-11-27T10:01:06Z</time>
      </trkpt>
      <trkpt lat="44.07466" lon="4.37266">
        <ele>239.5</ele>
        <time>2011-11-27T10:01:09Z</time>
      </trkpt>
      <trkpt lat="44.07459" lon="4.37264">
        <ele>239.7</ele>
        <time>2011-11-27T10:01:12Z</time>
      </trkpt>
      <trkpt lat="44.07455" lon="4.37262">
        <ele>239.8</ele>
        <time>2011-11-27T10:01:14Z</time>
      </trkpt>
      <trkpt lat="44.0745" lon="4.37261">
        <ele>239.9</ele>
        <time>2011-11-27T10:01:16Z</time>
      </trkpt>
      <trkpt lat="44.07443" lon="4.37259">
        <ele>240.2</ele>
        <time>2011-11-27T10:01:19Z</time>
      </trkpt>
      <trkpt lat="44.07438" lon="4.37258">
        <ele>240.4</ele>
        <time>2011-11-27T10:01:21Z</time>
      </trkpt>
      <trkpt lat="44.07434" lon="4.37257">
        <ele>240.6</ele>
        <time>2011-11-27T10:01:23Z</time>
      </trkpt>
      <trkpt lat="44.07429" lon="4.37255">
        <ele>240.8</ele>
        <time>2011-11-27T10:01:25Z</time>
      </trkpt>
      <trkpt lat="44.07424" lon="4.37253">
        <ele>240.8</ele>
        <time>2011-11-27T10:01:27Z</time>
      </trkpt>
      <trkpt lat="44.07418" lon="4.37252">
        <ele>241.6</ele>
        <time>2011-11-27T10:01:30Z</time>
      </trkpt>
      <trkpt lat="44.07412" lon="4.37252">
        <ele>242.3</ele>
        <time>2011-11-27T10:01:33Z</time>
      </trkpt>
      <trkpt lat="44.07405" lon="4.37252">
        <ele>242.8</ele>
        <time>2011-11-27T10:01:36Z</time>
      </trkpt>
      <trkpt lat="44.07399" lon="4.37252">
        <ele>243</ele>
        <time>2011-11-27T10:01:39Z</time>
      </trkpt>
      <trkpt lat="44.07394" lon="4.37252">
        <ele>243.3</ele>
        <time>2011-11-27T10:01:42Z</time>
      </trkpt>
      <trkpt lat="44.07388" lon="4.37251">
        <ele>243.8</ele>
        <time>2011-11-27T10:01:45Z</time>
      </trkpt>
      <trkpt lat="44.07382" lon="4.3725">
        <ele>244.4</ele>
        <time>2011-11-27T10:01:48Z</time>
      </trkpt>
      <trkpt lat="44.07377" lon="4.3725">
        <ele>244.9</ele>
        <time>2011-11-27T10:01:51Z</time>
      </trkpt>
      <trkpt lat="44.07371" lon="4.3725">
        <ele>245.9</ele>
        <time>2011-11-27T10:01:54Z</time>
      </trkpt>
      <trkpt lat="44.07366" lon="4.37249">
        <ele>246.1</ele>
        <time>2011-11-27T10:01:56Z</time>
      </trkpt>
      <trkpt lat="44.07361" lon="4.37246">
        <ele>247</ele>
        <time>2011-11-27T10:01:59Z</time>
      </trkpt>
      <trkpt lat="44.07356" lon="4.37244">
        <ele>247.4</ele>
        <time>2011-11-27T10:02:02Z</time>
      </trkpt>
      <trkpt lat="44.0735" lon="4.37242">
        <ele>248.3</ele>
        <time>2011-11-27T10:02:06Z</time>
      </trkpt>
      <trkpt lat="44.07346" lon="4.3724">
        <ele>249.5</ele>
        <time>2011-11-27T10:02:09Z</time>
      </trkpt>
      <trkpt lat="44.07341" lon="4.3724">
        <ele>250.5</ele>
        <time>2011-11-27T10:02:12Z</time>
      </trkpt>
      <trkpt lat="44.07336" lon="4.37238">
        <ele>251.6</ele>
        <time>2011-11-27T10:02:15Z</time>
      </trkpt>
      <trkpt lat="44.07332" lon="4.37236">
        <ele>252.1</ele>
        <time>2011-11-27T10:02:18Z</time>
      </trkpt>
      <trkpt lat="44.07326" lon="4.37236">
        <ele>253</ele>
        <time>2011-11-27T10:02:21Z</time>
      </trkpt>
      <trkpt lat="44.07321" lon="4.37239">
        <ele>254.4</ele>
        <time>2011-11-27T10:02:25Z</time>
      </trkpt>
      <trkpt lat="44.07316" lon="4.37245">
        <ele>256.7</ele>
        <time>2011-11-27T10:02:31Z</time>
      </trkpt>
      <trkpt lat="44.07312" lon="4.37251">
        <ele>258.1</ele>
        <time>2011-11-27T10:02:35Z</time>
      </trkpt>
      <trkpt lat="44.0731" lon="4.37258">
        <ele>259.8</ele>
        <time>2011-11-27T10:02:39Z</time>
      </trkpt>
      <trkpt lat="44.07308" lon="4.37264">
        <ele>261.1</ele>
        <time>2011-11-27T10:02:42Z</time>
      </trkpt>
      <trkpt lat="44.07307" lon="4.3727">
        <ele>262.7</ele>
        <time>2011-11-27T10:02:45Z</time>
      </trkpt>
      <trkpt lat="44.07305" lon="4.37276">
        <ele>263.9</ele>
        <time>2011-11-27T10:02:48Z</time>
      </trkpt>
      <trkpt lat="44.07305" lon="4.37283">
        <ele>264.7</ele>
        <time>2011-11-27T10:02:51Z</time>
      </trkpt>
      <trkpt lat="44.07305" lon="4.3729">
        <ele>265.3</ele>
        <time>2011-11-27T10:02:54Z</time>
      </trkpt>
      <trkpt lat="44.07305" lon="4.37297">
        <ele>266.5</ele>
        <time>2011-11-27T10:02:57Z</time>
      </trkpt>
      <trkpt lat="44.07306" lon="4.37304">
        <ele>267.3</ele>
        <time>2011-11-27T10:03:00Z</time>
      </trkpt>
      <trkpt lat="44.07305" lon="4.37312">
        <ele>268.1</ele>
        <time>2011-11-27T10:03:03Z</time>
      </trkpt>
      <trkpt lat="44.07304" lon="4.37318">
        <ele>268.9</ele>
        <time>2011-11-27T10:03:06Z</time>
      </trkpt>
      <trkpt lat="44.07302" lon="4.37326">
        <ele>270.5</ele>
        <time>2011-11-27T10:03:10Z</time>
      </trkpt>
      <trkpt lat="44.07299" lon="4.37331">
        <ele>271.3</ele>
        <time>2011-11-27T10:03:13Z</time>
      </trkpt>
      <trkpt lat="44.07297" lon="4.37337">
        <ele>272.3</ele>
        <time>2011-11-27T10:03:16Z</time>
      </trkpt>
      <trkpt lat="44.07293" lon="4.37342">
        <ele>272.9</ele>
        <time>2011-11-27T10:03:19Z</time>
      </trkpt>
      <trkpt lat="44.0729" lon="4.3735">
        <ele>273.1</ele>
        <time>2011-11-27T10:03:22Z</time>
      </trkpt>
      <trkpt lat="44.0729" lon="4.37358">
        <ele>273.9</ele>
        <time>2011-11-27T10:03:26Z</time>
      </trkpt>
      <trkpt lat="44.07289" lon="4.37365">
        <ele>274.3</ele>
        <time>2011-11-27T10:03:29Z</time>
      </trkpt>
      <trkpt lat="44.07287" lon="4.3737">
        <ele>274.7</ele>
        <time>2011-11-27T10:03:44Z</time>
      </trkpt>
      <trkpt lat="44.07285" lon="4.37392">
        <ele>281.7</ele>
        <time>2011-11-27T10:04:17Z</time>
      </trkpt>
      <trkpt lat="44.07283" lon="4.37403">
        <ele>281.5</ele>
        <time>2011-11-27T10:04:19Z</time>
      </trkpt>
      <trkpt lat="44.07282" lon="4.3741">
        <ele>281.5</ele>
        <time>2011-11-27T10:04:29Z</time>
      </trkpt>
      <trkpt lat="44.07281" lon="4.37418">
        <ele>281.5</ele>
        <time>2011-11-27T10:04:32Z</time>
      </trkpt>
      <trkpt lat="44.07275" lon="4.37431">
        <ele>279.5</ele>
        <time>2011-11-27T10:06:21Z</time>
      </trkpt>
      <trkpt lat="44.07275" lon="4.37431">
        <ele>279.5</ele>
        <time>2011-11-27T10:06:21Z</time>
      </trkpt>
      <trkpt lat="44.07275" lon="4.37431">
        <ele>279.5</ele>
        <time>2011-11-27T10:06:49Z</time>
      </trkpt>
      <trkpt lat="44.0728" lon="4.3743">
        <ele>279.5</ele>
        <time>2011-11-27T10:07:06Z</time>
      </trkpt>
      <trkpt lat="44.07282" lon="4.37437">
        <ele>280.2</ele>
        <time>2011-11-27T10:07:49Z</time>
      </trkpt>
      <trkpt lat="44.07282" lon="4.37445">
        <ele>280.9</ele>
        <time>2011-11-27T10:07:52Z</time>
      </trkpt>
      <trkpt lat="44.07283" lon="4.37452">
        <ele>281.9</ele>
        <time>2011-11-27T10:07:55Z</time>
      </trkpt>
      <trkpt lat="44.07283" lon="4.3746">
        <ele>282.4</ele>
        <time>2011-11-27T10:07:58Z</time>
      </trkpt>
      <trkpt lat="44.07283" lon="4.37467">
        <ele>283.2</ele>
        <time>2011-11-27T10:08:01Z</time>
      </trkpt>
      <trkpt lat="44.07283" lon="4.37474">
        <ele>283.6</ele>
        <time>2011-11-27T10:08:04Z</time>
      </trkpt>
      <trkpt lat="44.07283" lon="4.37482">
        <ele>284.1</ele>
        <time>2011-11-27T10:08:07Z</time>
      </trkpt>
      <trkpt lat="44.07283" lon="4.37489">
        <ele>284.9</ele>
        <time>2011-11-27T10:08:10Z</time>
      </trkpt>
      <trkpt lat="44.07284" lon="4.37496">
        <ele>285.4</ele>
        <time>2011-11-27T10:08:13Z</time>
      </trkpt>
      <trkpt lat="44.07284" lon="4.37504">
        <ele>286</ele>
        <time>2011-11-27T10:08:16Z</time>
      </trkpt>
      <trkpt lat="44.07284" lon="4.37513">
        <ele>286.7</ele>
        <time>2011-11-27T10:08:19Z</time>
      </trkpt>
      <trkpt lat="44.07285" lon="4.37522">
        <ele>287.3</ele>
        <time>2011-11-27T10:08:22Z</time>
      </trkpt>
      <trkpt lat="44.07285" lon="4.37529">
        <ele>287.9</ele>
        <time>2011-11-27T10:08:26Z</time>
      </trkpt>
      <trkpt lat="44.07284" lon="4.37535">
        <ele>289.6</ele>
        <time>2011-11-27T10:08:37Z</time>
      </trkpt>
      <trkpt lat="44.07284" lon="4.37542">
        <ele>290.1</ele>
        <time>2011-11-27T10:08:41Z</time>
      </trkpt>
      <trkpt lat="44.07284" lon="4.37549">
        <ele>290.7</ele>
        <time>2011-11-27T10:08:46Z</time>
      </trkpt>
      <trkpt lat="44.07285" lon="4.37556">
        <ele>291.6</ele>
        <time>2011-11-27T10:08:57Z</time>
      </trkpt>
      <trkpt lat="44.07287" lon="4.37562">
        <ele>292.8</ele>
        <time>2011-11-27T10:09:06Z</time>
      </trkpt>
      <trkpt lat="44.07287" lon="4.37568">
        <ele>293.7</ele>
        <time>2011-11-27T10:09:10Z</time>
      </trkpt>
      <trkpt lat="44.07285" lon="4.37575">
        <ele>294.6</ele>
        <time>2011-11-27T10:09:15Z</time>
      </trkpt>
      <trkpt lat="44.07282" lon="4.3758">
        <ele>295.8</ele>
        <time>2011-11-27T10:09:20Z</time>
      </trkpt>
      <trkpt lat="44.07278" lon="4.37582">
        <ele>296.7</ele>
        <time>2011-11-27T10:09:24Z</time>
      </trkpt>
      <trkpt lat="44.07273" lon="4.37578">
        <ele>297.3</ele>
        <time>2011-11-27T10:09:28Z</time>
      </trkpt>
      <trkpt lat="44.07272" lon="4.37571">
        <ele>297.7</ele>
        <time>2011-11-27T10:09:32Z</time>
      </trkpt>
      <trkpt lat="44.07267" lon="4.37568">
        <ele>298.2</ele>
        <time>2011-11-27T10:09:36Z</time>
      </trkpt>
      <trkpt lat="44.07261" lon="4.37569">
        <ele>298.8</ele>
        <time>2011-11-27T10:09:40Z</time>
      </trkpt>
      <trkpt lat="44.07257" lon="4.37572">
        <ele>299.1</ele>
        <time>2011-11-27T10:09:43Z</time>
      </trkpt>
      <trkpt lat="44.07253" lon="4.37576">
        <ele>299.6</ele>
        <time>2011-11-27T10:09:46Z</time>
      </trkpt>
      <trkpt lat="44.07248" lon="4.37578">
        <ele>299.8</ele>
        <time>2011-11-27T10:09:49Z</time>
      </trkpt>
      <trkpt lat="44.07243" lon="4.37583">
        <ele>300</ele>
        <time>2011-11-27T10:09:52Z</time>
      </trkpt>
      <trkpt lat="44.07239" lon="4.37589">
        <ele>300.6</ele>
        <time>2011-11-27T10:09:56Z</time>
      </trkpt>
      <trkpt lat="44.07237" lon="4.37597">
        <ele>301.5</ele>
        <time>2011-11-27T10:10:00Z</time>
      </trkpt>
      <trkpt lat="44.07237" lon="4.37605">
        <ele>302.2</ele>
        <time>2011-11-27T10:10:03Z</time>
      </trkpt>
      <trkpt lat="44.07237" lon="4.37612">
        <ele>302.5</ele>
        <time>2011-11-27T10:10:07Z</time>
      </trkpt>
      <trkpt lat="44.07237" lon="4.3762">
        <ele>302.9</ele>
        <time>2011-11-27T10:10:11Z</time>
      </trkpt>
      <trkpt lat="44.07238" lon="4.37627">
        <ele>303.3</ele>
        <time>2011-11-27T10:10:14Z</time>
      </trkpt>
      <trkpt lat="44.07239" lon="4.37634">
        <ele>303.8</ele>
        <time>2011-11-27T10:10:17Z</time>
      </trkpt>
      <trkpt lat="44.0724" lon="4.37641">
        <ele>304.2</ele>
        <time>2011-11-27T10:10:20Z</time>
      </trkpt>
      <trkpt lat="44.0724" lon="4.37649">
        <ele>304.7</ele>
        <time>2011-11-27T10:10:24Z</time>
      </trkpt>
      <trkpt lat="44.07241" lon="4.37656">
        <ele>305</ele>
        <time>2011-11-27T10:10:26Z</time>
      </trkpt>
      <trkpt lat="44.0724" lon="4.37663">
        <ele>305.4</ele>
        <time>2011-11-27T10:10:28Z</time>
      </trkpt>
      <trkpt lat="44.0724" lon="4.3767">
        <ele>305.7</ele>
        <time>2011-11-27T10:10:31Z</time>
      </trkpt>
      <trkpt lat="44.0724" lon="4.37677">
        <ele>306.1</ele>
        <time>2011-11-27T10:10:34Z</time>
      </trkpt>
      <trkpt lat="44.07241" lon="4.37684">
        <ele>306.8</ele>
        <time>2011-11-27T10:10:37Z</time>
      </trkpt>
      <trkpt lat="44.07242" lon="4.3769">
        <ele>307.3</ele>
        <time>2011-11-27T10:10:40Z</time>
      </trkpt>
      <trkpt lat="44.07243" lon="4.37697">
        <ele>308</ele>
        <time>2011-11-27T10:10:43Z</time>
      </trkpt>
      <trkpt lat="44.07244" lon="4.37705">
        <ele>308.7</ele>
        <time>2011-11-27T10:10:46Z</time>
      </trkpt>
      <trkpt lat="44.07244" lon="4.37713">
        <ele>309.7</ele>
        <time>2011-11-27T10:10:50Z</time>
      </trkpt>
      <trkpt lat="44.07245" lon="4.37721">
        <ele>310.3</ele>
        <time>2011-11-27T10:10:53Z</time>
      </trkpt>
      <trkpt lat="44.07246" lon="4.37728">
        <ele>310.9</ele>
        <time>2011-11-27T10:10:56Z</time>
      </trkpt>
      <trkpt lat="44.07247" lon="4.37735">
        <ele>311.8</ele>
        <time>2011-11-27T10:11:00Z</time>
      </trkpt>
      <trkpt lat="44.07248" lon="4.37742">
        <ele>312.5</ele>
        <time>2011-11-27T10:11:04Z</time>
      </trkpt>
      <trkpt lat="44.0725" lon="4.37748">
        <ele>313.2</ele>
        <time>2011-11-27T10:11:09Z</time>
      </trkpt>
      <trkpt lat="44.07251" lon="4.37754">
        <ele>314.2</ele>
        <time>2011-11-27T10:11:15Z</time>
      </trkpt>
      <trkpt lat="44.07252" lon="4.37763">
        <ele>314.7</ele>
        <time>2011-11-27T10:11:26Z</time>
      </trkpt>
      <trkpt lat="44.07253" lon="4.3777">
        <ele>315.1</ele>
        <time>2011-11-27T10:11:28Z</time>
      </trkpt>
      <trkpt lat="44.07254" lon="4.37777">
        <ele>315.8</ele>
        <time>2011-11-27T10:11:31Z</time>
      </trkpt>
      <trkpt lat="44.07255" lon="4.37784">
        <ele>317.1</ele>
        <time>2011-11-27T10:11:36Z</time>
      </trkpt>
      <trkpt lat="44.07253" lon="4.37791">
        <ele>318</ele>
        <time>2011-11-27T10:11:54Z</time>
      </trkpt>
      <trkpt lat="44.07252" lon="4.37798">
        <ele>318.9</ele>
        <time>2011-11-27T10:11:59Z</time>
      </trkpt>
      <trkpt lat="44.07251" lon="4.37805">
        <ele>319.8</ele>
        <time>2011-11-27T10:12:05Z</time>
      </trkpt>
      <trkpt lat="44.0725" lon="4.37812">
        <ele>320.9</ele>
        <time>2011-11-27T10:12:11Z</time>
      </trkpt>
      <trkpt lat="44.0725" lon="4.37819">
        <ele>321.6</ele>
        <time>2011-11-27T10:12:16Z</time>
      </trkpt>
      <trkpt lat="44.07249" lon="4.37825">
        <ele>322.4</ele>
        <time>2011-11-27T10:12:21Z</time>
      </trkpt>
      <trkpt lat="44.07248" lon="4.37832">
        <ele>322.9</ele>
        <time>2011-11-27T10:12:26Z</time>
      </trkpt>
      <trkpt lat="44.07248" lon="4.37838">
        <ele>323.6</ele>
        <time>2011-11-27T10:12:31Z</time>
      </trkpt>
      <trkpt lat="44.07245" lon="4.37843">
        <ele>322.9</ele>
        <time>2011-11-27T10:12:45Z</time>
      </trkpt>
      <trkpt lat="44.0724" lon="4.37846">
        <ele>319.6</ele>
        <time>2011-11-27T10:13:55Z</time>
      </trkpt>
      <trkpt lat="44.07245" lon="4.37843">
        <ele>319.7</ele>
        <time>2011-11-27T10:15:49Z</time>
      </trkpt>
      <trkpt lat="44.0724" lon="4.37844">
        <ele>319</ele>
        <time>2011-11-27T10:16:16Z</time>
      </trkpt>
      <trkpt lat="44.07238" lon="4.37849">
        <ele>319.3</ele>
        <time>2011-11-27T10:17:44Z</time>
      </trkpt>
      <trkpt lat="44.07242" lon="4.37852">
        <ele>320.6</ele>
        <time>2011-11-27T10:19:21Z</time>
      </trkpt>
      <trkpt lat="44.07238" lon="4.37851">
        <ele>319</ele>
        <time>2011-11-27T10:21:47Z</time>
      </trkpt>
      <trkpt lat="44.0724" lon="4.37837">
        <ele>319</ele>
        <time>2011-11-27T10:21:49Z</time>
      </trkpt>
      <trkpt lat="44.07238" lon="4.37831">
        <ele>319</ele>
        <time>2011-11-27T10:21:52Z</time>
      </trkpt>
      <trkpt lat="44.07236" lon="4.37824">
        <ele>319.1</ele>
        <time>2011-11-27T10:21:55Z</time>
      </trkpt>
      <trkpt lat="44.07234" lon="4.37818">
        <ele>319.4</ele>
        <time>2011-11-27T10:21:58Z</time>
      </trkpt>
      <trkpt lat="44.07232" lon="4.37811">
        <ele>319.6</ele>
        <time>2011-11-27T10:22:01Z</time>
      </trkpt>
      <trkpt lat="44.07229" lon="4.37804">
        <ele>319.7</ele>
        <time>2011-11-27T10:22:04Z</time>
      </trkpt>
      <trkpt lat="44.07227" lon="4.37797">
        <ele>319.6</ele>
        <time>2011-11-27T10:22:07Z</time>
      </trkpt>
      <trkpt lat="44.07224" lon="4.3779">
        <ele>319.9</ele>
        <time>2011-11-27T10:22:10Z</time>
      </trkpt>
      <trkpt lat="44.07221" lon="4.37783">
        <ele>320</ele>
        <time>2011-11-27T10:22:13Z</time>
      </trkpt>
      <trkpt lat="44.07219" lon="4.37776">
        <ele>320.2</ele>
        <time>2011-11-27T10:22:16Z</time>
      </trkpt>
      <trkpt lat="44.07217" lon="4.37767">
        <ele>320.5</ele>
        <time>2011-11-27T10:22:19Z</time>
      </trkpt>
      <trkpt lat="44.07215" lon="4.37758">
        <ele>320.7</ele>
        <time>2011-11-27T10:22:22Z</time>
      </trkpt>
      <trkpt lat="44.07213" lon="4.37752">
        <ele>320.5</ele>
        <time>2011-11-27T10:22:24Z</time>
      </trkpt>
      <trkpt lat="44.0721" lon="4.37744">
        <ele>320.4</ele>
        <time>2011-11-27T10:22:27Z</time>
      </trkpt>
      <trkpt lat="44.07207" lon="4.37735">
        <ele>320.5</ele>
        <time>2011-11-27T10:22:30Z</time>
      </trkpt>
      <trkpt lat="44.07205" lon="4.37728">
        <ele>320.6</ele>
        <time>2011-11-27T10:22:32Z</time>
      </trkpt>
      <trkpt lat="44.07203" lon="4.37722">
        <ele>320.6</ele>
        <time>2011-11-27T10:22:34Z</time>
      </trkpt>
      <trkpt lat="44.072" lon="4.37715">
        <ele>320.6</ele>
        <time>2011-11-27T10:22:36Z</time>
      </trkpt>
      <trkpt lat="44.07198" lon="4.37708">
        <ele>320.7</ele>
        <time>2011-11-27T10:22:38Z</time>
      </trkpt>
      <trkpt lat="44.07196" lon="4.37701">
        <ele>320.7</ele>
        <time>2011-11-27T10:22:40Z</time>
      </trkpt>
      <trkpt lat="44.07193" lon="4.37694">
        <ele>320.8</ele>
        <time>2011-11-27T10:22:42Z</time>
      </trkpt>
      <trkpt lat="44.07191" lon="4.37687">
        <ele>320.9</ele>
        <time>2011-11-27T10:22:44Z</time>
      </trkpt>
      <trkpt lat="44.07188" lon="4.37679">
        <ele>321</ele>
        <time>2011-11-27T10:22:46Z</time>
      </trkpt>
      <trkpt lat="44.07186" lon="4.3767">
        <ele>321.2</ele>
        <time>2011-11-27T10:22:48Z</time>
      </trkpt>
      <trkpt lat="44.07184" lon="4.37662">
        <ele>321.3</ele>
        <time>2011-11-27T10:22:50Z</time>
      </trkpt>
      <trkpt lat="44.07182" lon="4.37654">
        <ele>321.4</ele>
        <time>2011-11-27T10:22:52Z</time>
      </trkpt>
      <trkpt lat="44.0718" lon="4.37644">
        <ele>321.4</ele>
        <time>2011-11-27T10:22:54Z</time>
      </trkpt>
      <trkpt lat="44.07178" lon="4.37636">
        <ele>321.4</ele>
        <time>2011-11-27T10:22:56Z</time>
      </trkpt>
      <trkpt lat="44.07175" lon="4.3763">
        <ele>321.5</ele>
        <time>2011-11-27T10:22:58Z</time>
      </trkpt>
      <trkpt lat="44.07173" lon="4.37622">
        <ele>321.2</ele>
        <time>2011-11-27T10:23:01Z</time>
      </trkpt>
      <trkpt lat="44.07171" lon="4.37613">
        <ele>321.3</ele>
        <time>2011-11-27T10:23:04Z</time>
      </trkpt>
      <trkpt lat="44.07168" lon="4.37605">
        <ele>321</ele>
        <time>2011-11-27T10:23:07Z</time>
      </trkpt>
      <trkpt lat="44.07166" lon="4.37596">
        <ele>320.8</ele>
        <time>2011-11-27T10:23:10Z</time>
      </trkpt>
      <trkpt lat="44.07164" lon="4.37589">
        <ele>320.8</ele>
        <time>2011-11-27T10:23:13Z</time>
      </trkpt>
      <trkpt lat="44.07163" lon="4.37581">
        <ele>320.7</ele>
        <time>2011-11-27T10:23:16Z</time>
      </trkpt>
      <trkpt lat="44.07161" lon="4.37573">
        <ele>320.7</ele>
        <time>2011-11-27T10:23:19Z</time>
      </trkpt>
      <trkpt lat="44.07159" lon="4.37565">
        <ele>320.9</ele>
        <time>2011-11-27T10:23:22Z</time>
      </trkpt>
      <trkpt lat="44.07157" lon="4.37557">
        <ele>321</ele>
        <time>2011-11-27T10:23:25Z</time>
      </trkpt>
      <trkpt lat="44.07155" lon="4.3755">
        <ele>321.2</ele>
        <time>2011-11-27T10:23:28Z</time>
      </trkpt>
      <trkpt lat="44.07153" lon="4.37542">
        <ele>321.1</ele>
        <time>2011-11-27T10:23:31Z</time>
      </trkpt>
      <trkpt lat="44.07152" lon="4.37534">
        <ele>320.9</ele>
        <time>2011-11-27T10:23:34Z</time>
      </trkpt>
      <trkpt lat="44.0715" lon="4.37526">
        <ele>320.9</ele>
        <time>2011-11-27T10:23:37Z</time>
      </trkpt>
      <trkpt lat="44.07147" lon="4.37518">
        <ele>321.1</ele>
        <time>2011-11-27T10:23:40Z</time>
      </trkpt>
      <trkpt lat="44.07144" lon="4.3751">
        <ele>321.2</ele>
        <time>2011-11-27T10:23:43Z</time>
      </trkpt>
      <trkpt lat="44.07142" lon="4.37502">
        <ele>321.3</ele>
        <time>2011-11-27T10:23:46Z</time>
      </trkpt>
      <trkpt lat="44.0714" lon="4.37494">
        <ele>321.4</ele>
        <time>2011-11-27T10:23:49Z</time>
      </trkpt>
      <trkpt lat="44.07138" lon="4.37485">
        <ele>321.6</ele>
        <time>2011-11-27T10:23:52Z</time>
      </trkpt>
      <trkpt lat="44.07136" lon="4.37479">
        <ele>321.7</ele>
        <time>2011-11-27T10:23:54Z</time>
      </trkpt>
      <trkpt lat="44.07134" lon="4.37472">
        <ele>321.8</ele>
        <time>2011-11-27T10:23:57Z</time>
      </trkpt>
      <trkpt lat="44.07132" lon="4.37464">
        <ele>322</ele>
        <time>2011-11-27T10:24:00Z</time>
      </trkpt>
      <trkpt lat="44.07131" lon="4.37457">
        <ele>322.2</ele>
        <time>2011-11-27T10:24:02Z</time>
      </trkpt>
      <trkpt lat="44.07129" lon="4.37451">
        <ele>322.4</ele>
        <time>2011-11-27T10:24:04Z</time>
      </trkpt>
      <trkpt lat="44.07128" lon="4.37445">
        <ele>322.6</ele>
        <time>2011-11-27T10:24:06Z</time>
      </trkpt>
      <trkpt lat="44.07126" lon="4.37436">
        <ele>322.9</ele>
        <time>2011-11-27T10:24:09Z</time>
      </trkpt>
      <trkpt lat="44.07124" lon="4.37428">
        <ele>323.3</ele>
        <time>2011-11-27T10:24:12Z</time>
      </trkpt>
      <trkpt lat="44.07123" lon="4.37419">
        <ele>323.5</ele>
        <time>2011-11-27T10:24:15Z</time>
      </trkpt>
      <trkpt lat="44.07122" lon="4.3741">
        <ele>323.8</ele>
        <time>2011-11-27T10:24:18Z</time>
      </trkpt>
      <trkpt lat="44.07121" lon="4.37401">
        <ele>324</ele>
        <time>2011-11-27T10:24:21Z</time>
      </trkpt>
      <trkpt lat="44.0712" lon="4.37392">
        <ele>324.2</ele>
        <time>2011-11-27T10:24:24Z</time>
      </trkpt>
      <trkpt lat="44.07119" lon="4.37384">
        <ele>324.4</ele>
        <time>2011-11-27T10:24:27Z</time>
      </trkpt>
      <trkpt lat="44.07118" lon="4.37375">
        <ele>324.7</ele>
        <time>2011-11-27T10:24:30Z</time>
      </trkpt>
      <trkpt lat="44.07117" lon="4.37366">
        <ele>324.9</ele>
        <time>2011-11-27T10:24:33Z</time>
      </trkpt>
      <trkpt lat="44.07117" lon="4.37358">
        <ele>325.1</ele>
        <time>2011-11-27T10:24:36Z</time>
      </trkpt>
      <trkpt lat="44.07117" lon="4.3735">
        <ele>325.2</ele>
        <time>2011-11-27T10:24:39Z</time>
      </trkpt>
      <trkpt lat="44.07115" lon="4.37341">
        <ele>325.1</ele>
        <time>2011-11-27T10:24:42Z</time>
      </trkpt>
      <trkpt lat="44.07114" lon="4.37335">
        <ele>325</ele>
        <time>2011-11-27T10:24:44Z</time>
      </trkpt>
      <trkpt lat="44.07114" lon="4.37328">
        <ele>324.9</ele>
        <time>2011-11-27T10:24:46Z</time>
      </trkpt>
      <trkpt lat="44.07113" lon="4.37322">
        <ele>324.8</ele>
        <time>2011-11-27T10:24:48Z</time>
      </trkpt>
      <trkpt lat="44.07112" lon="4.37315">
        <ele>324.6</ele>
        <time>2011-11-27T10:24:50Z</time>
      </trkpt>
      <trkpt lat="44.07112" lon="4.37308">
        <ele>324.7</ele>
        <time>2011-11-27T10:24:52Z</time>
      </trkpt>
      <trkpt lat="44.07111" lon="4.373">
        <ele>324.8</ele>
        <time>2011-11-27T10:24:54Z</time>
      </trkpt>
      <trkpt lat="44.0711" lon="4.37294">
        <ele>324.8</ele>
        <time>2011-11-27T10:24:56Z</time>
      </trkpt>
      <trkpt lat="44.0711" lon="4.37287">
        <ele>324.8</ele>
        <time>2011-11-27T10:24:58Z</time>
      </trkpt>
      <trkpt lat="44.07108" lon="4.3728">
        <ele>324.8</ele>
        <time>2011-11-27T10:25:00Z</time>
      </trkpt>
      <trkpt lat="44.07108" lon="4.37273">
        <ele>324.7</ele>
        <time>2011-11-27T10:25:02Z</time>
      </trkpt>
      <trkpt lat="44.07107" lon="4.37266">
        <ele>324.9</ele>
        <time>2011-11-27T10:25:04Z</time>
      </trkpt>
      <trkpt lat="44.07106" lon="4.37258">
        <ele>324.9</ele>
        <time>2011-11-27T10:25:06Z</time>
      </trkpt>
      <trkpt lat="44.07105" lon="4.37251">
        <ele>324.9</ele>
        <time>2011-11-27T10:25:08Z</time>
      </trkpt>
      <trkpt lat="44.07103" lon="4.37244">
        <ele>324.9</ele>
        <time>2011-11-27T10:25:10Z</time>
      </trkpt>
      <trkpt lat="44.07102" lon="4.37237">
        <ele>325</ele>
        <time>2011-11-27T10:25:12Z</time>
      </trkpt>
      <trkpt lat="44.071" lon="4.3723">
        <ele>325</ele>
        <time>2011-11-27T10:25:14Z</time>
      </trkpt>
      <trkpt lat="44.07097" lon="4.37224">
        <ele>325</ele>
        <time>2011-11-27T10:25:16Z</time>
      </trkpt>
      <trkpt lat="44.07094" lon="4.37218">
        <ele>325.1</ele>
        <time>2011-11-27T10:25:18Z</time>
      </trkpt>
      <trkpt lat="44.07091" lon="4.37213">
        <ele>325.1</ele>
        <time>2011-11-27T10:25:20Z</time>
      </trkpt>
      <trkpt lat="44.07087" lon="4.37209">
        <ele>324.5</ele>
        <time>2011-11-27T10:25:22Z</time>
      </trkpt>
      <trkpt lat="44.07083" lon="4.37206">
        <ele>324.7</ele>
        <time>2011-11-27T10:25:24Z</time>
      </trkpt>
      <trkpt lat="44.07079" lon="4.37203">
        <ele>324.4</ele>
        <time>2011-11-27T10:25:26Z</time>
      </trkpt>
      <trkpt lat="44.07073" lon="4.37198">
        <ele>323.8</ele>
        <time>2011-11-27T10:25:29Z</time>
      </trkpt>
      <trkpt lat="44.07069" lon="4.37195">
        <ele>323.1</ele>
        <time>2011-11-27T10:25:31Z</time>
      </trkpt>
      <trkpt lat="44.07065" lon="4.37191">
        <ele>322.7</ele>
        <time>2011-11-27T10:25:33Z</time>
      </trkpt>
      <trkpt lat="44.0706" lon="4.37188">
        <ele>322.5</ele>
        <time>2011-11-27T10:25:35Z</time>
      </trkpt>
      <trkpt lat="44.07055" lon="4.37185">
        <ele>322.4</ele>
        <time>2011-11-27T10:25:37Z</time>
      </trkpt>
      <trkpt lat="44.07051" lon="4.37182">
        <ele>322.2</ele>
        <time>2011-11-27T10:25:39Z</time>
      </trkpt>
      <trkpt lat="44.07047" lon="4.37179">
        <ele>322.1</ele>
        <time>2011-11-27T10:25:41Z</time>
      </trkpt>
      <trkpt lat="44.07043" lon="4.37175">
        <ele>322</ele>
        <time>2011-11-27T10:25:43Z</time>
      </trkpt>
      <trkpt lat="44.07039" lon="4.37171">
        <ele>321.7</ele>
        <time>2011-11-27T10:25:45Z</time>
      </trkpt>
      <trkpt lat="44.07034" lon="4.37166">
        <ele>321.7</ele>
        <time>2011-11-27T10:25:47Z</time>
      </trkpt>
      <trkpt lat="44.07031" lon="4.37161">
        <ele>321.8</ele>
        <time>2011-11-27T10:25:49Z</time>
      </trkpt>
      <trkpt lat="44.07027" lon="4.37155">
        <ele>322.1</ele>
        <time>2011-11-27T10:25:51Z</time>
      </trkpt>
      <trkpt lat="44.07023" lon="4.37151">
        <ele>322.3</ele>
        <time>2011-11-27T10:25:53Z</time>
      </trkpt>
      <trkpt lat="44.0702" lon="4.37146">
        <ele>322.6</ele>
        <time>2011-11-27T10:25:55Z</time>
      </trkpt>
      <trkpt lat="44.07017" lon="4.37141">
        <ele>322.6</ele>
        <time>2011-11-27T10:25:57Z</time>
      </trkpt>
      <trkpt lat="44.07013" lon="4.37133">
        <ele>323</ele>
        <time>2011-11-27T10:26:00Z</time>
      </trkpt>
      <trkpt lat="44.07011" lon="4.37127">
        <ele>323.2</ele>
        <time>2011-11-27T10:26:02Z</time>
      </trkpt>
      <trkpt lat="44.07007" lon="4.3712">
        <ele>323.4</ele>
        <time>2011-11-27T10:26:05Z</time>
      </trkpt>
      <trkpt lat="44.07005" lon="4.37114">
        <ele>323.4</ele>
        <time>2011-11-27T10:26:07Z</time>
      </trkpt>
      <trkpt lat="44.07002" lon="4.37108">
        <ele>323.5</ele>
        <time>2011-11-27T10:26:09Z</time>
      </trkpt>
      <trkpt lat="44.07" lon="4.37102">
        <ele>323.7</ele>
        <time>2011-11-27T10:26:11Z</time>
      </trkpt>
      <trkpt lat="44.06997" lon="4.37094">
        <ele>323.7</ele>
        <time>2011-11-27T10:26:14Z</time>
      </trkpt>
      <trkpt lat="44.06995" lon="4.37088">
        <ele>323.9</ele>
        <time>2011-11-27T10:26:16Z</time>
      </trkpt>
      <trkpt lat="44.06992" lon="4.3708">
        <ele>323.7</ele>
        <time>2011-11-27T10:26:19Z</time>
      </trkpt>
      <trkpt lat="44.06988" lon="4.37076">
        <ele>323.8</ele>
        <time>2011-11-27T10:26:22Z</time>
      </trkpt>
      <trkpt lat="44.06984" lon="4.37079">
        <ele>324.8</ele>
        <time>2011-11-27T10:26:24Z</time>
      </trkpt>
      <trkpt lat="44.0698" lon="4.37083">
        <ele>325.2</ele>
        <time>2011-11-27T10:26:26Z</time>
      </trkpt>
      <trkpt lat="44.06975" lon="4.37087">
        <ele>325.4</ele>
        <time>2011-11-27T10:26:28Z</time>
      </trkpt>
      <trkpt lat="44.0697" lon="4.37091">
        <ele>325.5</ele>
        <time>2011-11-27T10:26:30Z</time>
      </trkpt>
      <trkpt lat="44.06965" lon="4.37095">
        <ele>325.6</ele>
        <time>2011-11-27T10:26:32Z</time>
      </trkpt>
      <trkpt lat="44.0696" lon="4.37099">
        <ele>325.6</ele>
        <time>2011-11-27T10:26:34Z</time>
      </trkpt>
      <trkpt lat="44.06955" lon="4.37103">
        <ele>325.5</ele>
        <time>2011-11-27T10:26:36Z</time>
      </trkpt>
      <trkpt lat="44.0695" lon="4.37107">
        <ele>325.3</ele>
        <time>2011-11-27T10:26:38Z</time>
      </trkpt>
      <trkpt lat="44.06944" lon="4.37112">
        <ele>325.1</ele>
        <time>2011-11-27T10:26:40Z</time>
      </trkpt>
      <trkpt lat="44.06938" lon="4.37116">
        <ele>324.7</ele>
        <time>2011-11-27T10:26:42Z</time>
      </trkpt>
      <trkpt lat="44.06932" lon="4.37122">
        <ele>324.3</ele>
        <time>2011-11-27T10:26:44Z</time>
      </trkpt>
      <trkpt lat="44.06926" lon="4.37127">
        <ele>324.1</ele>
        <time>2011-11-27T10:26:46Z</time>
      </trkpt>
      <trkpt lat="44.06918" lon="4.37134">
        <ele>323.8</ele>
        <time>2011-11-27T10:26:48Z</time>
      </trkpt>
      <trkpt lat="44.06914" lon="4.37137">
        <ele>323.7</ele>
        <time>2011-11-27T10:26:49Z</time>
      </trkpt>
      <trkpt lat="44.0691" lon="4.37141">
        <ele>323.5</ele>
        <time>2011-11-27T10:26:50Z</time>
      </trkpt>
      <trkpt lat="44.06905" lon="4.37145">
        <ele>323.4</ele>
        <time>2011-11-27T10:26:51Z</time>
      </trkpt>
      <trkpt lat="44.069" lon="4.37148">
        <ele>323.2</ele>
        <time>2011-11-27T10:26:52Z</time>
      </trkpt>
      <trkpt lat="44.06895" lon="4.37152">
        <ele>322.9</ele>
        <time>2011-11-27T10:26:53Z</time>
      </trkpt>
      <trkpt lat="44.06891" lon="4.37156">
        <ele>322.7</ele>
        <time>2011-11-27T10:26:54Z</time>
      </trkpt>
      <trkpt lat="44.06887" lon="4.37159">
        <ele>322.4</ele>
        <time>2011-11-27T10:26:55Z</time>
      </trkpt>
      <trkpt lat="44.06883" lon="4.37163">
        <ele>322.2</ele>
        <time>2011-11-27T10:26:56Z</time>
      </trkpt>
      <trkpt lat="44.06877" lon="4.37166">
        <ele>321.8</ele>
        <time>2011-11-27T10:26:58Z</time>
      </trkpt>
      <trkpt lat="44.06872" lon="4.37163">
        <ele>321.6</ele>
        <time>2011-11-27T10:27:00Z</time>
      </trkpt>
      <trkpt lat="44.06869" lon="4.37158">
        <ele>321.9</ele>
        <time>2011-11-27T10:27:02Z</time>
      </trkpt>
      <trkpt lat="44.06865" lon="4.37151">
        <ele>322.2</ele>
        <time>2011-11-27T10:27:05Z</time>
      </trkpt>
      <trkpt lat="44.06859" lon="4.37148">
        <ele>322.4</ele>
        <time>2011-11-27T10:27:08Z</time>
      </trkpt>
      <trkpt lat="44.06855" lon="4.37147">
        <ele>322.2</ele>
        <time>2011-11-27T10:27:10Z</time>
      </trkpt>
      <trkpt lat="44.06848" lon="4.37144">
        <ele>322.1</ele>
        <time>2011-11-27T10:27:13Z</time>
      </trkpt>
      <trkpt lat="44.06845" lon="4.3714">
        <ele>322.1</ele>
        <time>2011-11-27T10:27:15Z</time>
      </trkpt>
      <trkpt lat="44.06842" lon="4.37134">
        <ele>322.4</ele>
        <time>2011-11-27T10:27:17Z</time>
      </trkpt>
      <trkpt lat="44.0684" lon="4.37126">
        <ele>322.5</ele>
        <time>2011-11-27T10:27:19Z</time>
      </trkpt>
      <trkpt lat="44.06836" lon="4.37113">
        <ele>322.8</ele>
        <time>2011-11-27T10:27:21Z</time>
      </trkpt>
      <trkpt lat="44.06834" lon="4.37106">
        <ele>322.9</ele>
        <time>2011-11-27T10:27:22Z</time>
      </trkpt>
      <trkpt lat="44.06832" lon="4.37098">
        <ele>322.8</ele>
        <time>2011-11-27T10:27:23Z</time>
      </trkpt>
      <trkpt lat="44.0683" lon="4.37092">
        <ele>322.8</ele>
        <time>2011-11-27T10:27:24Z</time>
      </trkpt>
      <trkpt lat="44.06828" lon="4.37086">
        <ele>322.7</ele>
        <time>2011-11-27T10:27:25Z</time>
      </trkpt>
      <trkpt lat="44.06826" lon="4.37077">
        <ele>322.7</ele>
        <time>2011-11-27T10:27:27Z</time>
      </trkpt>
      <trkpt lat="44.06822" lon="4.37081">
        <ele>321</ele>
        <time>2011-11-27T10:27:49Z</time>
      </trkpt>
      <trkpt lat="44.06826" lon="4.37079">
        <ele>321.3</ele>
        <time>2011-11-27T10:31:13Z</time>
      </trkpt>
      <trkpt lat="44.06823" lon="4.37073">
        <ele>321.4</ele>
        <time>2011-11-27T10:31:16Z</time>
      </trkpt>
      <trkpt lat="44.06821" lon="4.37067">
        <ele>321.5</ele>
        <time>2011-11-27T10:31:20Z</time>
      </trkpt>
      <trkpt lat="44.06819" lon="4.37059">
        <ele>321.5</ele>
        <time>2011-11-27T10:31:23Z</time>
      </trkpt>
      <trkpt lat="44.06816" lon="4.37051">
        <ele>321.5</ele>
        <time>2011-11-27T10:31:26Z</time>
      </trkpt>
      <trkpt lat="44.06814" lon="4.37043">
        <ele>321.7</ele>
        <time>2011-11-27T10:31:29Z</time>
      </trkpt>
      <trkpt lat="44.06811" lon="4.37034">
        <ele>322</ele>
        <time>2011-11-27T10:31:32Z</time>
      </trkpt>
      <trkpt lat="44.06809" lon="4.37028">
        <ele>322.3</ele>
        <time>2011-11-27T10:31:34Z</time>
      </trkpt>
      <trkpt lat="44.06807" lon="4.37022">
        <ele>322.3</ele>
        <time>2011-11-27T10:31:36Z</time>
      </trkpt>
      <trkpt lat="44.06806" lon="4.37015">
        <ele>322.1</ele>
        <time>2011-11-27T10:31:38Z</time>
      </trkpt>
      <trkpt lat="44.06804" lon="4.37009">
        <ele>322</ele>
        <time>2011-11-27T10:31:40Z</time>
      </trkpt>
      <trkpt lat="44.06801" lon="4.37002">
        <ele>322.1</ele>
        <time>2011-11-27T10:31:42Z</time>
      </trkpt>
      <trkpt lat="44.06799" lon="4.36995">
        <ele>322</ele>
        <time>2011-11-27T10:31:44Z</time>
      </trkpt>
      <trkpt lat="44.06797" lon="4.36987">
        <ele>322.2</ele>
        <time>2011-11-27T10:31:46Z</time>
      </trkpt>
      <trkpt lat="44.06795" lon="4.36979">
        <ele>322.4</ele>
        <time>2011-11-27T10:31:48Z</time>
      </trkpt>
      <trkpt lat="44.06792" lon="4.36972">
        <ele>322.5</ele>
        <time>2011-11-27T10:31:50Z</time>
      </trkpt>
      <trkpt lat="44.0679" lon="4.36964">
        <ele>322.5</ele>
        <time>2011-11-27T10:31:52Z</time>
      </trkpt>
      <trkpt lat="44.06787" lon="4.36956">
        <ele>322.5</ele>
        <time>2011-11-27T10:31:54Z</time>
      </trkpt>
      <trkpt lat="44.06785" lon="4.36948">
        <ele>322.5</ele>
        <time>2011-11-27T10:31:56Z</time>
      </trkpt>
      <trkpt lat="44.06783" lon="4.3694">
        <ele>322.7</ele>
        <time>2011-11-27T10:31:58Z</time>
      </trkpt>
      <trkpt lat="44.0678" lon="4.36932">
        <ele>322.7</ele>
        <time>2011-11-27T10:32:00Z</time>
      </trkpt>
      <trkpt lat="44.06778" lon="4.36923">
        <ele>322.7</ele>
        <time>2011-11-27T10:32:02Z</time>
      </trkpt>
      <trkpt lat="44.06775" lon="4.36915">
        <ele>322.7</ele>
        <time>2011-11-27T10:32:04Z</time>
      </trkpt>
      <trkpt lat="44.06773" lon="4.36906">
        <ele>322.9</ele>
        <time>2011-11-27T10:32:06Z</time>
      </trkpt>
      <trkpt lat="44.0677" lon="4.36897">
        <ele>322.8</ele>
        <time>2011-11-27T10:32:08Z</time>
      </trkpt>
      <trkpt lat="44.06767" lon="4.36888">
        <ele>322.7</ele>
        <time>2011-11-27T10:32:10Z</time>
      </trkpt>
      <trkpt lat="44.06765" lon="4.36879">
        <ele>322.8</ele>
        <time>2011-11-27T10:32:12Z</time>
      </trkpt>
      <trkpt lat="44.06762" lon="4.36871">
        <ele>322.8</ele>
        <time>2011-11-27T10:32:14Z</time>
      </trkpt>
      <trkpt lat="44.06758" lon="4.36866">
        <ele>322.6</ele>
        <time>2011-11-27T10:32:16Z</time>
      </trkpt>
      <trkpt lat="44.06752" lon="4.36863">
        <ele>322.7</ele>
        <time>2011-11-27T10:32:18Z</time>
      </trkpt>
      <trkpt lat="44.06746" lon="4.36864">
        <ele>324.1</ele>
        <time>2011-11-27T10:32:20Z</time>
      </trkpt>
      <trkpt lat="44.06738" lon="4.36873">
        <ele>325.2</ele>
        <time>2011-11-27T10:32:22Z</time>
      </trkpt>
      <trkpt lat="44.06734" lon="4.3688">
        <ele>325.2</ele>
        <time>2011-11-27T10:32:23Z</time>
      </trkpt>
      <trkpt lat="44.0673" lon="4.36888">
        <ele>325.1</ele>
        <time>2011-11-27T10:32:24Z</time>
      </trkpt>
      <trkpt lat="44.06726" lon="4.36895">
        <ele>324.8</ele>
        <time>2011-11-27T10:32:25Z</time>
      </trkpt>
      <trkpt lat="44.06722" lon="4.36902">
        <ele>324.3</ele>
        <time>2011-11-27T10:32:26Z</time>
      </trkpt>
      <trkpt lat="44.06717" lon="4.3691">
        <ele>323.7</ele>
        <time>2011-11-27T10:32:27Z</time>
      </trkpt>
      <trkpt lat="44.06713" lon="4.36917">
        <ele>323.3</ele>
        <time>2011-11-27T10:32:28Z</time>
      </trkpt>
      <trkpt lat="44.06708" lon="4.36924">
        <ele>322.8</ele>
        <time>2011-11-27T10:32:29Z</time>
      </trkpt>
      <trkpt lat="44.06704" lon="4.36931">
        <ele>322.4</ele>
        <time>2011-11-27T10:32:30Z</time>
      </trkpt>
      <trkpt lat="44.067" lon="4.36938">
        <ele>322</ele>
        <time>2011-11-27T10:32:31Z</time>
      </trkpt>
      <trkpt lat="44.06695" lon="4.36945">
        <ele>321.5</ele>
        <time>2011-11-27T10:32:32Z</time>
      </trkpt>
      <trkpt lat="44.06691" lon="4.36951">
        <ele>321.1</ele>
        <time>2011-11-27T10:32:33Z</time>
      </trkpt>
      <trkpt lat="44.06686" lon="4.36958">
        <ele>320.7</ele>
        <time>2011-11-27T10:32:34Z</time>
      </trkpt>
      <trkpt lat="44.06681" lon="4.36966">
        <ele>320.3</ele>
        <time>2011-11-27T10:32:35Z</time>
      </trkpt>
      <trkpt lat="44.06676" lon="4.36973">
        <ele>319.8</ele>
        <time>2011-11-27T10:32:36Z</time>
      </trkpt>
      <trkpt lat="44.06671" lon="4.3698">
        <ele>319.4</ele>
        <time>2011-11-27T10:32:37Z</time>
      </trkpt>
      <trkpt lat="44.06666" lon="4.36988">
        <ele>319</ele>
        <time>2011-11-27T10:32:38Z</time>
      </trkpt>
      <trkpt lat="44.0666" lon="4.36995">
        <ele>318.6</ele>
        <time>2011-11-27T10:32:39Z</time>
      </trkpt>
      <trkpt lat="44.06655" lon="4.37002">
        <ele>318.2</ele>
        <time>2011-11-27T10:32:40Z</time>
      </trkpt>
      <trkpt lat="44.0665" lon="4.37009">
        <ele>317.9</ele>
        <time>2011-11-27T10:32:41Z</time>
      </trkpt>
      <trkpt lat="44.06645" lon="4.37015">
        <ele>317.6</ele>
        <time>2011-11-27T10:32:42Z</time>
      </trkpt>
      <trkpt lat="44.0664" lon="4.3702">
        <ele>317.2</ele>
        <time>2011-11-27T10:32:43Z</time>
      </trkpt>
      <trkpt lat="44.06634" lon="4.37024">
        <ele>316.8</ele>
        <time>2011-11-27T10:32:44Z</time>
      </trkpt>
      <trkpt lat="44.06628" lon="4.37027">
        <ele>316.8</ele>
        <time>2011-11-27T10:32:45Z</time>
      </trkpt>
      <trkpt lat="44.06622" lon="4.37028">
        <ele>316.9</ele>
        <time>2011-11-27T10:32:46Z</time>
      </trkpt>
      <trkpt lat="44.06616" lon="4.37029">
        <ele>316.8</ele>
        <time>2011-11-27T10:32:47Z</time>
      </trkpt>
      <trkpt lat="44.06611" lon="4.3703">
        <ele>316.8</ele>
        <time>2011-11-27T10:32:48Z</time>
      </trkpt>
      <trkpt lat="44.06605" lon="4.3703">
        <ele>316.9</ele>
        <time>2011-11-27T10:32:49Z</time>
      </trkpt>
      <trkpt lat="44.066" lon="4.37031">
        <ele>316.8</ele>
        <time>2011-11-27T10:32:50Z</time>
      </trkpt>
      <trkpt lat="44.06595" lon="4.37031">
        <ele>316.9</ele>
        <time>2011-11-27T10:32:51Z</time>
      </trkpt>
      <trkpt lat="44.0659" lon="4.37032">
        <ele>316.8</ele>
        <time>2011-11-27T10:32:52Z</time>
      </trkpt>
      <trkpt lat="44.06585" lon="4.37033">
        <ele>316.8</ele>
        <time>2011-11-27T10:32:53Z</time>
      </trkpt>
      <trkpt lat="44.0658" lon="4.37034">
        <ele>316.9</ele>
        <time>2011-11-27T10:32:54Z</time>
      </trkpt>
      <trkpt lat="44.06576" lon="4.37035">
        <ele>316.9</ele>
        <time>2011-11-27T10:32:55Z</time>
      </trkpt>
      <trkpt lat="44.06571" lon="4.37036">
        <ele>317</ele>
        <time>2011-11-27T10:32:56Z</time>
      </trkpt>
      <trkpt lat="44.06566" lon="4.37036">
        <ele>317.2</ele>
        <time>2011-11-27T10:32:57Z</time>
      </trkpt>
      <trkpt lat="44.06558" lon="4.37037">
        <ele>317.3</ele>
        <time>2011-11-27T10:32:59Z</time>
      </trkpt>
      <trkpt lat="44.06548" lon="4.37038">
        <ele>317</ele>
        <time>2011-11-27T10:33:01Z</time>
      </trkpt>
      <trkpt lat="44.06543" lon="4.37039">
        <ele>316.9</ele>
        <time>2011-11-27T10:33:02Z</time>
      </trkpt>
      <trkpt lat="44.06538" lon="4.3704">
        <ele>316.9</ele>
        <time>2011-11-27T10:33:03Z</time>
      </trkpt>
      <trkpt lat="44.06533" lon="4.3704">
        <ele>316.8</ele>
        <time>2011-11-27T10:33:04Z</time>
      </trkpt>
      <trkpt lat="44.06528" lon="4.37041">
        <ele>316.8</ele>
        <time>2011-11-27T10:33:05Z</time>
      </trkpt>
      <trkpt lat="44.06522" lon="4.37042">
        <ele>316.6</ele>
        <time>2011-11-27T10:33:06Z</time>
      </trkpt>
      <trkpt lat="44.06517" lon="4.37042">
        <ele>316.7</ele>
        <time>2011-11-27T10:33:07Z</time>
      </trkpt>
      <trkpt lat="44.06511" lon="4.37042">
        <ele>316.6</ele>
        <time>2011-11-27T10:33:08Z</time>
      </trkpt>
      <trkpt lat="44.06506" lon="4.37043">
        <ele>316.7</ele>
        <time>2011-11-27T10:33:09Z</time>
      </trkpt>
      <trkpt lat="44.06501" lon="4.37044">
        <ele>316.6</ele>
        <time>2011-11-27T10:33:10Z</time>
      </trkpt>
      <trkpt lat="44.06496" lon="4.37045">
        <ele>316.5</ele>
        <time>2011-11-27T10:33:11Z</time>
      </trkpt>
      <trkpt lat="44.06491" lon="4.37046">
        <ele>316.3</ele>
        <time>2011-11-27T10:33:12Z</time>
      </trkpt>
      <trkpt lat="44.06485" lon="4.37047">
        <ele>316.2</ele>
        <time>2011-11-27T10:33:13Z</time>
      </trkpt>
      <trkpt lat="44.0648" lon="4.37048">
        <ele>316.1</ele>
        <time>2011-11-27T10:33:14Z</time>
      </trkpt>
      <trkpt lat="44.06475" lon="4.3705">
        <ele>316</ele>
        <time>2011-11-27T10:33:15Z</time>
      </trkpt>
      <trkpt lat="44.0647" lon="4.37051">
        <ele>315.9</ele>
        <time>2011-11-27T10:33:16Z</time>
      </trkpt>
      <trkpt lat="44.06464" lon="4.37052">
        <ele>315.8</ele>
        <time>2011-11-27T10:33:17Z</time>
      </trkpt>
      <trkpt lat="44.06459" lon="4.37053">
        <ele>315.7</ele>
        <time>2011-11-27T10:33:18Z</time>
      </trkpt>
      <trkpt lat="44.06454" lon="4.37055">
        <ele>315.6</ele>
        <time>2011-11-27T10:33:19Z</time>
      </trkpt>
      <trkpt lat="44.06449" lon="4.37056">
        <ele>315.4</ele>
        <time>2011-11-27T10:33:20Z</time>
      </trkpt>
      <trkpt lat="44.06444" lon="4.37058">
        <ele>315.2</ele>
        <time>2011-11-27T10:33:21Z</time>
      </trkpt>
      <trkpt lat="44.06439" lon="4.37059">
        <ele>315.1</ele>
        <time>2011-11-27T10:33:22Z</time>
      </trkpt>
      <trkpt lat="44.06433" lon="4.3706">
        <ele>315.1</ele>
        <time>2011-11-27T10:33:23Z</time>
      </trkpt>
      <trkpt lat="44.06428" lon="4.37062">
        <ele>315</ele>
        <time>2011-11-27T10:33:24Z</time>
      </trkpt>
      <trkpt lat="44.06422" lon="4.37064">
        <ele>315</ele>
        <time>2011-11-27T10:33:25Z</time>
      </trkpt>
      <trkpt lat="44.06417" lon="4.37065">
        <ele>315.1</ele>
        <time>2011-11-27T10:33:26Z</time>
      </trkpt>
      <trkpt lat="44.06412" lon="4.37067">
        <ele>315.1</ele>
        <time>2011-11-27T10:33:27Z</time>
      </trkpt>
      <trkpt lat="44.06407" lon="4.37068">
        <ele>315.2</ele>
        <time>2011-11-27T10:33:28Z</time>
      </trkpt>
      <trkpt lat="44.06402" lon="4.37069">
        <ele>315.3</ele>
        <time>2011-11-27T10:33:29Z</time>
      </trkpt>
      <trkpt lat="44.06397" lon="4.37071">
        <ele>315.4</ele>
        <time>2011-11-27T10:33:30Z</time>
      </trkpt>
      <trkpt lat="44.06389" lon="4.37074">
        <ele>315.5</ele>
        <time>2011-11-27T10:33:32Z</time>
      </trkpt>
      <trkpt lat="44.0638" lon="4.37076">
        <ele>315.2</ele>
        <time>2011-11-27T10:33:34Z</time>
      </trkpt>
      <trkpt lat="44.06375" lon="4.37078">
        <ele>315</ele>
        <time>2011-11-27T10:33:35Z</time>
      </trkpt>
      <trkpt lat="44.0637" lon="4.37079">
        <ele>314.9</ele>
        <time>2011-11-27T10:33:36Z</time>
      </trkpt>
      <trkpt lat="44.06365" lon="4.3708">
        <ele>314.6</ele>
        <time>2011-11-27T10:33:37Z</time>
      </trkpt>
      <trkpt lat="44.06359" lon="4.37082">
        <ele>314.5</ele>
        <time>2011-11-27T10:33:38Z</time>
      </trkpt>
      <trkpt lat="44.06354" lon="4.37083">
        <ele>314.4</ele>
        <time>2011-11-27T10:33:39Z</time>
      </trkpt>
      <trkpt lat="44.06348" lon="4.37084">
        <ele>314.3</ele>
        <time>2011-11-27T10:33:40Z</time>
      </trkpt>
      <trkpt lat="44.06343" lon="4.37085">
        <ele>314.3</ele>
        <time>2011-11-27T10:33:41Z</time>
      </trkpt>
      <trkpt lat="44.06338" lon="4.37086">
        <ele>314.4</ele>
        <time>2011-11-27T10:33:42Z</time>
      </trkpt>
      <trkpt lat="44.06334" lon="4.37086">
        <ele>314.4</ele>
        <time>2011-11-27T10:33:43Z</time>
      </trkpt>
      <trkpt lat="44.06325" lon="4.37087">
        <ele>314.6</ele>
        <time>2011-11-27T10:33:45Z</time>
      </trkpt>
      <trkpt lat="44.06317" lon="4.37087">
        <ele>314.5</ele>
        <time>2011-11-27T10:33:47Z</time>
      </trkpt>
      <trkpt lat="44.06309" lon="4.37086">
        <ele>314.3</ele>
        <time>2011-11-27T10:33:49Z</time>
      </trkpt>
      <trkpt lat="44.06301" lon="4.37086">
        <ele>314.6</ele>
        <time>2011-11-27T10:33:51Z</time>
      </trkpt>
      <trkpt lat="44.06293" lon="4.37085">
        <ele>314.8</ele>
        <time>2011-11-27T10:33:53Z</time>
      </trkpt>
      <trkpt lat="44.06286" lon="4.37084">
        <ele>315.1</ele>
        <time>2011-11-27T10:33:55Z</time>
      </trkpt>
      <trkpt lat="44.06279" lon="4.37083">
        <ele>315.5</ele>
        <time>2011-11-27T10:33:57Z</time>
      </trkpt>
      <trkpt lat="44.06271" lon="4.37082">
        <ele>315.7</ele>
        <time>2011-11-27T10:33:59Z</time>
      </trkpt>
      <trkpt lat="44.06264" lon="4.37081">
        <ele>316</ele>
        <time>2011-11-27T10:34:01Z</time>
      </trkpt>
      <trkpt lat="44.06256" lon="4.3708">
        <ele>316.3</ele>
        <time>2011-11-27T10:34:03Z</time>
      </trkpt>
      <trkpt lat="44.06249" lon="4.37079">
        <ele>316.5</ele>
        <time>2011-11-27T10:34:05Z</time>
      </trkpt>
      <trkpt lat="44.06243" lon="4.37078">
        <ele>316.9</ele>
        <time>2011-11-27T10:34:07Z</time>
      </trkpt>
      <trkpt lat="44.06236" lon="4.37077">
        <ele>317</ele>
        <time>2011-11-27T10:34:09Z</time>
      </trkpt>
      <trkpt lat="44.0623" lon="4.37076">
        <ele>317.1</ele>
        <time>2011-11-27T10:34:11Z</time>
      </trkpt>
      <trkpt lat="44.06224" lon="4.37076">
        <ele>317.2</ele>
        <time>2011-11-27T10:34:13Z</time>
      </trkpt>
      <trkpt lat="44.06218" lon="4.37076">
        <ele>316.8</ele>
        <time>2011-11-27T10:34:15Z</time>
      </trkpt>
      <trkpt lat="44.0621" lon="4.37075">
        <ele>316.6</ele>
        <time>2011-11-27T10:34:17Z</time>
      </trkpt>
      <trkpt lat="44.06203" lon="4.37074">
        <ele>316.4</ele>
        <time>2011-11-27T10:34:19Z</time>
      </trkpt>
      <trkpt lat="44.06196" lon="4.37073">
        <ele>316.2</ele>
        <time>2011-11-27T10:34:21Z</time>
      </trkpt>
      <trkpt lat="44.06188" lon="4.37072">
        <ele>316.1</ele>
        <time>2011-11-27T10:34:23Z</time>
      </trkpt>
      <trkpt lat="44.0618" lon="4.37072">
        <ele>316</ele>
        <time>2011-11-27T10:34:25Z</time>
      </trkpt>
      <trkpt lat="44.06173" lon="4.37073">
        <ele>316.1</ele>
        <time>2011-11-27T10:34:27Z</time>
      </trkpt>
      <trkpt lat="44.06166" lon="4.37075">
        <ele>316.3</ele>
        <time>2011-11-27T10:34:29Z</time>
      </trkpt>
      <trkpt lat="44.06159" lon="4.37078">
        <ele>316.6</ele>
        <time>2011-11-27T10:34:31Z</time>
      </trkpt>
      <trkpt lat="44.06152" lon="4.37081">
        <ele>316.8</ele>
        <time>2011-11-27T10:34:33Z</time>
      </trkpt>
      <trkpt lat="44.06145" lon="4.37085">
        <ele>316.9</ele>
        <time>2011-11-27T10:34:35Z</time>
      </trkpt>
      <trkpt lat="44.06138" lon="4.37088">
        <ele>317.1</ele>
        <time>2011-11-27T10:34:37Z</time>
      </trkpt>
      <trkpt lat="44.0613" lon="4.37092">
        <ele>317.3</ele>
        <time>2011-11-27T10:34:39Z</time>
      </trkpt>
      <trkpt lat="44.06123" lon="4.37095">
        <ele>317.5</ele>
        <time>2011-11-27T10:34:41Z</time>
      </trkpt>
      <trkpt lat="44.06116" lon="4.37097">
        <ele>317.7</ele>
        <time>2011-11-27T10:34:43Z</time>
      </trkpt>
      <trkpt lat="44.06108" lon="4.371">
        <ele>318.1</ele>
        <time>2011-11-27T10:34:45Z</time>
      </trkpt>
      <trkpt lat="44.06101" lon="4.37102">
        <ele>318.3</ele>
        <time>2011-11-27T10:34:47Z</time>
      </trkpt>
      <trkpt lat="44.06094" lon="4.37104">
        <ele>318.3</ele>
        <time>2011-11-27T10:34:49Z</time>
      </trkpt>
      <trkpt lat="44.06086" lon="4.37105">
        <ele>318.1</ele>
        <time>2011-11-27T10:34:51Z</time>
      </trkpt>
      <trkpt lat="44.06081" lon="4.37105">
        <ele>317.8</ele>
        <time>2011-11-27T10:34:52Z</time>
      </trkpt>
      <trkpt lat="44.06072" lon="4.37104">
        <ele>317.7</ele>
        <time>2011-11-27T10:34:54Z</time>
      </trkpt>
      <trkpt lat="44.06064" lon="4.37102">
        <ele>317.8</ele>
        <time>2011-11-27T10:34:56Z</time>
      </trkpt>
      <trkpt lat="44.06056" lon="4.37101">
        <ele>317.9</ele>
        <time>2011-11-27T10:34:58Z</time>
      </trkpt>
      <trkpt lat="44.0605" lon="4.37102">
        <ele>318.1</ele>
        <time>2011-11-27T10:35:00Z</time>
      </trkpt>
      <trkpt lat="44.06044" lon="4.37103">
        <ele>318.1</ele>
        <time>2011-11-27T10:35:02Z</time>
      </trkpt>
      <trkpt lat="44.06038" lon="4.37106">
        <ele>317.7</ele>
        <time>2011-11-27T10:35:04Z</time>
      </trkpt>
      <trkpt lat="44.06031" lon="4.37111">
        <ele>317.2</ele>
        <time>2011-11-27T10:35:06Z</time>
      </trkpt>
      <trkpt lat="44.06027" lon="4.37114">
        <ele>316.9</ele>
        <time>2011-11-27T10:35:07Z</time>
      </trkpt>
      <trkpt lat="44.06022" lon="4.37118">
        <ele>316.7</ele>
        <time>2011-11-27T10:35:08Z</time>
      </trkpt>
      <trkpt lat="44.06016" lon="4.37123">
        <ele>316.2</ele>
        <time>2011-11-27T10:35:09Z</time>
      </trkpt>
      <trkpt lat="44.06009" lon="4.37128">
        <ele>315.7</ele>
        <time>2011-11-27T10:35:10Z</time>
      </trkpt>
      <trkpt lat="44.06002" lon="4.37133">
        <ele>315.3</ele>
        <time>2011-11-27T10:35:11Z</time>
      </trkpt>
      <trkpt lat="44.05996" lon="4.3714">
        <ele>315.1</ele>
        <time>2011-11-27T10:35:12Z</time>
      </trkpt>
      <trkpt lat="44.0599" lon="4.37148">
        <ele>314.5</ele>
        <time>2011-11-27T10:35:13Z</time>
      </trkpt>
      <trkpt lat="44.05985" lon="4.37159">
        <ele>313.7</ele>
        <time>2011-11-27T10:35:14Z</time>
      </trkpt>
      <trkpt lat="44.05981" lon="4.37171">
        <ele>313.1</ele>
        <time>2011-11-27T10:35:15Z</time>
      </trkpt>
      <trkpt lat="44.05979" lon="4.37184">
        <ele>312.3</ele>
        <time>2011-11-27T10:35:16Z</time>
      </trkpt>
      <trkpt lat="44.05977" lon="4.37198">
        <ele>311.4</ele>
        <time>2011-11-27T10:35:17Z</time>
      </trkpt>
      <trkpt lat="44.05974" lon="4.37211">
        <ele>310.3</ele>
        <time>2011-11-27T10:35:18Z</time>
      </trkpt>
      <trkpt lat="44.05972" lon="4.37224">
        <ele>309</ele>
        <time>2011-11-27T10:35:19Z</time>
      </trkpt>
      <trkpt lat="44.05969" lon="4.37239">
        <ele>307.5</ele>
        <time>2011-11-27T10:35:20Z</time>
      </trkpt>
      <trkpt lat="44.05967" lon="4.37254">
        <ele>306.1</ele>
        <time>2011-11-27T10:35:21Z</time>
      </trkpt>
      <trkpt lat="44.05965" lon="4.37267">
        <ele>304.8</ele>
        <time>2011-11-27T10:35:22Z</time>
      </trkpt>
      <trkpt lat="44.05963" lon="4.37279">
        <ele>303.4</ele>
        <time>2011-11-27T10:35:23Z</time>
      </trkpt>
      <trkpt lat="44.0596" lon="4.37289">
        <ele>302</ele>
        <time>2011-11-27T10:35:24Z</time>
      </trkpt>
      <trkpt lat="44.05956" lon="4.37299">
        <ele>300.7</ele>
        <time>2011-11-27T10:35:25Z</time>
      </trkpt>
      <trkpt lat="44.05952" lon="4.37307">
        <ele>299.4</ele>
        <time>2011-11-27T10:35:26Z</time>
      </trkpt>
      <trkpt lat="44.05945" lon="4.37311">
        <ele>298.1</ele>
        <time>2011-11-27T10:35:27Z</time>
      </trkpt>
      <trkpt lat="44.05938" lon="4.37316">
        <ele>296.5</ele>
        <time>2011-11-27T10:35:28Z</time>
      </trkpt>
      <trkpt lat="44.05931" lon="4.37323">
        <ele>295</ele>
        <time>2011-11-27T10:35:29Z</time>
      </trkpt>
      <trkpt lat="44.05926" lon="4.37331">
        <ele>293.6</ele>
        <time>2011-11-27T10:35:30Z</time>
      </trkpt>
      <trkpt lat="44.05921" lon="4.37341">
        <ele>292.2</ele>
        <time>2011-11-27T10:35:31Z</time>
      </trkpt>
      <trkpt lat="44.05917" lon="4.3735">
        <ele>290.7</ele>
        <time>2011-11-27T10:35:32Z</time>
      </trkpt>
      <trkpt lat="44.05913" lon="4.37358">
        <ele>289.3</ele>
        <time>2011-11-27T10:35:33Z</time>
      </trkpt>
      <trkpt lat="44.05907" lon="4.37366">
        <ele>287.6</ele>
        <time>2011-11-27T10:35:34Z</time>
      </trkpt>
      <trkpt lat="44.05901" lon="4.37373">
        <ele>285.9</ele>
        <time>2011-11-27T10:35:35Z</time>
      </trkpt>
      <trkpt lat="44.05896" lon="4.3738">
        <ele>284.1</ele>
        <time>2011-11-27T10:35:36Z</time>
      </trkpt>
      <trkpt lat="44.05892" lon="4.37388">
        <ele>282.4</ele>
        <time>2011-11-27T10:35:37Z</time>
      </trkpt>
      <trkpt lat="44.05889" lon="4.37398">
        <ele>281</ele>
        <time>2011-11-27T10:35:38Z</time>
      </trkpt>
      <trkpt lat="44.05888" lon="4.37411">
        <ele>279.5</ele>
        <time>2011-11-27T10:35:39Z</time>
      </trkpt>
      <trkpt lat="44.05889" lon="4.37423">
        <ele>278.1</ele>
        <time>2011-11-27T10:35:40Z</time>
      </trkpt>
      <trkpt lat="44.05891" lon="4.37435">
        <ele>276.6</ele>
        <time>2011-11-27T10:35:41Z</time>
      </trkpt>
      <trkpt lat="44.05894" lon="4.37445">
        <ele>275.5</ele>
        <time>2011-11-27T10:35:42Z</time>
      </trkpt>
      <trkpt lat="44.05898" lon="4.37453">
        <ele>274.4</ele>
        <time>2011-11-27T10:35:43Z</time>
      </trkpt>
      <trkpt lat="44.059" lon="4.3746">
        <ele>273.4</ele>
        <time>2011-11-27T10:35:44Z</time>
      </trkpt>
      <trkpt lat="44.05897" lon="4.37471">
        <ele>271.6</ele>
        <time>2011-11-27T10:35:46Z</time>
      </trkpt>
      <trkpt lat="44.05892" lon="4.37475">
        <ele>270.9</ele>
        <time>2011-11-27T10:35:47Z</time>
      </trkpt>
      <trkpt lat="44.05886" lon="4.37478">
        <ele>270.1</ele>
        <time>2011-11-27T10:35:48Z</time>
      </trkpt>
      <trkpt lat="44.0588" lon="4.37483">
        <ele>269.2</ele>
        <time>2011-11-27T10:35:49Z</time>
      </trkpt>
      <trkpt lat="44.05873" lon="4.37489">
        <ele>268.2</ele>
        <time>2011-11-27T10:35:50Z</time>
      </trkpt>
      <trkpt lat="44.05866" lon="4.37494">
        <ele>267.3</ele>
        <time>2011-11-27T10:35:51Z</time>
      </trkpt>
      <trkpt lat="44.05858" lon="4.37499">
        <ele>266.3</ele>
        <time>2011-11-27T10:35:52Z</time>
      </trkpt>
      <trkpt lat="44.05848" lon="4.37501">
        <ele>265.5</ele>
        <time>2011-11-27T10:35:53Z</time>
      </trkpt>
      <trkpt lat="44.05839" lon="4.37502">
        <ele>264.7</ele>
        <time>2011-11-27T10:35:54Z</time>
      </trkpt>
      <trkpt lat="44.05829" lon="4.37503">
        <ele>263.8</ele>
        <time>2011-11-27T10:35:55Z</time>
      </trkpt>
      <trkpt lat="44.05819" lon="4.37503">
        <ele>262.7</ele>
        <time>2011-11-27T10:35:56Z</time>
      </trkpt>
      <trkpt lat="44.05809" lon="4.37503">
        <ele>261.7</ele>
        <time>2011-11-27T10:35:57Z</time>
      </trkpt>
      <trkpt lat="44.058" lon="4.37503">
        <ele>260.9</ele>
        <time>2011-11-27T10:35:58Z</time>
      </trkpt>
      <trkpt lat="44.05793" lon="4.375">
        <ele>260.3</ele>
        <time>2011-11-27T10:35:59Z</time>
      </trkpt>
      <trkpt lat="44.05787" lon="4.37495">
        <ele>259.8</ele>
        <time>2011-11-27T10:36:00Z</time>
      </trkpt>
      <trkpt lat="44.05781" lon="4.37487">
        <ele>259.5</ele>
        <time>2011-11-27T10:36:01Z</time>
      </trkpt>
      <trkpt lat="44.05777" lon="4.37478">
        <ele>259.6</ele>
        <time>2011-11-27T10:36:02Z</time>
      </trkpt>
      <trkpt lat="44.05774" lon="4.37469">
        <ele>259.5</ele>
        <time>2011-11-27T10:36:03Z</time>
      </trkpt>
      <trkpt lat="44.05771" lon="4.3746">
        <ele>259.4</ele>
        <time>2011-11-27T10:36:04Z</time>
      </trkpt>
      <trkpt lat="44.05768" lon="4.37451">
        <ele>259.3</ele>
        <time>2011-11-27T10:36:05Z</time>
      </trkpt>
      <trkpt lat="44.05765" lon="4.37442">
        <ele>258.9</ele>
        <time>2011-11-27T10:36:06Z</time>
      </trkpt>
      <trkpt lat="44.05762" lon="4.37432">
        <ele>258.4</ele>
        <time>2011-11-27T10:36:07Z</time>
      </trkpt>
      <trkpt lat="44.05758" lon="4.37423">
        <ele>257.7</ele>
        <time>2011-11-27T10:36:08Z</time>
      </trkpt>
      <trkpt lat="44.05754" lon="4.37413">
        <ele>257.1</ele>
        <time>2011-11-27T10:36:09Z</time>
      </trkpt>
      <trkpt lat="44.05752" lon="4.37402">
        <ele>256.7</ele>
        <time>2011-11-27T10:36:10Z</time>
      </trkpt>
      <trkpt lat="44.0575" lon="4.37389">
        <ele>256.2</ele>
        <time>2011-11-27T10:36:11Z</time>
      </trkpt>
      <trkpt lat="44.0575" lon="4.37377">
        <ele>255.6</ele>
        <time>2011-11-27T10:36:12Z</time>
      </trkpt>
      <trkpt lat="44.05749" lon="4.37366">
        <ele>255.3</ele>
        <time>2011-11-27T10:36:13Z</time>
      </trkpt>
      <trkpt lat="44.0575" lon="4.37356">
        <ele>254.8</ele>
        <time>2011-11-27T10:36:14Z</time>
      </trkpt>
      <trkpt lat="44.05751" lon="4.37347">
        <ele>254.9</ele>
        <time>2011-11-27T10:36:15Z</time>
      </trkpt>
      <trkpt lat="44.05752" lon="4.3734">
        <ele>254.9</ele>
        <time>2011-11-27T10:36:16Z</time>
      </trkpt>
      <trkpt lat="44.05752" lon="4.37334">
        <ele>254.9</ele>
        <time>2011-11-27T10:36:17Z</time>
      </trkpt>
      <trkpt lat="44.05751" lon="4.37321">
        <ele>254.7</ele>
        <time>2011-11-27T10:36:19Z</time>
      </trkpt>
      <trkpt lat="44.05748" lon="4.37312">
        <ele>254.8</ele>
        <time>2011-11-27T10:36:21Z</time>
      </trkpt>
      <trkpt lat="44.05747" lon="4.37301">
        <ele>254.5</ele>
        <time>2011-11-27T10:36:23Z</time>
      </trkpt>
      <trkpt lat="44.05746" lon="4.37291">
        <ele>254.4</ele>
        <time>2011-11-27T10:36:25Z</time>
      </trkpt>
      <trkpt lat="44.05741" lon="4.37292">
        <ele>254.4</ele>
        <time>2011-11-27T10:36:28Z</time>
      </trkpt>
      <trkpt lat="44.0574" lon="4.37298">
        <ele>253.5</ele>
        <time>2011-11-27T10:38:09Z</time>
      </trkpt>
      <trkpt lat="44.05734" lon="4.37299">
        <ele>252.9</ele>
        <time>2011-11-27T10:38:11Z</time>
      </trkpt>
      <trkpt lat="44.05729" lon="4.37299">
        <ele>252.6</ele>
        <time>2011-11-27T10:38:12Z</time>
      </trkpt>
      <trkpt lat="44.05723" lon="4.37299">
        <ele>252.2</ele>
        <time>2011-11-27T10:38:13Z</time>
      </trkpt>
      <trkpt lat="44.05717" lon="4.37299">
        <ele>251.8</ele>
        <time>2011-11-27T10:38:14Z</time>
      </trkpt>
      <trkpt lat="44.05709" lon="4.373">
        <ele>251.2</ele>
        <time>2011-11-27T10:38:15Z</time>
      </trkpt>
      <trkpt lat="44.05671" lon="4.37308">
        <ele>250.1</ele>
        <time>2011-11-27T10:38:16Z</time>
      </trkpt>
      <trkpt lat="44.05663" lon="4.37308">
        <ele>248.2</ele>
        <time>2011-11-27T10:38:17Z</time>
      </trkpt>
      <trkpt lat="44.05654" lon="4.3731">
        <ele>247</ele>
        <time>2011-11-27T10:38:18Z</time>
      </trkpt>
      <trkpt lat="44.05646" lon="4.37311">
        <ele>245.5</ele>
        <time>2011-11-27T10:38:19Z</time>
      </trkpt>
      <trkpt lat="44.05636" lon="4.37312">
        <ele>243.8</ele>
        <time>2011-11-27T10:38:20Z</time>
      </trkpt>
      <trkpt lat="44.05627" lon="4.37313">
        <ele>241.9</ele>
        <time>2011-11-27T10:38:21Z</time>
      </trkpt>
      <trkpt lat="44.05619" lon="4.37316">
        <ele>240.3</ele>
        <time>2011-11-27T10:38:22Z</time>
      </trkpt>
      <trkpt lat="44.05611" lon="4.3732">
        <ele>238.9</ele>
        <time>2011-11-27T10:38:23Z</time>
      </trkpt>
      <trkpt lat="44.05605" lon="4.37326">
        <ele>237.6</ele>
        <time>2011-11-27T10:38:24Z</time>
      </trkpt>
      <trkpt lat="44.05601" lon="4.37333">
        <ele>236.6</ele>
        <time>2011-11-27T10:38:25Z</time>
      </trkpt>
      <trkpt lat="44.05598" lon="4.37341">
        <ele>234.1</ele>
        <time>2011-11-27T10:38:26Z</time>
      </trkpt>
      <trkpt lat="44.05594" lon="4.37348">
        <ele>231.9</ele>
        <time>2011-11-27T10:38:27Z</time>
      </trkpt>
      <trkpt lat="44.0559" lon="4.37354">
        <ele>230.2</ele>
        <time>2011-11-27T10:38:28Z</time>
      </trkpt>
      <trkpt lat="44.05584" lon="4.37359">
        <ele>229.1</ele>
        <time>2011-11-27T10:38:29Z</time>
      </trkpt>
      <trkpt lat="44.0558" lon="4.37363">
        <ele>228.8</ele>
        <time>2011-11-27T10:38:30Z</time>
      </trkpt>
      <trkpt lat="44.05575" lon="4.37367">
        <ele>228.6</ele>
        <time>2011-11-27T10:38:31Z</time>
      </trkpt>
      <trkpt lat="44.05571" lon="4.37371">
        <ele>228.6</ele>
        <time>2011-11-27T10:38:32Z</time>
      </trkpt>
      <trkpt lat="44.05567" lon="4.37375">
        <ele>228.1</ele>
        <time>2011-11-27T10:38:33Z</time>
      </trkpt>
      <trkpt lat="44.05564" lon="4.3738">
        <ele>228.2</ele>
        <time>2011-11-27T10:38:34Z</time>
      </trkpt>
      <trkpt lat="44.05561" lon="4.37384">
        <ele>228.2</ele>
        <time>2011-11-27T10:38:35Z</time>
      </trkpt>
      <trkpt lat="44.05554" lon="4.37389">
        <ele>229</ele>
        <time>2011-11-27T10:38:37Z</time>
      </trkpt>
      <trkpt lat="44.05546" lon="4.37389">
        <ele>231.2</ele>
        <time>2011-11-27T10:38:39Z</time>
      </trkpt>
      <trkpt lat="44.05539" lon="4.37388">
        <ele>232.9</ele>
        <time>2011-11-27T10:38:41Z</time>
      </trkpt>
      <trkpt lat="44.05534" lon="4.37387">
        <ele>234</ele>
        <time>2011-11-27T10:38:43Z</time>
      </trkpt>
      <trkpt lat="44.05527" lon="4.37386">
        <ele>234.9</ele>
        <time>2011-11-27T10:38:45Z</time>
      </trkpt>
      <trkpt lat="44.05518" lon="4.37384">
        <ele>235.5</ele>
        <time>2011-11-27T10:38:47Z</time>
      </trkpt>
      <trkpt lat="44.05511" lon="4.37381">
        <ele>236.4</ele>
        <time>2011-11-27T10:38:49Z</time>
      </trkpt>
      <trkpt lat="44.05505" lon="4.37378">
        <ele>236.9</ele>
        <time>2011-11-27T10:38:51Z</time>
      </trkpt>
      <trkpt lat="44.055" lon="4.37376">
        <ele>237.3</ele>
        <time>2011-11-27T10:38:53Z</time>
      </trkpt>
      <trkpt lat="44.05494" lon="4.37372">
        <ele>237.9</ele>
        <time>2011-11-27T10:38:56Z</time>
      </trkpt>
      <trkpt lat="44.05492" lon="4.37364">
        <ele>239</ele>
        <time>2011-11-27T10:38:59Z</time>
      </trkpt>
      <trkpt lat="44.05489" lon="4.37358">
        <ele>239.3</ele>
        <time>2011-11-27T10:39:01Z</time>
      </trkpt>
      <trkpt lat="44.05487" lon="4.37351">
        <ele>239.6</ele>
        <time>2011-11-27T10:39:03Z</time>
      </trkpt>
      <trkpt lat="44.05484" lon="4.37343">
        <ele>239.6</ele>
        <time>2011-11-27T10:39:05Z</time>
      </trkpt>
      <trkpt lat="44.0548" lon="4.37334">
        <ele>239.9</ele>
        <time>2011-11-27T10:39:07Z</time>
      </trkpt>
      <trkpt lat="44.05477" lon="4.37325">
        <ele>240.2</ele>
        <time>2011-11-27T10:39:09Z</time>
      </trkpt>
      <trkpt lat="44.05473" lon="4.37317">
        <ele>240.5</ele>
        <time>2011-11-27T10:39:11Z</time>
      </trkpt>
      <trkpt lat="44.05469" lon="4.37312">
        <ele>241.1</ele>
        <time>2011-11-27T10:39:13Z</time>
      </trkpt>
      <trkpt lat="44.05465" lon="4.37309">
        <ele>241</ele>
        <time>2011-11-27T10:39:15Z</time>
      </trkpt>
      <trkpt lat="44.0546" lon="4.37306">
        <ele>240.8</ele>
        <time>2011-11-27T10:39:17Z</time>
      </trkpt>
      <trkpt lat="44.05454" lon="4.37302">
        <ele>240.6</ele>
        <time>2011-11-27T10:39:19Z</time>
      </trkpt>
      <trkpt lat="44.05448" lon="4.37301">
        <ele>240.3</ele>
        <time>2011-11-27T10:39:21Z</time>
      </trkpt>
      <trkpt lat="44.05439" lon="4.37299">
        <ele>240.1</ele>
        <time>2011-11-27T10:39:23Z</time>
      </trkpt>
      <trkpt lat="44.05434" lon="4.37298">
        <ele>239.9</ele>
        <time>2011-11-27T10:39:24Z</time>
      </trkpt>
      <trkpt lat="44.05429" lon="4.37298">
        <ele>239.6</ele>
        <time>2011-11-27T10:39:25Z</time>
      </trkpt>
      <trkpt lat="44.05422" lon="4.37298">
        <ele>239.2</ele>
        <time>2011-11-27T10:39:26Z</time>
      </trkpt>
      <trkpt lat="44.05415" lon="4.37298">
        <ele>239.1</ele>
        <time>2011-11-27T10:39:27Z</time>
      </trkpt>
      <trkpt lat="44.05378" lon="4.37303">
        <ele>238.7</ele>
        <time>2011-11-27T10:39:28Z</time>
      </trkpt>
      <trkpt lat="44.0537" lon="4.37304">
        <ele>237.8</ele>
        <time>2011-11-27T10:39:29Z</time>
      </trkpt>
      <trkpt lat="44.05362" lon="4.37304">
        <ele>237.1</ele>
        <time>2011-11-27T10:39:30Z</time>
      </trkpt>
      <trkpt lat="44.05354" lon="4.37305">
        <ele>236.2</ele>
        <time>2011-11-27T10:39:31Z</time>
      </trkpt>
      <trkpt lat="44.05344" lon="4.37306">
        <ele>235.6</ele>
        <time>2011-11-27T10:39:32Z</time>
      </trkpt>
      <trkpt lat="44.05335" lon="4.37307">
        <ele>235.2</ele>
        <time>2011-11-27T10:39:33Z</time>
      </trkpt>
      <trkpt lat="44.05325" lon="4.37308">
        <ele>235</ele>
        <time>2011-11-27T10:39:34Z</time>
      </trkpt>
      <trkpt lat="44.05315" lon="4.37307">
        <ele>234.2</ele>
        <time>2011-11-27T10:39:35Z</time>
      </trkpt>
      <trkpt lat="44.05305" lon="4.37307">
        <ele>232.5</ele>
        <time>2011-11-27T10:39:36Z</time>
      </trkpt>
      <trkpt lat="44.05295" lon="4.37306">
        <ele>231.1</ele>
        <time>2011-11-27T10:39:37Z</time>
      </trkpt>
      <trkpt lat="44.05286" lon="4.37308">
        <ele>229.6</ele>
        <time>2011-11-27T10:39:38Z</time>
      </trkpt>
      <trkpt lat="44.05278" lon="4.3731">
        <ele>228.2</ele>
        <time>2011-11-27T10:39:39Z</time>
      </trkpt>
      <trkpt lat="44.05273" lon="4.37313">
        <ele>226.5</ele>
        <time>2011-11-27T10:39:40Z</time>
      </trkpt>
      <trkpt lat="44.05268" lon="4.37316">
        <ele>224.4</ele>
        <time>2011-11-27T10:39:42Z</time>
      </trkpt>
      <trkpt lat="44.05263" lon="4.37314">
        <ele>223.1</ele>
        <time>2011-11-27T10:39:46Z</time>
      </trkpt>
      <trkpt lat="44.05257" lon="4.37308">
        <ele>222.9</ele>
        <time>2011-11-27T10:39:48Z</time>
      </trkpt>
      <trkpt lat="44.05252" lon="4.37302">
        <ele>222.4</ele>
        <time>2011-11-27T10:39:50Z</time>
      </trkpt>
      <trkpt lat="44.05248" lon="4.37295">
        <ele>222.9</ele>
        <time>2011-11-27T10:39:52Z</time>
      </trkpt>
      <trkpt lat="44.05242" lon="4.37286">
        <ele>222.8</ele>
        <time>2011-11-27T10:39:54Z</time>
      </trkpt>
      <trkpt lat="44.05238" lon="4.37281">
        <ele>222.9</ele>
        <time>2011-11-27T10:39:55Z</time>
      </trkpt>
      <trkpt lat="44.05234" lon="4.37276">
        <ele>223.2</ele>
        <time>2011-11-27T10:39:56Z</time>
      </trkpt>
      <trkpt lat="44.05229" lon="4.37269">
        <ele>223.5</ele>
        <time>2011-11-27T10:39:57Z</time>
      </trkpt>
      <trkpt lat="44.05226" lon="4.37263">
        <ele>224.1</ele>
        <time>2011-11-27T10:39:58Z</time>
      </trkpt>
      <trkpt lat="44.05222" lon="4.37256">
        <ele>224.5</ele>
        <time>2011-11-27T10:39:59Z</time>
      </trkpt>
      <trkpt lat="44.05218" lon="4.37248">
        <ele>225</ele>
        <time>2011-11-27T10:40:00Z</time>
      </trkpt>
      <trkpt lat="44.05214" lon="4.3724">
        <ele>225.6</ele>
        <time>2011-11-27T10:40:01Z</time>
      </trkpt>
      <trkpt lat="44.0521" lon="4.37232">
        <ele>226.2</ele>
        <time>2011-11-27T10:40:02Z</time>
      </trkpt>
      <trkpt lat="44.05207" lon="4.37226">
        <ele>226.4</ele>
        <time>2011-11-27T10:40:03Z</time>
      </trkpt>
      <trkpt lat="44.05203" lon="4.37219">
        <ele>226.9</ele>
        <time>2011-11-27T10:40:04Z</time>
      </trkpt>
      <trkpt lat="44.05199" lon="4.37212">
        <ele>227.2</ele>
        <time>2011-11-27T10:40:05Z</time>
      </trkpt>
      <trkpt lat="44.05195" lon="4.37205">
        <ele>227.6</ele>
        <time>2011-11-27T10:40:06Z</time>
      </trkpt>
      <trkpt lat="44.0519" lon="4.37198">
        <ele>227.8</ele>
        <time>2011-11-27T10:40:07Z</time>
      </trkpt>
      <trkpt lat="44.05185" lon="4.37191">
        <ele>228</ele>
        <time>2011-11-27T10:40:08Z</time>
      </trkpt>
      <trkpt lat="44.0518" lon="4.37183">
        <ele>226.9</ele>
        <time>2011-11-27T10:40:09Z</time>
      </trkpt>
      <trkpt lat="44.05176" lon="4.37175">
        <ele>226.5</ele>
        <time>2011-11-27T10:40:10Z</time>
      </trkpt>
      <trkpt lat="44.05171" lon="4.37168">
        <ele>226.2</ele>
        <time>2011-11-27T10:40:11Z</time>
      </trkpt>
      <trkpt lat="44.05167" lon="4.37162">
        <ele>226.2</ele>
        <time>2011-11-27T10:40:12Z</time>
      </trkpt>
      <trkpt lat="44.05164" lon="4.37157">
        <ele>226.3</ele>
        <time>2011-11-27T10:40:13Z</time>
      </trkpt>
      <trkpt lat="44.05161" lon="4.37149">
        <ele>224.8</ele>
        <time>2011-11-27T10:40:39Z</time>
      </trkpt>
      <trkpt lat="44.05158" lon="4.37143">
        <ele>225.2</ele>
        <time>2011-11-27T10:40:41Z</time>
      </trkpt>
      <trkpt lat="44.05155" lon="4.37133">
        <ele>225.3</ele>
        <time>2011-11-27T10:40:43Z</time>
      </trkpt>
      <trkpt lat="44.05152" lon="4.37127">
        <ele>225.1</ele>
        <time>2011-11-27T10:40:44Z</time>
      </trkpt>
      <trkpt lat="44.0515" lon="4.37121">
        <ele>225.1</ele>
        <time>2011-11-27T10:40:45Z</time>
      </trkpt>
      <trkpt lat="44.05147" lon="4.37114">
        <ele>225.3</ele>
        <time>2011-11-27T10:40:46Z</time>
      </trkpt>
      <trkpt lat="44.05145" lon="4.37108">
        <ele>225.4</ele>
        <time>2011-11-27T10:40:47Z</time>
      </trkpt>
      <trkpt lat="44.05142" lon="4.371">
        <ele>225.4</ele>
        <time>2011-11-27T10:40:48Z</time>
      </trkpt>
      <trkpt lat="44.0514" lon="4.37093">
        <ele>225.2</ele>
        <time>2011-11-27T10:40:49Z</time>
      </trkpt>
      <trkpt lat="44.05137" lon="4.37086">
        <ele>225.3</ele>
        <time>2011-11-27T10:40:50Z</time>
      </trkpt>
      <trkpt lat="44.05135" lon="4.37079">
        <ele>225.5</ele>
        <time>2011-11-27T10:40:51Z</time>
      </trkpt>
      <trkpt lat="44.05132" lon="4.3707">
        <ele>225.5</ele>
        <time>2011-11-27T10:40:52Z</time>
      </trkpt>
      <trkpt lat="44.0513" lon="4.37064">
        <ele>225.6</ele>
        <time>2011-11-27T10:40:53Z</time>
      </trkpt>
      <trkpt lat="44.05127" lon="4.37058">
        <ele>225.7</ele>
        <time>2011-11-27T10:40:54Z</time>
      </trkpt>
      <trkpt lat="44.05124" lon="4.37052">
        <ele>225.7</ele>
        <time>2011-11-27T10:40:55Z</time>
      </trkpt>
      <trkpt lat="44.05122" lon="4.37046">
        <ele>226</ele>
        <time>2011-11-27T10:40:56Z</time>
      </trkpt>
      <trkpt lat="44.0512" lon="4.3704">
        <ele>225.9</ele>
        <time>2011-11-27T10:40:57Z</time>
      </trkpt>
      <trkpt lat="44.05118" lon="4.37034">
        <ele>226</ele>
        <time>2011-11-27T10:40:58Z</time>
      </trkpt>
      <trkpt lat="44.05117" lon="4.37023">
        <ele>226.1</ele>
        <time>2011-11-27T10:41:00Z</time>
      </trkpt>
      <trkpt lat="44.05117" lon="4.37017">
        <ele>226.2</ele>
        <time>2011-11-27T10:41:01Z</time>
      </trkpt>
      <trkpt lat="44.05117" lon="4.37009">
        <ele>226.3</ele>
        <time>2011-11-27T10:41:02Z</time>
      </trkpt>
      <trkpt lat="44.05117" lon="4.37002">
        <ele>226.2</ele>
        <time>2011-11-27T10:41:03Z</time>
      </trkpt>
      <trkpt lat="44.05117" lon="4.36994">
        <ele>226.4</ele>
        <time>2011-11-27T10:41:04Z</time>
      </trkpt>
      <trkpt lat="44.05117" lon="4.36986">
        <ele>226.4</ele>
        <time>2011-11-27T10:41:05Z</time>
      </trkpt>
      <trkpt lat="44.05116" lon="4.36978">
        <ele>226.5</ele>
        <time>2011-11-27T10:41:06Z</time>
      </trkpt>
      <trkpt lat="44.05116" lon="4.3697">
        <ele>226.6</ele>
        <time>2011-11-27T10:41:07Z</time>
      </trkpt>
      <trkpt lat="44.05116" lon="4.36963">
        <ele>226.7</ele>
        <time>2011-11-27T10:41:08Z</time>
      </trkpt>
      <trkpt lat="44.05115" lon="4.36956">
        <ele>226.8</ele>
        <time>2011-11-27T10:41:09Z</time>
      </trkpt>
      <trkpt lat="44.05116" lon="4.36943">
        <ele>226.8</ele>
        <time>2011-11-27T10:41:11Z</time>
      </trkpt>
      <trkpt lat="44.05117" lon="4.36936">
        <ele>226.8</ele>
        <time>2011-11-27T10:41:12Z</time>
      </trkpt>
      <trkpt lat="44.05118" lon="4.36929">
        <ele>226.9</ele>
        <time>2011-11-27T10:41:13Z</time>
      </trkpt>
      <trkpt lat="44.05119" lon="4.36918">
        <ele>226.8</ele>
        <time>2011-11-27T10:41:15Z</time>
      </trkpt>
      <trkpt lat="44.05119" lon="4.36908">
        <ele>226.5</ele>
        <time>2011-11-27T10:41:17Z</time>
      </trkpt>
      <trkpt lat="44.05119" lon="4.36902">
        <ele>226.5</ele>
        <time>2011-11-27T10:41:18Z</time>
      </trkpt>
      <trkpt lat="44.05118" lon="4.36895">
        <ele>226.5</ele>
        <time>2011-11-27T10:41:19Z</time>
      </trkpt>
      <trkpt lat="44.05118" lon="4.36888">
        <ele>226.3</ele>
        <time>2011-11-27T10:41:20Z</time>
      </trkpt>
      <trkpt lat="44.05119" lon="4.36878">
        <ele>225.5</ele>
        <time>2011-11-27T10:41:22Z</time>
      </trkpt>
      <trkpt lat="44.0512" lon="4.36866">
        <ele>225.2</ele>
        <time>2011-11-27T10:41:24Z</time>
      </trkpt>
      <trkpt lat="44.0512" lon="4.36854">
        <ele>224.7</ele>
        <time>2011-11-27T10:41:26Z</time>
      </trkpt>
      <trkpt lat="44.05121" lon="4.36847">
        <ele>224.3</ele>
        <time>2011-11-27T10:41:27Z</time>
      </trkpt>
      <trkpt lat="44.05121" lon="4.36839">
        <ele>223.4</ele>
        <time>2011-11-27T10:41:28Z</time>
      </trkpt>
      <trkpt lat="44.05121" lon="4.36832">
        <ele>222.8</ele>
        <time>2011-11-27T10:41:29Z</time>
      </trkpt>
      <trkpt lat="44.05121" lon="4.36825">
        <ele>222.4</ele>
        <time>2011-11-27T10:41:30Z</time>
      </trkpt>
      <trkpt lat="44.05121" lon="4.36812">
        <ele>221</ele>
        <time>2011-11-27T10:41:32Z</time>
      </trkpt>
      <trkpt lat="44.05121" lon="4.368">
        <ele>220</ele>
        <time>2011-11-27T10:41:34Z</time>
      </trkpt>
      <trkpt lat="44.0512" lon="4.36788">
        <ele>218.9</ele>
        <time>2011-11-27T10:41:36Z</time>
      </trkpt>
      <trkpt lat="44.0512" lon="4.36781">
        <ele>218.4</ele>
        <time>2011-11-27T10:41:37Z</time>
      </trkpt>
      <trkpt lat="44.0512" lon="4.36771">
        <ele>218.9</ele>
        <time>2011-11-27T10:41:39Z</time>
      </trkpt>
      <trkpt lat="44.05121" lon="4.36765">
        <ele>218.4</ele>
        <time>2011-11-27T10:41:40Z</time>
      </trkpt>
      <trkpt lat="44.05123" lon="4.36758">
        <ele>217.4</ele>
        <time>2011-11-27T10:41:41Z</time>
      </trkpt>
      <trkpt lat="44.05125" lon="4.36751">
        <ele>216.3</ele>
        <time>2011-11-27T10:41:42Z</time>
      </trkpt>
      <trkpt lat="44.05128" lon="4.36744">
        <ele>215.3</ele>
        <time>2011-11-27T10:41:43Z</time>
      </trkpt>
      <trkpt lat="44.05131" lon="4.36735">
        <ele>214.8</ele>
        <time>2011-11-27T10:41:44Z</time>
      </trkpt>
      <trkpt lat="44.05134" lon="4.36729">
        <ele>214.6</ele>
        <time>2011-11-27T10:41:45Z</time>
      </trkpt>
      <trkpt lat="44.05138" lon="4.36723">
        <ele>214.1</ele>
        <time>2011-11-27T10:41:46Z</time>
      </trkpt>
      <trkpt lat="44.05142" lon="4.36716">
        <ele>213.6</ele>
        <time>2011-11-27T10:41:47Z</time>
      </trkpt>
      <trkpt lat="44.05146" lon="4.3671">
        <ele>212.9</ele>
        <time>2011-11-27T10:41:48Z</time>
      </trkpt>
      <trkpt lat="44.0515" lon="4.36704">
        <ele>212.4</ele>
        <time>2011-11-27T10:41:49Z</time>
      </trkpt>
      <trkpt lat="44.05152" lon="4.36699">
        <ele>212</ele>
        <time>2011-11-27T10:41:50Z</time>
      </trkpt>
      <trkpt lat="44.05155" lon="4.36693">
        <ele>203.2</ele>
        <time>2011-11-27T10:44:12Z</time>
      </trkpt>
      <trkpt lat="44.05158" lon="4.36685">
        <ele>203</ele>
        <time>2011-11-27T10:44:14Z</time>
      </trkpt>
      <trkpt lat="44.05161" lon="4.3668">
        <ele>203</ele>
        <time>2011-11-27T10:44:15Z</time>
      </trkpt>
      <trkpt lat="44.05166" lon="4.36674">
        <ele>203.1</ele>
        <time>2011-11-27T10:44:16Z</time>
      </trkpt>
      <trkpt lat="44.0517" lon="4.36668">
        <ele>203.2</ele>
        <time>2011-11-27T10:44:17Z</time>
      </trkpt>
      <trkpt lat="44.05174" lon="4.36662">
        <ele>203.1</ele>
        <time>2011-11-27T10:44:18Z</time>
      </trkpt>
      <trkpt lat="44.05178" lon="4.36656">
        <ele>202.9</ele>
        <time>2011-11-27T10:44:19Z</time>
      </trkpt>
      <trkpt lat="44.05182" lon="4.36649">
        <ele>202.6</ele>
        <time>2011-11-27T10:44:20Z</time>
      </trkpt>
      <trkpt lat="44.05186" lon="4.36643">
        <ele>202.5</ele>
        <time>2011-11-27T10:44:21Z</time>
      </trkpt>
      <trkpt lat="44.05189" lon="4.36635">
        <ele>202.3</ele>
        <time>2011-11-27T10:44:22Z</time>
      </trkpt>
      <trkpt lat="44.05191" lon="4.36627">
        <ele>202</ele>
        <time>2011-11-27T10:44:23Z</time>
      </trkpt>
      <trkpt lat="44.05192" lon="4.36619">
        <ele>202.2</ele>
        <time>2011-11-27T10:44:24Z</time>
      </trkpt>
      <trkpt lat="44.05194" lon="4.36611">
        <ele>202.3</ele>
        <time>2011-11-27T10:44:25Z</time>
      </trkpt>
      <trkpt lat="44.05196" lon="4.36603">
        <ele>202.3</ele>
        <time>2011-11-27T10:44:26Z</time>
      </trkpt>
      <trkpt lat="44.05198" lon="4.36595">
        <ele>202.4</ele>
        <time>2011-11-27T10:44:27Z</time>
      </trkpt>
      <trkpt lat="44.052" lon="4.36588">
        <ele>202.2</ele>
        <time>2011-11-27T10:44:28Z</time>
      </trkpt>
      <trkpt lat="44.05202" lon="4.36582">
        <ele>201.8</ele>
        <time>2011-11-27T10:44:29Z</time>
      </trkpt>
      <trkpt lat="44.05204" lon="4.36572">
        <ele>201</ele>
        <time>2011-11-27T10:44:31Z</time>
      </trkpt>
      <trkpt lat="44.05206" lon="4.36562">
        <ele>201.3</ele>
        <time>2011-11-27T10:44:33Z</time>
      </trkpt>
      <trkpt lat="44.05208" lon="4.3655">
        <ele>201.3</ele>
        <time>2011-11-27T10:44:35Z</time>
      </trkpt>
      <trkpt lat="44.05211" lon="4.36538">
        <ele>201.3</ele>
        <time>2011-11-27T10:44:37Z</time>
      </trkpt>
      <trkpt lat="44.05212" lon="4.36532">
        <ele>201.3</ele>
        <time>2011-11-27T10:44:38Z</time>
      </trkpt>
      <trkpt lat="44.05213" lon="4.36525">
        <ele>201.4</ele>
        <time>2011-11-27T10:44:39Z</time>
      </trkpt>
      <trkpt lat="44.05214" lon="4.36515">
        <ele>201.6</ele>
        <time>2011-11-27T10:44:41Z</time>
      </trkpt>
      <trkpt lat="44.05213" lon="4.36509">
        <ele>201.6</ele>
        <time>2011-11-27T10:44:50Z</time>
      </trkpt>
      <trkpt lat="44.05214" lon="4.36525">
        <ele>196.9</ele>
        <time>2011-11-27T10:45:15Z</time>
      </trkpt>
      <trkpt lat="44.05215" lon="4.36516">
        <ele>196.7</ele>
        <time>2011-11-27T10:45:17Z</time>
      </trkpt>
      <trkpt lat="44.05216" lon="4.36506">
        <ele>197.2</ele>
        <time>2011-11-27T10:45:19Z</time>
      </trkpt>
      <trkpt lat="44.05216" lon="4.36493">
        <ele>197.7</ele>
        <time>2011-11-27T10:45:21Z</time>
      </trkpt>
      <trkpt lat="44.05218" lon="4.36484">
        <ele>198.1</ele>
        <time>2011-11-27T10:45:22Z</time>
      </trkpt>
      <trkpt lat="44.05219" lon="4.36475">
        <ele>198.2</ele>
        <time>2011-11-27T10:45:23Z</time>
      </trkpt>
      <trkpt lat="44.0522" lon="4.36466">
        <ele>198.2</ele>
        <time>2011-11-27T10:45:24Z</time>
      </trkpt>
      <trkpt lat="44.05221" lon="4.36457">
        <ele>198.3</ele>
        <time>2011-11-27T10:45:25Z</time>
      </trkpt>
      <trkpt lat="44.05221" lon="4.36447">
        <ele>198.4</ele>
        <time>2011-11-27T10:45:26Z</time>
      </trkpt>
      <trkpt lat="44.0522" lon="4.36438">
        <ele>198.3</ele>
        <time>2011-11-27T10:45:27Z</time>
      </trkpt>
      <trkpt lat="44.0522" lon="4.36428">
        <ele>198.1</ele>
        <time>2011-11-27T10:45:28Z</time>
      </trkpt>
      <trkpt lat="44.05224" lon="4.36378">
        <ele>197.9</ele>
        <time>2011-11-27T10:45:29Z</time>
      </trkpt>
      <trkpt lat="44.05224" lon="4.36368">
        <ele>197.5</ele>
        <time>2011-11-27T10:45:30Z</time>
      </trkpt>
      <trkpt lat="44.05225" lon="4.36358">
        <ele>196.6</ele>
        <time>2011-11-27T10:45:31Z</time>
      </trkpt>
      <trkpt lat="44.05227" lon="4.36349">
        <ele>195.8</ele>
        <time>2011-11-27T10:45:32Z</time>
      </trkpt>
      <trkpt lat="44.05228" lon="4.3634">
        <ele>195.5</ele>
        <time>2011-11-27T10:45:33Z</time>
      </trkpt>
      <trkpt lat="44.0523" lon="4.36332">
        <ele>194.9</ele>
        <time>2011-11-27T10:45:34Z</time>
      </trkpt>
      <trkpt lat="44.05231" lon="4.36324">
        <ele>194.5</ele>
        <time>2011-11-27T10:45:35Z</time>
      </trkpt>
      <trkpt lat="44.05233" lon="4.36317">
        <ele>194.4</ele>
        <time>2011-11-27T10:45:36Z</time>
      </trkpt>
      <trkpt lat="44.05235" lon="4.36311">
        <ele>194.4</ele>
        <time>2011-11-27T10:45:37Z</time>
      </trkpt>
      <trkpt lat="44.05238" lon="4.36302">
        <ele>195.5</ele>
        <time>2011-11-27T10:45:39Z</time>
      </trkpt>
      <trkpt lat="44.05242" lon="4.36293">
        <ele>195.2</ele>
        <time>2011-11-27T10:45:41Z</time>
      </trkpt>
      <trkpt lat="44.05245" lon="4.36284">
        <ele>194.3</ele>
        <time>2011-11-27T10:45:43Z</time>
      </trkpt>
      <trkpt lat="44.05247" lon="4.36278">
        <ele>194.1</ele>
        <time>2011-11-27T10:45:44Z</time>
      </trkpt>
      <trkpt lat="44.05249" lon="4.36271">
        <ele>193.9</ele>
        <time>2011-11-27T10:45:45Z</time>
      </trkpt>
      <trkpt lat="44.05251" lon="4.36264">
        <ele>194.1</ele>
        <time>2011-11-27T10:45:46Z</time>
      </trkpt>
      <trkpt lat="44.05253" lon="4.36256">
        <ele>194.6</ele>
        <time>2011-11-27T10:45:47Z</time>
      </trkpt>
      <trkpt lat="44.05254" lon="4.36247">
        <ele>195.2</ele>
        <time>2011-11-27T10:45:48Z</time>
      </trkpt>
      <trkpt lat="44.05256" lon="4.36239">
        <ele>195.6</ele>
        <time>2011-11-27T10:45:49Z</time>
      </trkpt>
      <trkpt lat="44.05258" lon="4.36229">
        <ele>195.7</ele>
        <time>2011-11-27T10:45:50Z</time>
      </trkpt>
      <trkpt lat="44.0526" lon="4.3622">
        <ele>196</ele>
        <time>2011-11-27T10:45:51Z</time>
      </trkpt>
      <trkpt lat="44.05262" lon="4.36211">
        <ele>196.1</ele>
        <time>2011-11-27T10:45:52Z</time>
      </trkpt>
      <trkpt lat="44.05264" lon="4.36202">
        <ele>196.3</ele>
        <time>2011-11-27T10:45:53Z</time>
      </trkpt>
      <trkpt lat="44.05266" lon="4.36193">
        <ele>196.5</ele>
        <time>2011-11-27T10:45:54Z</time>
      </trkpt>
      <trkpt lat="44.05267" lon="4.36185">
        <ele>196.6</ele>
        <time>2011-11-27T10:45:55Z</time>
      </trkpt>
      <trkpt lat="44.05268" lon="4.36176">
        <ele>196.9</ele>
        <time>2011-11-27T10:45:56Z</time>
      </trkpt>
      <trkpt lat="44.05268" lon="4.36168">
        <ele>197.4</ele>
        <time>2011-11-27T10:45:57Z</time>
      </trkpt>
      <trkpt lat="44.05269" lon="4.36159">
        <ele>197.6</ele>
        <time>2011-11-27T10:45:58Z</time>
      </trkpt>
      <trkpt lat="44.05268" lon="4.3615">
        <ele>197.9</ele>
        <time>2011-11-27T10:45:59Z</time>
      </trkpt>
      <trkpt lat="44.05268" lon="4.3614">
        <ele>198.3</ele>
        <time>2011-11-27T10:46:00Z</time>
      </trkpt>
      <trkpt lat="44.05268" lon="4.36131">
        <ele>197.7</ele>
        <time>2011-11-27T10:46:01Z</time>
      </trkpt>
      <trkpt lat="44.05267" lon="4.36123">
        <ele>196.6</ele>
        <time>2011-11-27T10:46:02Z</time>
      </trkpt>
      <trkpt lat="44.05266" lon="4.36115">
        <ele>194.9</ele>
        <time>2011-11-27T10:46:04Z</time>
      </trkpt>
      <trkpt lat="44.05265" lon="4.36105">
        <ele>191.7</ele>
        <time>2011-11-27T10:46:16Z</time>
      </trkpt>
      <trkpt lat="44.05265" lon="4.36111">
        <ele>188</ele>
        <time>2011-11-27T10:46:20Z</time>
      </trkpt>
      <trkpt lat="44.05269" lon="4.36108">
        <ele>188.2</ele>
        <time>2011-11-27T10:46:43Z</time>
      </trkpt>
      <trkpt lat="44.05267" lon="4.36102">
        <ele>188.4</ele>
        <time>2011-11-27T10:46:47Z</time>
      </trkpt>
      <trkpt lat="44.05266" lon="4.36092">
        <ele>188.9</ele>
        <time>2011-11-27T10:46:50Z</time>
      </trkpt>
      <trkpt lat="44.05266" lon="4.36084">
        <ele>189.3</ele>
        <time>2011-11-27T10:46:52Z</time>
      </trkpt>
      <trkpt lat="44.05265" lon="4.36077">
        <ele>189.4</ele>
        <time>2011-11-27T10:46:54Z</time>
      </trkpt>
      <trkpt lat="44.05265" lon="4.3607">
        <ele>189.6</ele>
        <time>2011-11-27T10:46:56Z</time>
      </trkpt>
      <trkpt lat="44.05265" lon="4.36062">
        <ele>189.7</ele>
        <time>2011-11-27T10:46:58Z</time>
      </trkpt>
      <trkpt lat="44.05264" lon="4.36054">
        <ele>189.7</ele>
        <time>2011-11-27T10:47:00Z</time>
      </trkpt>
      <trkpt lat="44.05263" lon="4.36045">
        <ele>190.2</ele>
        <time>2011-11-27T10:47:02Z</time>
      </trkpt>
      <trkpt lat="44.05261" lon="4.36038">
        <ele>189.9</ele>
        <time>2011-11-27T10:47:04Z</time>
      </trkpt>
      <trkpt lat="44.05258" lon="4.36032">
        <ele>189.7</ele>
        <time>2011-11-27T10:47:06Z</time>
      </trkpt>
      <trkpt lat="44.05255" lon="4.36024">
        <ele>189</ele>
        <time>2011-11-27T10:47:09Z</time>
      </trkpt>
      <trkpt lat="44.05252" lon="4.36019">
        <ele>188.8</ele>
        <time>2011-11-27T10:47:11Z</time>
      </trkpt>
      <trkpt lat="44.05249" lon="4.36013">
        <ele>188.6</ele>
        <time>2011-11-27T10:47:13Z</time>
      </trkpt>
      <trkpt lat="44.05245" lon="4.36006">
        <ele>188.1</ele>
        <time>2011-11-27T10:47:15Z</time>
      </trkpt>
      <trkpt lat="44.0524" lon="4.35999">
        <ele>187.6</ele>
        <time>2011-11-27T10:47:17Z</time>
      </trkpt>
      <trkpt lat="44.05236" lon="4.35992">
        <ele>187.1</ele>
        <time>2011-11-27T10:47:19Z</time>
      </trkpt>
      <trkpt lat="44.05231" lon="4.35984">
        <ele>186.7</ele>
        <time>2011-11-27T10:47:21Z</time>
      </trkpt>
      <trkpt lat="44.05225" lon="4.35978">
        <ele>187.2</ele>
        <time>2011-11-27T10:47:23Z</time>
      </trkpt>
      <trkpt lat="44.0522" lon="4.35971">
        <ele>186.6</ele>
        <time>2011-11-27T10:47:25Z</time>
      </trkpt>
      <trkpt lat="44.05214" lon="4.35965">
        <ele>185.9</ele>
        <time>2011-11-27T10:47:27Z</time>
      </trkpt>
      <trkpt lat="44.05208" lon="4.35958">
        <ele>185.6</ele>
        <time>2011-11-27T10:47:29Z</time>
      </trkpt>
      <trkpt lat="44.05203" lon="4.3595">
        <ele>185.5</ele>
        <time>2011-11-27T10:47:31Z</time>
      </trkpt>
      <trkpt lat="44.05198" lon="4.35941">
        <ele>185.4</ele>
        <time>2011-11-27T10:47:33Z</time>
      </trkpt>
      <trkpt lat="44.05195" lon="4.3593">
        <ele>185.6</ele>
        <time>2011-11-27T10:47:35Z</time>
      </trkpt>
      <trkpt lat="44.05192" lon="4.35922">
        <ele>185.6</ele>
        <time>2011-11-27T10:47:37Z</time>
      </trkpt>
      <trkpt lat="44.05189" lon="4.35913">
        <ele>185.4</ele>
        <time>2011-11-27T10:47:39Z</time>
      </trkpt>
      <trkpt lat="44.05187" lon="4.35902">
        <ele>185.3</ele>
        <time>2011-11-27T10:47:41Z</time>
      </trkpt>
      <trkpt lat="44.05186" lon="4.35896">
        <ele>185.3</ele>
        <time>2011-11-27T10:47:42Z</time>
      </trkpt>
      <trkpt lat="44.05186" lon="4.35889">
        <ele>185.4</ele>
        <time>2011-11-27T10:47:43Z</time>
      </trkpt>
      <trkpt lat="44.05184" lon="4.35878">
        <ele>185.2</ele>
        <time>2011-11-27T10:47:45Z</time>
      </trkpt>
      <trkpt lat="44.05183" lon="4.35867">
        <ele>185</ele>
        <time>2011-11-27T10:47:47Z</time>
      </trkpt>
      <trkpt lat="44.05183" lon="4.35857">
        <ele>184.8</ele>
        <time>2011-11-27T10:47:49Z</time>
      </trkpt>
      <trkpt lat="44.05181" lon="4.35846">
        <ele>184.8</ele>
        <time>2011-11-27T10:47:51Z</time>
      </trkpt>
      <trkpt lat="44.0518" lon="4.35836">
        <ele>184.8</ele>
        <time>2011-11-27T10:47:53Z</time>
      </trkpt>
      <trkpt lat="44.0518" lon="4.35827">
        <ele>184.6</ele>
        <time>2011-11-27T10:47:55Z</time>
      </trkpt>
      <trkpt lat="44.05178" lon="4.35819">
        <ele>184.5</ele>
        <time>2011-11-27T10:47:57Z</time>
      </trkpt>
      <trkpt lat="44.05177" lon="4.3581">
        <ele>184.6</ele>
        <time>2011-11-27T10:47:59Z</time>
      </trkpt>
      <trkpt lat="44.05176" lon="4.35801">
        <ele>184.8</ele>
        <time>2011-11-27T10:48:01Z</time>
      </trkpt>
      <trkpt lat="44.05175" lon="4.35793">
        <ele>185.1</ele>
        <time>2011-11-27T10:48:03Z</time>
      </trkpt>
      <trkpt lat="44.05172" lon="4.35784">
        <ele>184.9</ele>
        <time>2011-11-27T10:48:05Z</time>
      </trkpt>
      <trkpt lat="44.05168" lon="4.35775">
        <ele>184.9</ele>
        <time>2011-11-27T10:48:07Z</time>
      </trkpt>
      <trkpt lat="44.05164" lon="4.35766">
        <ele>184.9</ele>
        <time>2011-11-27T10:48:09Z</time>
      </trkpt>
      <trkpt lat="44.05159" lon="4.35757">
        <ele>185.2</ele>
        <time>2011-11-27T10:48:11Z</time>
      </trkpt>
      <trkpt lat="44.05156" lon="4.35752">
        <ele>185.3</ele>
        <time>2011-11-27T10:48:12Z</time>
      </trkpt>
      <trkpt lat="44.05153" lon="4.35746">
        <ele>185.4</ele>
        <time>2011-11-27T10:48:13Z</time>
      </trkpt>
      <trkpt lat="44.0515" lon="4.3574">
        <ele>185.7</ele>
        <time>2011-11-27T10:48:14Z</time>
      </trkpt>
      <trkpt lat="44.05147" lon="4.35735">
        <ele>186</ele>
        <time>2011-11-27T10:48:15Z</time>
      </trkpt>
      <trkpt lat="44.05144" lon="4.35729">
        <ele>186.2</ele>
        <time>2011-11-27T10:48:16Z</time>
      </trkpt>
      <trkpt lat="44.05142" lon="4.35724">
        <ele>186.1</ele>
        <time>2011-11-27T10:48:17Z</time>
      </trkpt>
      <trkpt lat="44.05139" lon="4.35718">
        <ele>186.2</ele>
        <time>2011-11-27T10:48:18Z</time>
      </trkpt>
      <trkpt lat="44.05136" lon="4.35712">
        <ele>186.2</ele>
        <time>2011-11-27T10:48:19Z</time>
      </trkpt>
      <trkpt lat="44.05134" lon="4.35706">
        <ele>186.5</ele>
        <time>2011-11-27T10:48:20Z</time>
      </trkpt>
      <trkpt lat="44.05132" lon="4.357">
        <ele>186.6</ele>
        <time>2011-11-27T10:48:21Z</time>
      </trkpt>
      <trkpt lat="44.0513" lon="4.35693">
        <ele>186.5</ele>
        <time>2011-11-27T10:48:22Z</time>
      </trkpt>
      <trkpt lat="44.05129" lon="4.35686">
        <ele>186.7</ele>
        <time>2011-11-27T10:48:23Z</time>
      </trkpt>
      <trkpt lat="44.05128" lon="4.3568">
        <ele>186.8</ele>
        <time>2011-11-27T10:48:24Z</time>
      </trkpt>
      <trkpt lat="44.05128" lon="4.35673">
        <ele>187.1</ele>
        <time>2011-11-27T10:48:25Z</time>
      </trkpt>
      <trkpt lat="44.05128" lon="4.35667">
        <ele>187.4</ele>
        <time>2011-11-27T10:48:26Z</time>
      </trkpt>
      <trkpt lat="44.05127" lon="4.3566">
        <ele>187.4</ele>
        <time>2011-11-27T10:48:27Z</time>
      </trkpt>
      <trkpt lat="44.05127" lon="4.35654">
        <ele>187.7</ele>
        <time>2011-11-27T10:48:28Z</time>
      </trkpt>
      <trkpt lat="44.05127" lon="4.35648">
        <ele>187.7</ele>
        <time>2011-11-27T10:48:29Z</time>
      </trkpt>
      <trkpt lat="44.05126" lon="4.35641">
        <ele>187.7</ele>
        <time>2011-11-27T10:48:30Z</time>
      </trkpt>
      <trkpt lat="44.05127" lon="4.35635">
        <ele>187.4</ele>
        <time>2011-11-27T10:48:31Z</time>
      </trkpt>
      <trkpt lat="44.05127" lon="4.35623">
        <ele>186.9</ele>
        <time>2011-11-27T10:48:33Z</time>
      </trkpt>
      <trkpt lat="44.05128" lon="4.35611">
        <ele>186.6</ele>
        <time>2011-11-27T10:48:35Z</time>
      </trkpt>
      <trkpt lat="44.05128" lon="4.35598">
        <ele>186.3</ele>
        <time>2011-11-27T10:48:37Z</time>
      </trkpt>
      <trkpt lat="44.05128" lon="4.35586">
        <ele>186.1</ele>
        <time>2011-11-27T10:48:39Z</time>
      </trkpt>
      <trkpt lat="44.05128" lon="4.35575">
        <ele>185.9</ele>
        <time>2011-11-27T10:48:41Z</time>
      </trkpt>
      <trkpt lat="44.05129" lon="4.35563">
        <ele>185.7</ele>
        <time>2011-11-27T10:48:43Z</time>
      </trkpt>
      <trkpt lat="44.05129" lon="4.35551">
        <ele>185.7</ele>
        <time>2011-11-27T10:48:45Z</time>
      </trkpt>
      <trkpt lat="44.05129" lon="4.3554">
        <ele>185.6</ele>
        <time>2011-11-27T10:48:47Z</time>
      </trkpt>
      <trkpt lat="44.05129" lon="4.35529">
        <ele>185.7</ele>
        <time>2011-11-27T10:48:49Z</time>
      </trkpt>
      <trkpt lat="44.0513" lon="4.35519">
        <ele>185.7</ele>
        <time>2011-11-27T10:48:51Z</time>
      </trkpt>
      <trkpt lat="44.0513" lon="4.35509">
        <ele>185.9</ele>
        <time>2011-11-27T10:48:53Z</time>
      </trkpt>
      <trkpt lat="44.05131" lon="4.35499">
        <ele>186.1</ele>
        <time>2011-11-27T10:48:55Z</time>
      </trkpt>
      <trkpt lat="44.05132" lon="4.35489">
        <ele>186.1</ele>
        <time>2011-11-27T10:48:57Z</time>
      </trkpt>
      <trkpt lat="44.05133" lon="4.35479">
        <ele>186.1</ele>
        <time>2011-11-27T10:48:59Z</time>
      </trkpt>
      <trkpt lat="44.05133" lon="4.35468">
        <ele>186.2</ele>
        <time>2011-11-27T10:49:01Z</time>
      </trkpt>
      <trkpt lat="44.05134" lon="4.35458">
        <ele>186.3</ele>
        <time>2011-11-27T10:49:03Z</time>
      </trkpt>
      <trkpt lat="44.05135" lon="4.35448">
        <ele>186.5</ele>
        <time>2011-11-27T10:49:05Z</time>
      </trkpt>
      <trkpt lat="44.05137" lon="4.35439">
        <ele>186.6</ele>
        <time>2011-11-27T10:49:07Z</time>
      </trkpt>
      <trkpt lat="44.05139" lon="4.35429">
        <ele>186.8</ele>
        <time>2011-11-27T10:49:09Z</time>
      </trkpt>
      <trkpt lat="44.05141" lon="4.3542">
        <ele>186.8</ele>
        <time>2011-11-27T10:49:11Z</time>
      </trkpt>
      <trkpt lat="44.05144" lon="4.3541">
        <ele>186.9</ele>
        <time>2011-11-27T10:49:13Z</time>
      </trkpt>
      <trkpt lat="44.05146" lon="4.354">
        <ele>187.1</ele>
        <time>2011-11-27T10:49:15Z</time>
      </trkpt>
      <trkpt lat="44.05148" lon="4.35389">
        <ele>187.3</ele>
        <time>2011-11-27T10:49:17Z</time>
      </trkpt>
      <trkpt lat="44.0515" lon="4.35379">
        <ele>187.6</ele>
        <time>2011-11-27T10:49:19Z</time>
      </trkpt>
      <trkpt lat="44.05151" lon="4.35368">
        <ele>188.2</ele>
        <time>2011-11-27T10:49:21Z</time>
      </trkpt>
      <trkpt lat="44.05152" lon="4.35357">
        <ele>188.5</ele>
        <time>2011-11-27T10:49:23Z</time>
      </trkpt>
      <trkpt lat="44.05153" lon="4.35347">
        <ele>188.8</ele>
        <time>2011-11-27T10:49:25Z</time>
      </trkpt>
      <trkpt lat="44.05154" lon="4.35337">
        <ele>188.9</ele>
        <time>2011-11-27T10:49:27Z</time>
      </trkpt>
      <trkpt lat="44.05154" lon="4.35328">
        <ele>189</ele>
        <time>2011-11-27T10:49:29Z</time>
      </trkpt>
      <trkpt lat="44.05155" lon="4.35319">
        <ele>189.2</ele>
        <time>2011-11-27T10:49:31Z</time>
      </trkpt>
      <trkpt lat="44.05156" lon="4.35309">
        <ele>189.3</ele>
        <time>2011-11-27T10:49:33Z</time>
      </trkpt>
      <trkpt lat="44.05157" lon="4.35299">
        <ele>189.7</ele>
        <time>2011-11-27T10:49:35Z</time>
      </trkpt>
      <trkpt lat="44.05158" lon="4.35288">
        <ele>189.9</ele>
        <time>2011-11-27T10:49:37Z</time>
      </trkpt>
      <trkpt lat="44.05159" lon="4.35278">
        <ele>190</ele>
        <time>2011-11-27T10:49:39Z</time>
      </trkpt>
      <trkpt lat="44.0516" lon="4.35267">
        <ele>190</ele>
        <time>2011-11-27T10:49:41Z</time>
      </trkpt>
      <trkpt lat="44.0516" lon="4.35256">
        <ele>190.3</ele>
        <time>2011-11-27T10:49:43Z</time>
      </trkpt>
      <trkpt lat="44.05162" lon="4.35246">
        <ele>190.8</ele>
        <time>2011-11-27T10:49:45Z</time>
      </trkpt>
      <trkpt lat="44.05162" lon="4.35235">
        <ele>191.1</ele>
        <time>2011-11-27T10:49:47Z</time>
      </trkpt>
      <trkpt lat="44.05164" lon="4.35224">
        <ele>191.3</ele>
        <time>2011-11-27T10:49:49Z</time>
      </trkpt>
      <trkpt lat="44.05165" lon="4.35213">
        <ele>191.5</ele>
        <time>2011-11-27T10:49:51Z</time>
      </trkpt>
      <trkpt lat="44.05167" lon="4.35202">
        <ele>191.9</ele>
        <time>2011-11-27T10:49:53Z</time>
      </trkpt>
      <trkpt lat="44.0517" lon="4.35192">
        <ele>192.2</ele>
        <time>2011-11-27T10:49:55Z</time>
      </trkpt>
      <trkpt lat="44.05172" lon="4.35181">
        <ele>192.4</ele>
        <time>2011-11-27T10:49:57Z</time>
      </trkpt>
      <trkpt lat="44.05175" lon="4.35171">
        <ele>192.9</ele>
        <time>2011-11-27T10:49:59Z</time>
      </trkpt>
      <trkpt lat="44.05179" lon="4.3516">
        <ele>193.1</ele>
        <time>2011-11-27T10:50:01Z</time>
      </trkpt>
      <trkpt lat="44.05182" lon="4.3515">
        <ele>193.3</ele>
        <time>2011-11-27T10:50:03Z</time>
      </trkpt>
      <trkpt lat="44.05185" lon="4.35139">
        <ele>193.8</ele>
        <time>2011-11-27T10:50:05Z</time>
      </trkpt>
      <trkpt lat="44.05188" lon="4.35128">
        <ele>194.3</ele>
        <time>2011-11-27T10:50:07Z</time>
      </trkpt>
      <trkpt lat="44.0519" lon="4.35118">
        <ele>195.3</ele>
        <time>2011-11-27T10:50:09Z</time>
      </trkpt>
      <trkpt lat="44.05194" lon="4.35107">
        <ele>195.8</ele>
        <time>2011-11-27T10:50:11Z</time>
      </trkpt>
      <trkpt lat="44.05196" lon="4.35096">
        <ele>197.1</ele>
        <time>2011-11-27T10:50:13Z</time>
      </trkpt>
      <trkpt lat="44.052" lon="4.35085">
        <ele>197.8</ele>
        <time>2011-11-27T10:50:15Z</time>
      </trkpt>
      <trkpt lat="44.05201" lon="4.35079">
        <ele>198</ele>
        <time>2011-11-27T10:50:16Z</time>
      </trkpt>
      <trkpt lat="44.05203" lon="4.35073">
        <ele>198.3</ele>
        <time>2011-11-27T10:50:17Z</time>
      </trkpt>
      <trkpt lat="44.05204" lon="4.35067">
        <ele>198.6</ele>
        <time>2011-11-27T10:50:18Z</time>
      </trkpt>
      <trkpt lat="44.05206" lon="4.3506">
        <ele>199</ele>
        <time>2011-11-27T10:50:19Z</time>
      </trkpt>
      <trkpt lat="44.05208" lon="4.35054">
        <ele>199.2</ele>
        <time>2011-11-27T10:50:20Z</time>
      </trkpt>
      <trkpt lat="44.0521" lon="4.35048">
        <ele>199.4</ele>
        <time>2011-11-27T10:50:21Z</time>
      </trkpt>
      <trkpt lat="44.05211" lon="4.35041">
        <ele>199.7</ele>
        <time>2011-11-27T10:50:22Z</time>
      </trkpt>
      <trkpt lat="44.05212" lon="4.35035">
        <ele>200</ele>
        <time>2011-11-27T10:50:23Z</time>
      </trkpt>
      <trkpt lat="44.05214" lon="4.35029">
        <ele>200.1</ele>
        <time>2011-11-27T10:50:24Z</time>
      </trkpt>
      <trkpt lat="44.05216" lon="4.35018">
        <ele>200.5</ele>
        <time>2011-11-27T10:50:26Z</time>
      </trkpt>
      <trkpt lat="44.05218" lon="4.35006">
        <ele>200.9</ele>
        <time>2011-11-27T10:50:28Z</time>
      </trkpt>
      <trkpt lat="44.05219" lon="4.34996">
        <ele>201.3</ele>
        <time>2011-11-27T10:50:30Z</time>
      </trkpt>
      <trkpt lat="44.05221" lon="4.34986">
        <ele>201.7</ele>
        <time>2011-11-27T10:50:32Z</time>
      </trkpt>
      <trkpt lat="44.05222" lon="4.34977">
        <ele>202</ele>
        <time>2011-11-27T10:50:34Z</time>
      </trkpt>
      <trkpt lat="44.05222" lon="4.34968">
        <ele>202.9</ele>
        <time>2011-11-27T10:50:36Z</time>
      </trkpt>
      <trkpt lat="44.05221" lon="4.34961">
        <ele>203.7</ele>
        <time>2011-11-27T10:50:38Z</time>
      </trkpt>
      <trkpt lat="44.05219" lon="4.34953">
        <ele>203.9</ele>
        <time>2011-11-27T10:50:40Z</time>
      </trkpt>
      <trkpt lat="44.05216" lon="4.34949">
        <ele>204.5</ele>
        <time>2011-11-27T10:50:42Z</time>
      </trkpt>
      <trkpt lat="44.05199" lon="4.34952">
        <ele>206.2</ele>
        <time>2011-11-27T10:53:05Z</time>
      </trkpt>
      <trkpt lat="44.05192" lon="4.34951">
        <ele>206.1</ele>
        <time>2011-11-27T10:53:07Z</time>
      </trkpt>
      <trkpt lat="44.05184" lon="4.3495">
        <ele>205.8</ele>
        <time>2011-11-27T10:53:09Z</time>
      </trkpt>
      <trkpt lat="44.05179" lon="4.3495">
        <ele>205.7</ele>
        <time>2011-11-27T10:53:10Z</time>
      </trkpt>
      <trkpt lat="44.05174" lon="4.34949">
        <ele>205.8</ele>
        <time>2011-11-27T10:53:11Z</time>
      </trkpt>
      <trkpt lat="44.05169" lon="4.34949">
        <ele>205.8</ele>
        <time>2011-11-27T10:53:12Z</time>
      </trkpt>
      <trkpt lat="44.05163" lon="4.34948">
        <ele>205.7</ele>
        <time>2011-11-27T10:53:13Z</time>
      </trkpt>
      <trkpt lat="44.05158" lon="4.34947">
        <ele>205.8</ele>
        <time>2011-11-27T10:53:14Z</time>
      </trkpt>
      <trkpt lat="44.05152" lon="4.34946">
        <ele>205.9</ele>
        <time>2011-11-27T10:53:15Z</time>
      </trkpt>
      <trkpt lat="44.05148" lon="4.34946">
        <ele>206</ele>
        <time>2011-11-27T10:53:16Z</time>
      </trkpt>
      <trkpt lat="44.05139" lon="4.34946">
        <ele>205.4</ele>
        <time>2011-11-27T10:53:18Z</time>
      </trkpt>
      <trkpt lat="44.05134" lon="4.34947">
        <ele>205.3</ele>
        <time>2011-11-27T10:53:19Z</time>
      </trkpt>
      <trkpt lat="44.05129" lon="4.34949">
        <ele>205.3</ele>
        <time>2011-11-27T10:53:20Z</time>
      </trkpt>
      <trkpt lat="44.05124" lon="4.34951">
        <ele>205.3</ele>
        <time>2011-11-27T10:53:21Z</time>
      </trkpt>
      <trkpt lat="44.05116" lon="4.34956">
        <ele>205.4</ele>
        <time>2011-11-27T10:53:23Z</time>
      </trkpt>
      <trkpt lat="44.05108" lon="4.34961">
        <ele>204.7</ele>
        <time>2011-11-27T10:53:25Z</time>
      </trkpt>
      <trkpt lat="44.05104" lon="4.34964">
        <ele>204.6</ele>
        <time>2011-11-27T10:53:26Z</time>
      </trkpt>
      <trkpt lat="44.051" lon="4.34968">
        <ele>204.8</ele>
        <time>2011-11-27T10:53:27Z</time>
      </trkpt>
      <trkpt lat="44.05096" lon="4.34972">
        <ele>204.9</ele>
        <time>2011-11-27T10:53:28Z</time>
      </trkpt>
      <trkpt lat="44.05091" lon="4.34976">
        <ele>204.7</ele>
        <time>2011-11-27T10:53:29Z</time>
      </trkpt>
      <trkpt lat="44.05086" lon="4.3498">
        <ele>204.6</ele>
        <time>2011-11-27T10:53:30Z</time>
      </trkpt>
      <trkpt lat="44.05082" lon="4.34983">
        <ele>204.6</ele>
        <time>2011-11-27T10:53:31Z</time>
      </trkpt>
      <trkpt lat="44.05078" lon="4.34986">
        <ele>204.5</ele>
        <time>2011-11-27T10:53:32Z</time>
      </trkpt>
      <trkpt lat="44.05073" lon="4.34989">
        <ele>204.2</ele>
        <time>2011-11-27T10:53:33Z</time>
      </trkpt>
      <trkpt lat="44.05067" lon="4.34992">
        <ele>203.7</ele>
        <time>2011-11-27T10:53:34Z</time>
      </trkpt>
      <trkpt lat="44.05061" lon="4.34994">
        <ele>203.4</ele>
        <time>2011-11-27T10:53:35Z</time>
      </trkpt>
      <trkpt lat="44.05055" lon="4.34996">
        <ele>203.1</ele>
        <time>2011-11-27T10:53:36Z</time>
      </trkpt>
      <trkpt lat="44.0505" lon="4.34998">
        <ele>202.7</ele>
        <time>2011-11-27T10:53:37Z</time>
      </trkpt>
      <trkpt lat="44.05045" lon="4.35">
        <ele>202.4</ele>
        <time>2011-11-27T10:53:38Z</time>
      </trkpt>
      <trkpt lat="44.05039" lon="4.35002">
        <ele>202.1</ele>
        <time>2011-11-27T10:53:39Z</time>
      </trkpt>
      <trkpt lat="44.05034" lon="4.35004">
        <ele>201.7</ele>
        <time>2011-11-27T10:53:40Z</time>
      </trkpt>
      <trkpt lat="44.05029" lon="4.35006">
        <ele>201.4</ele>
        <time>2011-11-27T10:53:41Z</time>
      </trkpt>
      <trkpt lat="44.05023" lon="4.35008">
        <ele>201.1</ele>
        <time>2011-11-27T10:53:42Z</time>
      </trkpt>
      <trkpt lat="44.05018" lon="4.35011">
        <ele>200.9</ele>
        <time>2011-11-27T10:53:43Z</time>
      </trkpt>
      <trkpt lat="44.05013" lon="4.35013">
        <ele>200.6</ele>
        <time>2011-11-27T10:53:44Z</time>
      </trkpt>
      <trkpt lat="44.05007" lon="4.35015">
        <ele>200.4</ele>
        <time>2011-11-27T10:53:45Z</time>
      </trkpt>
      <trkpt lat="44.05002" lon="4.35017">
        <ele>200.2</ele>
        <time>2011-11-27T10:53:46Z</time>
      </trkpt>
      <trkpt lat="44.04996" lon="4.3502">
        <ele>200</ele>
        <time>2011-11-27T10:53:47Z</time>
      </trkpt>
      <trkpt lat="44.04991" lon="4.35023">
        <ele>200</ele>
        <time>2011-11-27T10:53:48Z</time>
      </trkpt>
      <trkpt lat="44.04986" lon="4.35027">
        <ele>200</ele>
        <time>2011-11-27T10:53:49Z</time>
      </trkpt>
      <trkpt lat="44.0498" lon="4.35031">
        <ele>199.7</ele>
        <time>2011-11-27T10:53:50Z</time>
      </trkpt>
      <trkpt lat="44.04975" lon="4.35034">
        <ele>199.5</ele>
        <time>2011-11-27T10:53:51Z</time>
      </trkpt>
      <trkpt lat="44.04969" lon="4.35038">
        <ele>199.3</ele>
        <time>2011-11-27T10:53:52Z</time>
      </trkpt>
      <trkpt lat="44.04963" lon="4.35041">
        <ele>199.1</ele>
        <time>2011-11-27T10:53:53Z</time>
      </trkpt>
      <trkpt lat="44.04957" lon="4.35045">
        <ele>198.6</ele>
        <time>2011-11-27T10:53:54Z</time>
      </trkpt>
      <trkpt lat="44.04951" lon="4.35049">
        <ele>198.2</ele>
        <time>2011-11-27T10:53:55Z</time>
      </trkpt>
      <trkpt lat="44.04945" lon="4.35053">
        <ele>197.9</ele>
        <time>2011-11-27T10:53:56Z</time>
      </trkpt>
      <trkpt lat="44.04939" lon="4.35058">
        <ele>197.5</ele>
        <time>2011-11-27T10:53:57Z</time>
      </trkpt>
      <trkpt lat="44.04933" lon="4.35062">
        <ele>197.3</ele>
        <time>2011-11-27T10:53:58Z</time>
      </trkpt>
      <trkpt lat="44.04928" lon="4.35067">
        <ele>196.9</ele>
        <time>2011-11-27T10:53:59Z</time>
      </trkpt>
      <trkpt lat="44.04922" lon="4.35072">
        <ele>196.7</ele>
        <time>2011-11-27T10:54:00Z</time>
      </trkpt>
      <trkpt lat="44.04916" lon="4.35077">
        <ele>196.3</ele>
        <time>2011-11-27T10:54:01Z</time>
      </trkpt>
      <trkpt lat="44.0491" lon="4.35081">
        <ele>196</ele>
        <time>2011-11-27T10:54:02Z</time>
      </trkpt>
      <trkpt lat="44.04903" lon="4.35086">
        <ele>195.8</ele>
        <time>2011-11-27T10:54:03Z</time>
      </trkpt>
      <trkpt lat="44.04897" lon="4.35089">
        <ele>195.5</ele>
        <time>2011-11-27T10:54:04Z</time>
      </trkpt>
      <trkpt lat="44.04891" lon="4.35093">
        <ele>195.2</ele>
        <time>2011-11-27T10:54:05Z</time>
      </trkpt>
      <trkpt lat="44.04885" lon="4.35096">
        <ele>194.7</ele>
        <time>2011-11-27T10:54:06Z</time>
      </trkpt>
      <trkpt lat="44.04878" lon="4.35099">
        <ele>194.3</ele>
        <time>2011-11-27T10:54:07Z</time>
      </trkpt>
      <trkpt lat="44.04871" lon="4.35102">
        <ele>193.7</ele>
        <time>2011-11-27T10:54:08Z</time>
      </trkpt>
      <trkpt lat="44.04865" lon="4.35104">
        <ele>193.3</ele>
        <time>2011-11-27T10:54:09Z</time>
      </trkpt>
      <trkpt lat="44.04858" lon="4.35107">
        <ele>192.9</ele>
        <time>2011-11-27T10:54:10Z</time>
      </trkpt>
      <trkpt lat="44.04851" lon="4.3511">
        <ele>192.4</ele>
        <time>2011-11-27T10:54:11Z</time>
      </trkpt>
      <trkpt lat="44.04844" lon="4.35112">
        <ele>191.9</ele>
        <time>2011-11-27T10:54:12Z</time>
      </trkpt>
      <trkpt lat="44.04838" lon="4.35115">
        <ele>191.6</ele>
        <time>2011-11-27T10:54:13Z</time>
      </trkpt>
      <trkpt lat="44.04831" lon="4.35118">
        <ele>191.2</ele>
        <time>2011-11-27T10:54:14Z</time>
      </trkpt>
      <trkpt lat="44.04824" lon="4.35121">
        <ele>190.8</ele>
        <time>2011-11-27T10:54:15Z</time>
      </trkpt>
      <trkpt lat="44.04816" lon="4.35123">
        <ele>190.4</ele>
        <time>2011-11-27T10:54:16Z</time>
      </trkpt>
      <trkpt lat="44.04809" lon="4.35126">
        <ele>190.1</ele>
        <time>2011-11-27T10:54:17Z</time>
      </trkpt>
      <trkpt lat="44.04802" lon="4.35129">
        <ele>189.8</ele>
        <time>2011-11-27T10:54:18Z</time>
      </trkpt>
      <trkpt lat="44.04795" lon="4.35132">
        <ele>189.4</ele>
        <time>2011-11-27T10:54:19Z</time>
      </trkpt>
      <trkpt lat="44.04788" lon="4.35134">
        <ele>189.1</ele>
        <time>2011-11-27T10:54:20Z</time>
      </trkpt>
      <trkpt lat="44.04781" lon="4.35137">
        <ele>188.7</ele>
        <time>2011-11-27T10:54:21Z</time>
      </trkpt>
      <trkpt lat="44.04773" lon="4.3514">
        <ele>188.6</ele>
        <time>2011-11-27T10:54:22Z</time>
      </trkpt>
      <trkpt lat="44.04766" lon="4.35143">
        <ele>188.2</ele>
        <time>2011-11-27T10:54:23Z</time>
      </trkpt>
      <trkpt lat="44.04759" lon="4.35145">
        <ele>187.9</ele>
        <time>2011-11-27T10:54:24Z</time>
      </trkpt>
      <trkpt lat="44.04752" lon="4.35148">
        <ele>187.7</ele>
        <time>2011-11-27T10:54:25Z</time>
      </trkpt>
      <trkpt lat="44.04744" lon="4.3515">
        <ele>187.4</ele>
        <time>2011-11-27T10:54:26Z</time>
      </trkpt>
      <trkpt lat="44.04737" lon="4.35152">
        <ele>187.2</ele>
        <time>2011-11-27T10:54:27Z</time>
      </trkpt>
      <trkpt lat="44.0473" lon="4.35155">
        <ele>186.9</ele>
        <time>2011-11-27T10:54:28Z</time>
      </trkpt>
      <trkpt lat="44.04724" lon="4.35159">
        <ele>186.5</ele>
        <time>2011-11-27T10:54:29Z</time>
      </trkpt>
      <trkpt lat="44.04718" lon="4.35164">
        <ele>186.2</ele>
        <time>2011-11-27T10:54:30Z</time>
      </trkpt>
      <trkpt lat="44.04713" lon="4.35171">
        <ele>185.8</ele>
        <time>2011-11-27T10:54:31Z</time>
      </trkpt>
      <trkpt lat="44.04709" lon="4.35179">
        <ele>185.6</ele>
        <time>2011-11-27T10:54:32Z</time>
      </trkpt>
      <trkpt lat="44.04706" lon="4.35188">
        <ele>185.3</ele>
        <time>2011-11-27T10:54:33Z</time>
      </trkpt>
      <trkpt lat="44.04702" lon="4.35196">
        <ele>185</ele>
        <time>2011-11-27T10:54:34Z</time>
      </trkpt>
      <trkpt lat="44.04697" lon="4.35204">
        <ele>184.7</ele>
        <time>2011-11-27T10:54:35Z</time>
      </trkpt>
      <trkpt lat="44.04691" lon="4.35209">
        <ele>184.4</ele>
        <time>2011-11-27T10:54:36Z</time>
      </trkpt>
      <trkpt lat="44.04685" lon="4.35213">
        <ele>184.1</ele>
        <time>2011-11-27T10:54:37Z</time>
      </trkpt>
      <trkpt lat="44.04678" lon="4.35216">
        <ele>183.9</ele>
        <time>2011-11-27T10:54:38Z</time>
      </trkpt>
      <trkpt lat="44.04671" lon="4.35219">
        <ele>183.8</ele>
        <time>2011-11-27T10:54:39Z</time>
      </trkpt>
      <trkpt lat="44.04665" lon="4.35221">
        <ele>183.8</ele>
        <time>2011-11-27T10:54:40Z</time>
      </trkpt>
      <trkpt lat="44.04659" lon="4.35224">
        <ele>183.8</ele>
        <time>2011-11-27T10:54:41Z</time>
      </trkpt>
      <trkpt lat="44.04653" lon="4.35227">
        <ele>183.8</ele>
        <time>2011-11-27T10:54:42Z</time>
      </trkpt>
      <trkpt lat="44.04647" lon="4.3523">
        <ele>183.7</ele>
        <time>2011-11-27T10:54:43Z</time>
      </trkpt>
      <trkpt lat="44.04642" lon="4.35232">
        <ele>183.7</ele>
        <time>2011-11-27T10:54:44Z</time>
      </trkpt>
      <trkpt lat="44.04636" lon="4.35233">
        <ele>183.7</ele>
        <time>2011-11-27T10:54:45Z</time>
      </trkpt>
      <trkpt lat="44.04631" lon="4.35234">
        <ele>183.6</ele>
        <time>2011-11-27T10:54:46Z</time>
      </trkpt>
      <trkpt lat="44.04626" lon="4.35234">
        <ele>183.6</ele>
        <time>2011-11-27T10:54:47Z</time>
      </trkpt>
      <trkpt lat="44.04621" lon="4.35235">
        <ele>183.5</ele>
        <time>2011-11-27T10:54:48Z</time>
      </trkpt>
      <trkpt lat="44.04616" lon="4.35235">
        <ele>183.3</ele>
        <time>2011-11-27T10:54:49Z</time>
      </trkpt>
      <trkpt lat="44.04611" lon="4.35234">
        <ele>183.1</ele>
        <time>2011-11-27T10:54:50Z</time>
      </trkpt>
      <trkpt lat="44.04606" lon="4.35234">
        <ele>183</ele>
        <time>2011-11-27T10:54:51Z</time>
      </trkpt>
      <trkpt lat="44.04601" lon="4.35235">
        <ele>182.7</ele>
        <time>2011-11-27T10:54:52Z</time>
      </trkpt>
      <trkpt lat="44.04592" lon="4.35235">
        <ele>182.5</ele>
        <time>2011-11-27T10:54:54Z</time>
      </trkpt>
      <trkpt lat="44.04588" lon="4.35235">
        <ele>182.4</ele>
        <time>2011-11-27T10:54:55Z</time>
      </trkpt>
      <trkpt lat="44.04583" lon="4.35235">
        <ele>182.1</ele>
        <time>2011-11-27T10:54:56Z</time>
      </trkpt>
      <trkpt lat="44.04578" lon="4.35235">
        <ele>181.9</ele>
        <time>2011-11-27T10:54:57Z</time>
      </trkpt>
      <trkpt lat="44.04574" lon="4.35236">
        <ele>181.8</ele>
        <time>2011-11-27T10:54:58Z</time>
      </trkpt>
      <trkpt lat="44.04569" lon="4.35236">
        <ele>181.7</ele>
        <time>2011-11-27T10:54:59Z</time>
      </trkpt>
      <trkpt lat="44.04564" lon="4.35236">
        <ele>181.5</ele>
        <time>2011-11-27T10:55:00Z</time>
      </trkpt>
      <trkpt lat="44.04558" lon="4.35237">
        <ele>181.3</ele>
        <time>2011-11-27T10:55:01Z</time>
      </trkpt>
      <trkpt lat="44.04553" lon="4.35237">
        <ele>181.1</ele>
        <time>2011-11-27T10:55:02Z</time>
      </trkpt>
      <trkpt lat="44.04548" lon="4.35237">
        <ele>180.9</ele>
        <time>2011-11-27T10:55:03Z</time>
      </trkpt>
      <trkpt lat="44.04542" lon="4.35237">
        <ele>180.6</ele>
        <time>2011-11-27T10:55:04Z</time>
      </trkpt>
      <trkpt lat="44.04537" lon="4.35237">
        <ele>180.4</ele>
        <time>2011-11-27T10:55:05Z</time>
      </trkpt>
      <trkpt lat="44.04531" lon="4.35238">
        <ele>180.2</ele>
        <time>2011-11-27T10:55:06Z</time>
      </trkpt>
      <trkpt lat="44.04526" lon="4.35238">
        <ele>180.1</ele>
        <time>2011-11-27T10:55:07Z</time>
      </trkpt>
      <trkpt lat="44.04521" lon="4.35238">
        <ele>179.9</ele>
        <time>2011-11-27T10:55:08Z</time>
      </trkpt>
      <trkpt lat="44.04515" lon="4.35238">
        <ele>179.8</ele>
        <time>2011-11-27T10:55:09Z</time>
      </trkpt>
      <trkpt lat="44.0451" lon="4.35239">
        <ele>179.6</ele>
        <time>2011-11-27T10:55:10Z</time>
      </trkpt>
      <trkpt lat="44.04505" lon="4.3524">
        <ele>179.4</ele>
        <time>2011-11-27T10:55:11Z</time>
      </trkpt>
      <trkpt lat="44.045" lon="4.3524">
        <ele>179.3</ele>
        <time>2011-11-27T10:55:12Z</time>
      </trkpt>
      <trkpt lat="44.04495" lon="4.3524">
        <ele>179.2</ele>
        <time>2011-11-27T10:55:13Z</time>
      </trkpt>
      <trkpt lat="44.0449" lon="4.35241">
        <ele>179.1</ele>
        <time>2011-11-27T10:55:14Z</time>
      </trkpt>
      <trkpt lat="44.04485" lon="4.35241">
        <ele>179</ele>
        <time>2011-11-27T10:55:15Z</time>
      </trkpt>
      <trkpt lat="44.0448" lon="4.35241">
        <ele>178.9</ele>
        <time>2011-11-27T10:55:16Z</time>
      </trkpt>
      <trkpt lat="44.04475" lon="4.35242">
        <ele>178.8</ele>
        <time>2011-11-27T10:55:17Z</time>
      </trkpt>
      <trkpt lat="44.0447" lon="4.35242">
        <ele>178.7</ele>
        <time>2011-11-27T10:55:18Z</time>
      </trkpt>
      <trkpt lat="44.04465" lon="4.35242">
        <ele>178.6</ele>
        <time>2011-11-27T10:55:19Z</time>
      </trkpt>
      <trkpt lat="44.0446" lon="4.35243">
        <ele>178.5</ele>
        <time>2011-11-27T10:55:20Z</time>
      </trkpt>
      <trkpt lat="44.04452" lon="4.35244">
        <ele>178.2</ele>
        <time>2011-11-27T10:55:22Z</time>
      </trkpt>
      <trkpt lat="44.04446" lon="4.35244">
        <ele>178</ele>
        <time>2011-11-27T10:55:24Z</time>
      </trkpt>
      <trkpt lat="44.04444" lon="4.35237">
        <ele>178.2</ele>
        <time>2011-11-27T10:55:27Z</time>
      </trkpt>
      <trkpt lat="44.04443" lon="4.3523">
        <ele>178.4</ele>
        <time>2011-11-27T10:55:29Z</time>
      </trkpt>
      <trkpt lat="44.04443" lon="4.35223">
        <ele>178.4</ele>
        <time>2011-11-27T10:55:31Z</time>
      </trkpt>
      <trkpt lat="44.04442" lon="4.35216">
        <ele>178.5</ele>
        <time>2011-11-27T10:55:33Z</time>
      </trkpt>
      <trkpt lat="44.04441" lon="4.35209">
        <ele>178.5</ele>
        <time>2011-11-27T10:55:35Z</time>
      </trkpt>
      <trkpt lat="44.04441" lon="4.35201">
        <ele>178.4</ele>
        <time>2011-11-27T10:55:37Z</time>
      </trkpt>
      <trkpt lat="44.0444" lon="4.35194">
        <ele>178.5</ele>
        <time>2011-11-27T10:55:39Z</time>
      </trkpt>
      <trkpt lat="44.0444" lon="4.35187">
        <ele>178.7</ele>
        <time>2011-11-27T10:55:42Z</time>
      </trkpt>
      <trkpt lat="44.0444" lon="4.3518">
        <ele>178.7</ele>
        <time>2011-11-27T10:55:45Z</time>
      </trkpt>
      <trkpt lat="44.0444" lon="4.35173">
        <ele>178.7</ele>
        <time>2011-11-27T10:55:48Z</time>
      </trkpt>
      <trkpt lat="44.0444" lon="4.35164">
        <ele>178.6</ele>
        <time>2011-11-27T10:55:51Z</time>
      </trkpt>
      <trkpt lat="44.04439" lon="4.35155">
        <ele>178.5</ele>
        <time>2011-11-27T10:55:54Z</time>
      </trkpt>
      <trkpt lat="44.04439" lon="4.35149">
        <ele>178.5</ele>
        <time>2011-11-27T10:55:56Z</time>
      </trkpt>
      <trkpt lat="44.04439" lon="4.35142">
        <ele>178.5</ele>
        <time>2011-11-27T10:55:58Z</time>
      </trkpt>
      <trkpt lat="44.04438" lon="4.35133">
        <ele>178.4</ele>
        <time>2011-11-27T10:56:01Z</time>
      </trkpt>
      <trkpt lat="44.04439" lon="4.35125">
        <ele>177.9</ele>
        <time>2011-11-27T10:56:04Z</time>
      </trkpt>
      <trkpt lat="44.04438" lon="4.35118">
        <ele>177.8</ele>
        <time>2011-11-27T10:56:07Z</time>
      </trkpt>
      <trkpt lat="44.04438" lon="4.3511">
        <ele>177.9</ele>
        <time>2011-11-27T10:56:10Z</time>
      </trkpt>
      <trkpt lat="44.04437" lon="4.351">
        <ele>177.7</ele>
        <time>2011-11-27T10:56:13Z</time>
      </trkpt>
      <trkpt lat="44.04437" lon="4.35092">
        <ele>177.4</ele>
        <time>2011-11-27T10:56:15Z</time>
      </trkpt>
      <trkpt lat="44.04436" lon="4.35082">
        <ele>177.2</ele>
        <time>2011-11-27T10:56:17Z</time>
      </trkpt>
      <trkpt lat="44.04435" lon="4.35073">
        <ele>177.1</ele>
        <time>2011-11-27T10:56:19Z</time>
      </trkpt>
      <trkpt lat="44.04434" lon="4.35063">
        <ele>176.6</ele>
        <time>2011-11-27T10:56:21Z</time>
      </trkpt>
      <trkpt lat="44.04432" lon="4.35053">
        <ele>176.1</ele>
        <time>2011-11-27T10:56:23Z</time>
      </trkpt>
      <trkpt lat="44.04428" lon="4.35044">
        <ele>175.5</ele>
        <time>2011-11-27T10:56:25Z</time>
      </trkpt>
      <trkpt lat="44.04424" lon="4.35034">
        <ele>175.1</ele>
        <time>2011-11-27T10:56:27Z</time>
      </trkpt>
      <trkpt lat="44.04419" lon="4.35023">
        <ele>174.9</ele>
        <time>2011-11-27T10:56:29Z</time>
      </trkpt>
      <trkpt lat="44.04414" lon="4.35013">
        <ele>174.5</ele>
        <time>2011-11-27T10:56:31Z</time>
      </trkpt>
      <trkpt lat="44.04408" lon="4.35004">
        <ele>174.3</ele>
        <time>2011-11-27T10:56:33Z</time>
      </trkpt>
      <trkpt lat="44.04403" lon="4.34997">
        <ele>174</ele>
        <time>2011-11-27T10:56:35Z</time>
      </trkpt>
      <trkpt lat="44.04397" lon="4.3499">
        <ele>173.6</ele>
        <time>2011-11-27T10:56:37Z</time>
      </trkpt>
      <trkpt lat="44.04393" lon="4.34986">
        <ele>173.4</ele>
        <time>2011-11-27T10:56:38Z</time>
      </trkpt>
      <trkpt lat="44.04389" lon="4.34981">
        <ele>173.3</ele>
        <time>2011-11-27T10:56:39Z</time>
      </trkpt>
      <trkpt lat="44.04385" lon="4.34977">
        <ele>173.2</ele>
        <time>2011-11-27T10:56:40Z</time>
      </trkpt>
      <trkpt lat="44.04381" lon="4.34972">
        <ele>173</ele>
        <time>2011-11-27T10:56:41Z</time>
      </trkpt>
      <trkpt lat="44.04377" lon="4.34968">
        <ele>172.7</ele>
        <time>2011-11-27T10:56:42Z</time>
      </trkpt>
      <trkpt lat="44.04373" lon="4.34963">
        <ele>172.6</ele>
        <time>2011-11-27T10:56:43Z</time>
      </trkpt>
      <trkpt lat="44.04368" lon="4.34959">
        <ele>172.5</ele>
        <time>2011-11-27T10:56:44Z</time>
      </trkpt>
      <trkpt lat="44.04364" lon="4.34956">
        <ele>172.3</ele>
        <time>2011-11-27T10:56:45Z</time>
      </trkpt>
      <trkpt lat="44.0436" lon="4.34952">
        <ele>172.2</ele>
        <time>2011-11-27T10:56:46Z</time>
      </trkpt>
      <trkpt lat="44.04352" lon="4.34947">
        <ele>171.7</ele>
        <time>2011-11-27T10:56:48Z</time>
      </trkpt>
      <trkpt lat="44.04347" lon="4.34943">
        <ele>172</ele>
        <time>2011-11-27T10:56:50Z</time>
      </trkpt>
      <trkpt lat="44.04343" lon="4.34939">
        <ele>172</ele>
        <time>2011-11-27T10:56:52Z</time>
      </trkpt>
      <trkpt lat="44.04338" lon="4.34932">
        <ele>172.2</ele>
        <time>2011-11-27T10:56:54Z</time>
      </trkpt>
      <trkpt lat="44.04334" lon="4.34923">
        <ele>172.6</ele>
        <time>2011-11-27T10:56:56Z</time>
      </trkpt>
      <trkpt lat="44.0433" lon="4.34914">
        <ele>173</ele>
        <time>2011-11-27T10:56:58Z</time>
      </trkpt>
      <trkpt lat="44.04327" lon="4.34908">
        <ele>173.7</ele>
        <time>2011-11-27T10:57:00Z</time>
      </trkpt>
      <trkpt lat="44.04325" lon="4.34902">
        <ele>174.2</ele>
        <time>2011-11-27T10:57:02Z</time>
      </trkpt>
      <trkpt lat="44.04322" lon="4.34896">
        <ele>174.7</ele>
        <time>2011-11-27T10:57:04Z</time>
      </trkpt>
      <trkpt lat="44.0432" lon="4.34888">
        <ele>175.5</ele>
        <time>2011-11-27T10:57:07Z</time>
      </trkpt>
      <trkpt lat="44.04318" lon="4.3488">
        <ele>176.6</ele>
        <time>2011-11-27T10:57:10Z</time>
      </trkpt>
      <trkpt lat="44.04316" lon="4.34872">
        <ele>178.4</ele>
        <time>2011-11-27T10:57:13Z</time>
      </trkpt>
      <trkpt lat="44.04313" lon="4.34863">
        <ele>179.6</ele>
        <time>2011-11-27T10:57:16Z</time>
      </trkpt>
      <trkpt lat="44.04312" lon="4.34857">
        <ele>180.6</ele>
        <time>2011-11-27T10:57:18Z</time>
      </trkpt>
      <trkpt lat="44.0431" lon="4.3485">
        <ele>181.3</ele>
        <time>2011-11-27T10:57:20Z</time>
      </trkpt>
      <trkpt lat="44.04309" lon="4.34843">
        <ele>182</ele>
        <time>2011-11-27T10:57:22Z</time>
      </trkpt>
      <trkpt lat="44.04306" lon="4.34838">
        <ele>182.5</ele>
        <time>2011-11-27T10:57:24Z</time>
      </trkpt>
      <trkpt lat="44.04302" lon="4.3483">
        <ele>182.6</ele>
        <time>2011-11-27T10:57:27Z</time>
      </trkpt>
      <trkpt lat="44.04298" lon="4.34825">
        <ele>182.5</ele>
        <time>2011-11-27T10:57:29Z</time>
      </trkpt>
      <trkpt lat="44.04293" lon="4.34819">
        <ele>182.1</ele>
        <time>2011-11-27T10:57:31Z</time>
      </trkpt>
      <trkpt lat="44.04288" lon="4.34812">
        <ele>181.5</ele>
        <time>2011-11-27T10:57:33Z</time>
      </trkpt>
      <trkpt lat="44.04283" lon="4.34806">
        <ele>181.3</ele>
        <time>2011-11-27T10:57:35Z</time>
      </trkpt>
      <trkpt lat="44.04278" lon="4.348">
        <ele>181.2</ele>
        <time>2011-11-27T10:57:37Z</time>
      </trkpt>
      <trkpt lat="44.04273" lon="4.34795">
        <ele>181.2</ele>
        <time>2011-11-27T10:57:39Z</time>
      </trkpt>
      <trkpt lat="44.04268" lon="4.3479">
        <ele>180.9</ele>
        <time>2011-11-27T10:57:41Z</time>
      </trkpt>
      <trkpt lat="44.04265" lon="4.34784">
        <ele>180.4</ele>
        <time>2011-11-27T10:57:43Z</time>
      </trkpt>
      <trkpt lat="44.04261" lon="4.34778">
        <ele>180.4</ele>
        <time>2011-11-27T10:57:45Z</time>
      </trkpt>
      <trkpt lat="44.04255" lon="4.34772">
        <ele>180.3</ele>
        <time>2011-11-27T10:57:47Z</time>
      </trkpt>
      <trkpt lat="44.04249" lon="4.34767">
        <ele>180.4</ele>
        <time>2011-11-27T10:57:49Z</time>
      </trkpt>
      <trkpt lat="44.04244" lon="4.34762">
        <ele>180.4</ele>
        <time>2011-11-27T10:57:51Z</time>
      </trkpt>
      <trkpt lat="44.04239" lon="4.34758">
        <ele>180.2</ele>
        <time>2011-11-27T10:57:53Z</time>
      </trkpt>
      <trkpt lat="44.04234" lon="4.34752">
        <ele>180</ele>
        <time>2011-11-27T10:57:55Z</time>
      </trkpt>
      <trkpt lat="44.04231" lon="4.34747">
        <ele>179.7</ele>
        <time>2011-11-27T10:57:57Z</time>
      </trkpt>
      <trkpt lat="44.04227" lon="4.34742">
        <ele>179.7</ele>
        <time>2011-11-27T10:57:59Z</time>
      </trkpt>
      <trkpt lat="44.04223" lon="4.34737">
        <ele>179.7</ele>
        <time>2011-11-27T10:58:01Z</time>
      </trkpt>
      <trkpt lat="44.04219" lon="4.34732">
        <ele>179.8</ele>
        <time>2011-11-27T10:58:03Z</time>
      </trkpt>
      <trkpt lat="44.04214" lon="4.34728">
        <ele>179.9</ele>
        <time>2011-11-27T10:58:05Z</time>
      </trkpt>
      <trkpt lat="44.04209" lon="4.34722">
        <ele>179.9</ele>
        <time>2011-11-27T10:58:08Z</time>
      </trkpt>
      <trkpt lat="44.04205" lon="4.34718">
        <ele>180</ele>
        <time>2011-11-27T10:58:11Z</time>
      </trkpt>
      <trkpt lat="44.042" lon="4.34714">
        <ele>180.3</ele>
        <time>2011-11-27T10:58:14Z</time>
      </trkpt>
      <trkpt lat="44.04195" lon="4.34711">
        <ele>180.3</ele>
        <time>2011-11-27T10:58:17Z</time>
      </trkpt>
      <trkpt lat="44.0419" lon="4.34708">
        <ele>180.1</ele>
        <time>2011-11-27T10:58:20Z</time>
      </trkpt>
      <trkpt lat="44.04186" lon="4.34705">
        <ele>179.7</ele>
        <time>2011-11-27T10:58:23Z</time>
      </trkpt>
      <trkpt lat="44.0418" lon="4.347">
        <ele>179.4</ele>
        <time>2011-11-27T10:58:27Z</time>
      </trkpt>
      <trkpt lat="44.04176" lon="4.34695">
        <ele>179.1</ele>
        <time>2011-11-27T10:58:30Z</time>
      </trkpt>
      <trkpt lat="44.04171" lon="4.3469">
        <ele>179.1</ele>
        <time>2011-11-27T10:58:33Z</time>
      </trkpt>
      <trkpt lat="44.04167" lon="4.34686">
        <ele>179.2</ele>
        <time>2011-11-27T10:58:35Z</time>
      </trkpt>
      <trkpt lat="44.04164" lon="4.34681">
        <ele>179</ele>
        <time>2011-11-27T10:58:37Z</time>
      </trkpt>
      <trkpt lat="44.04159" lon="4.34675">
        <ele>179</ele>
        <time>2011-11-27T10:58:40Z</time>
      </trkpt>
      <trkpt lat="44.04156" lon="4.3467">
        <ele>178.9</ele>
        <time>2011-11-27T10:58:42Z</time>
      </trkpt>
      <trkpt lat="44.04153" lon="4.34664">
        <ele>178.9</ele>
        <time>2011-11-27T10:58:44Z</time>
      </trkpt>
      <trkpt lat="44.04149" lon="4.34658">
        <ele>178.9</ele>
        <time>2011-11-27T10:58:46Z</time>
      </trkpt>
      <trkpt lat="44.04146" lon="4.34653">
        <ele>179.1</ele>
        <time>2011-11-27T10:58:48Z</time>
      </trkpt>
      <trkpt lat="44.04143" lon="4.34647">
        <ele>179</ele>
        <time>2011-11-27T10:58:50Z</time>
      </trkpt>
      <trkpt lat="44.0414" lon="4.34642">
        <ele>179.1</ele>
        <time>2011-11-27T10:58:52Z</time>
      </trkpt>
      <trkpt lat="44.04136" lon="4.34636">
        <ele>178.9</ele>
        <time>2011-11-27T10:58:54Z</time>
      </trkpt>
      <trkpt lat="44.04131" lon="4.3463">
        <ele>178.7</ele>
        <time>2011-11-27T10:58:56Z</time>
      </trkpt>
      <trkpt lat="44.04127" lon="4.34624">
        <ele>178.4</ele>
        <time>2011-11-27T10:58:58Z</time>
      </trkpt>
      <trkpt lat="44.04123" lon="4.34618">
        <ele>178.1</ele>
        <time>2011-11-27T10:59:00Z</time>
      </trkpt>
      <trkpt lat="44.04118" lon="4.34612">
        <ele>177.7</ele>
        <time>2011-11-27T10:59:02Z</time>
      </trkpt>
      <trkpt lat="44.04113" lon="4.34607">
        <ele>177.4</ele>
        <time>2011-11-27T10:59:04Z</time>
      </trkpt>
      <trkpt lat="44.04107" lon="4.34601">
        <ele>177.3</ele>
        <time>2011-11-27T10:59:06Z</time>
      </trkpt>
      <trkpt lat="44.04101" lon="4.34595">
        <ele>176.9</ele>
        <time>2011-11-27T10:59:08Z</time>
      </trkpt>
      <trkpt lat="44.04096" lon="4.34589">
        <ele>176.5</ele>
        <time>2011-11-27T10:59:10Z</time>
      </trkpt>
      <trkpt lat="44.0409" lon="4.34584">
        <ele>176.3</ele>
        <time>2011-11-27T10:59:12Z</time>
      </trkpt>
      <trkpt lat="44.04084" lon="4.3458">
        <ele>176.1</ele>
        <time>2011-11-27T10:59:14Z</time>
      </trkpt>
      <trkpt lat="44.04078" lon="4.34577">
        <ele>176</ele>
        <time>2011-11-27T10:59:16Z</time>
      </trkpt>
      <trkpt lat="44.04071" lon="4.34576">
        <ele>175.9</ele>
        <time>2011-11-27T10:59:18Z</time>
      </trkpt>
      <trkpt lat="44.04064" lon="4.34576">
        <ele>175.9</ele>
        <time>2011-11-27T10:59:20Z</time>
      </trkpt>
      <trkpt lat="44.04056" lon="4.34577">
        <ele>175.7</ele>
        <time>2011-11-27T10:59:22Z</time>
      </trkpt>
      <trkpt lat="44.04048" lon="4.34578">
        <ele>175.2</ele>
        <time>2011-11-27T10:59:24Z</time>
      </trkpt>
      <trkpt lat="44.04039" lon="4.3458">
        <ele>174.7</ele>
        <time>2011-11-27T10:59:26Z</time>
      </trkpt>
      <trkpt lat="44.04034" lon="4.3458">
        <ele>174.3</ele>
        <time>2011-11-27T10:59:27Z</time>
      </trkpt>
      <trkpt lat="44.04028" lon="4.34581">
        <ele>173.7</ele>
        <time>2011-11-27T10:59:28Z</time>
      </trkpt>
      <trkpt lat="44.04023" lon="4.34582">
        <ele>173.2</ele>
        <time>2011-11-27T10:59:29Z</time>
      </trkpt>
      <trkpt lat="44.04017" lon="4.34582">
        <ele>172.8</ele>
        <time>2011-11-27T10:59:30Z</time>
      </trkpt>
      <trkpt lat="44.04012" lon="4.34583">
        <ele>172.3</ele>
        <time>2011-11-27T10:59:31Z</time>
      </trkpt>
      <trkpt lat="44.04006" lon="4.34583">
        <ele>171.9</ele>
        <time>2011-11-27T10:59:32Z</time>
      </trkpt>
      <trkpt lat="44.04002" lon="4.34584">
        <ele>171.6</ele>
        <time>2011-11-27T10:59:33Z</time>
      </trkpt>
      <trkpt lat="44.03995" lon="4.34585">
        <ele>171.3</ele>
        <time>2011-11-27T10:59:35Z</time>
      </trkpt>
      <trkpt lat="44.03989" lon="4.34588">
        <ele>171.3</ele>
        <time>2011-11-27T10:59:37Z</time>
      </trkpt>
      <trkpt lat="44.03984" lon="4.34593">
        <ele>171.1</ele>
        <time>2011-11-27T10:59:39Z</time>
      </trkpt>
      <trkpt lat="44.03979" lon="4.34599">
        <ele>170.9</ele>
        <time>2011-11-27T10:59:41Z</time>
      </trkpt>
      <trkpt lat="44.03972" lon="4.34604">
        <ele>170.7</ele>
        <time>2011-11-27T10:59:43Z</time>
      </trkpt>
      <trkpt lat="44.03964" lon="4.34608">
        <ele>170.4</ele>
        <time>2011-11-27T10:59:45Z</time>
      </trkpt>
      <trkpt lat="44.03956" lon="4.3461">
        <ele>170.1</ele>
        <time>2011-11-27T10:59:47Z</time>
      </trkpt>
      <trkpt lat="44.03948" lon="4.34612">
        <ele>169.8</ele>
        <time>2011-11-27T10:59:49Z</time>
      </trkpt>
      <trkpt lat="44.0394" lon="4.34613">
        <ele>169.6</ele>
        <time>2011-11-27T10:59:51Z</time>
      </trkpt>
      <trkpt lat="44.03933" lon="4.34614">
        <ele>169.4</ele>
        <time>2011-11-27T10:59:53Z</time>
      </trkpt>
      <trkpt lat="44.03926" lon="4.34616">
        <ele>169.2</ele>
        <time>2011-11-27T10:59:55Z</time>
      </trkpt>
      <trkpt lat="44.0392" lon="4.34617">
        <ele>169.1</ele>
        <time>2011-11-27T10:59:57Z</time>
      </trkpt>
      <trkpt lat="44.03915" lon="4.34618">
        <ele>169</ele>
        <time>2011-11-27T10:59:59Z</time>
      </trkpt>
      <trkpt lat="44.0391" lon="4.34621">
        <ele>168.9</ele>
        <time>2011-11-27T11:00:01Z</time>
      </trkpt>
      <trkpt lat="44.03905" lon="4.34625">
        <ele>169</ele>
        <time>2011-11-27T11:00:03Z</time>
      </trkpt>
      <trkpt lat="44.03901" lon="4.34629">
        <ele>169.2</ele>
        <time>2011-11-27T11:00:05Z</time>
      </trkpt>
      <trkpt lat="44.03898" lon="4.34636">
        <ele>169.3</ele>
        <time>2011-11-27T11:00:07Z</time>
      </trkpt>
      <trkpt lat="44.03896" lon="4.34644">
        <ele>169.7</ele>
        <time>2011-11-27T11:00:09Z</time>
      </trkpt>
      <trkpt lat="44.03894" lon="4.34653">
        <ele>169.9</ele>
        <time>2011-11-27T11:00:11Z</time>
      </trkpt>
      <trkpt lat="44.03893" lon="4.34661">
        <ele>170</ele>
        <time>2011-11-27T11:00:13Z</time>
      </trkpt>
      <trkpt lat="44.03892" lon="4.34668">
        <ele>170.5</ele>
        <time>2011-11-27T11:00:15Z</time>
      </trkpt>
      <trkpt lat="44.03891" lon="4.34674">
        <ele>170.4</ele>
        <time>2011-11-27T11:00:17Z</time>
      </trkpt>
      <trkpt lat="44.03891" lon="4.34681">
        <ele>170.5</ele>
        <time>2011-11-27T11:00:19Z</time>
      </trkpt>
      <trkpt lat="44.03887" lon="4.34686">
        <ele>170.5</ele>
        <time>2011-11-27T11:00:22Z</time>
      </trkpt>
      <trkpt lat="44.03867" lon="4.34681">
        <ele>171.3</ele>
        <time>2011-11-27T11:00:45Z</time>
      </trkpt>
      <trkpt lat="44.03861" lon="4.34679">
        <ele>171.3</ele>
        <time>2011-11-27T11:00:48Z</time>
      </trkpt>
      <trkpt lat="44.03855" lon="4.34676">
        <ele>171.3</ele>
        <time>2011-11-27T11:00:51Z</time>
      </trkpt>
      <trkpt lat="44.0385" lon="4.34674">
        <ele>171.6</ele>
        <time>2011-11-27T11:00:54Z</time>
      </trkpt>
      <trkpt lat="44.03844" lon="4.34672">
        <ele>171.1</ele>
        <time>2011-11-27T11:00:57Z</time>
      </trkpt>
      <trkpt lat="44.03839" lon="4.34668">
        <ele>171</ele>
        <time>2011-11-27T11:00:59Z</time>
      </trkpt>
      <trkpt lat="44.03832" lon="4.34666">
        <ele>170.8</ele>
        <time>2011-11-27T11:01:01Z</time>
      </trkpt>
      <trkpt lat="44.03823" lon="4.34663">
        <ele>170.4</ele>
        <time>2011-11-27T11:01:03Z</time>
      </trkpt>
      <trkpt lat="44.03818" lon="4.34662">
        <ele>170.1</ele>
        <time>2011-11-27T11:01:04Z</time>
      </trkpt>
      <trkpt lat="44.03812" lon="4.34661">
        <ele>169.6</ele>
        <time>2011-11-27T11:01:05Z</time>
      </trkpt>
      <trkpt lat="44.03805" lon="4.3466">
        <ele>169</ele>
        <time>2011-11-27T11:01:06Z</time>
      </trkpt>
      <trkpt lat="44.03798" lon="4.34659">
        <ele>168.5</ele>
        <time>2011-11-27T11:01:07Z</time>
      </trkpt>
      <trkpt lat="44.03791" lon="4.34658">
        <ele>168.2</ele>
        <time>2011-11-27T11:01:08Z</time>
      </trkpt>
      <trkpt lat="44.03784" lon="4.34657">
        <ele>167.6</ele>
        <time>2011-11-27T11:01:09Z</time>
      </trkpt>
      <trkpt lat="44.03777" lon="4.34657">
        <ele>167.2</ele>
        <time>2011-11-27T11:01:10Z</time>
      </trkpt>
      <trkpt lat="44.0377" lon="4.34657">
        <ele>166.7</ele>
        <time>2011-11-27T11:01:11Z</time>
      </trkpt>
      <trkpt lat="44.03733" lon="4.34657">
        <ele>166.1</ele>
        <time>2011-11-27T11:01:12Z</time>
      </trkpt>
      <trkpt lat="44.03725" lon="4.34656">
        <ele>165.2</ele>
        <time>2011-11-27T11:01:13Z</time>
      </trkpt>
      <trkpt lat="44.03718" lon="4.34656">
        <ele>164.7</ele>
        <time>2011-11-27T11:01:14Z</time>
      </trkpt>
      <trkpt lat="44.0371" lon="4.34654">
        <ele>164.1</ele>
        <time>2011-11-27T11:01:15Z</time>
      </trkpt>
      <trkpt lat="44.03704" lon="4.34652">
        <ele>163.4</ele>
        <time>2011-11-27T11:01:16Z</time>
      </trkpt>
      <trkpt lat="44.03698" lon="4.3465">
        <ele>162.8</ele>
        <time>2011-11-27T11:01:17Z</time>
      </trkpt>
      <trkpt lat="44.03692" lon="4.34647">
        <ele>162.2</ele>
        <time>2011-11-27T11:01:18Z</time>
      </trkpt>
      <trkpt lat="44.03687" lon="4.34646">
        <ele>161.8</ele>
        <time>2011-11-27T11:01:19Z</time>
      </trkpt>
      <trkpt lat="44.03682" lon="4.34646">
        <ele>161.4</ele>
        <time>2011-11-27T11:01:20Z</time>
      </trkpt>
      <trkpt lat="44.03677" lon="4.34647">
        <ele>160.9</ele>
        <time>2011-11-27T11:01:21Z</time>
      </trkpt>
      <trkpt lat="44.0367" lon="4.34652">
        <ele>160.5</ele>
        <time>2011-11-27T11:01:23Z</time>
      </trkpt>
      <trkpt lat="44.03663" lon="4.34657">
        <ele>160.3</ele>
        <time>2011-11-27T11:01:25Z</time>
      </trkpt>
      <trkpt lat="44.03658" lon="4.34663">
        <ele>160.1</ele>
        <time>2011-11-27T11:01:27Z</time>
      </trkpt>
      <trkpt lat="44.03654" lon="4.34668">
        <ele>160.1</ele>
        <time>2011-11-27T11:01:29Z</time>
      </trkpt>
      <trkpt lat="44.0365" lon="4.34673">
        <ele>161.2</ele>
        <time>2011-11-27T11:01:32Z</time>
      </trkpt>
      <trkpt lat="44.03644" lon="4.34676">
        <ele>164.2</ele>
        <time>2011-11-27T11:01:38Z</time>
      </trkpt>
      <trkpt lat="44.03637" lon="4.34672">
        <ele>165</ele>
        <time>2011-11-27T11:01:40Z</time>
      </trkpt>
      <trkpt lat="44.03634" lon="4.34662">
        <ele>166.3</ele>
        <time>2011-11-27T11:01:42Z</time>
      </trkpt>
      <trkpt lat="44.03631" lon="4.34649">
        <ele>167.4</ele>
        <time>2011-11-27T11:01:44Z</time>
      </trkpt>
      <trkpt lat="44.03631" lon="4.34643">
        <ele>168</ele>
        <time>2011-11-27T11:01:45Z</time>
      </trkpt>
      <trkpt lat="44.03629" lon="4.34636">
        <ele>168.5</ele>
        <time>2011-11-27T11:01:46Z</time>
      </trkpt>
      <trkpt lat="44.03627" lon="4.3463">
        <ele>168.9</ele>
        <time>2011-11-27T11:01:47Z</time>
      </trkpt>
      <trkpt lat="44.03626" lon="4.34624">
        <ele>169.4</ele>
        <time>2011-11-27T11:01:48Z</time>
      </trkpt>
      <trkpt lat="44.03624" lon="4.34618">
        <ele>169.5</ele>
        <time>2011-11-27T11:01:49Z</time>
      </trkpt>
      <trkpt lat="44.03622" lon="4.34612">
        <ele>169.8</ele>
        <time>2011-11-27T11:01:50Z</time>
      </trkpt>
      <trkpt lat="44.0362" lon="4.34606">
        <ele>170.1</ele>
        <time>2011-11-27T11:01:51Z</time>
      </trkpt>
      <trkpt lat="44.03618" lon="4.346">
        <ele>170.5</ele>
        <time>2011-11-27T11:01:52Z</time>
      </trkpt>
      <trkpt lat="44.03616" lon="4.34594">
        <ele>170.8</ele>
        <time>2011-11-27T11:01:53Z</time>
      </trkpt>
      <trkpt lat="44.03613" lon="4.34589">
        <ele>171</ele>
        <time>2011-11-27T11:01:54Z</time>
      </trkpt>
      <trkpt lat="44.03608" lon="4.34578">
        <ele>171.9</ele>
        <time>2011-11-27T11:01:56Z</time>
      </trkpt>
      <trkpt lat="44.03605" lon="4.34569">
        <ele>172.8</ele>
        <time>2011-11-27T11:01:58Z</time>
      </trkpt>
      <trkpt lat="44.03601" lon="4.34559">
        <ele>173.7</ele>
        <time>2011-11-27T11:02:00Z</time>
      </trkpt>
      <trkpt lat="44.03595" lon="4.34549">
        <ele>174.7</ele>
        <time>2011-11-27T11:02:02Z</time>
      </trkpt>
      <trkpt lat="44.03593" lon="4.34544">
        <ele>175.1</ele>
        <time>2011-11-27T11:02:03Z</time>
      </trkpt>
      <trkpt lat="44.03588" lon="4.34534">
        <ele>176</ele>
        <time>2011-11-27T11:02:05Z</time>
      </trkpt>
      <trkpt lat="44.03583" lon="4.34524">
        <ele>176.8</ele>
        <time>2011-11-27T11:02:07Z</time>
      </trkpt>
      <trkpt lat="44.03579" lon="4.34513">
        <ele>177.7</ele>
        <time>2011-11-27T11:02:09Z</time>
      </trkpt>
      <trkpt lat="44.03576" lon="4.34502">
        <ele>178.9</ele>
        <time>2011-11-27T11:02:11Z</time>
      </trkpt>
      <trkpt lat="44.03573" lon="4.34492">
        <ele>179.9</ele>
        <time>2011-11-27T11:02:13Z</time>
      </trkpt>
      <trkpt lat="44.03569" lon="4.34482">
        <ele>180.4</ele>
        <time>2011-11-27T11:02:15Z</time>
      </trkpt>
      <trkpt lat="44.03564" lon="4.34472">
        <ele>180.1</ele>
        <time>2011-11-27T11:02:17Z</time>
      </trkpt>
      <trkpt lat="44.03558" lon="4.34463">
        <ele>180.5</ele>
        <time>2011-11-27T11:02:19Z</time>
      </trkpt>
      <trkpt lat="44.03551" lon="4.34455">
        <ele>180.3</ele>
        <time>2011-11-27T11:02:21Z</time>
      </trkpt>
      <trkpt lat="44.03544" lon="4.3445">
        <ele>180.8</ele>
        <time>2011-11-27T11:02:23Z</time>
      </trkpt>
      <trkpt lat="44.0354" lon="4.34444">
        <ele>181.5</ele>
        <time>2011-11-27T11:02:25Z</time>
      </trkpt>
      <trkpt lat="44.03536" lon="4.34439">
        <ele>181.8</ele>
        <time>2011-11-27T11:02:27Z</time>
      </trkpt>
      <trkpt lat="44.03532" lon="4.34433">
        <ele>181.9</ele>
        <time>2011-11-27T11:02:29Z</time>
      </trkpt>
      <trkpt lat="44.03529" lon="4.34428">
        <ele>182.6</ele>
        <time>2011-11-27T11:02:32Z</time>
      </trkpt>
      <trkpt lat="44.03526" lon="4.34422">
        <ele>182.9</ele>
        <time>2011-11-27T11:02:36Z</time>
      </trkpt>
      <trkpt lat="44.03522" lon="4.34416">
        <ele>182.6</ele>
        <time>2011-11-27T11:02:39Z</time>
      </trkpt>
      <trkpt lat="44.03518" lon="4.3441">
        <ele>183.1</ele>
        <time>2011-11-27T11:02:42Z</time>
      </trkpt>
      <trkpt lat="44.03515" lon="4.34404">
        <ele>183.6</ele>
        <time>2011-11-27T11:02:45Z</time>
      </trkpt>
      <trkpt lat="44.03511" lon="4.34396">
        <ele>184.3</ele>
        <time>2011-11-27T11:02:48Z</time>
      </trkpt>
      <trkpt lat="44.03508" lon="4.3439">
        <ele>184.2</ele>
        <time>2011-11-27T11:02:50Z</time>
      </trkpt>
      <trkpt lat="44.03506" lon="4.34384">
        <ele>183.9</ele>
        <time>2011-11-27T11:02:52Z</time>
      </trkpt>
      <trkpt lat="44.03502" lon="4.34378">
        <ele>184.1</ele>
        <time>2011-11-27T11:02:56Z</time>
      </trkpt>
      <trkpt lat="44.035" lon="4.34372">
        <ele>184.6</ele>
        <time>2011-11-27T11:02:59Z</time>
      </trkpt>
      <trkpt lat="44.03497" lon="4.34365">
        <ele>184.9</ele>
        <time>2011-11-27T11:03:03Z</time>
      </trkpt>
      <trkpt lat="44.03495" lon="4.34358">
        <ele>185.4</ele>
        <time>2011-11-27T11:03:07Z</time>
      </trkpt>
      <trkpt lat="44.03492" lon="4.3435">
        <ele>185.5</ele>
        <time>2011-11-27T11:03:10Z</time>
      </trkpt>
      <trkpt lat="44.0349" lon="4.34342">
        <ele>185.4</ele>
        <time>2011-11-27T11:03:13Z</time>
      </trkpt>
      <trkpt lat="44.03488" lon="4.34334">
        <ele>185.5</ele>
        <time>2011-11-27T11:03:16Z</time>
      </trkpt>
      <trkpt lat="44.03486" lon="4.34326">
        <ele>185.7</ele>
        <time>2011-11-27T11:03:19Z</time>
      </trkpt>
      <trkpt lat="44.03484" lon="4.34318">
        <ele>185.8</ele>
        <time>2011-11-27T11:03:22Z</time>
      </trkpt>
      <trkpt lat="44.03482" lon="4.34312">
        <ele>186</ele>
        <time>2011-11-27T11:03:24Z</time>
      </trkpt>
      <trkpt lat="44.0348" lon="4.34306">
        <ele>186.2</ele>
        <time>2011-11-27T11:03:26Z</time>
      </trkpt>
      <trkpt lat="44.03478" lon="4.34297">
        <ele>186.2</ele>
        <time>2011-11-27T11:03:29Z</time>
      </trkpt>
      <trkpt lat="44.03477" lon="4.34291">
        <ele>185.8</ele>
        <time>2011-11-27T11:03:31Z</time>
      </trkpt>
      <trkpt lat="44.03475" lon="4.34283">
        <ele>185.2</ele>
        <time>2011-11-27T11:03:33Z</time>
      </trkpt>
      <trkpt lat="44.03472" lon="4.34276">
        <ele>185.2</ele>
        <time>2011-11-27T11:03:35Z</time>
      </trkpt>
      <trkpt lat="44.03471" lon="4.3427">
        <ele>185.4</ele>
        <time>2011-11-27T11:03:37Z</time>
      </trkpt>
      <trkpt lat="44.03469" lon="4.34262">
        <ele>185.8</ele>
        <time>2011-11-27T11:03:40Z</time>
      </trkpt>
      <trkpt lat="44.03467" lon="4.34256">
        <ele>186</ele>
        <time>2011-11-27T11:03:43Z</time>
      </trkpt>
      <trkpt lat="44.03465" lon="4.34249">
        <ele>186.6</ele>
        <time>2011-11-27T11:03:47Z</time>
      </trkpt>
      <trkpt lat="44.03465" lon="4.34249">
        <ele>186.6</ele>
        <time>2011-11-27T11:03:47Z</time>
      </trkpt>
      <trkpt lat="44.03465" lon="4.34249">
        <ele>186.6</ele>
        <time>2011-11-27T11:04:16Z</time>
      </trkpt>
      <trkpt lat="44.03462" lon="4.34238">
        <ele>185.9</ele>
        <time>2011-11-27T11:04:17Z</time>
      </trkpt>
      <trkpt lat="44.03461" lon="4.34231">
        <ele>185.7</ele>
        <time>2011-11-27T11:04:19Z</time>
      </trkpt>
      <trkpt lat="44.03458" lon="4.34222">
        <ele>185.5</ele>
        <time>2011-11-27T11:04:21Z</time>
      </trkpt>
      <trkpt lat="44.03456" lon="4.34213">
        <ele>185.4</ele>
        <time>2011-11-27T11:04:23Z</time>
      </trkpt>
      <trkpt lat="44.03453" lon="4.34204">
        <ele>185.3</ele>
        <time>2011-11-27T11:04:25Z</time>
      </trkpt>
      <trkpt lat="44.0345" lon="4.34195">
        <ele>185.5</ele>
        <time>2011-11-27T11:04:27Z</time>
      </trkpt>
      <trkpt lat="44.03447" lon="4.34186">
        <ele>185.8</ele>
        <time>2011-11-27T11:04:29Z</time>
      </trkpt>
      <trkpt lat="44.03443" lon="4.34177">
        <ele>185.7</ele>
        <time>2011-11-27T11:04:31Z</time>
      </trkpt>
      <trkpt lat="44.0344" lon="4.34168">
        <ele>186.1</ele>
        <time>2011-11-27T11:04:33Z</time>
      </trkpt>
      <trkpt lat="44.03436" lon="4.3416">
        <ele>186.2</ele>
        <time>2011-11-27T11:04:35Z</time>
      </trkpt>
      <trkpt lat="44.03433" lon="4.34152">
        <ele>186.3</ele>
        <time>2011-11-27T11:04:37Z</time>
      </trkpt>
      <trkpt lat="44.03429" lon="4.34144">
        <ele>186.6</ele>
        <time>2011-11-27T11:04:39Z</time>
      </trkpt>
      <trkpt lat="44.03426" lon="4.34136">
        <ele>187</ele>
        <time>2011-11-27T11:04:41Z</time>
      </trkpt>
      <trkpt lat="44.03422" lon="4.3413">
        <ele>187.4</ele>
        <time>2011-11-27T11:04:43Z</time>
      </trkpt>
      <trkpt lat="44.03419" lon="4.34123">
        <ele>187.8</ele>
        <time>2011-11-27T11:04:45Z</time>
      </trkpt>
      <trkpt lat="44.03417" lon="4.34117">
        <ele>188.2</ele>
        <time>2011-11-27T11:04:47Z</time>
      </trkpt>
      <trkpt lat="44.03414" lon="4.34111">
        <ele>188.5</ele>
        <time>2011-11-27T11:04:49Z</time>
      </trkpt>
      <trkpt lat="44.03412" lon="4.34106">
        <ele>188.9</ele>
        <time>2011-11-27T11:04:51Z</time>
      </trkpt>
      <trkpt lat="44.0341" lon="4.34099">
        <ele>189.4</ele>
        <time>2011-11-27T11:04:53Z</time>
      </trkpt>
      <trkpt lat="44.03409" lon="4.34093">
        <ele>189.8</ele>
        <time>2011-11-27T11:04:55Z</time>
      </trkpt>
      <trkpt lat="44.03408" lon="4.34086">
        <ele>190.1</ele>
        <time>2011-11-27T11:04:57Z</time>
      </trkpt>
      <trkpt lat="44.03407" lon="4.34079">
        <ele>191</ele>
        <time>2011-11-27T11:04:59Z</time>
      </trkpt>
      <trkpt lat="44.03405" lon="4.34072">
        <ele>191.6</ele>
        <time>2011-11-27T11:05:01Z</time>
      </trkpt>
      <trkpt lat="44.03404" lon="4.34066">
        <ele>191.8</ele>
        <time>2011-11-27T11:05:03Z</time>
      </trkpt>
      <trkpt lat="44.03402" lon="4.34058">
        <ele>192.3</ele>
        <time>2011-11-27T11:05:05Z</time>
      </trkpt>
      <trkpt lat="44.034" lon="4.34052">
        <ele>192.7</ele>
        <time>2011-11-27T11:05:07Z</time>
      </trkpt>
      <trkpt lat="44.03397" lon="4.34046">
        <ele>193.1</ele>
        <time>2011-11-27T11:05:09Z</time>
      </trkpt>
      <trkpt lat="44.03395" lon="4.3404">
        <ele>193.1</ele>
        <time>2011-11-27T11:05:11Z</time>
      </trkpt>
      <trkpt lat="44.03391" lon="4.34033">
        <ele>194.3</ele>
        <time>2011-11-27T11:05:14Z</time>
      </trkpt>
      <trkpt lat="44.03387" lon="4.34026">
        <ele>195</ele>
        <time>2011-11-27T11:05:17Z</time>
      </trkpt>
      <trkpt lat="44.03384" lon="4.3402">
        <ele>195.8</ele>
        <time>2011-11-27T11:05:20Z</time>
      </trkpt>
      <trkpt lat="44.0338" lon="4.34013">
        <ele>196.6</ele>
        <time>2011-11-27T11:05:23Z</time>
      </trkpt>
      <trkpt lat="44.03377" lon="4.34008">
        <ele>197.4</ele>
        <time>2011-11-27T11:05:26Z</time>
      </trkpt>
      <trkpt lat="44.03374" lon="4.34">
        <ele>198.1</ele>
        <time>2011-11-27T11:05:30Z</time>
      </trkpt>
      <trkpt lat="44.03364" lon="4.3399">
        <ele>200.1</ele>
        <time>2011-11-27T11:05:42Z</time>
      </trkpt>
      <trkpt lat="44.0336" lon="4.33986">
        <ele>199.8</ele>
        <time>2011-11-27T11:05:45Z</time>
      </trkpt>
      <trkpt lat="44.03356" lon="4.3398">
        <ele>199.8</ele>
        <time>2011-11-27T11:05:48Z</time>
      </trkpt>
      <trkpt lat="44.03352" lon="4.33974">
        <ele>199.5</ele>
        <time>2011-11-27T11:05:51Z</time>
      </trkpt>
      <trkpt lat="44.03349" lon="4.33968">
        <ele>199.5</ele>
        <time>2011-11-27T11:05:54Z</time>
      </trkpt>
      <trkpt lat="44.03346" lon="4.33963">
        <ele>199.8</ele>
        <time>2011-11-27T11:05:57Z</time>
      </trkpt>
      <trkpt lat="44.03342" lon="4.33958">
        <ele>200.1</ele>
        <time>2011-11-27T11:06:00Z</time>
      </trkpt>
      <trkpt lat="44.0334" lon="4.33951">
        <ele>200.2</ele>
        <time>2011-11-27T11:06:03Z</time>
      </trkpt>
      <trkpt lat="44.03337" lon="4.33944">
        <ele>199.8</ele>
        <time>2011-11-27T11:06:06Z</time>
      </trkpt>
      <trkpt lat="44.03334" lon="4.33938">
        <ele>200.8</ele>
        <time>2011-11-27T11:06:09Z</time>
      </trkpt>
      <trkpt lat="44.03332" lon="4.33932">
        <ele>201.4</ele>
        <time>2011-11-27T11:06:12Z</time>
      </trkpt>
      <trkpt lat="44.03326" lon="4.3392">
        <ele>199.8</ele>
        <time>2011-11-27T11:06:16Z</time>
      </trkpt>
      <trkpt lat="44.03328" lon="4.33913">
        <ele>205.2</ele>
        <time>2011-11-27T11:06:19Z</time>
      </trkpt>
      <trkpt lat="44.03323" lon="4.33909">
        <ele>205.7</ele>
        <time>2011-11-27T11:06:21Z</time>
      </trkpt>
      <trkpt lat="44.0332" lon="4.339">
        <ele>205.4</ele>
        <time>2011-11-27T11:06:24Z</time>
      </trkpt>
      <trkpt lat="44.03317" lon="4.33892">
        <ele>205</ele>
        <time>2011-11-27T11:06:27Z</time>
      </trkpt>
      <trkpt lat="44.03315" lon="4.33886">
        <ele>204.9</ele>
        <time>2011-11-27T11:06:29Z</time>
      </trkpt>
      <trkpt lat="44.03313" lon="4.33879">
        <ele>205.2</ele>
        <time>2011-11-27T11:06:31Z</time>
      </trkpt>
      <trkpt lat="44.03311" lon="4.3387">
        <ele>205.8</ele>
        <time>2011-11-27T11:06:34Z</time>
      </trkpt>
      <trkpt lat="44.03308" lon="4.33862">
        <ele>205.9</ele>
        <time>2011-11-27T11:06:37Z</time>
      </trkpt>
      <trkpt lat="44.03306" lon="4.33854">
        <ele>206.6</ele>
        <time>2011-11-27T11:06:40Z</time>
      </trkpt>
      <trkpt lat="44.03305" lon="4.33847">
        <ele>206.7</ele>
        <time>2011-11-27T11:06:42Z</time>
      </trkpt>
      <trkpt lat="44.03304" lon="4.33839">
        <ele>206.2</ele>
        <time>2011-11-27T11:06:44Z</time>
      </trkpt>
      <trkpt lat="44.03302" lon="4.33832">
        <ele>206.5</ele>
        <time>2011-11-27T11:06:46Z</time>
      </trkpt>
      <trkpt lat="44.03301" lon="4.33826">
        <ele>206.7</ele>
        <time>2011-11-27T11:06:48Z</time>
      </trkpt>
      <trkpt lat="44.03299" lon="4.33818">
        <ele>205.6</ele>
        <time>2011-11-27T11:06:50Z</time>
      </trkpt>
      <trkpt lat="44.03297" lon="4.33811">
        <ele>205.1</ele>
        <time>2011-11-27T11:06:52Z</time>
      </trkpt>
      <trkpt lat="44.03295" lon="4.33805">
        <ele>205.1</ele>
        <time>2011-11-27T11:06:54Z</time>
      </trkpt>
      <trkpt lat="44.03294" lon="4.33798">
        <ele>205.3</ele>
        <time>2011-11-27T11:06:56Z</time>
      </trkpt>
      <trkpt lat="44.0329" lon="4.3379">
        <ele>205.5</ele>
        <time>2011-11-27T11:06:59Z</time>
      </trkpt>
      <trkpt lat="44.03286" lon="4.33784">
        <ele>205.7</ele>
        <time>2011-11-27T11:07:02Z</time>
      </trkpt>
      <trkpt lat="44.03282" lon="4.33779">
        <ele>205.9</ele>
        <time>2011-11-27T11:07:05Z</time>
      </trkpt>
      <trkpt lat="44.03278" lon="4.33774">
        <ele>205.7</ele>
        <time>2011-11-27T11:07:08Z</time>
      </trkpt>
      <trkpt lat="44.03274" lon="4.33769">
        <ele>205.9</ele>
        <time>2011-11-27T11:07:11Z</time>
      </trkpt>
      <trkpt lat="44.0327" lon="4.33765">
        <ele>206.5</ele>
        <time>2011-11-27T11:07:14Z</time>
      </trkpt>
      <trkpt lat="44.03265" lon="4.33761">
        <ele>206.9</ele>
        <time>2011-11-27T11:07:18Z</time>
      </trkpt>
      <trkpt lat="44.03262" lon="4.33758">
        <ele>206.8</ele>
        <time>2011-11-27T11:07:22Z</time>
      </trkpt>
      <trkpt lat="44.03258" lon="4.33753">
        <ele>207.3</ele>
        <time>2011-11-27T11:07:26Z</time>
      </trkpt>
      <trkpt lat="44.03254" lon="4.33748">
        <ele>207.8</ele>
        <time>2011-11-27T11:07:30Z</time>
      </trkpt>
      <trkpt lat="44.0325" lon="4.33744">
        <ele>208.1</ele>
        <time>2011-11-27T11:07:33Z</time>
      </trkpt>
      <trkpt lat="44.03246" lon="4.33739">
        <ele>208.3</ele>
        <time>2011-11-27T11:07:36Z</time>
      </trkpt>
      <trkpt lat="44.03242" lon="4.33734">
        <ele>208.6</ele>
        <time>2011-11-27T11:07:39Z</time>
      </trkpt>
      <trkpt lat="44.03238" lon="4.3373">
        <ele>208.7</ele>
        <time>2011-11-27T11:07:41Z</time>
      </trkpt>
      <trkpt lat="44.03234" lon="4.33724">
        <ele>208.6</ele>
        <time>2011-11-27T11:07:45Z</time>
      </trkpt>
      <trkpt lat="44.0323" lon="4.33719">
        <ele>209.2</ele>
        <time>2011-11-27T11:07:49Z</time>
      </trkpt>
      <trkpt lat="44.03225" lon="4.33713">
        <ele>209.4</ele>
        <time>2011-11-27T11:07:54Z</time>
      </trkpt>
      <trkpt lat="44.0322" lon="4.33709">
        <ele>209.7</ele>
        <time>2011-11-27T11:07:57Z</time>
      </trkpt>
      <trkpt lat="44.03215" lon="4.33705">
        <ele>210.1</ele>
        <time>2011-11-27T11:08:00Z</time>
      </trkpt>
      <trkpt lat="44.0321" lon="4.33702">
        <ele>209.8</ele>
        <time>2011-11-27T11:08:03Z</time>
      </trkpt>
      <trkpt lat="44.03206" lon="4.33699">
        <ele>209.8</ele>
        <time>2011-11-27T11:08:07Z</time>
      </trkpt>
      <trkpt lat="44.03201" lon="4.33697">
        <ele>210.3</ele>
        <time>2011-11-27T11:08:11Z</time>
      </trkpt>
      <trkpt lat="44.03196" lon="4.33696">
        <ele>210.5</ele>
        <time>2011-11-27T11:08:15Z</time>
      </trkpt>
      <trkpt lat="44.03191" lon="4.33695">
        <ele>210.8</ele>
        <time>2011-11-27T11:08:20Z</time>
      </trkpt>
      <trkpt lat="44.03186" lon="4.33693">
        <ele>211</ele>
        <time>2011-11-27T11:08:24Z</time>
      </trkpt>
      <trkpt lat="44.03182" lon="4.3369">
        <ele>211.7</ele>
        <time>2011-11-27T11:08:28Z</time>
      </trkpt>
      <trkpt lat="44.03178" lon="4.33685">
        <ele>212.6</ele>
        <time>2011-11-27T11:08:32Z</time>
      </trkpt>
      <trkpt lat="44.03174" lon="4.33682">
        <ele>213.2</ele>
        <time>2011-11-27T11:08:36Z</time>
      </trkpt>
      <trkpt lat="44.0317" lon="4.33678">
        <ele>214.4</ele>
        <time>2011-11-27T11:08:54Z</time>
      </trkpt>
      <trkpt lat="44.03165" lon="4.33675">
        <ele>214.6</ele>
        <time>2011-11-27T11:08:57Z</time>
      </trkpt>
      <trkpt lat="44.0316" lon="4.33673">
        <ele>215.2</ele>
        <time>2011-11-27T11:09:00Z</time>
      </trkpt>
      <trkpt lat="44.03156" lon="4.33672">
        <ele>215.4</ele>
        <time>2011-11-27T11:09:03Z</time>
      </trkpt>
      <trkpt lat="44.0315" lon="4.3367">
        <ele>216.2</ele>
        <time>2011-11-27T11:09:07Z</time>
      </trkpt>
      <trkpt lat="44.03145" lon="4.33669">
        <ele>216.5</ele>
        <time>2011-11-27T11:09:10Z</time>
      </trkpt>
      <trkpt lat="44.0314" lon="4.33667">
        <ele>216.5</ele>
        <time>2011-11-27T11:09:14Z</time>
      </trkpt>
      <trkpt lat="44.03136" lon="4.33665">
        <ele>216.8</ele>
        <time>2011-11-27T11:09:19Z</time>
      </trkpt>
      <trkpt lat="44.03134" lon="4.33659">
        <ele>218.2</ele>
        <time>2011-11-27T11:09:24Z</time>
      </trkpt>
      <trkpt lat="44.03137" lon="4.33652">
        <ele>218.5</ele>
        <time>2011-11-27T11:09:26Z</time>
      </trkpt>
      <trkpt lat="44.0314" lon="4.33644">
        <ele>218.8</ele>
        <time>2011-11-27T11:09:28Z</time>
      </trkpt>
      <trkpt lat="44.03143" lon="4.33638">
        <ele>218.5</ele>
        <time>2011-11-27T11:09:30Z</time>
      </trkpt>
      <trkpt lat="44.03148" lon="4.33636">
        <ele>218.2</ele>
        <time>2011-11-27T11:09:32Z</time>
      </trkpt>
      <trkpt lat="44.03154" lon="4.33635">
        <ele>218</ele>
        <time>2011-11-27T11:09:34Z</time>
      </trkpt>
      <trkpt lat="44.0316" lon="4.3363">
        <ele>217.6</ele>
        <time>2011-11-27T11:09:36Z</time>
      </trkpt>
      <trkpt lat="44.03165" lon="4.33622">
        <ele>217.4</ele>
        <time>2011-11-27T11:09:38Z</time>
      </trkpt>
      <trkpt lat="44.03169" lon="4.33611">
        <ele>217.2</ele>
        <time>2011-11-27T11:09:40Z</time>
      </trkpt>
      <trkpt lat="44.03172" lon="4.33603">
        <ele>216.6</ele>
        <time>2011-11-27T11:09:42Z</time>
      </trkpt>
      <trkpt lat="44.03174" lon="4.33593">
        <ele>216.1</ele>
        <time>2011-11-27T11:09:44Z</time>
      </trkpt>
      <trkpt lat="44.03174" lon="4.33585">
        <ele>215.5</ele>
        <time>2011-11-27T11:09:46Z</time>
      </trkpt>
      <trkpt lat="44.03174" lon="4.33578">
        <ele>215.1</ele>
        <time>2011-11-27T11:09:48Z</time>
      </trkpt>
      <trkpt lat="44.03173" lon="4.33571">
        <ele>214.8</ele>
        <time>2011-11-27T11:09:50Z</time>
      </trkpt>
      <trkpt lat="44.03173" lon="4.33564">
        <ele>214.6</ele>
        <time>2011-11-27T11:09:52Z</time>
      </trkpt>
      <trkpt lat="44.03176" lon="4.33557">
        <ele>213.5</ele>
        <time>2011-11-27T11:09:54Z</time>
      </trkpt>
      <trkpt lat="44.03184" lon="4.33553">
        <ele>213</ele>
        <time>2011-11-27T11:09:56Z</time>
      </trkpt>
      <trkpt lat="44.03192" lon="4.33552">
        <ele>212.2</ele>
        <time>2011-11-27T11:09:58Z</time>
      </trkpt>
      <trkpt lat="44.03198" lon="4.33552">
        <ele>211.3</ele>
        <time>2011-11-27T11:10:00Z</time>
      </trkpt>
      <trkpt lat="44.03205" lon="4.33552">
        <ele>210</ele>
        <time>2011-11-27T11:10:02Z</time>
      </trkpt>
      <trkpt lat="44.03211" lon="4.3355">
        <ele>208.8</ele>
        <time>2011-11-27T11:10:04Z</time>
      </trkpt>
      <trkpt lat="44.03216" lon="4.33544">
        <ele>207.7</ele>
        <time>2011-11-27T11:10:06Z</time>
      </trkpt>
      <trkpt lat="44.03217" lon="4.33536">
        <ele>207.2</ele>
        <time>2011-11-27T11:10:08Z</time>
      </trkpt>
      <trkpt lat="44.03218" lon="4.33526">
        <ele>207</ele>
        <time>2011-11-27T11:10:10Z</time>
      </trkpt>
      <trkpt lat="44.03218" lon="4.33516">
        <ele>207</ele>
        <time>2011-11-27T11:10:12Z</time>
      </trkpt>
      <trkpt lat="44.03216" lon="4.33506">
        <ele>206.9</ele>
        <time>2011-11-27T11:10:14Z</time>
      </trkpt>
      <trkpt lat="44.03215" lon="4.33498">
        <ele>207</ele>
        <time>2011-11-27T11:10:16Z</time>
      </trkpt>
      <trkpt lat="44.03213" lon="4.33492">
        <ele>207</ele>
        <time>2011-11-27T11:10:18Z</time>
      </trkpt>
      <trkpt lat="44.0321" lon="4.33486">
        <ele>207.3</ele>
        <time>2011-11-27T11:10:20Z</time>
      </trkpt>
      <trkpt lat="44.03208" lon="4.3348">
        <ele>207.6</ele>
        <time>2011-11-27T11:10:22Z</time>
      </trkpt>
      <trkpt lat="44.03206" lon="4.33474">
        <ele>208</ele>
        <time>2011-11-27T11:10:24Z</time>
      </trkpt>
      <trkpt lat="44.03203" lon="4.33468">
        <ele>208.5</ele>
        <time>2011-11-27T11:10:27Z</time>
      </trkpt>
      <trkpt lat="44.03201" lon="4.33461">
        <ele>208.9</ele>
        <time>2011-11-27T11:10:30Z</time>
      </trkpt>
      <trkpt lat="44.03198" lon="4.33456">
        <ele>209.2</ele>
        <time>2011-11-27T11:10:33Z</time>
      </trkpt>
      <trkpt lat="44.03194" lon="4.33453">
        <ele>209.5</ele>
        <time>2011-11-27T11:10:36Z</time>
      </trkpt>
      <trkpt lat="44.03191" lon="4.33447">
        <ele>209.7</ele>
        <time>2011-11-27T11:10:41Z</time>
      </trkpt>
      <trkpt lat="44.03192" lon="4.33438">
        <ele>210.1</ele>
        <time>2011-11-27T11:10:44Z</time>
      </trkpt>
      <trkpt lat="44.03193" lon="4.33432">
        <ele>210</ele>
        <time>2011-11-27T11:10:46Z</time>
      </trkpt>
      <trkpt lat="44.03193" lon="4.33424">
        <ele>210.3</ele>
        <time>2011-11-27T11:10:48Z</time>
      </trkpt>
      <trkpt lat="44.03192" lon="4.33413">
        <ele>210.5</ele>
        <time>2011-11-27T11:10:50Z</time>
      </trkpt>
      <trkpt lat="44.03191" lon="4.33406">
        <ele>210.6</ele>
        <time>2011-11-27T11:10:51Z</time>
      </trkpt>
      <trkpt lat="44.0319" lon="4.33398">
        <ele>210.9</ele>
        <time>2011-11-27T11:10:52Z</time>
      </trkpt>
      <trkpt lat="44.03189" lon="4.33388">
        <ele>211.1</ele>
        <time>2011-11-27T11:10:53Z</time>
      </trkpt>
      <trkpt lat="44.03188" lon="4.33378">
        <ele>211.2</ele>
        <time>2011-11-27T11:10:54Z</time>
      </trkpt>
      <trkpt lat="44.03188" lon="4.3337">
        <ele>211.4</ele>
        <time>2011-11-27T11:10:55Z</time>
      </trkpt>
      <trkpt lat="44.03187" lon="4.33361">
        <ele>211.7</ele>
        <time>2011-11-27T11:10:56Z</time>
      </trkpt>
      <trkpt lat="44.03186" lon="4.33352">
        <ele>212</ele>
        <time>2011-11-27T11:10:57Z</time>
      </trkpt>
      <trkpt lat="44.03185" lon="4.33344">
        <ele>212.3</ele>
        <time>2011-11-27T11:10:58Z</time>
      </trkpt>
      <trkpt lat="44.03184" lon="4.33334">
        <ele>212.3</ele>
        <time>2011-11-27T11:10:59Z</time>
      </trkpt>
      <trkpt lat="44.03182" lon="4.33325">
        <ele>212.5</ele>
        <time>2011-11-27T11:11:00Z</time>
      </trkpt>
      <trkpt lat="44.03181" lon="4.33314">
        <ele>212.3</ele>
        <time>2011-11-27T11:11:01Z</time>
      </trkpt>
      <trkpt lat="44.03179" lon="4.33303">
        <ele>212.3</ele>
        <time>2011-11-27T11:11:02Z</time>
      </trkpt>
      <trkpt lat="44.03177" lon="4.33292">
        <ele>212.5</ele>
        <time>2011-11-27T11:11:03Z</time>
      </trkpt>
      <trkpt lat="44.03177" lon="4.33281">
        <ele>212.2</ele>
        <time>2011-11-27T11:11:04Z</time>
      </trkpt>
      <trkpt lat="44.03176" lon="4.3327">
        <ele>212.2</ele>
        <time>2011-11-27T11:11:05Z</time>
      </trkpt>
      <trkpt lat="44.03175" lon="4.3326">
        <ele>211.9</ele>
        <time>2011-11-27T11:11:06Z</time>
      </trkpt>
      <trkpt lat="44.03174" lon="4.3325">
        <ele>211.8</ele>
        <time>2011-11-27T11:11:07Z</time>
      </trkpt>
      <trkpt lat="44.03173" lon="4.3324">
        <ele>211.4</ele>
        <time>2011-11-27T11:11:08Z</time>
      </trkpt>
      <trkpt lat="44.03172" lon="4.3323">
        <ele>211.3</ele>
        <time>2011-11-27T11:11:09Z</time>
      </trkpt>
      <trkpt lat="44.03171" lon="4.3322">
        <ele>211.1</ele>
        <time>2011-11-27T11:11:10Z</time>
      </trkpt>
      <trkpt lat="44.03171" lon="4.3321">
        <ele>210.7</ele>
        <time>2011-11-27T11:11:11Z</time>
      </trkpt>
      <trkpt lat="44.03171" lon="4.33201">
        <ele>210.4</ele>
        <time>2011-11-27T11:11:12Z</time>
      </trkpt>
      <trkpt lat="44.03171" lon="4.33191">
        <ele>210.2</ele>
        <time>2011-11-27T11:11:13Z</time>
      </trkpt>
      <trkpt lat="44.03172" lon="4.33182">
        <ele>209.7</ele>
        <time>2011-11-27T11:11:14Z</time>
      </trkpt>
      <trkpt lat="44.03172" lon="4.33174">
        <ele>209.3</ele>
        <time>2011-11-27T11:11:15Z</time>
      </trkpt>
      <trkpt lat="44.03173" lon="4.33166">
        <ele>208.7</ele>
        <time>2011-11-27T11:11:16Z</time>
      </trkpt>
      <trkpt lat="44.03173" lon="4.33157">
        <ele>208.1</ele>
        <time>2011-11-27T11:11:17Z</time>
      </trkpt>
      <trkpt lat="44.03173" lon="4.33149">
        <ele>207.5</ele>
        <time>2011-11-27T11:11:18Z</time>
      </trkpt>
      <trkpt lat="44.03173" lon="4.33141">
        <ele>207.2</ele>
        <time>2011-11-27T11:11:19Z</time>
      </trkpt>
      <trkpt lat="44.03174" lon="4.33132">
        <ele>206.8</ele>
        <time>2011-11-27T11:11:20Z</time>
      </trkpt>
      <trkpt lat="44.03175" lon="4.33123">
        <ele>206.4</ele>
        <time>2011-11-27T11:11:21Z</time>
      </trkpt>
      <trkpt lat="44.03175" lon="4.33115">
        <ele>206.1</ele>
        <time>2011-11-27T11:11:22Z</time>
      </trkpt>
      <trkpt lat="44.03175" lon="4.33108">
        <ele>206.2</ele>
        <time>2011-11-27T11:11:23Z</time>
      </trkpt>
      <trkpt lat="44.03176" lon="4.33101">
        <ele>206.2</ele>
        <time>2011-11-27T11:11:24Z</time>
      </trkpt>
      <trkpt lat="44.03179" lon="4.33091">
        <ele>206.8</ele>
        <time>2011-11-27T11:11:26Z</time>
      </trkpt>
      <trkpt lat="44.03186" lon="4.33082">
        <ele>206.9</ele>
        <time>2011-11-27T11:11:28Z</time>
      </trkpt>
      <trkpt lat="44.03189" lon="4.33078">
        <ele>206.9</ele>
        <time>2011-11-27T11:11:29Z</time>
      </trkpt>
      <trkpt lat="44.03194" lon="4.33069">
        <ele>206.2</ele>
        <time>2011-11-27T11:11:31Z</time>
      </trkpt>
      <trkpt lat="44.03198" lon="4.33063">
        <ele>205.7</ele>
        <time>2011-11-27T11:11:33Z</time>
      </trkpt>
      <trkpt lat="44.03201" lon="4.33057">
        <ele>205.8</ele>
        <time>2011-11-27T11:11:35Z</time>
      </trkpt>
      <trkpt lat="44.03196" lon="4.33053">
        <ele>206.2</ele>
        <time>2011-11-27T11:11:39Z</time>
      </trkpt>
      <trkpt lat="44.03193" lon="4.33046">
        <ele>206</ele>
        <time>2011-11-27T11:11:43Z</time>
      </trkpt>
      <trkpt lat="44.03188" lon="4.3305">
        <ele>207.4</ele>
        <time>2011-11-27T11:11:48Z</time>
      </trkpt>
      <trkpt lat="44.03192" lon="4.33054">
        <ele>207.5</ele>
        <time>2011-11-27T11:11:53Z</time>
      </trkpt>
      <trkpt lat="44.03196" lon="4.33058">
        <ele>207</ele>
        <time>2011-11-27T11:12:06Z</time>
      </trkpt>
      <trkpt lat="44.032" lon="4.33063">
        <ele>206.4</ele>
        <time>2011-11-27T11:12:10Z</time>
      </trkpt>
      <trkpt lat="44.03196" lon="4.33059">
        <ele>206.9</ele>
        <time>2011-11-27T11:12:15Z</time>
      </trkpt>
      <trkpt lat="44.03192" lon="4.33054">
        <ele>207</ele>
        <time>2011-11-27T11:12:18Z</time>
      </trkpt>
      <trkpt lat="44.03193" lon="4.3306">
        <ele>205.3</ele>
        <time>2011-11-27T11:12:30Z</time>
      </trkpt>
      <trkpt lat="44.03192" lon="4.33054">
        <ele>206.2</ele>
        <time>2011-11-27T11:12:35Z</time>
      </trkpt>
      <trkpt lat="44.03187" lon="4.33052">
        <ele>205.5</ele>
        <time>2011-11-27T11:12:59Z</time>
      </trkpt>
      <trkpt lat="44.03182" lon="4.3305">
        <ele>205.3</ele>
        <time>2011-11-27T11:13:03Z</time>
      </trkpt>
      <trkpt lat="44.03178" lon="4.3304">
        <ele>202.6</ele>
        <time>2011-11-27T11:14:43Z</time>
      </trkpt>
      <trkpt lat="44.03174" lon="4.33032">
        <ele>202.4</ele>
        <time>2011-11-27T11:14:45Z</time>
      </trkpt>
      <trkpt lat="44.03172" lon="4.33025">
        <ele>202.3</ele>
        <time>2011-11-27T11:14:47Z</time>
      </trkpt>
      <trkpt lat="44.03169" lon="4.3302">
        <ele>202</ele>
        <time>2011-11-27T11:14:50Z</time>
      </trkpt>
      <trkpt lat="44.03166" lon="4.33014">
        <ele>201.8</ele>
        <time>2011-11-27T11:14:55Z</time>
      </trkpt>
      <trkpt lat="44.03161" lon="4.33011">
        <ele>201.3</ele>
        <time>2011-11-27T11:14:58Z</time>
      </trkpt>
      <trkpt lat="44.03157" lon="4.33005">
        <ele>201.4</ele>
        <time>2011-11-27T11:15:02Z</time>
      </trkpt>
      <trkpt lat="44.03153" lon="4.32999">
        <ele>201.6</ele>
        <time>2011-11-27T11:15:06Z</time>
      </trkpt>
      <trkpt lat="44.0315" lon="4.32993">
        <ele>201.8</ele>
        <time>2011-11-27T11:15:09Z</time>
      </trkpt>
      <trkpt lat="44.03146" lon="4.32987">
        <ele>202</ele>
        <time>2011-11-27T11:15:12Z</time>
      </trkpt>
      <trkpt lat="44.03142" lon="4.3298">
        <ele>202.3</ele>
        <time>2011-11-27T11:15:15Z</time>
      </trkpt>
      <trkpt lat="44.03139" lon="4.32975">
        <ele>202.3</ele>
        <time>2011-11-27T11:15:17Z</time>
      </trkpt>
      <trkpt lat="44.03135" lon="4.32967">
        <ele>202.2</ele>
        <time>2011-11-27T11:15:20Z</time>
      </trkpt>
      <trkpt lat="44.03131" lon="4.3296">
        <ele>202.1</ele>
        <time>2011-11-27T11:15:23Z</time>
      </trkpt>
      <trkpt lat="44.03127" lon="4.32954">
        <ele>202.3</ele>
        <time>2011-11-27T11:15:26Z</time>
      </trkpt>
      <trkpt lat="44.03124" lon="4.32949">
        <ele>202.3</ele>
        <time>2011-11-27T11:15:28Z</time>
      </trkpt>
      <trkpt lat="44.0312" lon="4.32941">
        <ele>202.1</ele>
        <time>2011-11-27T11:15:31Z</time>
      </trkpt>
      <trkpt lat="44.03115" lon="4.32934">
        <ele>202</ele>
        <time>2011-11-27T11:15:34Z</time>
      </trkpt>
      <trkpt lat="44.03112" lon="4.32929">
        <ele>202.1</ele>
        <time>2011-11-27T11:15:36Z</time>
      </trkpt>
      <trkpt lat="44.03108" lon="4.32922">
        <ele>202.2</ele>
        <time>2011-11-27T11:15:39Z</time>
      </trkpt>
      <trkpt lat="44.03104" lon="4.32914">
        <ele>202.1</ele>
        <time>2011-11-27T11:15:42Z</time>
      </trkpt>
      <trkpt lat="44.031" lon="4.32908">
        <ele>202</ele>
        <time>2011-11-27T11:15:45Z</time>
      </trkpt>
      <trkpt lat="44.03095" lon="4.329">
        <ele>202</ele>
        <time>2011-11-27T11:15:48Z</time>
      </trkpt>
      <trkpt lat="44.03092" lon="4.32896">
        <ele>202</ele>
        <time>2011-11-27T11:15:50Z</time>
      </trkpt>
      <trkpt lat="44.03087" lon="4.32889">
        <ele>202.4</ele>
        <time>2011-11-27T11:15:53Z</time>
      </trkpt>
      <trkpt lat="44.03083" lon="4.32884">
        <ele>202.5</ele>
        <time>2011-11-27T11:15:55Z</time>
      </trkpt>
      <trkpt lat="44.03079" lon="4.32879">
        <ele>202.7</ele>
        <time>2011-11-27T11:15:57Z</time>
      </trkpt>
      <trkpt lat="44.03074" lon="4.32873">
        <ele>203</ele>
        <time>2011-11-27T11:15:59Z</time>
      </trkpt>
      <trkpt lat="44.0307" lon="4.32868">
        <ele>203</ele>
        <time>2011-11-27T11:16:01Z</time>
      </trkpt>
      <trkpt lat="44.03065" lon="4.32862">
        <ele>202.9</ele>
        <time>2011-11-27T11:16:03Z</time>
      </trkpt>
      <trkpt lat="44.0306" lon="4.32857">
        <ele>202.9</ele>
        <time>2011-11-27T11:16:05Z</time>
      </trkpt>
      <trkpt lat="44.03055" lon="4.32852">
        <ele>202.9</ele>
        <time>2011-11-27T11:16:07Z</time>
      </trkpt>
      <trkpt lat="44.0305" lon="4.32847">
        <ele>202.6</ele>
        <time>2011-11-27T11:16:09Z</time>
      </trkpt>
      <trkpt lat="44.03044" lon="4.32842">
        <ele>202.6</ele>
        <time>2011-11-27T11:16:11Z</time>
      </trkpt>
      <trkpt lat="44.03039" lon="4.32837">
        <ele>202.6</ele>
        <time>2011-11-27T11:16:13Z</time>
      </trkpt>
      <trkpt lat="44.03034" lon="4.32832">
        <ele>202.5</ele>
        <time>2011-11-27T11:16:15Z</time>
      </trkpt>
      <trkpt lat="44.03029" lon="4.32827">
        <ele>202.6</ele>
        <time>2011-11-27T11:16:17Z</time>
      </trkpt>
      <trkpt lat="44.03024" lon="4.32822">
        <ele>202.7</ele>
        <time>2011-11-27T11:16:19Z</time>
      </trkpt>
      <trkpt lat="44.03019" lon="4.32818">
        <ele>202.9</ele>
        <time>2011-11-27T11:16:21Z</time>
      </trkpt>
      <trkpt lat="44.03014" lon="4.32813">
        <ele>203</ele>
        <time>2011-11-27T11:16:23Z</time>
      </trkpt>
      <trkpt lat="44.03009" lon="4.32808">
        <ele>203.1</ele>
        <time>2011-11-27T11:16:25Z</time>
      </trkpt>
      <trkpt lat="44.03004" lon="4.32803">
        <ele>202.9</ele>
        <time>2011-11-27T11:16:27Z</time>
      </trkpt>
      <trkpt lat="44.02999" lon="4.32797">
        <ele>202.9</ele>
        <time>2011-11-27T11:16:29Z</time>
      </trkpt>
      <trkpt lat="44.02993" lon="4.32789">
        <ele>203</ele>
        <time>2011-11-27T11:16:31Z</time>
      </trkpt>
      <trkpt lat="44.02988" lon="4.32781">
        <ele>203</ele>
        <time>2011-11-27T11:16:33Z</time>
      </trkpt>
      <trkpt lat="44.02982" lon="4.32775">
        <ele>202.8</ele>
        <time>2011-11-27T11:16:35Z</time>
      </trkpt>
      <trkpt lat="44.02975" lon="4.3277">
        <ele>202.5</ele>
        <time>2011-11-27T11:16:37Z</time>
      </trkpt>
      <trkpt lat="44.02968" lon="4.32765">
        <ele>202.4</ele>
        <time>2011-11-27T11:16:39Z</time>
      </trkpt>
      <trkpt lat="44.02962" lon="4.32759">
        <ele>202.3</ele>
        <time>2011-11-27T11:16:41Z</time>
      </trkpt>
      <trkpt lat="44.02956" lon="4.32753">
        <ele>201.7</ele>
        <time>2011-11-27T11:16:43Z</time>
      </trkpt>
      <trkpt lat="44.02951" lon="4.32747">
        <ele>201.6</ele>
        <time>2011-11-27T11:16:45Z</time>
      </trkpt>
      <trkpt lat="44.02945" lon="4.32743">
        <ele>201.5</ele>
        <time>2011-11-27T11:16:47Z</time>
      </trkpt>
      <trkpt lat="44.02939" lon="4.32741">
        <ele>201.5</ele>
        <time>2011-11-27T11:16:49Z</time>
      </trkpt>
      <trkpt lat="44.02933" lon="4.32738">
        <ele>200.9</ele>
        <time>2011-11-27T11:16:51Z</time>
      </trkpt>
      <trkpt lat="44.02927" lon="4.32735">
        <ele>200.4</ele>
        <time>2011-11-27T11:16:53Z</time>
      </trkpt>
      <trkpt lat="44.02922" lon="4.32732">
        <ele>200.7</ele>
        <time>2011-11-27T11:16:55Z</time>
      </trkpt>
      <trkpt lat="44.02918" lon="4.32729">
        <ele>200.9</ele>
        <time>2011-11-27T11:16:57Z</time>
      </trkpt>
      <trkpt lat="44.02912" lon="4.32726">
        <ele>201.4</ele>
        <time>2011-11-27T11:16:59Z</time>
      </trkpt>
      <trkpt lat="44.02906" lon="4.32724">
        <ele>201.6</ele>
        <time>2011-11-27T11:17:01Z</time>
      </trkpt>
      <trkpt lat="44.029" lon="4.32722">
        <ele>201.8</ele>
        <time>2011-11-27T11:17:03Z</time>
      </trkpt>
      <trkpt lat="44.02894" lon="4.32719">
        <ele>202</ele>
        <time>2011-11-27T11:17:05Z</time>
      </trkpt>
      <trkpt lat="44.02888" lon="4.32717">
        <ele>202.1</ele>
        <time>2011-11-27T11:17:07Z</time>
      </trkpt>
      <trkpt lat="44.02882" lon="4.32715">
        <ele>201.6</ele>
        <time>2011-11-27T11:17:09Z</time>
      </trkpt>
      <trkpt lat="44.02876" lon="4.32713">
        <ele>201.1</ele>
        <time>2011-11-27T11:17:11Z</time>
      </trkpt>
      <trkpt lat="44.02869" lon="4.32711">
        <ele>200.9</ele>
        <time>2011-11-27T11:17:13Z</time>
      </trkpt>
      <trkpt lat="44.02862" lon="4.32708">
        <ele>201</ele>
        <time>2011-11-27T11:17:15Z</time>
      </trkpt>
      <trkpt lat="44.02855" lon="4.32706">
        <ele>201.1</ele>
        <time>2011-11-27T11:17:17Z</time>
      </trkpt>
      <trkpt lat="44.02848" lon="4.32702">
        <ele>201.3</ele>
        <time>2011-11-27T11:17:19Z</time>
      </trkpt>
      <trkpt lat="44.02841" lon="4.32699">
        <ele>201.6</ele>
        <time>2011-11-27T11:17:21Z</time>
      </trkpt>
      <trkpt lat="44.02834" lon="4.32696">
        <ele>202.1</ele>
        <time>2011-11-27T11:17:23Z</time>
      </trkpt>
      <trkpt lat="44.02826" lon="4.32693">
        <ele>202.3</ele>
        <time>2011-11-27T11:17:25Z</time>
      </trkpt>
      <trkpt lat="44.02819" lon="4.3269">
        <ele>202.8</ele>
        <time>2011-11-27T11:17:27Z</time>
      </trkpt>
      <trkpt lat="44.02811" lon="4.32687">
        <ele>202.8</ele>
        <time>2011-11-27T11:17:29Z</time>
      </trkpt>
      <trkpt lat="44.02804" lon="4.32684">
        <ele>202.7</ele>
        <time>2011-11-27T11:17:31Z</time>
      </trkpt>
      <trkpt lat="44.02796" lon="4.32681">
        <ele>202.4</ele>
        <time>2011-11-27T11:17:33Z</time>
      </trkpt>
      <trkpt lat="44.02788" lon="4.32677">
        <ele>202.2</ele>
        <time>2011-11-27T11:17:35Z</time>
      </trkpt>
      <trkpt lat="44.02783" lon="4.32676">
        <ele>202.1</ele>
        <time>2011-11-27T11:17:36Z</time>
      </trkpt>
      <trkpt lat="44.02779" lon="4.32674">
        <ele>201.7</ele>
        <time>2011-11-27T11:17:37Z</time>
      </trkpt>
      <trkpt lat="44.02774" lon="4.32673">
        <ele>201.4</ele>
        <time>2011-11-27T11:17:38Z</time>
      </trkpt>
      <trkpt lat="44.02769" lon="4.32672">
        <ele>200.7</ele>
        <time>2011-11-27T11:17:39Z</time>
      </trkpt>
      <trkpt lat="44.02764" lon="4.32671">
        <ele>200.1</ele>
        <time>2011-11-27T11:17:40Z</time>
      </trkpt>
      <trkpt lat="44.02759" lon="4.3267">
        <ele>200.2</ele>
        <time>2011-11-27T11:17:41Z</time>
      </trkpt>
      <trkpt lat="44.02754" lon="4.32669">
        <ele>200.3</ele>
        <time>2011-11-27T11:17:42Z</time>
      </trkpt>
      <trkpt lat="44.02748" lon="4.32667">
        <ele>200.4</ele>
        <time>2011-11-27T11:17:43Z</time>
      </trkpt>
      <trkpt lat="44.02742" lon="4.32664">
        <ele>200.7</ele>
        <time>2011-11-27T11:17:44Z</time>
      </trkpt>
      <trkpt lat="44.02736" lon="4.32661">
        <ele>200.9</ele>
        <time>2011-11-27T11:17:45Z</time>
      </trkpt>
      <trkpt lat="44.02731" lon="4.32657">
        <ele>201</ele>
        <time>2011-11-27T11:17:46Z</time>
      </trkpt>
      <trkpt lat="44.02726" lon="4.32653">
        <ele>201.1</ele>
        <time>2011-11-27T11:17:47Z</time>
      </trkpt>
      <trkpt lat="44.02721" lon="4.32648">
        <ele>201.1</ele>
        <time>2011-11-27T11:17:48Z</time>
      </trkpt>
      <trkpt lat="44.02717" lon="4.32643">
        <ele>201.2</ele>
        <time>2011-11-27T11:17:49Z</time>
      </trkpt>
      <trkpt lat="44.02712" lon="4.32637">
        <ele>201.2</ele>
        <time>2011-11-27T11:17:50Z</time>
      </trkpt>
      <trkpt lat="44.02709" lon="4.32631">
        <ele>201.3</ele>
        <time>2011-11-27T11:17:51Z</time>
      </trkpt>
      <trkpt lat="44.02706" lon="4.32624">
        <ele>201.4</ele>
        <time>2011-11-27T11:17:52Z</time>
      </trkpt>
      <trkpt lat="44.02704" lon="4.32618">
        <ele>201.7</ele>
        <time>2011-11-27T11:17:53Z</time>
      </trkpt>
      <trkpt lat="44.02701" lon="4.32612">
        <ele>201.9</ele>
        <time>2011-11-27T11:17:54Z</time>
      </trkpt>
      <trkpt lat="44.02698" lon="4.32606">
        <ele>202.1</ele>
        <time>2011-11-27T11:17:55Z</time>
      </trkpt>
      <trkpt lat="44.02696" lon="4.326">
        <ele>202.3</ele>
        <time>2011-11-27T11:17:56Z</time>
      </trkpt>
      <trkpt lat="44.02694" lon="4.32595">
        <ele>202.2</ele>
        <time>2011-11-27T11:17:57Z</time>
      </trkpt>
      <trkpt lat="44.0269" lon="4.32584">
        <ele>202.4</ele>
        <time>2011-11-27T11:17:59Z</time>
      </trkpt>
      <trkpt lat="44.02688" lon="4.32573">
        <ele>202.3</ele>
        <time>2011-11-27T11:18:01Z</time>
      </trkpt>
      <trkpt lat="44.02686" lon="4.32562">
        <ele>202.5</ele>
        <time>2011-11-27T11:18:03Z</time>
      </trkpt>
      <trkpt lat="44.02684" lon="4.32556">
        <ele>202.6</ele>
        <time>2011-11-27T11:18:04Z</time>
      </trkpt>
      <trkpt lat="44.02681" lon="4.32544">
        <ele>203</ele>
        <time>2011-11-27T11:18:06Z</time>
      </trkpt>
      <trkpt lat="44.02678" lon="4.32536">
        <ele>202.8</ele>
        <time>2011-11-27T11:18:08Z</time>
      </trkpt>
      <trkpt lat="44.02674" lon="4.3253">
        <ele>200.9</ele>
        <time>2011-11-27T11:18:22Z</time>
      </trkpt>
      <trkpt lat="44.0267" lon="4.32526">
        <ele>201.1</ele>
        <time>2011-11-27T11:18:24Z</time>
      </trkpt>
      <trkpt lat="44.02665" lon="4.32522">
        <ele>201.2</ele>
        <time>2011-11-27T11:18:26Z</time>
      </trkpt>
      <trkpt lat="44.02659" lon="4.32516">
        <ele>201.3</ele>
        <time>2011-11-27T11:18:28Z</time>
      </trkpt>
      <trkpt lat="44.02653" lon="4.32509">
        <ele>201.2</ele>
        <time>2011-11-27T11:18:30Z</time>
      </trkpt>
      <trkpt lat="44.02646" lon="4.32503">
        <ele>201.1</ele>
        <time>2011-11-27T11:18:32Z</time>
      </trkpt>
      <trkpt lat="44.0264" lon="4.32496">
        <ele>200.9</ele>
        <time>2011-11-27T11:18:34Z</time>
      </trkpt>
      <trkpt lat="44.02633" lon="4.32491">
        <ele>200.5</ele>
        <time>2011-11-27T11:18:36Z</time>
      </trkpt>
      <trkpt lat="44.02627" lon="4.32485">
        <ele>200.1</ele>
        <time>2011-11-27T11:18:38Z</time>
      </trkpt>
      <trkpt lat="44.0262" lon="4.32479">
        <ele>199.7</ele>
        <time>2011-11-27T11:18:40Z</time>
      </trkpt>
      <trkpt lat="44.02613" lon="4.32472">
        <ele>199.1</ele>
        <time>2011-11-27T11:18:42Z</time>
      </trkpt>
      <trkpt lat="44.02606" lon="4.32466">
        <ele>198.6</ele>
        <time>2011-11-27T11:18:44Z</time>
      </trkpt>
      <trkpt lat="44.02598" lon="4.3246">
        <ele>198.1</ele>
        <time>2011-11-27T11:18:46Z</time>
      </trkpt>
      <trkpt lat="44.0259" lon="4.32452">
        <ele>197.7</ele>
        <time>2011-11-27T11:18:48Z</time>
      </trkpt>
      <trkpt lat="44.02586" lon="4.32449">
        <ele>197.7</ele>
        <time>2011-11-27T11:18:49Z</time>
      </trkpt>
      <trkpt lat="44.02582" lon="4.32445">
        <ele>197.5</ele>
        <time>2011-11-27T11:18:50Z</time>
      </trkpt>
      <trkpt lat="44.02577" lon="4.32441">
        <ele>197.3</ele>
        <time>2011-11-27T11:18:51Z</time>
      </trkpt>
      <trkpt lat="44.02572" lon="4.32438">
        <ele>197</ele>
        <time>2011-11-27T11:18:52Z</time>
      </trkpt>
      <trkpt lat="44.02567" lon="4.32434">
        <ele>196.8</ele>
        <time>2011-11-27T11:18:53Z</time>
      </trkpt>
      <trkpt lat="44.02562" lon="4.3243">
        <ele>196.6</ele>
        <time>2011-11-27T11:18:54Z</time>
      </trkpt>
      <trkpt lat="44.02556" lon="4.32427">
        <ele>196.4</ele>
        <time>2011-11-27T11:18:55Z</time>
      </trkpt>
      <trkpt lat="44.02551" lon="4.32423">
        <ele>196</ele>
        <time>2011-11-27T11:18:56Z</time>
      </trkpt>
      <trkpt lat="44.02546" lon="4.3242">
        <ele>195.7</ele>
        <time>2011-11-27T11:18:57Z</time>
      </trkpt>
      <trkpt lat="44.02541" lon="4.32416">
        <ele>195.4</ele>
        <time>2011-11-27T11:18:58Z</time>
      </trkpt>
      <trkpt lat="44.02535" lon="4.32412">
        <ele>195.1</ele>
        <time>2011-11-27T11:18:59Z</time>
      </trkpt>
      <trkpt lat="44.0253" lon="4.32409">
        <ele>194.9</ele>
        <time>2011-11-27T11:19:00Z</time>
      </trkpt>
      <trkpt lat="44.02525" lon="4.32406">
        <ele>194.6</ele>
        <time>2011-11-27T11:19:01Z</time>
      </trkpt>
      <trkpt lat="44.0252" lon="4.32403">
        <ele>194.5</ele>
        <time>2011-11-27T11:19:02Z</time>
      </trkpt>
      <trkpt lat="44.02515" lon="4.324">
        <ele>194.3</ele>
        <time>2011-11-27T11:19:03Z</time>
      </trkpt>
      <trkpt lat="44.0251" lon="4.32397">
        <ele>193.9</ele>
        <time>2011-11-27T11:19:04Z</time>
      </trkpt>
      <trkpt lat="44.02504" lon="4.32393">
        <ele>193.6</ele>
        <time>2011-11-27T11:19:05Z</time>
      </trkpt>
      <trkpt lat="44.02498" lon="4.3239">
        <ele>193.5</ele>
        <time>2011-11-27T11:19:06Z</time>
      </trkpt>
      <trkpt lat="44.02492" lon="4.32386">
        <ele>193.3</ele>
        <time>2011-11-27T11:19:07Z</time>
      </trkpt>
      <trkpt lat="44.02486" lon="4.32383">
        <ele>193.1</ele>
        <time>2011-11-27T11:19:08Z</time>
      </trkpt>
      <trkpt lat="44.02479" lon="4.3238">
        <ele>193.1</ele>
        <time>2011-11-27T11:19:09Z</time>
      </trkpt>
      <trkpt lat="44.02473" lon="4.32378">
        <ele>193.2</ele>
        <time>2011-11-27T11:19:10Z</time>
      </trkpt>
      <trkpt lat="44.02467" lon="4.32376">
        <ele>193.2</ele>
        <time>2011-11-27T11:19:11Z</time>
      </trkpt>
      <trkpt lat="44.02461" lon="4.32375">
        <ele>193.2</ele>
        <time>2011-11-27T11:19:12Z</time>
      </trkpt>
      <trkpt lat="44.02455" lon="4.32374">
        <ele>193.2</ele>
        <time>2011-11-27T11:19:13Z</time>
      </trkpt>
      <trkpt lat="44.02449" lon="4.32372">
        <ele>193.2</ele>
        <time>2011-11-27T11:19:14Z</time>
      </trkpt>
      <trkpt lat="44.02443" lon="4.32371">
        <ele>193.2</ele>
        <time>2011-11-27T11:19:15Z</time>
      </trkpt>
      <trkpt lat="44.02438" lon="4.32371">
        <ele>193.4</ele>
        <time>2011-11-27T11:19:16Z</time>
      </trkpt>
      <trkpt lat="44.02432" lon="4.3237">
        <ele>193.6</ele>
        <time>2011-11-27T11:19:17Z</time>
      </trkpt>
      <trkpt lat="44.02427" lon="4.32371">
        <ele>193.8</ele>
        <time>2011-11-27T11:19:18Z</time>
      </trkpt>
      <trkpt lat="44.02422" lon="4.32372">
        <ele>193.8</ele>
        <time>2011-11-27T11:19:19Z</time>
      </trkpt>
      <trkpt lat="44.02415" lon="4.32377">
        <ele>193.7</ele>
        <time>2011-11-27T11:19:21Z</time>
      </trkpt>
      <trkpt lat="44.02411" lon="4.32381">
        <ele>193.8</ele>
        <time>2011-11-27T11:19:22Z</time>
      </trkpt>
      <trkpt lat="44.02408" lon="4.32386">
        <ele>193.8</ele>
        <time>2011-11-27T11:19:23Z</time>
      </trkpt>
      <trkpt lat="44.02404" lon="4.32391">
        <ele>194</ele>
        <time>2011-11-27T11:19:24Z</time>
      </trkpt>
      <trkpt lat="44.02401" lon="4.32397">
        <ele>194.2</ele>
        <time>2011-11-27T11:19:25Z</time>
      </trkpt>
      <trkpt lat="44.02396" lon="4.32402">
        <ele>194.2</ele>
        <time>2011-11-27T11:19:26Z</time>
      </trkpt>
      <trkpt lat="44.02392" lon="4.32407">
        <ele>194.2</ele>
        <time>2011-11-27T11:19:27Z</time>
      </trkpt>
      <trkpt lat="44.02387" lon="4.32413">
        <ele>194.2</ele>
        <time>2011-11-27T11:19:28Z</time>
      </trkpt>
      <trkpt lat="44.02382" lon="4.32418">
        <ele>194.2</ele>
        <time>2011-11-27T11:19:29Z</time>
      </trkpt>
      <trkpt lat="44.02378" lon="4.32424">
        <ele>194</ele>
        <time>2011-11-27T11:19:30Z</time>
      </trkpt>
      <trkpt lat="44.02373" lon="4.32428">
        <ele>193.9</ele>
        <time>2011-11-27T11:19:31Z</time>
      </trkpt>
      <trkpt lat="44.02368" lon="4.32434">
        <ele>193.7</ele>
        <time>2011-11-27T11:19:32Z</time>
      </trkpt>
      <trkpt lat="44.02363" lon="4.32439">
        <ele>193.9</ele>
        <time>2011-11-27T11:19:33Z</time>
      </trkpt>
      <trkpt lat="44.02359" lon="4.32445">
        <ele>193.9</ele>
        <time>2011-11-27T11:19:34Z</time>
      </trkpt>
      <trkpt lat="44.02355" lon="4.3245">
        <ele>194.1</ele>
        <time>2011-11-27T11:19:35Z</time>
      </trkpt>
      <trkpt lat="44.0235" lon="4.32456">
        <ele>194</ele>
        <time>2011-11-27T11:19:36Z</time>
      </trkpt>
      <trkpt lat="44.02346" lon="4.32461">
        <ele>193.9</ele>
        <time>2011-11-27T11:19:37Z</time>
      </trkpt>
      <trkpt lat="44.02343" lon="4.32465">
        <ele>193.9</ele>
        <time>2011-11-27T11:19:38Z</time>
      </trkpt>
      <trkpt lat="44.0234" lon="4.3247">
        <ele>193.7</ele>
        <time>2011-11-27T11:19:39Z</time>
      </trkpt>
      <trkpt lat="44.02336" lon="4.32474">
        <ele>193.6</ele>
        <time>2011-11-27T11:19:40Z</time>
      </trkpt>
      <trkpt lat="44.0233" lon="4.32481">
        <ele>193.6</ele>
        <time>2011-11-27T11:19:42Z</time>
      </trkpt>
      <trkpt lat="44.02323" lon="4.32484">
        <ele>194.2</ele>
        <time>2011-11-27T11:19:44Z</time>
      </trkpt>
      <trkpt lat="44.02317" lon="4.32485">
        <ele>194.5</ele>
        <time>2011-11-27T11:19:46Z</time>
      </trkpt>
      <trkpt lat="44.02311" lon="4.32481">
        <ele>194.8</ele>
        <time>2011-11-27T11:19:48Z</time>
      </trkpt>
      <trkpt lat="44.02309" lon="4.32474">
        <ele>194.4</ele>
        <time>2011-11-27T11:19:50Z</time>
      </trkpt>
      <trkpt lat="44.02306" lon="4.32469">
        <ele>193.2</ele>
        <time>2011-11-27T11:19:53Z</time>
      </trkpt>
      <trkpt lat="44.02305" lon="4.32462">
        <ele>192.7</ele>
        <time>2011-11-27T11:19:57Z</time>
      </trkpt>
      <trkpt lat="44.02302" lon="4.32454">
        <ele>192.2</ele>
        <time>2011-11-27T11:20:00Z</time>
      </trkpt>
      <trkpt lat="44.023" lon="4.32447">
        <ele>191.6</ele>
        <time>2011-11-27T11:20:02Z</time>
      </trkpt>
      <trkpt lat="44.02297" lon="4.32437">
        <ele>190.9</ele>
        <time>2011-11-27T11:20:04Z</time>
      </trkpt>
      <trkpt lat="44.02292" lon="4.32429">
        <ele>189.8</ele>
        <time>2011-11-27T11:20:06Z</time>
      </trkpt>
      <trkpt lat="44.02286" lon="4.32424">
        <ele>188.8</ele>
        <time>2011-11-27T11:20:08Z</time>
      </trkpt>
      <trkpt lat="44.02281" lon="4.32422">
        <ele>187.9</ele>
        <time>2011-11-27T11:20:10Z</time>
      </trkpt>
      <trkpt lat="44.02276" lon="4.32422">
        <ele>187.2</ele>
        <time>2011-11-27T11:20:12Z</time>
      </trkpt>
      <trkpt lat="44.02268" lon="4.32421">
        <ele>186.8</ele>
        <time>2011-11-27T11:20:14Z</time>
      </trkpt>
      <trkpt lat="44.02259" lon="4.3242">
        <ele>186.9</ele>
        <time>2011-11-27T11:20:16Z</time>
      </trkpt>
      <trkpt lat="44.02255" lon="4.3242">
        <ele>186.7</ele>
        <time>2011-11-27T11:20:17Z</time>
      </trkpt>
      <trkpt lat="44.0225" lon="4.3242">
        <ele>186.5</ele>
        <time>2011-11-27T11:20:18Z</time>
      </trkpt>
      <trkpt lat="44.02244" lon="4.32419">
        <ele>186.3</ele>
        <time>2011-11-27T11:20:19Z</time>
      </trkpt>
      <trkpt lat="44.02239" lon="4.32419">
        <ele>186.1</ele>
        <time>2011-11-27T11:20:20Z</time>
      </trkpt>
      <trkpt lat="44.02233" lon="4.32419">
        <ele>185.8</ele>
        <time>2011-11-27T11:20:21Z</time>
      </trkpt>
      <trkpt lat="44.02227" lon="4.3242">
        <ele>185.7</ele>
        <time>2011-11-27T11:20:22Z</time>
      </trkpt>
      <trkpt lat="44.02221" lon="4.3242">
        <ele>185.6</ele>
        <time>2011-11-27T11:20:23Z</time>
      </trkpt>
      <trkpt lat="44.02214" lon="4.32421">
        <ele>185.3</ele>
        <time>2011-11-27T11:20:24Z</time>
      </trkpt>
      <trkpt lat="44.02208" lon="4.32423">
        <ele>185.1</ele>
        <time>2011-11-27T11:20:25Z</time>
      </trkpt>
      <trkpt lat="44.02202" lon="4.32425">
        <ele>184.9</ele>
        <time>2011-11-27T11:20:26Z</time>
      </trkpt>
      <trkpt lat="44.02196" lon="4.32426">
        <ele>184.6</ele>
        <time>2011-11-27T11:20:27Z</time>
      </trkpt>
      <trkpt lat="44.02189" lon="4.32428">
        <ele>184.3</ele>
        <time>2011-11-27T11:20:28Z</time>
      </trkpt>
      <trkpt lat="44.02182" lon="4.32428">
        <ele>184.1</ele>
        <time>2011-11-27T11:20:29Z</time>
      </trkpt>
      <trkpt lat="44.02176" lon="4.32428">
        <ele>184</ele>
        <time>2011-11-27T11:20:30Z</time>
      </trkpt>
      <trkpt lat="44.02169" lon="4.32428">
        <ele>183.9</ele>
        <time>2011-11-27T11:20:31Z</time>
      </trkpt>
      <trkpt lat="44.02163" lon="4.32428">
        <ele>183.7</ele>
        <time>2011-11-27T11:20:32Z</time>
      </trkpt>
      <trkpt lat="44.02156" lon="4.32428">
        <ele>183.4</ele>
        <time>2011-11-27T11:20:33Z</time>
      </trkpt>
      <trkpt lat="44.0215" lon="4.32429">
        <ele>183</ele>
        <time>2011-11-27T11:20:34Z</time>
      </trkpt>
      <trkpt lat="44.02143" lon="4.3243">
        <ele>182.7</ele>
        <time>2011-11-27T11:20:35Z</time>
      </trkpt>
      <trkpt lat="44.02137" lon="4.32431">
        <ele>182.4</ele>
        <time>2011-11-27T11:20:36Z</time>
      </trkpt>
      <trkpt lat="44.0213" lon="4.32433">
        <ele>182.2</ele>
        <time>2011-11-27T11:20:37Z</time>
      </trkpt>
      <trkpt lat="44.02124" lon="4.32436">
        <ele>181.9</ele>
        <time>2011-11-27T11:20:38Z</time>
      </trkpt>
      <trkpt lat="44.02117" lon="4.32438">
        <ele>181.7</ele>
        <time>2011-11-27T11:20:39Z</time>
      </trkpt>
      <trkpt lat="44.02111" lon="4.3244">
        <ele>181.4</ele>
        <time>2011-11-27T11:20:40Z</time>
      </trkpt>
      <trkpt lat="44.02104" lon="4.32442">
        <ele>181.2</ele>
        <time>2011-11-27T11:20:41Z</time>
      </trkpt>
      <trkpt lat="44.02097" lon="4.32443">
        <ele>180.8</ele>
        <time>2011-11-27T11:20:42Z</time>
      </trkpt>
      <trkpt lat="44.0209" lon="4.32444">
        <ele>180.5</ele>
        <time>2011-11-27T11:20:43Z</time>
      </trkpt>
      <trkpt lat="44.02083" lon="4.32445">
        <ele>180.1</ele>
        <time>2011-11-27T11:20:44Z</time>
      </trkpt>
      <trkpt lat="44.02075" lon="4.32445">
        <ele>179.7</ele>
        <time>2011-11-27T11:20:45Z</time>
      </trkpt>
      <trkpt lat="44.02066" lon="4.32445">
        <ele>179</ele>
        <time>2011-11-27T11:20:46Z</time>
      </trkpt>
      <trkpt lat="44.02057" lon="4.32445">
        <ele>178.3</ele>
        <time>2011-11-27T11:20:47Z</time>
      </trkpt>
      <trkpt lat="44.02047" lon="4.32444">
        <ele>177.6</ele>
        <time>2011-11-27T11:20:48Z</time>
      </trkpt>
      <trkpt lat="44.02036" lon="4.32442">
        <ele>177</ele>
        <time>2011-11-27T11:20:49Z</time>
      </trkpt>
      <trkpt lat="44.02026" lon="4.32442">
        <ele>176.3</ele>
        <time>2011-11-27T11:20:50Z</time>
      </trkpt>
      <trkpt lat="44.02015" lon="4.32443">
        <ele>175.7</ele>
        <time>2011-11-27T11:20:51Z</time>
      </trkpt>
      <trkpt lat="44.02005" lon="4.32446">
        <ele>175.1</ele>
        <time>2011-11-27T11:20:52Z</time>
      </trkpt>
      <trkpt lat="44.01995" lon="4.3245">
        <ele>174.5</ele>
        <time>2011-11-27T11:20:53Z</time>
      </trkpt>
      <trkpt lat="44.01985" lon="4.32455">
        <ele>173.5</ele>
        <time>2011-11-27T11:20:54Z</time>
      </trkpt>
      <trkpt lat="44.01975" lon="4.32461">
        <ele>173</ele>
        <time>2011-11-27T11:20:55Z</time>
      </trkpt>
      <trkpt lat="44.01965" lon="4.32467">
        <ele>172.5</ele>
        <time>2011-11-27T11:20:56Z</time>
      </trkpt>
      <trkpt lat="44.01954" lon="4.32472">
        <ele>172</ele>
        <time>2011-11-27T11:20:57Z</time>
      </trkpt>
      <trkpt lat="44.01944" lon="4.32477">
        <ele>171.6</ele>
        <time>2011-11-27T11:20:58Z</time>
      </trkpt>
      <trkpt lat="44.01935" lon="4.32483">
        <ele>171.3</ele>
        <time>2011-11-27T11:20:59Z</time>
      </trkpt>
      <trkpt lat="44.01925" lon="4.32488">
        <ele>170.6</ele>
        <time>2011-11-27T11:21:00Z</time>
      </trkpt>
      <trkpt lat="44.01916" lon="4.32492">
        <ele>170</ele>
        <time>2011-11-27T11:21:01Z</time>
      </trkpt>
      <trkpt lat="44.01908" lon="4.32495">
        <ele>169.6</ele>
        <time>2011-11-27T11:21:02Z</time>
      </trkpt>
      <trkpt lat="44.019" lon="4.32495">
        <ele>169.6</ele>
        <time>2011-11-27T11:21:03Z</time>
      </trkpt>
      <trkpt lat="44.01894" lon="4.32494">
        <ele>169.6</ele>
        <time>2011-11-27T11:21:04Z</time>
      </trkpt>
      <trkpt lat="44.01889" lon="4.3249">
        <ele>169.9</ele>
        <time>2011-11-27T11:21:05Z</time>
      </trkpt>
      <trkpt lat="44.01882" lon="4.32482">
        <ele>170.2</ele>
        <time>2011-11-27T11:21:07Z</time>
      </trkpt>
      <trkpt lat="44.01876" lon="4.32481">
        <ele>170.1</ele>
        <time>2011-11-27T11:21:09Z</time>
      </trkpt>
      <trkpt lat="44.01868" lon="4.32483">
        <ele>169.5</ele>
        <time>2011-11-27T11:21:11Z</time>
      </trkpt>
      <trkpt lat="44.01862" lon="4.32489">
        <ele>169.3</ele>
        <time>2011-11-27T11:21:13Z</time>
      </trkpt>
      <trkpt lat="44.01856" lon="4.32494">
        <ele>169</ele>
        <time>2011-11-27T11:21:15Z</time>
      </trkpt>
      <trkpt lat="44.01851" lon="4.32499">
        <ele>168.3</ele>
        <time>2011-11-27T11:21:17Z</time>
      </trkpt>
      <trkpt lat="44.01846" lon="4.32504">
        <ele>168.1</ele>
        <time>2011-11-27T11:21:19Z</time>
      </trkpt>
      <trkpt lat="44.01843" lon="4.32509">
        <ele>167.4</ele>
        <time>2011-11-27T11:21:21Z</time>
      </trkpt>
      <trkpt lat="44.0184" lon="4.32516">
        <ele>166.8</ele>
        <time>2011-11-27T11:21:23Z</time>
      </trkpt>
      <trkpt lat="44.01837" lon="4.32523">
        <ele>166.5</ele>
        <time>2011-11-27T11:21:25Z</time>
      </trkpt>
      <trkpt lat="44.01834" lon="4.3253">
        <ele>166.4</ele>
        <time>2011-11-27T11:21:27Z</time>
      </trkpt>
      <trkpt lat="44.01833" lon="4.32537">
        <ele>166.5</ele>
        <time>2011-11-27T11:21:31Z</time>
      </trkpt>
      <trkpt lat="44.01833" lon="4.32537">
        <ele>166.5</ele>
        <time>2011-11-27T11:21:31Z</time>
      </trkpt>
      <trkpt lat="44.01833" lon="4.32537">
        <ele>166.5</ele>
        <time>2011-11-27T11:21:45Z</time>
      </trkpt>
      <trkpt lat="44.0183" lon="4.32546">
        <ele>169.4</ele>
        <time>2011-11-27T11:21:46Z</time>
      </trkpt>
      <trkpt lat="44.01827" lon="4.32552">
        <ele>169.2</ele>
        <time>2011-11-27T11:21:48Z</time>
      </trkpt>
      <trkpt lat="44.01826" lon="4.32559">
        <ele>168.9</ele>
        <time>2011-11-27T11:21:52Z</time>
      </trkpt>
      <trkpt lat="44.01827" lon="4.32567">
        <ele>167.4</ele>
        <time>2011-11-27T11:22:16Z</time>
      </trkpt>
      <trkpt lat="44.01827" lon="4.32575">
        <ele>167.2</ele>
        <time>2011-11-27T11:22:18Z</time>
      </trkpt>
      <trkpt lat="44.01827" lon="4.32584">
        <ele>167.2</ele>
        <time>2011-11-27T11:22:20Z</time>
      </trkpt>
      <trkpt lat="44.01826" lon="4.32593">
        <ele>167.4</ele>
        <time>2011-11-27T11:22:22Z</time>
      </trkpt>
      <trkpt lat="44.01825" lon="4.326">
        <ele>167.9</ele>
        <time>2011-11-27T11:22:24Z</time>
      </trkpt>
      <trkpt lat="44.01824" lon="4.32608">
        <ele>168.2</ele>
        <time>2011-11-27T11:22:26Z</time>
      </trkpt>
      <trkpt lat="44.01821" lon="4.32614">
        <ele>168.6</ele>
        <time>2011-11-27T11:22:28Z</time>
      </trkpt>
      <trkpt lat="44.01819" lon="4.32622">
        <ele>168.7</ele>
        <time>2011-11-27T11:22:30Z</time>
      </trkpt>
      <trkpt lat="44.01817" lon="4.32629">
        <ele>168.9</ele>
        <time>2011-11-27T11:22:32Z</time>
      </trkpt>
      <trkpt lat="44.01814" lon="4.32636">
        <ele>169.3</ele>
        <time>2011-11-27T11:22:34Z</time>
      </trkpt>
      <trkpt lat="44.01812" lon="4.32644">
        <ele>169.2</ele>
        <time>2011-11-27T11:22:36Z</time>
      </trkpt>
      <trkpt lat="44.01809" lon="4.32651">
        <ele>169.3</ele>
        <time>2011-11-27T11:22:38Z</time>
      </trkpt>
      <trkpt lat="44.01807" lon="4.32656">
        <ele>169.3</ele>
        <time>2011-11-27T11:22:40Z</time>
      </trkpt>
      <trkpt lat="44.01805" lon="4.32662">
        <ele>169.7</ele>
        <time>2011-11-27T11:22:42Z</time>
      </trkpt>
      <trkpt lat="44.01804" lon="4.32668">
        <ele>169.6</ele>
        <time>2011-11-27T11:22:44Z</time>
      </trkpt>
      <trkpt lat="44.01802" lon="4.32676">
        <ele>169.8</ele>
        <time>2011-11-27T11:22:47Z</time>
      </trkpt>
      <trkpt lat="44.018" lon="4.32684">
        <ele>170.2</ele>
        <time>2011-11-27T11:22:50Z</time>
      </trkpt>
      <trkpt lat="44.01797" lon="4.32693">
        <ele>170.2</ele>
        <time>2011-11-27T11:22:53Z</time>
      </trkpt>
      <trkpt lat="44.01795" lon="4.32702">
        <ele>170.6</ele>
        <time>2011-11-27T11:22:56Z</time>
      </trkpt>
      <trkpt lat="44.01792" lon="4.32708">
        <ele>170.6</ele>
        <time>2011-11-27T11:22:58Z</time>
      </trkpt>
      <trkpt lat="44.01791" lon="4.32714">
        <ele>170.5</ele>
        <time>2011-11-27T11:23:00Z</time>
      </trkpt>
      <trkpt lat="44.01789" lon="4.3272">
        <ele>170.5</ele>
        <time>2011-11-27T11:23:02Z</time>
      </trkpt>
      <trkpt lat="44.01786" lon="4.32727">
        <ele>171</ele>
        <time>2011-11-27T11:23:05Z</time>
      </trkpt>
      <trkpt lat="44.01784" lon="4.32733">
        <ele>171.2</ele>
        <time>2011-11-27T11:23:07Z</time>
      </trkpt>
      <trkpt lat="44.0178" lon="4.32739">
        <ele>170.8</ele>
        <time>2011-11-27T11:23:09Z</time>
      </trkpt>
      <trkpt lat="44.01776" lon="4.32744">
        <ele>171.1</ele>
        <time>2011-11-27T11:23:11Z</time>
      </trkpt>
      <trkpt lat="44.01772" lon="4.3275">
        <ele>170.8</ele>
        <time>2011-11-27T11:23:13Z</time>
      </trkpt>
      <trkpt lat="44.01768" lon="4.32755">
        <ele>170.9</ele>
        <time>2011-11-27T11:23:15Z</time>
      </trkpt>
      <trkpt lat="44.01764" lon="4.32762">
        <ele>171.1</ele>
        <time>2011-11-27T11:23:18Z</time>
      </trkpt>
      <trkpt lat="44.0176" lon="4.3277">
        <ele>171.9</ele>
        <time>2011-11-27T11:23:21Z</time>
      </trkpt>
      <trkpt lat="44.01757" lon="4.32775">
        <ele>172.1</ele>
        <time>2011-11-27T11:23:23Z</time>
      </trkpt>
      <trkpt lat="44.01752" lon="4.3278">
        <ele>172.4</ele>
        <time>2011-11-27T11:23:26Z</time>
      </trkpt>
      <trkpt lat="44.01749" lon="4.32786">
        <ele>173.2</ele>
        <time>2011-11-27T11:23:29Z</time>
      </trkpt>
      <trkpt lat="44.01745" lon="4.3279">
        <ele>173.7</ele>
        <time>2011-11-27T11:23:33Z</time>
      </trkpt>
      <trkpt lat="44.01732" lon="4.32794">
        <ele>176</ele>
        <time>2011-11-27T11:23:46Z</time>
      </trkpt>
      <trkpt lat="44.01727" lon="4.32793">
        <ele>176.2</ele>
        <time>2011-11-27T11:23:49Z</time>
      </trkpt>
      <trkpt lat="44.01721" lon="4.32793">
        <ele>176.1</ele>
        <time>2011-11-27T11:23:52Z</time>
      </trkpt>
      <trkpt lat="44.01715" lon="4.32792">
        <ele>176</ele>
        <time>2011-11-27T11:23:55Z</time>
      </trkpt>
      <trkpt lat="44.0171" lon="4.32792">
        <ele>176.4</ele>
        <time>2011-11-27T11:23:58Z</time>
      </trkpt>
      <trkpt lat="44.01704" lon="4.32791">
        <ele>176.8</ele>
        <time>2011-11-27T11:24:01Z</time>
      </trkpt>
      <trkpt lat="44.01699" lon="4.3279">
        <ele>177.6</ele>
        <time>2011-11-27T11:24:04Z</time>
      </trkpt>
      <trkpt lat="44.01692" lon="4.3279">
        <ele>177.7</ele>
        <time>2011-11-27T11:24:07Z</time>
      </trkpt>
      <trkpt lat="44.01686" lon="4.3279">
        <ele>178</ele>
        <time>2011-11-27T11:24:10Z</time>
      </trkpt>
      <trkpt lat="44.0168" lon="4.32789">
        <ele>178.1</ele>
        <time>2011-11-27T11:24:13Z</time>
      </trkpt>
      <trkpt lat="44.01674" lon="4.32791">
        <ele>177.8</ele>
        <time>2011-11-27T11:24:16Z</time>
      </trkpt>
      <trkpt lat="44.01669" lon="4.32794">
        <ele>178</ele>
        <time>2011-11-27T11:24:19Z</time>
      </trkpt>
      <trkpt lat="44.01664" lon="4.32799">
        <ele>178.2</ele>
        <time>2011-11-27T11:24:22Z</time>
      </trkpt>
      <trkpt lat="44.0166" lon="4.32804">
        <ele>178.6</ele>
        <time>2011-11-27T11:24:25Z</time>
      </trkpt>
      <trkpt lat="44.01656" lon="4.3281">
        <ele>179</ele>
        <time>2011-11-27T11:24:28Z</time>
      </trkpt>
      <trkpt lat="44.01654" lon="4.32818">
        <ele>179.3</ele>
        <time>2011-11-27T11:24:31Z</time>
      </trkpt>
      <trkpt lat="44.01651" lon="4.32824">
        <ele>179.5</ele>
        <time>2011-11-27T11:24:34Z</time>
      </trkpt>
      <trkpt lat="44.01649" lon="4.32832">
        <ele>179.6</ele>
        <time>2011-11-27T11:24:37Z</time>
      </trkpt>
      <trkpt lat="44.01646" lon="4.3284">
        <ele>179.9</ele>
        <time>2011-11-27T11:24:40Z</time>
      </trkpt>
      <trkpt lat="44.01644" lon="4.32848">
        <ele>180.5</ele>
        <time>2011-11-27T11:24:43Z</time>
      </trkpt>
      <trkpt lat="44.01642" lon="4.32856">
        <ele>180.1</ele>
        <time>2011-11-27T11:24:46Z</time>
      </trkpt>
      <trkpt lat="44.01639" lon="4.32863">
        <ele>180.1</ele>
        <time>2011-11-27T11:24:49Z</time>
      </trkpt>
      <trkpt lat="44.01638" lon="4.32872">
        <ele>180.3</ele>
        <time>2011-11-27T11:24:52Z</time>
      </trkpt>
      <trkpt lat="44.01635" lon="4.32879">
        <ele>180.8</ele>
        <time>2011-11-27T11:24:55Z</time>
      </trkpt>
      <trkpt lat="44.01634" lon="4.32887">
        <ele>181</ele>
        <time>2011-11-27T11:24:58Z</time>
      </trkpt>
      <trkpt lat="44.01633" lon="4.32894">
        <ele>180.9</ele>
        <time>2011-11-27T11:25:01Z</time>
      </trkpt>
      <trkpt lat="44.01632" lon="4.32903">
        <ele>181.5</ele>
        <time>2011-11-27T11:25:04Z</time>
      </trkpt>
      <trkpt lat="44.01631" lon="4.32911">
        <ele>181.8</ele>
        <time>2011-11-27T11:25:07Z</time>
      </trkpt>
      <trkpt lat="44.01629" lon="4.32919">
        <ele>182.3</ele>
        <time>2011-11-27T11:25:10Z</time>
      </trkpt>
      <trkpt lat="44.01627" lon="4.32926">
        <ele>182.5</ele>
        <time>2011-11-27T11:25:13Z</time>
      </trkpt>
      <trkpt lat="44.01624" lon="4.32932">
        <ele>182.9</ele>
        <time>2011-11-27T11:25:16Z</time>
      </trkpt>
      <trkpt lat="44.0162" lon="4.32939">
        <ele>183.1</ele>
        <time>2011-11-27T11:25:19Z</time>
      </trkpt>
      <trkpt lat="44.01616" lon="4.32945">
        <ele>183.2</ele>
        <time>2011-11-27T11:25:22Z</time>
      </trkpt>
      <trkpt lat="44.01613" lon="4.32951">
        <ele>183.1</ele>
        <time>2011-11-27T11:25:25Z</time>
      </trkpt>
      <trkpt lat="44.01609" lon="4.32956">
        <ele>183.4</ele>
        <time>2011-11-27T11:25:28Z</time>
      </trkpt>
      <trkpt lat="44.01605" lon="4.3296">
        <ele>183.4</ele>
        <time>2011-11-27T11:25:30Z</time>
      </trkpt>
      <trkpt lat="44.01602" lon="4.32965">
        <ele>183.5</ele>
        <time>2011-11-27T11:25:32Z</time>
      </trkpt>
      <trkpt lat="44.01599" lon="4.32969">
        <ele>183.5</ele>
        <time>2011-11-27T11:25:34Z</time>
      </trkpt>
      <trkpt lat="44.01595" lon="4.32973">
        <ele>183.3</ele>
        <time>2011-11-27T11:25:36Z</time>
      </trkpt>
      <trkpt lat="44.01591" lon="4.3298">
        <ele>183.5</ele>
        <time>2011-11-27T11:25:39Z</time>
      </trkpt>
      <trkpt lat="44.01588" lon="4.32984">
        <ele>183.7</ele>
        <time>2011-11-27T11:25:41Z</time>
      </trkpt>
      <trkpt lat="44.01583" lon="4.32991">
        <ele>184.1</ele>
        <time>2011-11-27T11:25:44Z</time>
      </trkpt>
      <trkpt lat="44.01579" lon="4.32997">
        <ele>184.8</ele>
        <time>2011-11-27T11:25:47Z</time>
      </trkpt>
      <trkpt lat="44.01574" lon="4.33003">
        <ele>185.2</ele>
        <time>2011-11-27T11:25:50Z</time>
      </trkpt>
      <trkpt lat="44.0157" lon="4.33009">
        <ele>185.5</ele>
        <time>2011-11-27T11:25:53Z</time>
      </trkpt>
      <trkpt lat="44.01564" lon="4.33015">
        <ele>185.9</ele>
        <time>2011-11-27T11:25:56Z</time>
      </trkpt>
      <trkpt lat="44.0156" lon="4.33021">
        <ele>186.5</ele>
        <time>2011-11-27T11:25:59Z</time>
      </trkpt>
      <trkpt lat="44.01556" lon="4.33024">
        <ele>186.3</ele>
        <time>2011-11-27T11:26:01Z</time>
      </trkpt>
      <trkpt lat="44.01552" lon="4.33028">
        <ele>186.2</ele>
        <time>2011-11-27T11:26:03Z</time>
      </trkpt>
      <trkpt lat="44.01546" lon="4.33033">
        <ele>185.9</ele>
        <time>2011-11-27T11:26:06Z</time>
      </trkpt>
      <trkpt lat="44.01541" lon="4.33037">
        <ele>186.4</ele>
        <time>2011-11-27T11:26:09Z</time>
      </trkpt>
      <trkpt lat="44.01536" lon="4.33042">
        <ele>186.8</ele>
        <time>2011-11-27T11:26:12Z</time>
      </trkpt>
      <trkpt lat="44.01531" lon="4.33044">
        <ele>186.6</ele>
        <time>2011-11-27T11:26:14Z</time>
      </trkpt>
      <trkpt lat="44.01525" lon="4.33049">
        <ele>186.9</ele>
        <time>2011-11-27T11:26:17Z</time>
      </trkpt>
      <trkpt lat="44.0152" lon="4.33052">
        <ele>186.8</ele>
        <time>2011-11-27T11:26:20Z</time>
      </trkpt>
      <trkpt lat="44.01513" lon="4.33052">
        <ele>187</ele>
        <time>2011-11-27T11:26:23Z</time>
      </trkpt>
      <trkpt lat="44.01508" lon="4.33051">
        <ele>187.8</ele>
        <time>2011-11-27T11:26:26Z</time>
      </trkpt>
      <trkpt lat="44.01502" lon="4.33047">
        <ele>188.3</ele>
        <time>2011-11-27T11:26:29Z</time>
      </trkpt>
      <trkpt lat="44.01496" lon="4.33042">
        <ele>188.7</ele>
        <time>2011-11-27T11:26:32Z</time>
      </trkpt>
      <trkpt lat="44.01492" lon="4.33038">
        <ele>188.8</ele>
        <time>2011-11-27T11:26:34Z</time>
      </trkpt>
      <trkpt lat="44.01487" lon="4.33033">
        <ele>189.9</ele>
        <time>2011-11-27T11:26:37Z</time>
      </trkpt>
      <trkpt lat="44.01482" lon="4.33028">
        <ele>190.7</ele>
        <time>2011-11-27T11:26:40Z</time>
      </trkpt>
      <trkpt lat="44.01478" lon="4.33021">
        <ele>190.9</ele>
        <time>2011-11-27T11:26:43Z</time>
      </trkpt>
      <trkpt lat="44.01474" lon="4.33016">
        <ele>191.3</ele>
        <time>2011-11-27T11:26:46Z</time>
      </trkpt>
      <trkpt lat="44.0147" lon="4.3301">
        <ele>191.6</ele>
        <time>2011-11-27T11:26:49Z</time>
      </trkpt>
      <trkpt lat="44.01465" lon="4.33004">
        <ele>192.3</ele>
        <time>2011-11-27T11:26:52Z</time>
      </trkpt>
      <trkpt lat="44.01462" lon="4.32998">
        <ele>192.6</ele>
        <time>2011-11-27T11:26:55Z</time>
      </trkpt>
      <trkpt lat="44.01457" lon="4.32993">
        <ele>193</ele>
        <time>2011-11-27T11:26:58Z</time>
      </trkpt>
      <trkpt lat="44.01454" lon="4.32987">
        <ele>193.6</ele>
        <time>2011-11-27T11:27:01Z</time>
      </trkpt>
      <trkpt lat="44.0145" lon="4.32983">
        <ele>194.2</ele>
        <time>2011-11-27T11:27:04Z</time>
      </trkpt>
      <trkpt lat="44.01446" lon="4.32979">
        <ele>194.3</ele>
        <time>2011-11-27T11:27:07Z</time>
      </trkpt>
      <trkpt lat="44.01442" lon="4.32976">
        <ele>194.4</ele>
        <time>2011-11-27T11:27:10Z</time>
      </trkpt>
      <trkpt lat="44.01437" lon="4.32973">
        <ele>194.8</ele>
        <time>2011-11-27T11:27:13Z</time>
      </trkpt>
      <trkpt lat="44.01432" lon="4.3297">
        <ele>194.7</ele>
        <time>2011-11-27T11:27:16Z</time>
      </trkpt>
      <trkpt lat="44.01427" lon="4.32967">
        <ele>194.5</ele>
        <time>2011-11-27T11:27:19Z</time>
      </trkpt>
      <trkpt lat="44.01422" lon="4.32964">
        <ele>194.8</ele>
        <time>2011-11-27T11:27:22Z</time>
      </trkpt>
      <trkpt lat="44.01418" lon="4.3296">
        <ele>195.5</ele>
        <time>2011-11-27T11:27:25Z</time>
      </trkpt>
      <trkpt lat="44.01412" lon="4.32957">
        <ele>196.1</ele>
        <time>2011-11-27T11:27:28Z</time>
      </trkpt>
      <trkpt lat="44.01406" lon="4.32953">
        <ele>196.1</ele>
        <time>2011-11-27T11:27:31Z</time>
      </trkpt>
      <trkpt lat="44.01401" lon="4.32949">
        <ele>196.3</ele>
        <time>2011-11-27T11:27:34Z</time>
      </trkpt>
      <trkpt lat="44.01396" lon="4.32943">
        <ele>196.6</ele>
        <time>2011-11-27T11:27:37Z</time>
      </trkpt>
      <trkpt lat="44.01391" lon="4.32937">
        <ele>196.8</ele>
        <time>2011-11-27T11:27:40Z</time>
      </trkpt>
      <trkpt lat="44.01387" lon="4.3293">
        <ele>197</ele>
        <time>2011-11-27T11:27:43Z</time>
      </trkpt>
      <trkpt lat="44.01384" lon="4.32925">
        <ele>196.9</ele>
        <time>2011-11-27T11:27:45Z</time>
      </trkpt>
      <trkpt lat="44.01381" lon="4.32918">
        <ele>197.2</ele>
        <time>2011-11-27T11:27:48Z</time>
      </trkpt>
      <trkpt lat="44.01378" lon="4.32911">
        <ele>197.5</ele>
        <time>2011-11-27T11:27:51Z</time>
      </trkpt>
      <trkpt lat="44.01374" lon="4.32904">
        <ele>197.6</ele>
        <time>2011-11-27T11:27:54Z</time>
      </trkpt>
      <trkpt lat="44.01371" lon="4.32897">
        <ele>198.3</ele>
        <time>2011-11-27T11:27:57Z</time>
      </trkpt>
      <trkpt lat="44.01369" lon="4.3289">
        <ele>198.2</ele>
        <time>2011-11-27T11:27:59Z</time>
      </trkpt>
      <trkpt lat="44.01366" lon="4.32885">
        <ele>198.2</ele>
        <time>2011-11-27T11:28:01Z</time>
      </trkpt>
      <trkpt lat="44.01363" lon="4.3288">
        <ele>198.3</ele>
        <time>2011-11-27T11:28:03Z</time>
      </trkpt>
      <trkpt lat="44.01359" lon="4.32872">
        <ele>198.9</ele>
        <time>2011-11-27T11:28:06Z</time>
      </trkpt>
      <trkpt lat="44.01354" lon="4.32866">
        <ele>199.3</ele>
        <time>2011-11-27T11:28:09Z</time>
      </trkpt>
      <trkpt lat="44.01351" lon="4.3286">
        <ele>199.8</ele>
        <time>2011-11-27T11:28:12Z</time>
      </trkpt>
      <trkpt lat="44.01348" lon="4.32852">
        <ele>199.9</ele>
        <time>2011-11-27T11:28:15Z</time>
      </trkpt>
      <trkpt lat="44.01344" lon="4.32846">
        <ele>199.6</ele>
        <time>2011-11-27T11:28:17Z</time>
      </trkpt>
      <trkpt lat="44.0134" lon="4.3284">
        <ele>199.9</ele>
        <time>2011-11-27T11:28:19Z</time>
      </trkpt>
      <trkpt lat="44.01335" lon="4.32836">
        <ele>200.5</ele>
        <time>2011-11-27T11:28:21Z</time>
      </trkpt>
      <trkpt lat="44.0133" lon="4.32827">
        <ele>200.4</ele>
        <time>2011-11-27T11:28:23Z</time>
      </trkpt>
      <trkpt lat="44.01326" lon="4.32819">
        <ele>201</ele>
        <time>2011-11-27T11:28:25Z</time>
      </trkpt>
      <trkpt lat="44.01322" lon="4.32808">
        <ele>201.1</ele>
        <time>2011-11-27T11:28:27Z</time>
      </trkpt>
      <trkpt lat="44.01321" lon="4.32796">
        <ele>200.9</ele>
        <time>2011-11-27T11:28:29Z</time>
      </trkpt>
      <trkpt lat="44.01322" lon="4.32785">
        <ele>200.8</ele>
        <time>2011-11-27T11:28:31Z</time>
      </trkpt>
      <trkpt lat="44.01324" lon="4.32774">
        <ele>200.4</ele>
        <time>2011-11-27T11:28:33Z</time>
      </trkpt>
      <trkpt lat="44.01326" lon="4.32763">
        <ele>199.1</ele>
        <time>2011-11-27T11:28:35Z</time>
      </trkpt>
      <trkpt lat="44.01327" lon="4.32752">
        <ele>198</ele>
        <time>2011-11-27T11:28:37Z</time>
      </trkpt>
      <trkpt lat="44.01326" lon="4.32743">
        <ele>197.9</ele>
        <time>2011-11-27T11:28:39Z</time>
      </trkpt>
      <trkpt lat="44.01323" lon="4.32735">
        <ele>198.8</ele>
        <time>2011-11-27T11:28:42Z</time>
      </trkpt>
      <trkpt lat="44.01319" lon="4.3273">
        <ele>199.6</ele>
        <time>2011-11-27T11:28:45Z</time>
      </trkpt>
      <trkpt lat="44.01314" lon="4.32728">
        <ele>199.5</ele>
        <time>2011-11-27T11:28:48Z</time>
      </trkpt>
      <trkpt lat="44.01309" lon="4.32728">
        <ele>199.4</ele>
        <time>2011-11-27T11:28:50Z</time>
      </trkpt>
      <trkpt lat="44.01302" lon="4.32731">
        <ele>200.1</ele>
        <time>2011-11-27T11:28:53Z</time>
      </trkpt>
      <trkpt lat="44.01298" lon="4.32734">
        <ele>200.2</ele>
        <time>2011-11-27T11:28:55Z</time>
      </trkpt>
      <trkpt lat="44.01292" lon="4.32738">
        <ele>199.4</ele>
        <time>2011-11-27T11:28:58Z</time>
      </trkpt>
      <trkpt lat="44.01287" lon="4.32742">
        <ele>198.2</ele>
        <time>2011-11-27T11:29:01Z</time>
      </trkpt>
      <trkpt lat="44.01283" lon="4.32745">
        <ele>198.2</ele>
        <time>2011-11-27T11:29:03Z</time>
      </trkpt>
      <trkpt lat="44.01279" lon="4.32748">
        <ele>198</ele>
        <time>2011-11-27T11:29:05Z</time>
      </trkpt>
      <trkpt lat="44.01275" lon="4.32752">
        <ele>198</ele>
        <time>2011-11-27T11:29:07Z</time>
      </trkpt>
      <trkpt lat="44.0127" lon="4.32757">
        <ele>198</ele>
        <time>2011-11-27T11:29:10Z</time>
      </trkpt>
      <trkpt lat="44.01266" lon="4.32763">
        <ele>197.7</ele>
        <time>2011-11-27T11:29:14Z</time>
      </trkpt>
      <trkpt lat="44.01262" lon="4.32768">
        <ele>197.7</ele>
        <time>2011-11-27T11:29:17Z</time>
      </trkpt>
      <trkpt lat="44.01259" lon="4.32773">
        <ele>197.7</ele>
        <time>2011-11-27T11:29:19Z</time>
      </trkpt>
      <trkpt lat="44.01256" lon="4.32779">
        <ele>197.6</ele>
        <time>2011-11-27T11:29:21Z</time>
      </trkpt>
      <trkpt lat="44.01253" lon="4.32786">
        <ele>197.6</ele>
        <time>2011-11-27T11:29:23Z</time>
      </trkpt>
      <trkpt lat="44.0125" lon="4.32794">
        <ele>197.6</ele>
        <time>2011-11-27T11:29:25Z</time>
      </trkpt>
      <trkpt lat="44.01247" lon="4.32802">
        <ele>198</ele>
        <time>2011-11-27T11:29:27Z</time>
      </trkpt>
      <trkpt lat="44.01245" lon="4.3281">
        <ele>198.3</ele>
        <time>2011-11-27T11:29:29Z</time>
      </trkpt>
      <trkpt lat="44.01242" lon="4.32818">
        <ele>198.7</ele>
        <time>2011-11-27T11:29:31Z</time>
      </trkpt>
      <trkpt lat="44.01239" lon="4.32823">
        <ele>198.7</ele>
        <time>2011-11-27T11:29:33Z</time>
      </trkpt>
      <trkpt lat="44.01234" lon="4.32828">
        <ele>198.8</ele>
        <time>2011-11-27T11:29:35Z</time>
      </trkpt>
      <trkpt lat="44.01228" lon="4.32829">
        <ele>198.6</ele>
        <time>2011-11-27T11:29:37Z</time>
      </trkpt>
      <trkpt lat="44.01223" lon="4.32828">
        <ele>198.9</ele>
        <time>2011-11-27T11:29:39Z</time>
      </trkpt>
      <trkpt lat="44.01218" lon="4.32826">
        <ele>199.5</ele>
        <time>2011-11-27T11:29:41Z</time>
      </trkpt>
      <trkpt lat="44.01213" lon="4.32822">
        <ele>200.8</ele>
        <time>2011-11-27T11:29:44Z</time>
      </trkpt>
      <trkpt lat="44.01208" lon="4.32819">
        <ele>201.5</ele>
        <time>2011-11-27T11:29:47Z</time>
      </trkpt>
      <trkpt lat="44.01202" lon="4.32816">
        <ele>202</ele>
        <time>2011-11-27T11:29:50Z</time>
      </trkpt>
      <trkpt lat="44.01196" lon="4.32812">
        <ele>202.5</ele>
        <time>2011-11-27T11:29:53Z</time>
      </trkpt>
      <trkpt lat="44.01192" lon="4.32809">
        <ele>202.7</ele>
        <time>2011-11-27T11:29:55Z</time>
      </trkpt>
      <trkpt lat="44.01187" lon="4.32806">
        <ele>202.9</ele>
        <time>2011-11-27T11:29:57Z</time>
      </trkpt>
      <trkpt lat="44.01183" lon="4.32803">
        <ele>203.2</ele>
        <time>2011-11-27T11:29:59Z</time>
      </trkpt>
      <trkpt lat="44.01178" lon="4.328">
        <ele>203.2</ele>
        <time>2011-11-27T11:30:01Z</time>
      </trkpt>
      <trkpt lat="44.01173" lon="4.32797">
        <ele>203.6</ele>
        <time>2011-11-27T11:30:03Z</time>
      </trkpt>
      <trkpt lat="44.01169" lon="4.32794">
        <ele>203.9</ele>
        <time>2011-11-27T11:30:05Z</time>
      </trkpt>
      <trkpt lat="44.01164" lon="4.32791">
        <ele>204.1</ele>
        <time>2011-11-27T11:30:07Z</time>
      </trkpt>
      <trkpt lat="44.01159" lon="4.32788">
        <ele>203.9</ele>
        <time>2011-11-27T11:30:09Z</time>
      </trkpt>
      <trkpt lat="44.01153" lon="4.32784">
        <ele>203.7</ele>
        <time>2011-11-27T11:30:11Z</time>
      </trkpt>
      <trkpt lat="44.01147" lon="4.32781">
        <ele>203.7</ele>
        <time>2011-11-27T11:30:13Z</time>
      </trkpt>
      <trkpt lat="44.01142" lon="4.32777">
        <ele>203.8</ele>
        <time>2011-11-27T11:30:15Z</time>
      </trkpt>
      <trkpt lat="44.01136" lon="4.32774">
        <ele>203.9</ele>
        <time>2011-11-27T11:30:17Z</time>
      </trkpt>
      <trkpt lat="44.01131" lon="4.3277">
        <ele>203.8</ele>
        <time>2011-11-27T11:30:19Z</time>
      </trkpt>
      <trkpt lat="44.01125" lon="4.32767">
        <ele>203.7</ele>
        <time>2011-11-27T11:30:21Z</time>
      </trkpt>
      <trkpt lat="44.0112" lon="4.32764">
        <ele>203.8</ele>
        <time>2011-11-27T11:30:23Z</time>
      </trkpt>
      <trkpt lat="44.01115" lon="4.32761">
        <ele>203.8</ele>
        <time>2011-11-27T11:30:25Z</time>
      </trkpt>
      <trkpt lat="44.0111" lon="4.32758">
        <ele>203.6</ele>
        <time>2011-11-27T11:30:27Z</time>
      </trkpt>
      <trkpt lat="44.01103" lon="4.32756">
        <ele>203.9</ele>
        <time>2011-11-27T11:30:29Z</time>
      </trkpt>
      <trkpt lat="44.01096" lon="4.32753">
        <ele>203.5</ele>
        <time>2011-11-27T11:30:31Z</time>
      </trkpt>
      <trkpt lat="44.0109" lon="4.32749">
        <ele>203.6</ele>
        <time>2011-11-27T11:30:33Z</time>
      </trkpt>
      <trkpt lat="44.01088" lon="4.32742">
        <ele>203.9</ele>
        <time>2011-11-27T11:30:35Z</time>
      </trkpt>
      <trkpt lat="44.01093" lon="4.32738">
        <ele>203.8</ele>
        <time>2011-11-27T11:30:39Z</time>
      </trkpt>
      <trkpt lat="44.01099" lon="4.32735">
        <ele>205.1</ele>
        <time>2011-11-27T11:30:44Z</time>
      </trkpt>
      <trkpt lat="44.01105" lon="4.32733">
        <ele>205.8</ele>
        <time>2011-11-27T11:30:47Z</time>
      </trkpt>
      <trkpt lat="44.01111" lon="4.3273">
        <ele>206</ele>
        <time>2011-11-27T11:30:49Z</time>
      </trkpt>
      <trkpt lat="44.01116" lon="4.32726">
        <ele>206.4</ele>
        <time>2011-11-27T11:30:51Z</time>
      </trkpt>
      <trkpt lat="44.01121" lon="4.32723">
        <ele>206.7</ele>
        <time>2011-11-27T11:30:53Z</time>
      </trkpt>
      <trkpt lat="44.01126" lon="4.32719">
        <ele>207.1</ele>
        <time>2011-11-27T11:30:55Z</time>
      </trkpt>
      <trkpt lat="44.01131" lon="4.32714">
        <ele>207.2</ele>
        <time>2011-11-27T11:30:57Z</time>
      </trkpt>
      <trkpt lat="44.01135" lon="4.32707">
        <ele>207.7</ele>
        <time>2011-11-27T11:30:59Z</time>
      </trkpt>
      <trkpt lat="44.01138" lon="4.32698">
        <ele>207.7</ele>
        <time>2011-11-27T11:31:01Z</time>
      </trkpt>
      <trkpt lat="44.0114" lon="4.3269">
        <ele>208.3</ele>
        <time>2011-11-27T11:31:03Z</time>
      </trkpt>
      <trkpt lat="44.01141" lon="4.32683">
        <ele>208.6</ele>
        <time>2011-11-27T11:31:05Z</time>
      </trkpt>
      <trkpt lat="44.01142" lon="4.32676">
        <ele>208.7</ele>
        <time>2011-11-27T11:31:07Z</time>
      </trkpt>
      <trkpt lat="44.01142" lon="4.32668">
        <ele>208.9</ele>
        <time>2011-11-27T11:31:09Z</time>
      </trkpt>
      <trkpt lat="44.01142" lon="4.32661">
        <ele>209</ele>
        <time>2011-11-27T11:31:11Z</time>
      </trkpt>
      <trkpt lat="44.01143" lon="4.32654">
        <ele>209.3</ele>
        <time>2011-11-27T11:31:13Z</time>
      </trkpt>
      <trkpt lat="44.01144" lon="4.32648">
        <ele>209.2</ele>
        <time>2011-11-27T11:31:15Z</time>
      </trkpt>
      <trkpt lat="44.01144" lon="4.32641">
        <ele>209.3</ele>
        <time>2011-11-27T11:31:17Z</time>
      </trkpt>
      <trkpt lat="44.01144" lon="4.32635">
        <ele>209.4</ele>
        <time>2011-11-27T11:31:19Z</time>
      </trkpt>
      <trkpt lat="44.01145" lon="4.32626">
        <ele>209.8</ele>
        <time>2011-11-27T11:31:21Z</time>
      </trkpt>
      <trkpt lat="44.01146" lon="4.32617">
        <ele>210</ele>
        <time>2011-11-27T11:31:23Z</time>
      </trkpt>
      <trkpt lat="44.01148" lon="4.32609">
        <ele>210.4</ele>
        <time>2011-11-27T11:31:25Z</time>
      </trkpt>
      <trkpt lat="44.0115" lon="4.32602">
        <ele>210.8</ele>
        <time>2011-11-27T11:31:27Z</time>
      </trkpt>
      <trkpt lat="44.01152" lon="4.32596">
        <ele>210.5</ele>
        <time>2011-11-27T11:31:29Z</time>
      </trkpt>
      <trkpt lat="44.01156" lon="4.32589">
        <ele>209.5</ele>
        <time>2011-11-27T11:31:31Z</time>
      </trkpt>
      <trkpt lat="44.0116" lon="4.32585">
        <ele>209.6</ele>
        <time>2011-11-27T11:31:33Z</time>
      </trkpt>
      <trkpt lat="44.01165" lon="4.32582">
        <ele>210.2</ele>
        <time>2011-11-27T11:31:35Z</time>
      </trkpt>
      <trkpt lat="44.01169" lon="4.32578">
        <ele>211</ele>
        <time>2011-11-27T11:31:37Z</time>
      </trkpt>
      <trkpt lat="44.01173" lon="4.32572">
        <ele>211.1</ele>
        <time>2011-11-27T11:31:39Z</time>
      </trkpt>
      <trkpt lat="44.01177" lon="4.32565">
        <ele>211.5</ele>
        <time>2011-11-27T11:31:41Z</time>
      </trkpt>
      <trkpt lat="44.01181" lon="4.32559">
        <ele>211.6</ele>
        <time>2011-11-27T11:31:43Z</time>
      </trkpt>
      <trkpt lat="44.01185" lon="4.32552">
        <ele>211.9</ele>
        <time>2011-11-27T11:31:45Z</time>
      </trkpt>
      <trkpt lat="44.01188" lon="4.32546">
        <ele>212.5</ele>
        <time>2011-11-27T11:31:47Z</time>
      </trkpt>
      <trkpt lat="44.01192" lon="4.32541">
        <ele>213.1</ele>
        <time>2011-11-27T11:31:49Z</time>
      </trkpt>
      <trkpt lat="44.01196" lon="4.32536">
        <ele>214</ele>
        <time>2011-11-27T11:31:51Z</time>
      </trkpt>
      <trkpt lat="44.01201" lon="4.32533">
        <ele>214.8</ele>
        <time>2011-11-27T11:31:53Z</time>
      </trkpt>
      <trkpt lat="44.01205" lon="4.32532">
        <ele>215.6</ele>
        <time>2011-11-27T11:31:55Z</time>
      </trkpt>
      <trkpt lat="44.0121" lon="4.32531">
        <ele>216.1</ele>
        <time>2011-11-27T11:31:57Z</time>
      </trkpt>
      <trkpt lat="44.01216" lon="4.32533">
        <ele>216.3</ele>
        <time>2011-11-27T11:32:00Z</time>
      </trkpt>
      <trkpt lat="44.01222" lon="4.32535">
        <ele>217.3</ele>
        <time>2011-11-27T11:32:03Z</time>
      </trkpt>
      <trkpt lat="44.01227" lon="4.32536">
        <ele>217.2</ele>
        <time>2011-11-27T11:32:05Z</time>
      </trkpt>
      <trkpt lat="44.01233" lon="4.32534">
        <ele>216.4</ele>
        <time>2011-11-27T11:32:07Z</time>
      </trkpt>
      <trkpt lat="44.01237" lon="4.32529">
        <ele>216.8</ele>
        <time>2011-11-27T11:32:10Z</time>
      </trkpt>
      <trkpt lat="44.01237" lon="4.32522">
        <ele>216.7</ele>
        <time>2011-11-27T11:32:25Z</time>
      </trkpt>
      <trkpt lat="44.01238" lon="4.32515">
        <ele>216.7</ele>
        <time>2011-11-27T11:32:27Z</time>
      </trkpt>
      <trkpt lat="44.0124" lon="4.32508">
        <ele>217.4</ele>
        <time>2011-11-27T11:32:29Z</time>
      </trkpt>
      <trkpt lat="44.01242" lon="4.325">
        <ele>217.9</ele>
        <time>2011-11-27T11:32:31Z</time>
      </trkpt>
      <trkpt lat="44.01242" lon="4.32494">
        <ele>218.3</ele>
        <time>2011-11-27T11:32:33Z</time>
      </trkpt>
      <trkpt lat="44.01243" lon="4.32487">
        <ele>218.8</ele>
        <time>2011-11-27T11:32:35Z</time>
      </trkpt>
      <trkpt lat="44.01243" lon="4.32479">
        <ele>219.1</ele>
        <time>2011-11-27T11:32:37Z</time>
      </trkpt>
      <trkpt lat="44.01243" lon="4.32471">
        <ele>219.4</ele>
        <time>2011-11-27T11:32:39Z</time>
      </trkpt>
      <trkpt lat="44.01243" lon="4.32462">
        <ele>219.8</ele>
        <time>2011-11-27T11:32:41Z</time>
      </trkpt>
      <trkpt lat="44.01242" lon="4.32452">
        <ele>220.1</ele>
        <time>2011-11-27T11:32:43Z</time>
      </trkpt>
      <trkpt lat="44.01242" lon="4.32442">
        <ele>220.4</ele>
        <time>2011-11-27T11:32:45Z</time>
      </trkpt>
      <trkpt lat="44.01242" lon="4.32431">
        <ele>220.8</ele>
        <time>2011-11-27T11:32:47Z</time>
      </trkpt>
      <trkpt lat="44.01241" lon="4.3242">
        <ele>221.1</ele>
        <time>2011-11-27T11:32:49Z</time>
      </trkpt>
      <trkpt lat="44.01241" lon="4.32408">
        <ele>221.3</ele>
        <time>2011-11-27T11:32:51Z</time>
      </trkpt>
      <trkpt lat="44.0124" lon="4.32397">
        <ele>221.2</ele>
        <time>2011-11-27T11:32:53Z</time>
      </trkpt>
      <trkpt lat="44.0124" lon="4.32385">
        <ele>221.1</ele>
        <time>2011-11-27T11:32:55Z</time>
      </trkpt>
      <trkpt lat="44.0124" lon="4.32374">
        <ele>221</ele>
        <time>2011-11-27T11:32:57Z</time>
      </trkpt>
      <trkpt lat="44.0124" lon="4.32364">
        <ele>220</ele>
        <time>2011-11-27T11:32:59Z</time>
      </trkpt>
      <trkpt lat="44.01241" lon="4.32353">
        <ele>219.3</ele>
        <time>2011-11-27T11:33:01Z</time>
      </trkpt>
      <trkpt lat="44.01242" lon="4.32343">
        <ele>219.1</ele>
        <time>2011-11-27T11:33:03Z</time>
      </trkpt>
      <trkpt lat="44.01243" lon="4.32336">
        <ele>219</ele>
        <time>2011-11-27T11:33:05Z</time>
      </trkpt>
      <trkpt lat="44.01244" lon="4.32329">
        <ele>219.1</ele>
        <time>2011-11-27T11:33:07Z</time>
      </trkpt>
      <trkpt lat="44.01244" lon="4.32322">
        <ele>219.1</ele>
        <time>2011-11-27T11:33:09Z</time>
      </trkpt>
      <trkpt lat="44.01245" lon="4.32316">
        <ele>219.2</ele>
        <time>2011-11-27T11:33:11Z</time>
      </trkpt>
      <trkpt lat="44.01246" lon="4.32309">
        <ele>219.3</ele>
        <time>2011-11-27T11:33:13Z</time>
      </trkpt>
      <trkpt lat="44.01246" lon="4.323">
        <ele>219.6</ele>
        <time>2011-11-27T11:33:16Z</time>
      </trkpt>
      <trkpt lat="44.01247" lon="4.3229">
        <ele>219.7</ele>
        <time>2011-11-27T11:33:19Z</time>
      </trkpt>
      <trkpt lat="44.01247" lon="4.32283">
        <ele>219.6</ele>
        <time>2011-11-27T11:33:21Z</time>
      </trkpt>
      <trkpt lat="44.01248" lon="4.32276">
        <ele>219.4</ele>
        <time>2011-11-27T11:33:23Z</time>
      </trkpt>
      <trkpt lat="44.01248" lon="4.3227">
        <ele>219.4</ele>
        <time>2011-11-27T11:33:25Z</time>
      </trkpt>
      <trkpt lat="44.01248" lon="4.32263">
        <ele>219.4</ele>
        <time>2011-11-27T11:33:27Z</time>
      </trkpt>
      <trkpt lat="44.01249" lon="4.32256">
        <ele>219.3</ele>
        <time>2011-11-27T11:33:29Z</time>
      </trkpt>
      <trkpt lat="44.01249" lon="4.32249">
        <ele>219</ele>
        <time>2011-11-27T11:33:31Z</time>
      </trkpt>
      <trkpt lat="44.01248" lon="4.32243">
        <ele>218.7</ele>
        <time>2011-11-27T11:33:33Z</time>
      </trkpt>
      <trkpt lat="44.01247" lon="4.32236">
        <ele>218.7</ele>
        <time>2011-11-27T11:33:35Z</time>
      </trkpt>
      <trkpt lat="44.01245" lon="4.32229">
        <ele>218.4</ele>
        <time>2011-11-27T11:33:37Z</time>
      </trkpt>
      <trkpt lat="44.01242" lon="4.32223">
        <ele>218.3</ele>
        <time>2011-11-27T11:33:39Z</time>
      </trkpt>
      <trkpt lat="44.0124" lon="4.32216">
        <ele>218.3</ele>
        <time>2011-11-27T11:33:41Z</time>
      </trkpt>
      <trkpt lat="44.01237" lon="4.3221">
        <ele>218.3</ele>
        <time>2011-11-27T11:33:43Z</time>
      </trkpt>
      <trkpt lat="44.01235" lon="4.32203">
        <ele>218.3</ele>
        <time>2011-11-27T11:33:45Z</time>
      </trkpt>
      <trkpt lat="44.01232" lon="4.32197">
        <ele>218</ele>
        <time>2011-11-27T11:33:48Z</time>
      </trkpt>
      <trkpt lat="44.01227" lon="4.32188">
        <ele>215.6</ele>
        <time>2011-11-27T11:35:22Z</time>
      </trkpt>
      <trkpt lat="44.01223" lon="4.32186">
        <ele>215.6</ele>
        <time>2011-11-27T11:35:24Z</time>
      </trkpt>
      <trkpt lat="44.01217" lon="4.32183">
        <ele>215.6</ele>
        <time>2011-11-27T11:35:26Z</time>
      </trkpt>
      <trkpt lat="44.01211" lon="4.3218">
        <ele>215.8</ele>
        <time>2011-11-27T11:35:28Z</time>
      </trkpt>
      <trkpt lat="44.01205" lon="4.32178">
        <ele>216.1</ele>
        <time>2011-11-27T11:35:30Z</time>
      </trkpt>
      <trkpt lat="44.01199" lon="4.32176">
        <ele>216.5</ele>
        <time>2011-11-27T11:35:32Z</time>
      </trkpt>
      <trkpt lat="44.01193" lon="4.32173">
        <ele>216.6</ele>
        <time>2011-11-27T11:35:34Z</time>
      </trkpt>
      <trkpt lat="44.01187" lon="4.3217">
        <ele>216.8</ele>
        <time>2011-11-27T11:35:36Z</time>
      </trkpt>
      <trkpt lat="44.01182" lon="4.32167">
        <ele>217.1</ele>
        <time>2011-11-27T11:35:38Z</time>
      </trkpt>
      <trkpt lat="44.01176" lon="4.32164">
        <ele>217.3</ele>
        <time>2011-11-27T11:35:40Z</time>
      </trkpt>
      <trkpt lat="44.01169" lon="4.3216">
        <ele>217.4</ele>
        <time>2011-11-27T11:35:42Z</time>
      </trkpt>
      <trkpt lat="44.01162" lon="4.32157">
        <ele>217.6</ele>
        <time>2011-11-27T11:35:44Z</time>
      </trkpt>
      <trkpt lat="44.01155" lon="4.32156">
        <ele>217.6</ele>
        <time>2011-11-27T11:35:46Z</time>
      </trkpt>
      <trkpt lat="44.01147" lon="4.32156">
        <ele>217.1</ele>
        <time>2011-11-27T11:35:48Z</time>
      </trkpt>
      <trkpt lat="44.01139" lon="4.32158">
        <ele>216.6</ele>
        <time>2011-11-27T11:35:50Z</time>
      </trkpt>
      <trkpt lat="44.0113" lon="4.32161">
        <ele>216.4</ele>
        <time>2011-11-27T11:35:52Z</time>
      </trkpt>
      <trkpt lat="44.01125" lon="4.32163">
        <ele>216</ele>
        <time>2011-11-27T11:35:53Z</time>
      </trkpt>
      <trkpt lat="44.0112" lon="4.32165">
        <ele>215.6</ele>
        <time>2011-11-27T11:35:54Z</time>
      </trkpt>
      <trkpt lat="44.01114" lon="4.32167">
        <ele>215.2</ele>
        <time>2011-11-27T11:35:55Z</time>
      </trkpt>
      <trkpt lat="44.01108" lon="4.32169">
        <ele>214.7</ele>
        <time>2011-11-27T11:35:56Z</time>
      </trkpt>
      <trkpt lat="44.01102" lon="4.32172">
        <ele>214.3</ele>
        <time>2011-11-27T11:35:57Z</time>
      </trkpt>
      <trkpt lat="44.01097" lon="4.32175">
        <ele>213.9</ele>
        <time>2011-11-27T11:35:58Z</time>
      </trkpt>
      <trkpt lat="44.0109" lon="4.32178">
        <ele>213.3</ele>
        <time>2011-11-27T11:35:59Z</time>
      </trkpt>
      <trkpt lat="44.01084" lon="4.32181">
        <ele>212.5</ele>
        <time>2011-11-27T11:36:00Z</time>
      </trkpt>
      <trkpt lat="44.01078" lon="4.32184">
        <ele>211.9</ele>
        <time>2011-11-27T11:36:01Z</time>
      </trkpt>
      <trkpt lat="44.01073" lon="4.32186">
        <ele>211.2</ele>
        <time>2011-11-27T11:36:02Z</time>
      </trkpt>
      <trkpt lat="44.01067" lon="4.32189">
        <ele>210.7</ele>
        <time>2011-11-27T11:36:03Z</time>
      </trkpt>
      <trkpt lat="44.01061" lon="4.32191">
        <ele>210.1</ele>
        <time>2011-11-27T11:36:04Z</time>
      </trkpt>
      <trkpt lat="44.01056" lon="4.32195">
        <ele>209.6</ele>
        <time>2011-11-27T11:36:05Z</time>
      </trkpt>
      <trkpt lat="44.0105" lon="4.32198">
        <ele>209</ele>
        <time>2011-11-27T11:36:06Z</time>
      </trkpt>
      <trkpt lat="44.01045" lon="4.32203">
        <ele>208.4</ele>
        <time>2011-11-27T11:36:07Z</time>
      </trkpt>
      <trkpt lat="44.0104" lon="4.32208">
        <ele>207.6</ele>
        <time>2011-11-27T11:36:08Z</time>
      </trkpt>
      <trkpt lat="44.01035" lon="4.32215">
        <ele>206.9</ele>
        <time>2011-11-27T11:36:09Z</time>
      </trkpt>
      <trkpt lat="44.0103" lon="4.32221">
        <ele>206.2</ele>
        <time>2011-11-27T11:36:10Z</time>
      </trkpt>
      <trkpt lat="44.01024" lon="4.32228">
        <ele>205.6</ele>
        <time>2011-11-27T11:36:11Z</time>
      </trkpt>
      <trkpt lat="44.01019" lon="4.32235">
        <ele>204.9</ele>
        <time>2011-11-27T11:36:12Z</time>
      </trkpt>
      <trkpt lat="44.01013" lon="4.32241">
        <ele>204.4</ele>
        <time>2011-11-27T11:36:13Z</time>
      </trkpt>
      <trkpt lat="44.01008" lon="4.32246">
        <ele>204</ele>
        <time>2011-11-27T11:36:14Z</time>
      </trkpt>
      <trkpt lat="44.01002" lon="4.32251">
        <ele>203.5</ele>
        <time>2011-11-27T11:36:15Z</time>
      </trkpt>
      <trkpt lat="44.00996" lon="4.32255">
        <ele>203</ele>
        <time>2011-11-27T11:36:16Z</time>
      </trkpt>
      <trkpt lat="44.00989" lon="4.32259">
        <ele>202.4</ele>
        <time>2011-11-27T11:36:17Z</time>
      </trkpt>
      <trkpt lat="44.00956" lon="4.32276">
        <ele>202.1</ele>
        <time>2011-11-27T11:36:18Z</time>
      </trkpt>
      <trkpt lat="44.00949" lon="4.3228">
        <ele>201.5</ele>
        <time>2011-11-27T11:36:19Z</time>
      </trkpt>
      <trkpt lat="44.00942" lon="4.32283">
        <ele>201</ele>
        <time>2011-11-27T11:36:20Z</time>
      </trkpt>
      <trkpt lat="44.00934" lon="4.32287">
        <ele>200.3</ele>
        <time>2011-11-27T11:36:21Z</time>
      </trkpt>
      <trkpt lat="44.00927" lon="4.3229">
        <ele>199.3</ele>
        <time>2011-11-27T11:36:22Z</time>
      </trkpt>
      <trkpt lat="44.0092" lon="4.32294">
        <ele>198.3</ele>
        <time>2011-11-27T11:36:23Z</time>
      </trkpt>
      <trkpt lat="44.00912" lon="4.32297">
        <ele>197.3</ele>
        <time>2011-11-27T11:36:24Z</time>
      </trkpt>
      <trkpt lat="44.00905" lon="4.323">
        <ele>196.4</ele>
        <time>2011-11-27T11:36:25Z</time>
      </trkpt>
      <trkpt lat="44.00898" lon="4.32302">
        <ele>195.8</ele>
        <time>2011-11-27T11:36:26Z</time>
      </trkpt>
      <trkpt lat="44.00891" lon="4.32304">
        <ele>195.3</ele>
        <time>2011-11-27T11:36:27Z</time>
      </trkpt>
      <trkpt lat="44.00884" lon="4.32306">
        <ele>194.9</ele>
        <time>2011-11-27T11:36:28Z</time>
      </trkpt>
      <trkpt lat="44.00876" lon="4.32307">
        <ele>194.6</ele>
        <time>2011-11-27T11:36:29Z</time>
      </trkpt>
      <trkpt lat="44.00868" lon="4.32307">
        <ele>194.4</ele>
        <time>2011-11-27T11:36:30Z</time>
      </trkpt>
      <trkpt lat="44.0086" lon="4.32308">
        <ele>194.1</ele>
        <time>2011-11-27T11:36:31Z</time>
      </trkpt>
      <trkpt lat="44.00853" lon="4.32309">
        <ele>193.7</ele>
        <time>2011-11-27T11:36:32Z</time>
      </trkpt>
      <trkpt lat="44.00846" lon="4.3231">
        <ele>193.4</ele>
        <time>2011-11-27T11:36:33Z</time>
      </trkpt>
      <trkpt lat="44.00839" lon="4.32311">
        <ele>193.4</ele>
        <time>2011-11-27T11:36:34Z</time>
      </trkpt>
      <trkpt lat="44.00833" lon="4.32312">
        <ele>193.2</ele>
        <time>2011-11-27T11:36:35Z</time>
      </trkpt>
      <trkpt lat="44.00827" lon="4.32312">
        <ele>193</ele>
        <time>2011-11-27T11:36:36Z</time>
      </trkpt>
      <trkpt lat="44.00821" lon="4.32312">
        <ele>192.7</ele>
        <time>2011-11-27T11:36:37Z</time>
      </trkpt>
      <trkpt lat="44.00814" lon="4.32309">
        <ele>192.3</ele>
        <time>2011-11-27T11:36:38Z</time>
      </trkpt>
      <trkpt lat="44.00808" lon="4.32305">
        <ele>192</ele>
        <time>2011-11-27T11:36:39Z</time>
      </trkpt>
      <trkpt lat="44.00803" lon="4.32299">
        <ele>191.8</ele>
        <time>2011-11-27T11:36:40Z</time>
      </trkpt>
      <trkpt lat="44.00798" lon="4.32292">
        <ele>191.7</ele>
        <time>2011-11-27T11:36:41Z</time>
      </trkpt>
      <trkpt lat="44.00795" lon="4.32285">
        <ele>191.6</ele>
        <time>2011-11-27T11:36:42Z</time>
      </trkpt>
      <trkpt lat="44.00792" lon="4.32276">
        <ele>191.6</ele>
        <time>2011-11-27T11:36:44Z</time>
      </trkpt>
      <trkpt lat="44.00786" lon="4.32269">
        <ele>191.6</ele>
        <time>2011-11-27T11:36:46Z</time>
      </trkpt>
      <trkpt lat="44.00778" lon="4.32267">
        <ele>191.7</ele>
        <time>2011-11-27T11:36:48Z</time>
      </trkpt>
      <trkpt lat="44.00772" lon="4.32268">
        <ele>191.4</ele>
        <time>2011-11-27T11:36:50Z</time>
      </trkpt>
      <trkpt lat="44.00767" lon="4.32271">
        <ele>191.5</ele>
        <time>2011-11-27T11:36:52Z</time>
      </trkpt>
      <trkpt lat="44.00762" lon="4.32276">
        <ele>191.2</ele>
        <time>2011-11-27T11:36:54Z</time>
      </trkpt>
      <trkpt lat="44.00757" lon="4.32281">
        <ele>191.3</ele>
        <time>2011-11-27T11:36:56Z</time>
      </trkpt>
      <trkpt lat="44.00753" lon="4.32285">
        <ele>191.1</ele>
        <time>2011-11-27T11:36:58Z</time>
      </trkpt>
      <trkpt lat="44.0075" lon="4.32289">
        <ele>190</ele>
        <time>2011-11-27T11:37:00Z</time>
      </trkpt>
      <trkpt lat="44.00744" lon="4.32296">
        <ele>189.7</ele>
        <time>2011-11-27T11:37:02Z</time>
      </trkpt>
      <trkpt lat="44.00737" lon="4.32301">
        <ele>189.4</ele>
        <time>2011-11-27T11:37:04Z</time>
      </trkpt>
      <trkpt lat="44.00731" lon="4.32302">
        <ele>188.6</ele>
        <time>2011-11-27T11:37:06Z</time>
      </trkpt>
      <trkpt lat="44.00722" lon="4.32302">
        <ele>188.2</ele>
        <time>2011-11-27T11:37:08Z</time>
      </trkpt>
      <trkpt lat="44.00717" lon="4.32301">
        <ele>188.2</ele>
        <time>2011-11-27T11:37:09Z</time>
      </trkpt>
      <trkpt lat="44.00712" lon="4.323">
        <ele>188.1</ele>
        <time>2011-11-27T11:37:10Z</time>
      </trkpt>
      <trkpt lat="44.00707" lon="4.32298">
        <ele>188</ele>
        <time>2011-11-27T11:37:11Z</time>
      </trkpt>
      <trkpt lat="44.00701" lon="4.32296">
        <ele>187.6</ele>
        <time>2011-11-27T11:37:12Z</time>
      </trkpt>
      <trkpt lat="44.00694" lon="4.32294">
        <ele>187.4</ele>
        <time>2011-11-27T11:37:13Z</time>
      </trkpt>
      <trkpt lat="44.00688" lon="4.32292">
        <ele>187.2</ele>
        <time>2011-11-27T11:37:14Z</time>
      </trkpt>
      <trkpt lat="44.00681" lon="4.32289">
        <ele>186.8</ele>
        <time>2011-11-27T11:37:15Z</time>
      </trkpt>
      <trkpt lat="44.00674" lon="4.32286">
        <ele>186.3</ele>
        <time>2011-11-27T11:37:16Z</time>
      </trkpt>
      <trkpt lat="44.00666" lon="4.32282">
        <ele>185.8</ele>
        <time>2011-11-27T11:37:17Z</time>
      </trkpt>
      <trkpt lat="44.00631" lon="4.32269">
        <ele>185.5</ele>
        <time>2011-11-27T11:37:18Z</time>
      </trkpt>
      <trkpt lat="44.00624" lon="4.32266">
        <ele>185.2</ele>
        <time>2011-11-27T11:37:19Z</time>
      </trkpt>
      <trkpt lat="44.00616" lon="4.32264">
        <ele>184.6</ele>
        <time>2011-11-27T11:37:20Z</time>
      </trkpt>
      <trkpt lat="44.00609" lon="4.32261">
        <ele>183.2</ele>
        <time>2011-11-27T11:37:21Z</time>
      </trkpt>
      <trkpt lat="44.00602" lon="4.32259">
        <ele>182.4</ele>
        <time>2011-11-27T11:37:22Z</time>
      </trkpt>
      <trkpt lat="44.00598" lon="4.32257">
        <ele>180.8</ele>
        <time>2011-11-27T11:37:23Z</time>
      </trkpt>
      <trkpt lat="44.00594" lon="4.3225">
        <ele>179.6</ele>
        <time>2011-11-27T11:37:25Z</time>
      </trkpt>
      <trkpt lat="44.00595" lon="4.32241">
        <ele>180.4</ele>
        <time>2011-11-27T11:37:27Z</time>
      </trkpt>
      <trkpt lat="44.00597" lon="4.32232">
        <ele>181</ele>
        <time>2011-11-27T11:37:29Z</time>
      </trkpt>
      <trkpt lat="44.00599" lon="4.32224">
        <ele>180.7</ele>
        <time>2011-11-27T11:37:31Z</time>
      </trkpt>
      <trkpt lat="44.006" lon="4.32218">
        <ele>180.2</ele>
        <time>2011-11-27T11:37:33Z</time>
      </trkpt>
      <trkpt lat="44.00601" lon="4.3221">
        <ele>179.1</ele>
        <time>2011-11-27T11:37:36Z</time>
      </trkpt>
      <trkpt lat="44.00601" lon="4.32203">
        <ele>178.4</ele>
        <time>2011-11-27T11:37:39Z</time>
      </trkpt>
      <trkpt lat="44.00599" lon="4.32187">
        <ele>177.7</ele>
        <time>2011-11-27T11:38:41Z</time>
      </trkpt>
      <trkpt lat="44.00598" lon="4.32179">
        <ele>177.7</ele>
        <time>2011-11-27T11:38:44Z</time>
      </trkpt>
      <trkpt lat="44.00597" lon="4.32171">
        <ele>177.7</ele>
        <time>2011-11-27T11:38:46Z</time>
      </trkpt>
      <trkpt lat="44.00594" lon="4.32161">
        <ele>177.7</ele>
        <time>2011-11-27T11:38:48Z</time>
      </trkpt>
      <trkpt lat="44.00591" lon="4.3215">
        <ele>178</ele>
        <time>2011-11-27T11:38:50Z</time>
      </trkpt>
      <trkpt lat="44.00588" lon="4.3214">
        <ele>178.4</ele>
        <time>2011-11-27T11:38:52Z</time>
      </trkpt>
      <trkpt lat="44.00585" lon="4.32132">
        <ele>179</ele>
        <time>2011-11-27T11:38:54Z</time>
      </trkpt>
      <trkpt lat="44.0058" lon="4.32124">
        <ele>179.4</ele>
        <time>2011-11-27T11:38:56Z</time>
      </trkpt>
      <trkpt lat="44.00575" lon="4.32118">
        <ele>180</ele>
        <time>2011-11-27T11:38:58Z</time>
      </trkpt>
      <trkpt lat="44.0057" lon="4.32111">
        <ele>180.1</ele>
        <time>2011-11-27T11:39:00Z</time>
      </trkpt>
      <trkpt lat="44.00564" lon="4.32105">
        <ele>180.1</ele>
        <time>2011-11-27T11:39:02Z</time>
      </trkpt>
      <trkpt lat="44.00559" lon="4.321">
        <ele>180.9</ele>
        <time>2011-11-27T11:39:04Z</time>
      </trkpt>
      <trkpt lat="44.00554" lon="4.32094">
        <ele>181.6</ele>
        <time>2011-11-27T11:39:06Z</time>
      </trkpt>
      <trkpt lat="44.00549" lon="4.3209">
        <ele>181.9</ele>
        <time>2011-11-27T11:39:08Z</time>
      </trkpt>
      <trkpt lat="44.00543" lon="4.32082">
        <ele>181.5</ele>
        <time>2011-11-27T11:39:10Z</time>
      </trkpt>
      <trkpt lat="44.00539" lon="4.32072">
        <ele>180.8</ele>
        <time>2011-11-27T11:39:12Z</time>
      </trkpt>
      <trkpt lat="44.00536" lon="4.3206">
        <ele>180.3</ele>
        <time>2011-11-27T11:39:14Z</time>
      </trkpt>
      <trkpt lat="44.00535" lon="4.32048">
        <ele>179.6</ele>
        <time>2011-11-27T11:39:16Z</time>
      </trkpt>
      <trkpt lat="44.00534" lon="4.32036">
        <ele>179.3</ele>
        <time>2011-11-27T11:39:18Z</time>
      </trkpt>
      <trkpt lat="44.00533" lon="4.32025">
        <ele>179</ele>
        <time>2011-11-27T11:39:20Z</time>
      </trkpt>
      <trkpt lat="44.00532" lon="4.32014">
        <ele>179.1</ele>
        <time>2011-11-27T11:39:22Z</time>
      </trkpt>
      <trkpt lat="44.0053" lon="4.32003">
        <ele>179.1</ele>
        <time>2011-11-27T11:39:24Z</time>
      </trkpt>
      <trkpt lat="44.00528" lon="4.31991">
        <ele>179.2</ele>
        <time>2011-11-27T11:39:26Z</time>
      </trkpt>
      <trkpt lat="44.00526" lon="4.31979">
        <ele>179.3</ele>
        <time>2011-11-27T11:39:28Z</time>
      </trkpt>
      <trkpt lat="44.00525" lon="4.31967">
        <ele>179.4</ele>
        <time>2011-11-27T11:39:30Z</time>
      </trkpt>
      <trkpt lat="44.00524" lon="4.31955">
        <ele>179.3</ele>
        <time>2011-11-27T11:39:32Z</time>
      </trkpt>
      <trkpt lat="44.00522" lon="4.31946">
        <ele>179.4</ele>
        <time>2011-11-27T11:39:34Z</time>
      </trkpt>
      <trkpt lat="44.00522" lon="4.31939">
        <ele>179.4</ele>
        <time>2011-11-27T11:39:36Z</time>
      </trkpt>
      <trkpt lat="44.00521" lon="4.31931">
        <ele>179.4</ele>
        <time>2011-11-27T11:39:40Z</time>
      </trkpt>
      <trkpt lat="44.00521" lon="4.31921">
        <ele>179.6</ele>
        <time>2011-11-27T11:39:43Z</time>
      </trkpt>
      <trkpt lat="44.0052" lon="4.31913">
        <ele>179.5</ele>
        <time>2011-11-27T11:39:45Z</time>
      </trkpt>
      <trkpt lat="44.0052" lon="4.31906">
        <ele>179.5</ele>
        <time>2011-11-27T11:39:47Z</time>
      </trkpt>
      <trkpt lat="44.00521" lon="4.31898">
        <ele>179.8</ele>
        <time>2011-11-27T11:39:49Z</time>
      </trkpt>
      <trkpt lat="44.00521" lon="4.3189">
        <ele>180</ele>
        <time>2011-11-27T11:39:51Z</time>
      </trkpt>
      <trkpt lat="44.00522" lon="4.31881">
        <ele>180.1</ele>
        <time>2011-11-27T11:39:53Z</time>
      </trkpt>
      <trkpt lat="44.00522" lon="4.31872">
        <ele>180</ele>
        <time>2011-11-27T11:39:55Z</time>
      </trkpt>
      <trkpt lat="44.00523" lon="4.31863">
        <ele>179.9</ele>
        <time>2011-11-27T11:39:57Z</time>
      </trkpt>
      <trkpt lat="44.00524" lon="4.31854">
        <ele>179.9</ele>
        <time>2011-11-27T11:39:59Z</time>
      </trkpt>
      <trkpt lat="44.00526" lon="4.31845">
        <ele>180</ele>
        <time>2011-11-27T11:40:01Z</time>
      </trkpt>
      <trkpt lat="44.00527" lon="4.31836">
        <ele>180.1</ele>
        <time>2011-11-27T11:40:03Z</time>
      </trkpt>
      <trkpt lat="44.00528" lon="4.31828">
        <ele>180.3</ele>
        <time>2011-11-27T11:40:05Z</time>
      </trkpt>
      <trkpt lat="44.00529" lon="4.31819">
        <ele>180.4</ele>
        <time>2011-11-27T11:40:07Z</time>
      </trkpt>
      <trkpt lat="44.0053" lon="4.31811">
        <ele>180.4</ele>
        <time>2011-11-27T11:40:09Z</time>
      </trkpt>
      <trkpt lat="44.00532" lon="4.31803">
        <ele>180.5</ele>
        <time>2011-11-27T11:40:11Z</time>
      </trkpt>
      <trkpt lat="44.00534" lon="4.31796">
        <ele>180.5</ele>
        <time>2011-11-27T11:40:13Z</time>
      </trkpt>
      <trkpt lat="44.00538" lon="4.3179">
        <ele>181</ele>
        <time>2011-11-27T11:40:15Z</time>
      </trkpt>
      <trkpt lat="44.00541" lon="4.31786">
        <ele>181.2</ele>
        <time>2011-11-27T11:40:17Z</time>
      </trkpt>
      <trkpt lat="44.00545" lon="4.31781">
        <ele>181.3</ele>
        <time>2011-11-27T11:40:19Z</time>
      </trkpt>
      <trkpt lat="44.0055" lon="4.31775">
        <ele>181.4</ele>
        <time>2011-11-27T11:40:21Z</time>
      </trkpt>
      <trkpt lat="44.00555" lon="4.31768">
        <ele>181.5</ele>
        <time>2011-11-27T11:40:23Z</time>
      </trkpt>
      <trkpt lat="44.0056" lon="4.31759">
        <ele>181.9</ele>
        <time>2011-11-27T11:40:25Z</time>
      </trkpt>
      <trkpt lat="44.00566" lon="4.31752">
        <ele>182.1</ele>
        <time>2011-11-27T11:40:27Z</time>
      </trkpt>
      <trkpt lat="44.00573" lon="4.31745">
        <ele>182.2</ele>
        <time>2011-11-27T11:40:29Z</time>
      </trkpt>
      <trkpt lat="44.00578" lon="4.31738">
        <ele>182.5</ele>
        <time>2011-11-27T11:40:31Z</time>
      </trkpt>
      <trkpt lat="44.00583" lon="4.31731">
        <ele>182.9</ele>
        <time>2011-11-27T11:40:33Z</time>
      </trkpt>
      <trkpt lat="44.00587" lon="4.31726">
        <ele>183.3</ele>
        <time>2011-11-27T11:40:35Z</time>
      </trkpt>
      <trkpt lat="44.00591" lon="4.31726">
        <ele>183.9</ele>
        <time>2011-11-27T11:40:38Z</time>
      </trkpt>
    </trkseg>
  </trk>
</gpx>